<?xml version='1.0' encoding='UTF-8'?><gpx version="1.1" creator="JPX - https://github.com/jenetics/jpx" xmlns="http://www.topografix.com/GPX/1/1"><trk><trkseg><trkpt lat="36.9670523" lon="15.0947127"><ele>501.0</ele><time>2026-04-04T14:08:51.987Z</time></trkpt><trkpt lat="36.9669882" lon="15.0947039"><ele>501.0</ele><time>2026-04-04T14:08:52.987Z</time></trkpt><trkpt lat="36.9669227" lon="15.0946898"><ele>501.0</ele><time>2026-04-04T14:08:53.987Z</time></trkpt><trkpt lat="36.9668566" lon="15.0946762"><ele>501.0</ele><time>2026-04-04T14:08:54.987Z</time></trkpt><trkpt lat="36.9667873" lon="15.0946553"><ele>501.0</ele><time>2026-04-04T14:08:55.986Z</time></trkpt><trkpt lat="36.9667111" lon="15.0946254"><ele>501.0</ele><time>2026-04-04T14:08:56.987Z</time></trkpt><trkpt lat="36.9666343" lon="15.0945919"><ele>501.0</ele><time>2026-04-04T14:08:57.987Z</time></trkpt><trkpt lat="36.9665536" lon="15.0945748"><ele>501.4</ele><time>2026-04-04T14:08:58.987Z</time></trkpt><trkpt lat="36.9664659" lon="15.0945573"><ele>501.8</ele><time>2026-04-04T14:08:59.987Z</time></trkpt><trkpt lat="36.9663833" lon="15.0945424"><ele>502.19999999999993</ele><time>2026-04-04T14:09:00.987Z</time></trkpt><trkpt lat="36.9663029" lon="15.0945144"><ele>502.59999999999997</ele><time>2026-04-04T14:09:01.987Z</time></trkpt><trkpt lat="36.966214" lon="15.0944763"><ele>503.0</ele><time>2026-04-04T14:09:02.987Z</time></trkpt><trkpt lat="36.9661181" lon="15.094427"><ele>503.0</ele><time>2026-04-04T14:09:03.987Z</time></trkpt><trkpt lat="36.9660193" lon="15.0943796"><ele>503.0</ele><time>2026-04-04T14:09:04.987Z</time></trkpt><trkpt lat="36.9659137" lon="15.0943458"><ele>503.0</ele><time>2026-04-04T14:09:05.987Z</time></trkpt><trkpt lat="36.9657934" lon="15.0943228"><ele>503.0</ele><time>2026-04-04T14:09:06.987Z</time></trkpt><trkpt lat="36.9656563" lon="15.0942997"><ele>501.25</ele><time>2026-04-04T14:09:07.987Z</time></trkpt><trkpt lat="36.965519" lon="15.0942684"><ele>499.5</ele><time>2026-04-04T14:09:08.987Z</time></trkpt><trkpt lat="36.9653752" lon="15.0942246"><ele>497.75</ele><time>2026-04-04T14:09:09.987Z</time></trkpt><trkpt lat="36.9652289" lon="15.094169"><ele>496.0</ele><time>2026-04-04T14:09:10.987Z</time></trkpt><trkpt lat="36.9650767" lon="15.0941073"><ele>494.25</ele><time>2026-04-04T14:09:11.987Z</time></trkpt><trkpt lat="36.9649322" lon="15.0940515"><ele>492.5</ele><time>2026-04-04T14:09:12.987Z</time></trkpt><trkpt lat="36.9648022" lon="15.0940071"><ele>490.75</ele><time>2026-04-04T14:09:13.987Z</time></trkpt><trkpt lat="36.9646829" lon="15.0939824"><ele>489.0</ele><time>2026-04-04T14:09:14.986Z</time></trkpt><trkpt lat="36.9645623" lon="15.093984"><ele>489.0</ele><time>2026-04-04T14:09:15.987Z</time></trkpt><trkpt lat="36.964451" lon="15.0940078"><ele>489.0</ele><time>2026-04-04T14:09:16.987Z</time></trkpt><trkpt lat="36.9643538" lon="15.0940378"><ele>489.0</ele><time>2026-04-04T14:09:17.987Z</time></trkpt><trkpt lat="36.9642652" lon="15.0940586"><ele>489.0</ele><time>2026-04-04T14:09:18.987Z</time></trkpt><trkpt lat="36.9641772" lon="15.0940501"><ele>489.0</ele><time>2026-04-04T14:09:19.987Z</time></trkpt><trkpt lat="36.9640951" lon="15.0940003"><ele>490.0</ele><time>2026-04-04T14:09:20.987Z</time></trkpt><trkpt lat="36.9640195" lon="15.0939054"><ele>491.0</ele><time>2026-04-04T14:09:21.987Z</time></trkpt><trkpt lat="36.9639529" lon="15.0937894"><ele>492.0</ele><time>2026-04-04T14:09:22.987Z</time></trkpt><trkpt lat="36.9639028" lon="15.0936794"><ele>493.0</ele><time>2026-04-04T14:09:23.987Z</time></trkpt><trkpt lat="36.9638646" lon="15.0935851"><ele>494.0</ele><time>2026-04-04T14:09:24.987Z</time></trkpt><trkpt lat="36.9638409" lon="15.0935058"><ele>494.0</ele><time>2026-04-04T14:09:25.987Z</time></trkpt><trkpt lat="36.9638304" lon="15.0934015"><ele>494.0</ele><time>2026-04-04T14:09:27.987Z</time></trkpt><trkpt lat="36.9638522" lon="15.0933035"><ele>494.0</ele><time>2026-04-04T14:09:29.988Z</time></trkpt><trkpt lat="36.9638868" lon="15.0932206"><ele>494.0</ele><time>2026-04-04T14:09:30.987Z</time></trkpt><trkpt lat="36.9639337" lon="15.0931201"><ele>494.0</ele><time>2026-04-04T14:09:31.987Z</time></trkpt><trkpt lat="36.963996" lon="15.0929857"><ele>493.75</ele><time>2026-04-04T14:09:32.987Z</time></trkpt><trkpt lat="36.9640628" lon="15.0928343"><ele>493.5</ele><time>2026-04-04T14:09:33.987Z</time></trkpt><trkpt lat="36.9641309" lon="15.0926879"><ele>493.25</ele><time>2026-04-04T14:09:34.988Z</time></trkpt><trkpt lat="36.9641876" lon="15.0925495"><ele>493.0</ele><time>2026-04-04T14:09:35.987Z</time></trkpt><trkpt lat="36.9642408" lon="15.0924281"><ele>493.6666666666667</ele><time>2026-04-04T14:09:36.987Z</time></trkpt><trkpt lat="36.9642818" lon="15.0923174"><ele>494.33333333333337</ele><time>2026-04-04T14:09:37.987Z</time></trkpt><trkpt lat="36.9643108" lon="15.0922199"><ele>495.0</ele><time>2026-04-04T14:09:38.988Z</time></trkpt><trkpt lat="36.9643335" lon="15.0921241"><ele>495.66666666666663</ele><time>2026-04-04T14:09:39.987Z</time></trkpt><trkpt lat="36.9643457" lon="15.0920356"><ele>496.3333333333333</ele><time>2026-04-04T14:09:40.987Z</time></trkpt><trkpt lat="36.9643421" lon="15.0919487"><ele>497.0</ele><time>2026-04-04T14:09:41.987Z</time></trkpt><trkpt lat="36.9643452" lon="15.0918696"><ele>496.99999999999994</ele><time>2026-04-04T14:09:42.988Z</time></trkpt><trkpt lat="36.9643615" lon="15.0917924"><ele>497.0</ele><time>2026-04-04T14:09:43.987Z</time></trkpt><trkpt lat="36.9643825" lon="15.0917146"><ele>497.0</ele><time>2026-04-04T14:09:44.987Z</time></trkpt><trkpt lat="36.9644013" lon="15.0916358"><ele>497.0</ele><time>2026-04-04T14:09:45.987Z</time></trkpt><trkpt lat="36.9644503" lon="15.0914831"><ele>496.99999999999994</ele><time>2026-04-04T14:09:47.986Z</time></trkpt><trkpt lat="36.9644811" lon="15.0914049"><ele>497.0</ele><time>2026-04-04T14:09:48.988Z</time></trkpt><trkpt lat="36.9645193" lon="15.0913267"><ele>497.66666666666663</ele><time>2026-04-04T14:09:49.986Z</time></trkpt><trkpt lat="36.9645584" lon="15.0912528"><ele>498.3333333333333</ele><time>2026-04-04T14:09:50.988Z</time></trkpt><trkpt lat="36.9645986" lon="15.0911748"><ele>499.0</ele><time>2026-04-04T14:09:51.987Z</time></trkpt><trkpt lat="36.9646376" lon="15.0910922"><ele>499.66666666666663</ele><time>2026-04-04T14:09:52.987Z</time></trkpt><trkpt lat="36.964675" lon="15.0910106"><ele>500.3333333333333</ele><time>2026-04-04T14:09:53.987Z</time></trkpt><trkpt lat="36.9647141" lon="15.0909236"><ele>501.0</ele><time>2026-04-04T14:09:54.987Z</time></trkpt><trkpt lat="36.9647531" lon="15.0908357"><ele>501.3333333333333</ele><time>2026-04-04T14:09:55.987Z</time></trkpt><trkpt lat="36.9647945" lon="15.0907466"><ele>501.66666666666663</ele><time>2026-04-04T14:09:56.988Z</time></trkpt><trkpt lat="36.9648369" lon="15.090658"><ele>502.0</ele><time>2026-04-04T14:09:57.987Z</time></trkpt><trkpt lat="36.9648792" lon="15.0905689"><ele>502.3333333333333</ele><time>2026-04-04T14:09:58.986Z</time></trkpt><trkpt lat="36.964926" lon="15.0904782"><ele>502.66666666666663</ele><time>2026-04-04T14:09:59.987Z</time></trkpt><trkpt lat="36.96497" lon="15.0903879"><ele>503.0</ele><time>2026-04-04T14:10:00.987Z</time></trkpt><trkpt lat="36.9650132" lon="15.0902946"><ele>502.4</ele><time>2026-04-04T14:10:01.987Z</time></trkpt><trkpt lat="36.9650428" lon="15.0901932"><ele>501.79999999999995</ele><time>2026-04-04T14:10:02.987Z</time></trkpt><trkpt lat="36.9650688" lon="15.090084"><ele>501.2</ele><time>2026-04-04T14:10:03.987Z</time></trkpt><trkpt lat="36.965081" lon="15.0899683"><ele>500.6</ele><time>2026-04-04T14:10:04.987Z</time></trkpt><trkpt lat="36.9650916" lon="15.0898494"><ele>500.0</ele><time>2026-04-04T14:10:05.987Z</time></trkpt><trkpt lat="36.9650935" lon="15.0897193"><ele>500.0</ele><time>2026-04-04T14:10:06.987Z</time></trkpt><trkpt lat="36.9650921" lon="15.0895898"><ele>500.0</ele><time>2026-04-04T14:10:07.988Z</time></trkpt><trkpt lat="36.9650907" lon="15.0894507"><ele>500.0</ele><time>2026-04-04T14:10:08.988Z</time></trkpt><trkpt lat="36.9650898" lon="15.0892984"><ele>500.0</ele><time>2026-04-04T14:10:09.987Z</time></trkpt><trkpt lat="36.9650915" lon="15.0891367"><ele>500.0</ele><time>2026-04-04T14:10:10.987Z</time></trkpt><trkpt lat="36.9650959" lon="15.0889737"><ele>500.0</ele><time>2026-04-04T14:10:11.987Z</time></trkpt><trkpt lat="36.9651003" lon="15.0888014"><ele>500.0</ele><time>2026-04-04T14:10:12.988Z</time></trkpt><trkpt lat="36.9651025" lon="15.0886289"><ele>500.0</ele><time>2026-04-04T14:10:13.987Z</time></trkpt><trkpt lat="36.965107" lon="15.0884556"><ele>500.0</ele><time>2026-04-04T14:10:14.987Z</time></trkpt><trkpt lat="36.9651132" lon="15.0882912"><ele>500.0</ele><time>2026-04-04T14:10:15.988Z</time></trkpt><trkpt lat="36.9651172" lon="15.0881374"><ele>500.0</ele><time>2026-04-04T14:10:16.986Z</time></trkpt><trkpt lat="36.9651193" lon="15.0879887"><ele>500.0</ele><time>2026-04-04T14:10:17.987Z</time></trkpt><trkpt lat="36.9651331" lon="15.087852"><ele>500.2</ele><time>2026-04-04T14:10:18.986Z</time></trkpt><trkpt lat="36.9651747" lon="15.0877236"><ele>500.4</ele><time>2026-04-04T14:10:19.987Z</time></trkpt><trkpt lat="36.9652446" lon="15.0876173"><ele>500.6</ele><time>2026-04-04T14:10:20.987Z</time></trkpt><trkpt lat="36.9653413" lon="15.0875343"><ele>500.8</ele><time>2026-04-04T14:10:21.988Z</time></trkpt><trkpt lat="36.9654302" lon="15.0874527"><ele>501.0</ele><time>2026-04-04T14:10:22.987Z</time></trkpt><trkpt lat="36.9655109" lon="15.0873727"><ele>501.0</ele><time>2026-04-04T14:10:23.987Z</time></trkpt><trkpt lat="36.9655834" lon="15.087281"><ele>501.0</ele><time>2026-04-04T14:10:24.987Z</time></trkpt><trkpt lat="36.9656057" lon="15.0871543"><ele>501.0</ele><time>2026-04-04T14:10:25.987Z</time></trkpt><trkpt lat="36.9656226" lon="15.0870222"><ele>501.0</ele><time>2026-04-04T14:10:26.988Z</time></trkpt><trkpt lat="36.965633" lon="15.0868928"><ele>501.0</ele><time>2026-04-04T14:10:27.987Z</time></trkpt><trkpt lat="36.9656388" lon="15.0867599"><ele>501.0</ele><time>2026-04-04T14:10:28.987Z</time></trkpt><trkpt lat="36.9656421" lon="15.0866355"><ele>501.0</ele><time>2026-04-04T14:10:29.988Z</time></trkpt><trkpt lat="36.9656487" lon="15.0865188"><ele>501.0</ele><time>2026-04-04T14:10:30.986Z</time></trkpt><trkpt lat="36.9656556" lon="15.0863999"><ele>501.0</ele><time>2026-04-04T14:10:31.987Z</time></trkpt><trkpt lat="36.9656617" lon="15.086286"><ele>501.0</ele><time>2026-04-04T14:10:32.987Z</time></trkpt><trkpt lat="36.9656666" lon="15.0861805"><ele>500.3333333333333</ele><time>2026-04-04T14:10:33.988Z</time></trkpt><trkpt lat="36.9656735" lon="15.0860751"><ele>499.66666666666663</ele><time>2026-04-04T14:10:34.987Z</time></trkpt><trkpt lat="36.9656783" lon="15.0859712"><ele>499.0</ele><time>2026-04-04T14:10:35.987Z</time></trkpt><trkpt lat="36.9656813" lon="15.0858672"><ele>498.3333333333333</ele><time>2026-04-04T14:10:36.987Z</time></trkpt><trkpt lat="36.9656818" lon="15.0857726"><ele>497.66666666666663</ele><time>2026-04-04T14:10:37.987Z</time></trkpt><trkpt lat="36.9656864" lon="15.085674"><ele>497.0</ele><time>2026-04-04T14:10:38.987Z</time></trkpt><trkpt lat="36.9656893" lon="15.0855824"><ele>496.99999999999994</ele><time>2026-04-04T14:10:39.987Z</time></trkpt><trkpt lat="36.9656941" lon="15.0854986"><ele>497.0</ele><time>2026-04-04T14:10:40.987Z</time></trkpt><trkpt lat="36.9656949" lon="15.0854172"><ele>497.0</ele><time>2026-04-04T14:10:41.987Z</time></trkpt><trkpt lat="36.9656977" lon="15.0852865"><ele>497.0</ele><time>2026-04-04T14:10:43.987Z</time></trkpt><trkpt lat="36.965685" lon="15.0851905"><ele>496.99999999999994</ele><time>2026-04-04T14:10:45.988Z</time></trkpt><trkpt lat="36.9656684" lon="15.0850969"><ele>497.0</ele><time>2026-04-04T14:10:49.987Z</time></trkpt><trkpt lat="36.9656377" lon="15.0850225"><ele>497.16666666666663</ele><time>2026-04-04T14:13:03.987Z</time></trkpt><trkpt lat="36.9656226" lon="15.0849111"><ele>497.3333333333333</ele><time>2026-04-04T14:13:05.987Z</time></trkpt><trkpt lat="36.9656212" lon="15.0848315"><ele>497.5</ele><time>2026-04-04T14:13:06.987Z</time></trkpt><trkpt lat="36.9656193" lon="15.0847385"><ele>497.66666666666663</ele><time>2026-04-04T14:13:07.988Z</time></trkpt><trkpt lat="36.9656137" lon="15.0846385"><ele>497.8333333333333</ele><time>2026-04-04T14:13:08.987Z</time></trkpt><trkpt lat="36.9656094" lon="15.0845382"><ele>498.0</ele><time>2026-04-04T14:13:09.987Z</time></trkpt><trkpt lat="36.9656213" lon="15.084442"><ele>498.0</ele><time>2026-04-04T14:13:10.987Z</time></trkpt><trkpt lat="36.9656363" lon="15.0843414"><ele>498.0</ele><time>2026-04-04T14:13:11.986Z</time></trkpt><trkpt lat="36.9656622" lon="15.0842356"><ele>498.0</ele><time>2026-04-04T14:13:12.987Z</time></trkpt><trkpt lat="36.9656858" lon="15.0841248"><ele>498.0</ele><time>2026-04-04T14:13:13.987Z</time></trkpt><trkpt lat="36.9657107" lon="15.0840163"><ele>498.0</ele><time>2026-04-04T14:13:14.987Z</time></trkpt><trkpt lat="36.96573" lon="15.0839032"><ele>498.0</ele><time>2026-04-04T14:13:15.987Z</time></trkpt><trkpt lat="36.9657455" lon="15.0838092"><ele>497.8333333333333</ele><time>2026-04-04T14:13:16.987Z</time></trkpt><trkpt lat="36.9657564" lon="15.0837056"><ele>497.66666666666663</ele><time>2026-04-04T14:13:17.987Z</time></trkpt><trkpt lat="36.9657648" lon="15.0836138"><ele>497.5</ele><time>2026-04-04T14:13:18.988Z</time></trkpt><trkpt lat="36.9657642" lon="15.0835183"><ele>497.3333333333333</ele><time>2026-04-04T14:13:19.987Z</time></trkpt><trkpt lat="36.965762" lon="15.083427"><ele>497.16666666666663</ele><time>2026-04-04T14:13:20.987Z</time></trkpt><trkpt lat="36.96575" lon="15.0833304"><ele>497.0</ele><time>2026-04-04T14:13:21.987Z</time></trkpt><trkpt lat="36.9657362" lon="15.0832397"><ele>495.49999999999994</ele><time>2026-04-04T14:13:22.986Z</time></trkpt><trkpt lat="36.965717" lon="15.0831374"><ele>494.0</ele><time>2026-04-04T14:13:23.987Z</time></trkpt><trkpt lat="36.96569" lon="15.0830375"><ele>492.5</ele><time>2026-04-04T14:13:24.987Z</time></trkpt><trkpt lat="36.9656607" lon="15.0829351"><ele>491.0</ele><time>2026-04-04T14:13:25.986Z</time></trkpt><trkpt lat="36.9656278" lon="15.0828302"><ele>489.49999999999994</ele><time>2026-04-04T14:13:26.987Z</time></trkpt><trkpt lat="36.9655867" lon="15.0827174"><ele>488.0</ele><time>2026-04-04T14:13:27.986Z</time></trkpt><trkpt lat="36.9655443" lon="15.0826005"><ele>488.0</ele><time>2026-04-04T14:13:28.987Z</time></trkpt><trkpt lat="36.9655031" lon="15.082481"><ele>487.99999999999994</ele><time>2026-04-04T14:13:29.987Z</time></trkpt><trkpt lat="36.9654612" lon="15.0823574"><ele>487.99999999999994</ele><time>2026-04-04T14:13:30.986Z</time></trkpt><trkpt lat="36.9654162" lon="15.0822359"><ele>488.0</ele><time>2026-04-04T14:13:31.988Z</time></trkpt><trkpt lat="36.9653782" lon="15.0821088"><ele>488.0</ele><time>2026-04-04T14:13:32.987Z</time></trkpt><trkpt lat="36.9653463" lon="15.0819771"><ele>486.0</ele><time>2026-04-04T14:13:33.986Z</time></trkpt><trkpt lat="36.9653155" lon="15.0818435"><ele>483.99999999999994</ele><time>2026-04-04T14:13:34.987Z</time></trkpt><trkpt lat="36.9652947" lon="15.0817154"><ele>481.99999999999994</ele><time>2026-04-04T14:13:35.987Z</time></trkpt><trkpt lat="36.9652779" lon="15.081586"><ele>480.0</ele><time>2026-04-04T14:13:36.987Z</time></trkpt><trkpt lat="36.9652604" lon="15.0814548"><ele>478.0</ele><time>2026-04-04T14:13:37.986Z</time></trkpt><trkpt lat="36.9652511" lon="15.0813308"><ele>476.4</ele><time>2026-04-04T14:13:38.987Z</time></trkpt><trkpt lat="36.9652461" lon="15.0812101"><ele>474.79999999999995</ele><time>2026-04-04T14:13:39.988Z</time></trkpt><trkpt lat="36.9652362" lon="15.081087"><ele>473.2</ele><time>2026-04-04T14:13:40.987Z</time></trkpt><trkpt lat="36.9652327" lon="15.0809676"><ele>471.6</ele><time>2026-04-04T14:13:41.988Z</time></trkpt><trkpt lat="36.9652263" lon="15.080857"><ele>470.0</ele><time>2026-04-04T14:13:42.987Z</time></trkpt><trkpt lat="36.9652214" lon="15.0807531"><ele>469.49999999999994</ele><time>2026-04-04T14:13:43.987Z</time></trkpt><trkpt lat="36.9652137" lon="15.0806456"><ele>469.0</ele><time>2026-04-04T14:13:44.987Z</time></trkpt><trkpt lat="36.9652106" lon="15.0805417"><ele>468.5</ele><time>2026-04-04T14:13:45.987Z</time></trkpt><trkpt lat="36.9651977" lon="15.0804347"><ele>468.0</ele><time>2026-04-04T14:13:46.987Z</time></trkpt><trkpt lat="36.9651802" lon="15.0803231"><ele>467.49999999999994</ele><time>2026-04-04T14:13:47.987Z</time></trkpt><trkpt lat="36.9651629" lon="15.0802115"><ele>467.0</ele><time>2026-04-04T14:13:48.987Z</time></trkpt><trkpt lat="36.9651394" lon="15.0800951"><ele>467.0</ele><time>2026-04-04T14:13:49.987Z</time></trkpt><trkpt lat="36.9651147" lon="15.0799751"><ele>467.00000000000006</ele><time>2026-04-04T14:13:50.987Z</time></trkpt><trkpt lat="36.9650891" lon="15.0798472"><ele>467.00000000000006</ele><time>2026-04-04T14:13:51.987Z</time></trkpt><trkpt lat="36.9650629" lon="15.079722"><ele>467.0</ele><time>2026-04-04T14:13:52.988Z</time></trkpt><trkpt lat="36.965034" lon="15.0795995"><ele>467.0</ele><time>2026-04-04T14:13:53.987Z</time></trkpt><trkpt lat="36.9650043" lon="15.0794769"><ele>466.6</ele><time>2026-04-04T14:13:54.987Z</time></trkpt><trkpt lat="36.9649761" lon="15.0793554"><ele>466.20000000000005</ele><time>2026-04-04T14:13:55.987Z</time></trkpt><trkpt lat="36.9649427" lon="15.0792296"><ele>465.8</ele><time>2026-04-04T14:13:56.987Z</time></trkpt><trkpt lat="36.9649102" lon="15.0791084"><ele>465.4</ele><time>2026-04-04T14:13:57.987Z</time></trkpt><trkpt lat="36.9648812" lon="15.07899"><ele>465.0</ele><time>2026-04-04T14:13:58.987Z</time></trkpt><trkpt lat="36.9648523" lon="15.078882"><ele>465.0</ele><time>2026-04-04T14:13:59.987Z</time></trkpt><trkpt lat="36.9648301" lon="15.0787876"><ele>465.0</ele><time>2026-04-04T14:14:00.987Z</time></trkpt><trkpt lat="36.9647984" lon="15.0786772"><ele>465.0</ele><time>2026-04-04T14:14:01.987Z</time></trkpt><trkpt lat="36.9647693" lon="15.0785783"><ele>465.0</ele><time>2026-04-04T14:14:02.987Z</time></trkpt><trkpt lat="36.9647315" lon="15.0784706"><ele>465.0</ele><time>2026-04-04T14:14:03.988Z</time></trkpt><trkpt lat="36.9646948" lon="15.0783627"><ele>465.0</ele><time>2026-04-04T14:14:04.987Z</time></trkpt><trkpt lat="36.964657" lon="15.07826"><ele>464.6666666666667</ele><time>2026-04-04T14:14:05.987Z</time></trkpt><trkpt lat="36.964612" lon="15.0781705"><ele>464.33333333333337</ele><time>2026-04-04T14:14:06.987Z</time></trkpt><trkpt lat="36.9645708" lon="15.0780919"><ele>464.0</ele><time>2026-04-04T14:14:07.987Z</time></trkpt><trkpt lat="36.964518" lon="15.0780102"><ele>463.6666666666667</ele><time>2026-04-04T14:14:08.988Z</time></trkpt><trkpt lat="36.9644709" lon="15.077939"><ele>463.33333333333337</ele><time>2026-04-04T14:14:09.987Z</time></trkpt><trkpt lat="36.9644282" lon="15.0778713"><ele>463.0</ele><time>2026-04-04T14:14:10.987Z</time></trkpt><trkpt lat="36.9643862" lon="15.077812"><ele>463.0</ele><time>2026-04-04T14:14:11.987Z</time></trkpt><trkpt lat="36.964318" lon="15.0777096"><ele>462.99999999999994</ele><time>2026-04-04T14:14:13.987Z</time></trkpt><trkpt lat="36.9642659" lon="15.0776189"><ele>462.99999999999994</ele><time>2026-04-04T14:14:15.987Z</time></trkpt><trkpt lat="36.9642263" lon="15.0775555"><ele>463.0</ele><time>2026-04-04T14:14:17.987Z</time></trkpt><trkpt lat="36.9641524" lon="15.0774438"><ele>463.0</ele><time>2026-04-04T14:21:14.987Z</time></trkpt><trkpt lat="36.9641263" lon="15.0773284"><ele>461.79999999999995</ele><time>2026-04-04T14:21:17.987Z</time></trkpt><trkpt lat="36.964121" lon="15.0772188"><ele>460.59999999999997</ele><time>2026-04-04T14:21:19.986Z</time></trkpt><trkpt lat="36.9641222" lon="15.0771011"><ele>459.40000000000003</ele><time>2026-04-04T14:21:21.987Z</time></trkpt><trkpt lat="36.9641166" lon="15.0769678"><ele>458.20000000000005</ele><time>2026-04-04T14:21:23.987Z</time></trkpt><trkpt lat="36.9641085" lon="15.0768329"><ele>457.0</ele><time>2026-04-04T14:21:25.986Z</time></trkpt><trkpt lat="36.9640985" lon="15.0767004"><ele>456.0</ele><time>2026-04-04T14:21:27.986Z</time></trkpt><trkpt lat="36.9640926" lon="15.0765829"><ele>455.00000000000006</ele><time>2026-04-04T14:21:29.987Z</time></trkpt><trkpt lat="36.9640736" lon="15.0764688"><ele>454.00000000000006</ele><time>2026-04-04T14:21:31.987Z</time></trkpt><trkpt lat="36.9640394" lon="15.0763548"><ele>453.0</ele><time>2026-04-04T14:21:33.987Z</time></trkpt><trkpt lat="36.9640003" lon="15.076234"><ele>452.0</ele><time>2026-04-04T14:21:35.986Z</time></trkpt><trkpt lat="36.9639626" lon="15.076123"><ele>452.0</ele><time>2026-04-04T14:21:37.987Z</time></trkpt><trkpt lat="36.9639209" lon="15.0760076"><ele>452.00000000000006</ele><time>2026-04-04T14:21:39.986Z</time></trkpt><trkpt lat="36.9638923" lon="15.0759006"><ele>452.00000000000006</ele><time>2026-04-04T14:21:41.987Z</time></trkpt><trkpt lat="36.9638653" lon="15.0757971"><ele>452.0</ele><time>2026-04-04T14:21:43.987Z</time></trkpt><trkpt lat="36.9638305" lon="15.0756711"><ele>452.0</ele><time>2026-04-04T14:21:45.985Z</time></trkpt><trkpt lat="36.9637935" lon="15.0755495"><ele>452.40000000000003</ele><time>2026-04-04T14:21:47.987Z</time></trkpt><trkpt lat="36.9637503" lon="15.0754308"><ele>452.80000000000007</ele><time>2026-04-04T14:21:49.987Z</time></trkpt><trkpt lat="36.9636933" lon="15.0753031"><ele>453.2</ele><time>2026-04-04T14:21:51.987Z</time></trkpt><trkpt lat="36.963658" lon="15.0751694"><ele>453.6</ele><time>2026-04-04T14:21:53.986Z</time></trkpt><trkpt lat="36.9636286" lon="15.0750311"><ele>454.0</ele><time>2026-04-04T14:21:55.987Z</time></trkpt><trkpt lat="36.9636114" lon="15.0748855"><ele>454.79999999999995</ele><time>2026-04-04T14:21:57.987Z</time></trkpt><trkpt lat="36.9636269" lon="15.074738"><ele>455.59999999999997</ele><time>2026-04-04T14:21:59.987Z</time></trkpt><trkpt lat="36.9636336" lon="15.0746588"><ele>456.4</ele><time>2026-04-04T14:22:00.986Z</time></trkpt><trkpt lat="36.9636397" lon="15.0745772"><ele>457.2</ele><time>2026-04-04T14:22:01.987Z</time></trkpt><trkpt lat="36.963678" lon="15.0744469"><ele>458.0</ele><time>2026-04-04T14:22:03.987Z</time></trkpt><trkpt lat="36.9637124" lon="15.0743304"><ele>458.0</ele><time>2026-04-04T14:22:05.987Z</time></trkpt><trkpt lat="36.9637544" lon="15.0742216"><ele>457.99999999999994</ele><time>2026-04-04T14:22:07.987Z</time></trkpt><trkpt lat="36.9638047" lon="15.0741219"><ele>457.99999999999994</ele><time>2026-04-04T14:22:09.987Z</time></trkpt><trkpt lat="36.9638621" lon="15.0740154"><ele>458.0</ele><time>2026-04-04T14:22:11.987Z</time></trkpt><trkpt lat="36.9639154" lon="15.0739164"><ele>458.0</ele><time>2026-04-04T14:22:13.986Z</time></trkpt><trkpt lat="36.9639645" lon="15.0737978"><ele>457.99999999999994</ele><time>2026-04-04T14:22:15.987Z</time></trkpt><trkpt lat="36.9639916" lon="15.0736885"><ele>458.0</ele><time>2026-04-04T14:22:17.987Z</time></trkpt><trkpt lat="36.9640195" lon="15.0735778"><ele>458.0</ele><time>2026-04-04T14:22:19.986Z</time></trkpt><trkpt lat="36.9640428" lon="15.0734837"><ele>458.0</ele><time>2026-04-04T14:22:21.987Z</time></trkpt><trkpt lat="36.9640585" lon="15.0734026"><ele>457.99999999999994</ele><time>2026-04-04T14:22:23.986Z</time></trkpt><trkpt lat="36.9640715" lon="15.0733226"><ele>458.0</ele><time>2026-04-04T14:22:27.987Z</time></trkpt><trkpt lat="36.9640935" lon="15.0732316"><ele>458.0</ele><time>2026-04-04T14:22:37.987Z</time></trkpt><trkpt lat="36.9641082" lon="15.0731426"><ele>458.0</ele><time>2026-04-04T14:22:40.987Z</time></trkpt><trkpt lat="36.9641159" lon="15.0730505"><ele>458.0</ele><time>2026-04-04T14:22:43.987Z</time></trkpt><trkpt lat="36.9641344" lon="15.0729503"><ele>458.0</ele><time>2026-04-04T14:22:46.987Z</time></trkpt><trkpt lat="36.9641412" lon="15.0728709"><ele>458.0</ele><time>2026-04-04T14:22:49.986Z</time></trkpt><trkpt lat="36.9641507" lon="15.0727902"><ele>458.0</ele><time>2026-04-04T14:22:52.986Z</time></trkpt><trkpt lat="36.9641633" lon="15.0726926"><ele>458.0</ele><time>2026-04-04T14:22:55.986Z</time></trkpt><trkpt lat="36.9641667" lon="15.0726025"><ele>458.0</ele><time>2026-04-04T14:22:57.985Z</time></trkpt><trkpt lat="36.9641672" lon="15.0725141"><ele>458.0</ele><time>2026-04-04T14:22:59.986Z</time></trkpt><trkpt lat="36.9641632" lon="15.0724345"><ele>458.0</ele><time>2026-04-04T14:23:01.986Z</time></trkpt><trkpt lat="36.9641693" lon="15.0723527"><ele>458.0</ele><time>2026-04-04T14:23:06.986Z</time></trkpt><trkpt lat="36.9641752" lon="15.0722569"><ele>458.0</ele><time>2026-04-04T14:23:09.986Z</time></trkpt><trkpt lat="36.9641632" lon="15.072172"><ele>458.0</ele><time>2026-04-04T14:23:11.987Z</time></trkpt><trkpt lat="36.9641397" lon="15.0720928"><ele>458.0</ele><time>2026-04-04T14:23:13.987Z</time></trkpt><trkpt lat="36.9641091" lon="15.0720113"><ele>457.99999999999994</ele><time>2026-04-04T14:23:15.986Z</time></trkpt><trkpt lat="36.9640788" lon="15.0719285"><ele>458.0</ele><time>2026-04-04T14:23:17.987Z</time></trkpt><trkpt lat="36.9640681" lon="15.071835"><ele>458.0</ele><time>2026-04-04T14:23:19.986Z</time></trkpt><trkpt lat="36.9640576" lon="15.0717302"><ele>458.0</ele><time>2026-04-04T14:23:21.987Z</time></trkpt><trkpt lat="36.9640641" lon="15.0716257"><ele>457.99999999999994</ele><time>2026-04-04T14:23:23.986Z</time></trkpt><trkpt lat="36.9640603" lon="15.0715189"><ele>458.0</ele><time>2026-04-04T14:23:25.987Z</time></trkpt><trkpt lat="36.9640652" lon="15.0714102"><ele>458.16666666666663</ele><time>2026-04-04T14:23:27.986Z</time></trkpt><trkpt lat="36.9640668" lon="15.0712989"><ele>458.3333333333333</ele><time>2026-04-04T14:23:29.986Z</time></trkpt><trkpt lat="36.9640723" lon="15.0712083"><ele>458.5</ele><time>2026-04-04T14:23:31.987Z</time></trkpt><trkpt lat="36.9640766" lon="15.0711129"><ele>458.66666666666663</ele><time>2026-04-04T14:23:33.987Z</time></trkpt><trkpt lat="36.9640831" lon="15.0710259"><ele>458.8333333333333</ele><time>2026-04-04T14:23:35.986Z</time></trkpt><trkpt lat="36.9640847" lon="15.0709293"><ele>459.0</ele><time>2026-04-04T14:23:37.986Z</time></trkpt><trkpt lat="36.9640877" lon="15.0708282"><ele>458.5</ele><time>2026-04-04T14:23:39.987Z</time></trkpt><trkpt lat="36.9640894" lon="15.0707239"><ele>458.0</ele><time>2026-04-04T14:23:42.986Z</time></trkpt><trkpt lat="36.9640776" lon="15.0706214"><ele>457.5</ele><time>2026-04-04T14:23:45.987Z</time></trkpt><trkpt lat="36.9640832" lon="15.0705221"><ele>457.0</ele><time>2026-04-04T14:23:54.987Z</time></trkpt><trkpt lat="36.9640989" lon="15.0704394"><ele>456.5</ele><time>2026-04-04T14:24:00.986Z</time></trkpt><trkpt lat="36.9640832" lon="15.0703396"><ele>456.0</ele><time>2026-04-04T14:24:03.987Z</time></trkpt><trkpt lat="36.9640521" lon="15.070268"><ele>456.0</ele><time>2026-04-04T14:24:05.987Z</time></trkpt><trkpt lat="36.9640266" lon="15.0701601"><ele>456.0</ele><time>2026-04-04T14:24:08.986Z</time></trkpt><trkpt lat="36.9640049" lon="15.0700689"><ele>456.0</ele><time>2026-04-04T14:24:12.986Z</time></trkpt><trkpt lat="36.9639832" lon="15.0699716"><ele>456.0</ele><time>2026-04-04T14:24:15.986Z</time></trkpt><trkpt lat="36.9639528" lon="15.0698993"><ele>456.0</ele><time>2026-04-04T14:24:17.986Z</time></trkpt><trkpt lat="36.9639377" lon="15.0698076"><ele>456.0</ele><time>2026-04-04T14:24:46.986Z</time></trkpt><trkpt lat="36.9639263" lon="15.0697274"><ele>456.3333333333333</ele><time>2026-04-04T14:24:49.986Z</time></trkpt><trkpt lat="36.9639128" lon="15.0696387"><ele>456.66666666666663</ele><time>2026-04-04T14:24:53.986Z</time></trkpt><trkpt lat="36.9638857" lon="15.0695586"><ele>457.0</ele><time>2026-04-04T14:24:56.986Z</time></trkpt><trkpt lat="36.9638508" lon="15.0694636"><ele>457.3333333333333</ele><time>2026-04-04T14:24:59.986Z</time></trkpt><trkpt lat="36.9638134" lon="15.0693643"><ele>457.66666666666663</ele><time>2026-04-04T14:25:02.985Z</time></trkpt><trkpt lat="36.963781" lon="15.0692926"><ele>458.0</ele><time>2026-04-04T14:25:04.986Z</time></trkpt><trkpt lat="36.963745" lon="15.069216"><ele>457.99999999999994</ele><time>2026-04-04T14:25:06.987Z</time></trkpt><trkpt lat="36.9637058" lon="15.0691359"><ele>458.0</ele><time>2026-04-04T14:25:08.986Z</time></trkpt><trkpt lat="36.9636579" lon="15.0690581"><ele>458.0</ele><time>2026-04-04T14:25:10.987Z</time></trkpt><trkpt lat="36.9636158" lon="15.0689983"><ele>458.0</ele><time>2026-04-04T14:25:12.987Z</time></trkpt><trkpt lat="36.963552" lon="15.0689185"><ele>457.99999999999994</ele><time>2026-04-04T14:25:15.987Z</time></trkpt><trkpt lat="36.9634915" lon="15.0688572"><ele>458.0</ele><time>2026-04-04T14:25:17.986Z</time></trkpt><trkpt lat="36.9634349" lon="15.068803"><ele>458.3333333333333</ele><time>2026-04-04T14:25:18.986Z</time></trkpt><trkpt lat="36.9633643" lon="15.0687331"><ele>458.66666666666663</ele><time>2026-04-04T14:25:20.986Z</time></trkpt><trkpt lat="36.9633045" lon="15.0686822"><ele>459.0</ele><time>2026-04-04T14:25:22.987Z</time></trkpt><trkpt lat="36.9632452" lon="15.0686351"><ele>459.33333333333337</ele><time>2026-04-04T14:25:30.986Z</time></trkpt><trkpt lat="36.9632" lon="15.0685607"><ele>459.6666666666667</ele><time>2026-04-04T14:26:22.987Z</time></trkpt><trkpt lat="36.9631448" lon="15.0685004"><ele>460.0</ele><time>2026-04-04T14:26:28.987Z</time></trkpt><trkpt lat="36.963074" lon="15.0684104"><ele>460.0</ele><time>2026-04-04T14:26:31.986Z</time></trkpt><trkpt lat="36.9630095" lon="15.0683242"><ele>460.0</ele><time>2026-04-04T14:26:33.986Z</time></trkpt><trkpt lat="36.9629494" lon="15.0682499"><ele>460.0</ele><time>2026-04-04T14:26:35.986Z</time></trkpt><trkpt lat="36.9628948" lon="15.0681456"><ele>460.0</ele><time>2026-04-04T14:26:37.987Z</time></trkpt><trkpt lat="36.962845" lon="15.0680457"><ele>460.0</ele><time>2026-04-04T14:26:39.987Z</time></trkpt><trkpt lat="36.9628022" lon="15.0679486"><ele>460.1666666666667</ele><time>2026-04-04T14:26:41.987Z</time></trkpt><trkpt lat="36.9627511" lon="15.0678539"><ele>460.33333333333337</ele><time>2026-04-04T14:26:43.987Z</time></trkpt><trkpt lat="36.9627047" lon="15.0677893"><ele>460.5</ele><time>2026-04-04T14:26:45.986Z</time></trkpt><trkpt lat="36.9626839" lon="15.0677112"><ele>460.66666666666663</ele><time>2026-04-04T14:26:50.986Z</time></trkpt><trkpt lat="36.9627094" lon="15.0676299"><ele>460.8333333333333</ele><time>2026-04-04T14:29:34.985Z</time></trkpt><trkpt lat="36.9627547" lon="15.0675422"><ele>461.0</ele><time>2026-04-04T14:29:36.986Z</time></trkpt><trkpt lat="36.9627938" lon="15.0674085"><ele>461.0</ele><time>2026-04-04T14:29:38.986Z</time></trkpt><trkpt lat="36.9628376" lon="15.0672765"><ele>461.0</ele><time>2026-04-04T14:29:40.985Z</time></trkpt><trkpt lat="36.9628844" lon="15.0671591"><ele>461.0</ele><time>2026-04-04T14:29:42.986Z</time></trkpt><trkpt lat="36.9629146" lon="15.0670538"><ele>461.0</ele><time>2026-04-04T14:29:44.986Z</time></trkpt><trkpt lat="36.9629512" lon="15.0669349"><ele>461.0</ele><time>2026-04-04T14:29:46.986Z</time></trkpt><trkpt lat="36.9629839" lon="15.0667966"><ele>461.0</ele><time>2026-04-04T14:29:48.986Z</time></trkpt><trkpt lat="36.9630088" lon="15.0666678"><ele>461.0</ele><time>2026-04-04T14:29:50.986Z</time></trkpt><trkpt lat="36.9630363" lon="15.0665315"><ele>461.0</ele><time>2026-04-04T14:29:52.986Z</time></trkpt><trkpt lat="36.9630631" lon="15.0663927"><ele>461.0</ele><time>2026-04-04T14:29:54.986Z</time></trkpt><trkpt lat="36.9630891" lon="15.0662431"><ele>460.20000000000005</ele><time>2026-04-04T14:29:56.985Z</time></trkpt><trkpt lat="36.9631204" lon="15.0660826"><ele>459.40000000000003</ele><time>2026-04-04T14:29:58.986Z</time></trkpt><trkpt lat="36.9631337" lon="15.0660009"><ele>458.6</ele><time>2026-04-04T14:29:59.986Z</time></trkpt><trkpt lat="36.9631644" lon="15.0658666"><ele>457.8</ele><time>2026-04-04T14:30:01.986Z</time></trkpt><trkpt lat="36.9632127" lon="15.0657274"><ele>457.0</ele><time>2026-04-04T14:30:03.986Z</time></trkpt><trkpt lat="36.9632516" lon="15.0655716"><ele>456.0</ele><time>2026-04-04T14:30:05.986Z</time></trkpt><trkpt lat="36.9632742" lon="15.0654219"><ele>455.00000000000006</ele><time>2026-04-04T14:30:07.986Z</time></trkpt><trkpt lat="36.9632955" lon="15.0652745"><ele>454.00000000000006</ele><time>2026-04-04T14:30:09.986Z</time></trkpt><trkpt lat="36.9633004" lon="15.0651353"><ele>453.0</ele><time>2026-04-04T14:30:11.985Z</time></trkpt><trkpt lat="36.9632977" lon="15.0650204"><ele>452.0</ele><time>2026-04-04T14:30:13.986Z</time></trkpt><trkpt lat="36.9633045" lon="15.0649139"><ele>451.8</ele><time>2026-04-04T14:30:15.985Z</time></trkpt><trkpt lat="36.963334" lon="15.0647808"><ele>451.6</ele><time>2026-04-04T14:30:17.986Z</time></trkpt><trkpt lat="36.9633458" lon="15.0646561"><ele>451.40000000000003</ele><time>2026-04-04T14:30:19.985Z</time></trkpt><trkpt lat="36.9633759" lon="15.0645402"><ele>451.20000000000005</ele><time>2026-04-04T14:30:21.986Z</time></trkpt><trkpt lat="36.963416" lon="15.064422"><ele>451.0</ele><time>2026-04-04T14:30:23.986Z</time></trkpt><trkpt lat="36.9634475" lon="15.0643046"><ele>451.6666666666667</ele><time>2026-04-04T14:30:25.986Z</time></trkpt><trkpt lat="36.9634782" lon="15.0642001"><ele>452.33333333333337</ele><time>2026-04-04T14:30:27.986Z</time></trkpt><trkpt lat="36.9635171" lon="15.0640796"><ele>453.0</ele><time>2026-04-04T14:30:29.985Z</time></trkpt><trkpt lat="36.9635453" lon="15.0640088"><ele>453.66666666666663</ele><time>2026-04-04T14:30:30.985Z</time></trkpt><trkpt lat="36.9635804" lon="15.063931"><ele>454.3333333333333</ele><time>2026-04-04T14:30:31.985Z</time></trkpt><trkpt lat="36.9636234" lon="15.0638547"><ele>455.0</ele><time>2026-04-04T14:30:32.986Z</time></trkpt><trkpt lat="36.9636701" lon="15.0637783"><ele>454.99999999999994</ele><time>2026-04-04T14:30:33.986Z</time></trkpt><trkpt lat="36.9637196" lon="15.0636985"><ele>455.0</ele><time>2026-04-04T14:30:34.986Z</time></trkpt><trkpt lat="36.9637626" lon="15.0636198"><ele>455.0</ele><time>2026-04-04T14:30:35.986Z</time></trkpt><trkpt lat="36.9638116" lon="15.0635387"><ele>455.0</ele><time>2026-04-04T14:30:36.986Z</time></trkpt><trkpt lat="36.9638619" lon="15.0634499"><ele>454.99999999999994</ele><time>2026-04-04T14:30:37.985Z</time></trkpt><trkpt lat="36.9639103" lon="15.0633627"><ele>455.0</ele><time>2026-04-04T14:30:38.986Z</time></trkpt><trkpt lat="36.9639551" lon="15.063274"><ele>455.99999999999994</ele><time>2026-04-04T14:30:39.986Z</time></trkpt><trkpt lat="36.9639934" lon="15.0631959"><ele>457.0</ele><time>2026-04-04T14:30:40.985Z</time></trkpt><trkpt lat="36.9640336" lon="15.0631131"><ele>458.0</ele><time>2026-04-04T14:30:41.986Z</time></trkpt><trkpt lat="36.9640723" lon="15.0630419"><ele>459.0</ele><time>2026-04-04T14:30:42.986Z</time></trkpt><trkpt lat="36.9641212" lon="15.0629586"><ele>459.99999999999994</ele><time>2026-04-04T14:30:43.986Z</time></trkpt><trkpt lat="36.9642067" lon="15.0628466"><ele>461.0</ele><time>2026-04-04T14:30:45.985Z</time></trkpt><trkpt lat="36.9642598" lon="15.0627971"><ele>461.4</ele><time>2026-04-04T14:30:46.986Z</time></trkpt><trkpt lat="36.9643244" lon="15.0627649"><ele>461.8</ele><time>2026-04-04T14:30:47.985Z</time></trkpt><trkpt lat="36.9643923" lon="15.0626759"><ele>462.19999999999993</ele><time>2026-04-04T14:30:49.986Z</time></trkpt><trkpt lat="36.9644339" lon="15.0625298"><ele>462.59999999999997</ele><time>2026-04-04T14:30:51.986Z</time></trkpt><trkpt lat="36.9644638" lon="15.0623718"><ele>463.0</ele><time>2026-04-04T14:30:53.985Z</time></trkpt><trkpt lat="36.9645136" lon="15.0622193"><ele>463.79999999999995</ele><time>2026-04-04T14:30:55.986Z</time></trkpt><trkpt lat="36.9645674" lon="15.0620894"><ele>464.59999999999997</ele><time>2026-04-04T14:30:57.986Z</time></trkpt><trkpt lat="36.9646165" lon="15.0619849"><ele>465.40000000000003</ele><time>2026-04-04T14:30:59.985Z</time></trkpt><trkpt lat="36.9646834" lon="15.0618642"><ele>466.20000000000005</ele><time>2026-04-04T14:31:01.986Z</time></trkpt><trkpt lat="36.9647489" lon="15.0617463"><ele>467.0</ele><time>2026-04-04T14:31:03.986Z</time></trkpt><trkpt lat="36.9647885" lon="15.0616621"><ele>467.16666666666663</ele><time>2026-04-04T14:31:04.985Z</time></trkpt><trkpt lat="36.9648321" lon="15.0615756"><ele>467.3333333333333</ele><time>2026-04-04T14:31:05.986Z</time></trkpt><trkpt lat="36.9648808" lon="15.0614797"><ele>467.5</ele><time>2026-04-04T14:31:06.986Z</time></trkpt><trkpt lat="36.9649294" lon="15.0613794"><ele>467.66666666666663</ele><time>2026-04-04T14:31:07.986Z</time></trkpt><trkpt lat="36.9649786" lon="15.0612743"><ele>467.8333333333333</ele><time>2026-04-04T14:31:08.986Z</time></trkpt><trkpt lat="36.9650202" lon="15.0611847"><ele>468.0</ele><time>2026-04-04T14:31:09.985Z</time></trkpt><trkpt lat="36.965065" lon="15.0610888"><ele>468.3333333333333</ele><time>2026-04-04T14:31:10.986Z</time></trkpt><trkpt lat="36.9651083" lon="15.0609928"><ele>468.66666666666663</ele><time>2026-04-04T14:31:11.986Z</time></trkpt><trkpt lat="36.9651505" lon="15.0609036"><ele>469.0</ele><time>2026-04-04T14:31:12.986Z</time></trkpt><trkpt lat="36.9651862" lon="15.0608014"><ele>469.3333333333333</ele><time>2026-04-04T14:31:13.986Z</time></trkpt><trkpt lat="36.9652279" lon="15.0607048"><ele>469.66666666666663</ele><time>2026-04-04T14:31:14.986Z</time></trkpt><trkpt lat="36.9652673" lon="15.0606103"><ele>470.0</ele><time>2026-04-04T14:31:15.985Z</time></trkpt><trkpt lat="36.9653068" lon="15.0605124"><ele>469.99999999999994</ele><time>2026-04-04T14:31:16.986Z</time></trkpt><trkpt lat="36.9653544" lon="15.0604087"><ele>470.0</ele><time>2026-04-04T14:31:17.986Z</time></trkpt><trkpt lat="36.9654037" lon="15.0603153"><ele>470.0</ele><time>2026-04-04T14:31:18.986Z</time></trkpt><trkpt lat="36.9654519" lon="15.0602346"><ele>470.0</ele><time>2026-04-04T14:31:19.985Z</time></trkpt><trkpt lat="36.9654924" lon="15.0601601"><ele>469.99999999999994</ele><time>2026-04-04T14:31:20.985Z</time></trkpt><trkpt lat="36.965541" lon="15.0600852"><ele>470.0</ele><time>2026-04-04T14:31:21.986Z</time></trkpt><trkpt lat="36.9655916" lon="15.060021"><ele>469.99999999999994</ele><time>2026-04-04T14:31:22.985Z</time></trkpt><trkpt lat="36.9656365" lon="15.0599589"><ele>470.0</ele><time>2026-04-04T14:31:23.986Z</time></trkpt><trkpt lat="36.9657169" lon="15.0598317"><ele>470.0</ele><time>2026-04-04T14:31:25.985Z</time></trkpt><trkpt lat="36.965757" lon="15.0597598"><ele>470.0</ele><time>2026-04-04T14:31:26.986Z</time></trkpt><trkpt lat="36.9657985" lon="15.0596755"><ele>469.99999999999994</ele><time>2026-04-04T14:31:27.986Z</time></trkpt><trkpt lat="36.9658377" lon="15.0596001"><ele>470.0</ele><time>2026-04-04T14:31:28.985Z</time></trkpt><trkpt lat="36.9658732" lon="15.0595123"><ele>470.16666666666663</ele><time>2026-04-04T14:31:29.986Z</time></trkpt><trkpt lat="36.965909" lon="15.0594342"><ele>470.3333333333333</ele><time>2026-04-04T14:31:30.986Z</time></trkpt><trkpt lat="36.9659394" lon="15.0593598"><ele>470.5</ele><time>2026-04-04T14:31:31.986Z</time></trkpt><trkpt lat="36.9659674" lon="15.0592854"><ele>470.66666666666663</ele><time>2026-04-04T14:31:32.986Z</time></trkpt><trkpt lat="36.966002" lon="15.0591454"><ele>470.8333333333333</ele><time>2026-04-04T14:31:34.986Z</time></trkpt><trkpt lat="36.9660426" lon="15.0590094"><ele>471.0</ele><time>2026-04-04T14:31:36.986Z</time></trkpt><trkpt lat="36.9660627" lon="15.0589329"><ele>470.6666666666667</ele><time>2026-04-04T14:31:37.985Z</time></trkpt><trkpt lat="36.9660777" lon="15.0588543"><ele>470.33333333333337</ele><time>2026-04-04T14:31:38.985Z</time></trkpt><trkpt lat="36.9661006" lon="15.0586916"><ele>470.0</ele><time>2026-04-04T14:31:40.986Z</time></trkpt><trkpt lat="36.966105" lon="15.0585967"><ele>469.6666666666667</ele><time>2026-04-04T14:31:41.985Z</time></trkpt><trkpt lat="36.9661104" lon="15.0585018"><ele>469.33333333333337</ele><time>2026-04-04T14:31:42.985Z</time></trkpt><trkpt lat="36.9661122" lon="15.058406"><ele>469.0</ele><time>2026-04-04T14:31:43.986Z</time></trkpt><trkpt lat="36.9661132" lon="15.0583036"><ele>468.50000000000006</ele><time>2026-04-04T14:31:44.985Z</time></trkpt><trkpt lat="36.9661149" lon="15.0582044"><ele>468.0</ele><time>2026-04-04T14:31:45.985Z</time></trkpt><trkpt lat="36.9661144" lon="15.0581066"><ele>467.5</ele><time>2026-04-04T14:31:46.986Z</time></trkpt><trkpt lat="36.9661204" lon="15.0580258"><ele>467.0</ele><time>2026-04-04T14:31:47.986Z</time></trkpt><trkpt lat="36.9661215" lon="15.0579453"><ele>466.50000000000006</ele><time>2026-04-04T14:31:48.985Z</time></trkpt><trkpt lat="36.9661252" lon="15.0577928"><ele>466.0</ele><time>2026-04-04T14:31:50.985Z</time></trkpt><trkpt lat="36.9661481" lon="15.0577059"><ele>466.00000000000006</ele><time>2026-04-04T14:31:51.985Z</time></trkpt><trkpt lat="36.9661744" lon="15.0576098"><ele>466.0</ele><time>2026-04-04T14:31:52.986Z</time></trkpt><trkpt lat="36.9661995" lon="15.0575209"><ele>466.0</ele><time>2026-04-04T14:31:53.986Z</time></trkpt><trkpt lat="36.9662177" lon="15.0574377"><ele>466.0</ele><time>2026-04-04T14:31:54.985Z</time></trkpt><trkpt lat="36.9662379" lon="15.0573358"><ele>466.00000000000006</ele><time>2026-04-04T14:31:55.986Z</time></trkpt><trkpt lat="36.9662627" lon="15.0572469"><ele>466.0</ele><time>2026-04-04T14:31:56.986Z</time></trkpt><trkpt lat="36.9662879" lon="15.057168"><ele>465.1666666666667</ele><time>2026-04-04T14:31:57.985Z</time></trkpt><trkpt lat="36.9663085" lon="15.0570815"><ele>464.33333333333337</ele><time>2026-04-04T14:31:58.985Z</time></trkpt><trkpt lat="36.9663229" lon="15.056988"><ele>463.5</ele><time>2026-04-04T14:31:59.986Z</time></trkpt><trkpt lat="36.9663364" lon="15.0568953"><ele>462.66666666666663</ele><time>2026-04-04T14:32:00.986Z</time></trkpt><trkpt lat="36.966348" lon="15.0567988"><ele>461.8333333333333</ele><time>2026-04-04T14:32:01.985Z</time></trkpt><trkpt lat="36.9663607" lon="15.056707"><ele>461.0</ele><time>2026-04-04T14:32:02.986Z</time></trkpt><trkpt lat="36.9663724" lon="15.056616"><ele>460.3333333333333</ele><time>2026-04-04T14:32:03.986Z</time></trkpt><trkpt lat="36.9663823" lon="15.0565189"><ele>459.66666666666663</ele><time>2026-04-04T14:32:04.985Z</time></trkpt><trkpt lat="36.9663946" lon="15.0564274"><ele>459.0</ele><time>2026-04-04T14:32:05.986Z</time></trkpt><trkpt lat="36.9664024" lon="15.0563336"><ele>458.33333333333337</ele><time>2026-04-04T14:32:06.986Z</time></trkpt><trkpt lat="36.9664097" lon="15.0562339"><ele>457.6666666666667</ele><time>2026-04-04T14:32:07.986Z</time></trkpt><trkpt lat="36.9664178" lon="15.0561246"><ele>457.0</ele><time>2026-04-04T14:32:08.986Z</time></trkpt><trkpt lat="36.9664231" lon="15.0560352"><ele>457.00000000000006</ele><time>2026-04-04T14:32:09.985Z</time></trkpt><trkpt lat="36.9664213" lon="15.0559412"><ele>457.0</ele><time>2026-04-04T14:32:10.986Z</time></trkpt><trkpt lat="36.9664165" lon="15.0558501"><ele>457.0</ele><time>2026-04-04T14:32:11.985Z</time></trkpt><trkpt lat="36.966412" lon="15.0557591"><ele>457.0</ele><time>2026-04-04T14:32:12.986Z</time></trkpt><trkpt lat="36.9664087" lon="15.0556765"><ele>457.00000000000006</ele><time>2026-04-04T14:32:13.985Z</time></trkpt><trkpt lat="36.9664093" lon="15.055597"><ele>457.0</ele><time>2026-04-04T14:32:14.985Z</time></trkpt><trkpt lat="36.9664287" lon="15.0554553"><ele>456.0</ele><time>2026-04-04T14:32:16.986Z</time></trkpt><trkpt lat="36.9664337" lon="15.0553724"><ele>455.00000000000006</ele><time>2026-04-04T14:32:17.986Z</time></trkpt><trkpt lat="36.9664549" lon="15.0552281"><ele>454.00000000000006</ele><time>2026-04-04T14:32:19.986Z</time></trkpt><trkpt lat="36.9664775" lon="15.0550999"><ele>453.0</ele><time>2026-04-04T14:32:21.985Z</time></trkpt><trkpt lat="36.9665016" lon="15.0549654"><ele>452.0</ele><time>2026-04-04T14:32:23.986Z</time></trkpt><trkpt lat="36.9665357" lon="15.054816"><ele>450.8</ele><time>2026-04-04T14:32:25.986Z</time></trkpt><trkpt lat="36.9665663" lon="15.0546689"><ele>449.6</ele><time>2026-04-04T14:32:27.985Z</time></trkpt><trkpt lat="36.9665792" lon="15.054591"><ele>448.40000000000003</ele><time>2026-04-04T14:32:28.986Z</time></trkpt><trkpt lat="36.9665926" lon="15.0545087"><ele>447.20000000000005</ele><time>2026-04-04T14:32:29.985Z</time></trkpt><trkpt lat="36.9666164" lon="15.0543655"><ele>446.0</ele><time>2026-04-04T14:32:31.985Z</time></trkpt><trkpt lat="36.9666327" lon="15.0542083"><ele>445.99999999999994</ele><time>2026-04-04T14:32:33.986Z</time></trkpt><trkpt lat="36.9666493" lon="15.0541276"><ele>446.0</ele><time>2026-04-04T14:32:34.986Z</time></trkpt><trkpt lat="36.9666796" lon="15.0539608"><ele>446.0</ele><time>2026-04-04T14:32:36.985Z</time></trkpt><trkpt lat="36.9666942" lon="15.053878"><ele>446.0</ele><time>2026-04-04T14:32:37.986Z</time></trkpt><trkpt lat="36.9667126" lon="15.0537972"><ele>445.99999999999994</ele><time>2026-04-04T14:32:38.986Z</time></trkpt><trkpt lat="36.96673" lon="15.0537191"><ele>446.0</ele><time>2026-04-04T14:32:39.986Z</time></trkpt><trkpt lat="36.9667455" lon="15.0536289"><ele>446.66666666666663</ele><time>2026-04-04T14:32:40.985Z</time></trkpt><trkpt lat="36.9667593" lon="15.0535381"><ele>447.3333333333333</ele><time>2026-04-04T14:32:41.985Z</time></trkpt><trkpt lat="36.966796" lon="15.0533897"><ele>448.0</ele><time>2026-04-04T14:32:43.985Z</time></trkpt><trkpt lat="36.9668066" lon="15.0532918"><ele>448.66666666666663</ele><time>2026-04-04T14:32:44.985Z</time></trkpt><trkpt lat="36.9668136" lon="15.0532016"><ele>449.3333333333333</ele><time>2026-04-04T14:32:45.986Z</time></trkpt><trkpt lat="36.9668152" lon="15.0531218"><ele>450.0</ele><time>2026-04-04T14:32:46.986Z</time></trkpt><trkpt lat="36.9668094" lon="15.0530266"><ele>450.00000000000006</ele><time>2026-04-04T14:32:47.986Z</time></trkpt><trkpt lat="36.9667986" lon="15.0529342"><ele>450.0</ele><time>2026-04-04T14:32:48.985Z</time></trkpt><trkpt lat="36.966788" lon="15.0528352"><ele>450.00000000000006</ele><time>2026-04-04T14:32:49.985Z</time></trkpt><trkpt lat="36.9667805" lon="15.0527459"><ele>450.00000000000006</ele><time>2026-04-04T14:32:50.985Z</time></trkpt><trkpt lat="36.9667737" lon="15.0526521"><ele>450.0</ele><time>2026-04-04T14:32:51.986Z</time></trkpt><trkpt lat="36.9667662" lon="15.0525724"><ele>450.00000000000006</ele><time>2026-04-04T14:32:52.985Z</time></trkpt><trkpt lat="36.9667474" lon="15.0524804"><ele>450.00000000000006</ele><time>2026-04-04T14:32:53.985Z</time></trkpt><trkpt lat="36.9667192" lon="15.0523842"><ele>447.8333333333333</ele><time>2026-04-04T14:32:54.985Z</time></trkpt><trkpt lat="36.9666844" lon="15.0522853"><ele>445.66666666666663</ele><time>2026-04-04T14:32:55.985Z</time></trkpt><trkpt lat="36.9666434" lon="15.0521863"><ele>443.5</ele><time>2026-04-04T14:32:56.985Z</time></trkpt><trkpt lat="36.9666075" lon="15.0521013"><ele>441.3333333333333</ele><time>2026-04-04T14:32:57.986Z</time></trkpt><trkpt lat="36.9665693" lon="15.0520206"><ele>439.16666666666663</ele><time>2026-04-04T14:32:58.985Z</time></trkpt><trkpt lat="36.9665299" lon="15.0519372"><ele>437.0</ele><time>2026-04-04T14:32:59.985Z</time></trkpt><trkpt lat="36.9664986" lon="15.051861"><ele>437.0</ele><time>2026-04-04T14:33:00.986Z</time></trkpt><trkpt lat="36.966471" lon="15.0517763"><ele>437.0</ele><time>2026-04-04T14:33:01.986Z</time></trkpt><trkpt lat="36.9664521" lon="15.0516963"><ele>437.0</ele><time>2026-04-04T14:33:02.985Z</time></trkpt><trkpt lat="36.9664306" lon="15.0516119"><ele>437.0</ele><time>2026-04-04T14:33:03.986Z</time></trkpt><trkpt lat="36.9664091" lon="15.0515267"><ele>437.0</ele><time>2026-04-04T14:33:04.986Z</time></trkpt><trkpt lat="36.9663885" lon="15.0514471"><ele>437.0</ele><time>2026-04-04T14:33:05.986Z</time></trkpt><trkpt lat="36.9663718" lon="15.0513711"><ele>437.0</ele><time>2026-04-04T14:33:06.986Z</time></trkpt><trkpt lat="36.9663289" lon="15.0512206"><ele>436.49999999999994</ele><time>2026-04-04T14:33:08.986Z</time></trkpt><trkpt lat="36.9663027" lon="15.0510776"><ele>436.0</ele><time>2026-04-04T14:33:10.986Z</time></trkpt><trkpt lat="36.9662775" lon="15.0509839"><ele>435.5</ele><time>2026-04-04T14:33:11.986Z</time></trkpt><trkpt lat="36.9662563" lon="15.0509049"><ele>435.0</ele><time>2026-04-04T14:33:12.986Z</time></trkpt><trkpt lat="36.9662327" lon="15.0508252"><ele>434.49999999999994</ele><time>2026-04-04T14:33:13.986Z</time></trkpt><trkpt lat="36.9662075" lon="15.0507453"><ele>434.0</ele><time>2026-04-04T14:33:14.985Z</time></trkpt><trkpt lat="36.9661855" lon="15.0506675"><ele>431.6</ele><time>2026-04-04T14:33:15.986Z</time></trkpt><trkpt lat="36.9661476" lon="15.0505323"><ele>429.2</ele><time>2026-04-04T14:33:17.985Z</time></trkpt><trkpt lat="36.9661238" lon="15.0503905"><ele>426.8</ele><time>2026-04-04T14:33:19.985Z</time></trkpt><trkpt lat="36.9661132" lon="15.0502555"><ele>424.40000000000003</ele><time>2026-04-04T14:33:21.986Z</time></trkpt><trkpt lat="36.9661054" lon="15.0501227"><ele>422.0</ele><time>2026-04-04T14:33:23.986Z</time></trkpt><trkpt lat="36.9660995" lon="15.0500051"><ele>421.16666666666663</ele><time>2026-04-04T14:33:25.985Z</time></trkpt><trkpt lat="36.9660887" lon="15.0498838"><ele>420.3333333333333</ele><time>2026-04-04T14:33:27.986Z</time></trkpt><trkpt lat="36.9660794" lon="15.0497359"><ele>419.5</ele><time>2026-04-04T14:33:29.986Z</time></trkpt><trkpt lat="36.9660725" lon="15.0496555"><ele>418.66666666666663</ele><time>2026-04-04T14:33:30.985Z</time></trkpt><trkpt lat="36.9660675" lon="15.0495716"><ele>417.8333333333333</ele><time>2026-04-04T14:33:31.986Z</time></trkpt><trkpt lat="36.9660638" lon="15.0494825"><ele>417.0</ele><time>2026-04-04T14:33:32.984Z</time></trkpt><trkpt lat="36.9660637" lon="15.0494035"><ele>417.0</ele><time>2026-04-04T14:33:33.985Z</time></trkpt><trkpt lat="36.966057" lon="15.0493066"><ele>417.0</ele><time>2026-04-04T14:33:34.986Z</time></trkpt><trkpt lat="36.9660611" lon="15.0492083"><ele>417.0</ele><time>2026-04-04T14:33:35.985Z</time></trkpt><trkpt lat="36.9660606" lon="15.0491081"><ele>417.0</ele><time>2026-04-04T14:33:36.986Z</time></trkpt><trkpt lat="36.9660637" lon="15.0490099"><ele>417.0</ele><time>2026-04-04T14:33:37.986Z</time></trkpt><trkpt lat="36.9660682" lon="15.0489248"><ele>417.0</ele><time>2026-04-04T14:33:38.985Z</time></trkpt><trkpt lat="36.9660729" lon="15.0488394"><ele>416.6666666666667</ele><time>2026-04-04T14:33:39.986Z</time></trkpt><trkpt lat="36.9660776" lon="15.0487556"><ele>416.33333333333337</ele><time>2026-04-04T14:33:40.986Z</time></trkpt><trkpt lat="36.966084" lon="15.048669"><ele>416.0</ele><time>2026-04-04T14:33:41.984Z</time></trkpt><trkpt lat="36.966091" lon="15.0485855"><ele>415.6666666666667</ele><time>2026-04-04T14:33:42.986Z</time></trkpt><trkpt lat="36.9660892" lon="15.0485019"><ele>415.33333333333337</ele><time>2026-04-04T14:33:43.986Z</time></trkpt><trkpt lat="36.9660849" lon="15.0484225"><ele>415.0</ele><time>2026-04-04T14:33:44.985Z</time></trkpt><trkpt lat="36.9660701" lon="15.0482764"><ele>414.6666666666667</ele><time>2026-04-04T14:33:46.986Z</time></trkpt><trkpt lat="36.9660471" lon="15.0481245"><ele>414.33333333333337</ele><time>2026-04-04T14:33:48.985Z</time></trkpt><trkpt lat="36.9660401" lon="15.0480432"><ele>414.0</ele><time>2026-04-04T14:33:49.985Z</time></trkpt><trkpt lat="36.9660386" lon="15.047962"><ele>413.66666666666663</ele><time>2026-04-04T14:33:50.985Z</time></trkpt><trkpt lat="36.9660296" lon="15.0478658"><ele>413.3333333333333</ele><time>2026-04-04T14:33:51.985Z</time></trkpt><trkpt lat="36.9660302" lon="15.0477691"><ele>413.0</ele><time>2026-04-04T14:33:52.986Z</time></trkpt><trkpt lat="36.9660295" lon="15.047684"><ele>412.99999999999994</ele><time>2026-04-04T14:33:53.985Z</time></trkpt><trkpt lat="36.9660387" lon="15.047599"><ele>413.0</ele><time>2026-04-04T14:33:54.985Z</time></trkpt><trkpt lat="36.9660531" lon="15.0475147"><ele>413.0</ele><time>2026-04-04T14:33:55.985Z</time></trkpt><trkpt lat="36.9660677" lon="15.0474371"><ele>413.0</ele><time>2026-04-04T14:33:56.986Z</time></trkpt><trkpt lat="36.9660618" lon="15.0472978"><ele>412.99999999999994</ele><time>2026-04-04T14:33:58.986Z</time></trkpt><trkpt lat="36.9660314" lon="15.0471896"><ele>413.0</ele><time>2026-04-04T14:34:00.986Z</time></trkpt><trkpt lat="36.9659906" lon="15.0470962"><ele>412.49999999999994</ele><time>2026-04-04T14:34:02.986Z</time></trkpt><trkpt lat="36.965952" lon="15.047013"><ele>412.0</ele><time>2026-04-04T14:34:04.985Z</time></trkpt><trkpt lat="36.9659201" lon="15.0469126"><ele>411.5</ele><time>2026-04-04T14:34:06.985Z</time></trkpt><trkpt lat="36.9658967" lon="15.0468039"><ele>411.0</ele><time>2026-04-04T14:34:08.985Z</time></trkpt><trkpt lat="36.9658667" lon="15.0467007"><ele>410.49999999999994</ele><time>2026-04-04T14:34:10.986Z</time></trkpt><trkpt lat="36.9657924" lon="15.0466265"><ele>410.0</ele><time>2026-04-04T14:34:12.986Z</time></trkpt><trkpt lat="36.9656761" lon="15.0465953"><ele>409.49999999999994</ele><time>2026-04-04T14:34:14.986Z</time></trkpt><trkpt lat="36.9656135" lon="15.0465696"><ele>409.0</ele><time>2026-04-04T14:34:15.985Z</time></trkpt><trkpt lat="36.9655513" lon="15.0465383"><ele>408.5</ele><time>2026-04-04T14:34:16.986Z</time></trkpt><trkpt lat="36.9654848" lon="15.0465062"><ele>408.0</ele><time>2026-04-04T14:34:17.986Z</time></trkpt><trkpt lat="36.9654182" lon="15.0464678"><ele>407.49999999999994</ele><time>2026-04-04T14:34:18.985Z</time></trkpt><trkpt lat="36.9653595" lon="15.0464283"><ele>407.0</ele><time>2026-04-04T14:34:19.985Z</time></trkpt><trkpt lat="36.9652698" lon="15.0462951"><ele>406.99999999999994</ele><time>2026-04-04T14:34:21.986Z</time></trkpt><trkpt lat="36.9652314" lon="15.0461989"><ele>407.0</ele><time>2026-04-04T14:34:22.985Z</time></trkpt><trkpt lat="36.9651947" lon="15.0461038"><ele>407.0</ele><time>2026-04-04T14:34:23.986Z</time></trkpt><trkpt lat="36.9651613" lon="15.0460119"><ele>407.0</ele><time>2026-04-04T14:34:24.986Z</time></trkpt><trkpt lat="36.965131" lon="15.0459095"><ele>406.99999999999994</ele><time>2026-04-04T14:34:25.986Z</time></trkpt><trkpt lat="36.9651022" lon="15.0458161"><ele>407.0</ele><time>2026-04-04T14:34:26.986Z</time></trkpt><trkpt lat="36.965067" lon="15.045725"><ele>406.28571428571433</ele><time>2026-04-04T14:34:27.986Z</time></trkpt><trkpt lat="36.9650246" lon="15.0456462"><ele>405.57142857142856</ele><time>2026-04-04T14:34:28.986Z</time></trkpt><trkpt lat="36.9649846" lon="15.0455666"><ele>404.8571428571429</ele><time>2026-04-04T14:34:29.985Z</time></trkpt><trkpt lat="36.9649534" lon="15.0454964"><ele>404.14285714285717</ele><time>2026-04-04T14:34:30.985Z</time></trkpt><trkpt lat="36.9649271" lon="15.0454234"><ele>403.42857142857144</ele><time>2026-04-04T14:34:31.985Z</time></trkpt><trkpt lat="36.9648981" lon="15.0453417"><ele>402.7142857142857</ele><time>2026-04-04T14:34:32.986Z</time></trkpt><trkpt lat="36.9648694" lon="15.045263"><ele>402.0</ele><time>2026-04-04T14:34:33.986Z</time></trkpt><trkpt lat="36.964836" lon="15.0451355"><ele>402.0</ele><time>2026-04-04T14:34:35.986Z</time></trkpt><trkpt lat="36.9648155" lon="15.0450446"><ele>402.0</ele><time>2026-04-04T14:34:37.985Z</time></trkpt><trkpt lat="36.964785" lon="15.0449528"><ele>402.0</ele><time>2026-04-04T14:34:39.985Z</time></trkpt><trkpt lat="36.9647524" lon="15.0448731"><ele>402.0</ele><time>2026-04-04T14:34:41.985Z</time></trkpt><trkpt lat="36.9647025" lon="15.044778"><ele>402.0</ele><time>2026-04-04T14:34:43.985Z</time></trkpt><trkpt lat="36.964634" lon="15.044654"><ele>402.0</ele><time>2026-04-04T14:34:45.986Z</time></trkpt><trkpt lat="36.964597" lon="15.0445827"><ele>401.4285714285714</ele><time>2026-04-04T14:34:46.985Z</time></trkpt><trkpt lat="36.9645521" lon="15.0445093"><ele>400.8571428571429</ele><time>2026-04-04T14:34:47.985Z</time></trkpt><trkpt lat="36.9645123" lon="15.0444349"><ele>400.2857142857143</ele><time>2026-04-04T14:34:48.985Z</time></trkpt><trkpt lat="36.9644736" lon="15.0443673"><ele>399.71428571428567</ele><time>2026-04-04T14:34:49.985Z</time></trkpt><trkpt lat="36.9644302" lon="15.0443079"><ele>399.1428571428571</ele><time>2026-04-04T14:34:50.984Z</time></trkpt><trkpt lat="36.9643817" lon="15.0442503"><ele>398.57142857142856</ele><time>2026-04-04T14:34:51.985Z</time></trkpt><trkpt lat="36.964334" lon="15.0441969"><ele>398.0</ele><time>2026-04-04T14:34:52.985Z</time></trkpt><trkpt lat="36.9642473" lon="15.0440862"><ele>396.79999999999995</ele><time>2026-04-04T14:34:54.986Z</time></trkpt><trkpt lat="36.964177" lon="15.0439594"><ele>395.6</ele><time>2026-04-04T14:34:56.986Z</time></trkpt><trkpt lat="36.9641378" lon="15.0438976"><ele>394.4</ele><time>2026-04-04T14:34:57.985Z</time></trkpt><trkpt lat="36.9640532" lon="15.0437764"><ele>393.20000000000005</ele><time>2026-04-04T14:34:59.985Z</time></trkpt><trkpt lat="36.9639499" lon="15.0436922"><ele>392.0</ele><time>2026-04-04T14:35:01.985Z</time></trkpt><trkpt lat="36.9638722" lon="15.043591"><ele>391.99999999999994</ele><time>2026-04-04T14:35:03.985Z</time></trkpt><trkpt lat="36.9638369" lon="15.04351"><ele>392.0</ele><time>2026-04-04T14:35:04.986Z</time></trkpt><trkpt lat="36.9638045" lon="15.0434235"><ele>392.0</ele><time>2026-04-04T14:35:05.984Z</time></trkpt><trkpt lat="36.9637791" lon="15.0433384"><ele>392.0</ele><time>2026-04-04T14:35:06.985Z</time></trkpt><trkpt lat="36.9637631" lon="15.0432392"><ele>391.99999999999994</ele><time>2026-04-04T14:35:07.984Z</time></trkpt><trkpt lat="36.9637512" lon="15.0431256"><ele>392.0</ele><time>2026-04-04T14:35:08.986Z</time></trkpt><trkpt lat="36.9637462" lon="15.0430148"><ele>391.8333333333333</ele><time>2026-04-04T14:35:09.985Z</time></trkpt><trkpt lat="36.9637445" lon="15.0428975"><ele>391.66666666666663</ele><time>2026-04-04T14:35:10.986Z</time></trkpt><trkpt lat="36.9637425" lon="15.042783"><ele>391.5</ele><time>2026-04-04T14:35:11.986Z</time></trkpt><trkpt lat="36.9637488" lon="15.0426822"><ele>391.33333333333337</ele><time>2026-04-04T14:35:12.986Z</time></trkpt><trkpt lat="36.9637429" lon="15.0425654"><ele>391.1666666666667</ele><time>2026-04-04T14:35:13.985Z</time></trkpt><trkpt lat="36.9637266" lon="15.0424582"><ele>391.0</ele><time>2026-04-04T14:35:14.985Z</time></trkpt><trkpt lat="36.963709" lon="15.042346"><ele>392.0</ele><time>2026-04-04T14:35:15.986Z</time></trkpt><trkpt lat="36.9636967" lon="15.04222"><ele>393.0</ele><time>2026-04-04T14:35:16.985Z</time></trkpt><trkpt lat="36.9636825" lon="15.0420988"><ele>394.0</ele><time>2026-04-04T14:35:17.985Z</time></trkpt><trkpt lat="36.9636728" lon="15.0419649"><ele>395.0</ele><time>2026-04-04T14:35:18.985Z</time></trkpt><trkpt lat="36.9636651" lon="15.041828"><ele>396.0</ele><time>2026-04-04T14:35:19.985Z</time></trkpt><trkpt lat="36.9636495" lon="15.0416958"><ele>397.20000000000005</ele><time>2026-04-04T14:35:20.985Z</time></trkpt><trkpt lat="36.9636288" lon="15.0415654"><ele>398.40000000000003</ele><time>2026-04-04T14:35:21.985Z</time></trkpt><trkpt lat="36.9636069" lon="15.0414408"><ele>399.6</ele><time>2026-04-04T14:35:22.985Z</time></trkpt><trkpt lat="36.9635884" lon="15.0413143"><ele>400.8</ele><time>2026-04-04T14:35:23.985Z</time></trkpt><trkpt lat="36.9635735" lon="15.0411935"><ele>402.0</ele><time>2026-04-04T14:35:24.986Z</time></trkpt><trkpt lat="36.9635589" lon="15.0410571"><ele>402.0</ele><time>2026-04-04T14:35:25.985Z</time></trkpt><trkpt lat="36.9635481" lon="15.0409078"><ele>402.0</ele><time>2026-04-04T14:35:26.985Z</time></trkpt><trkpt lat="36.9635404" lon="15.0407771"><ele>402.0</ele><time>2026-04-04T14:35:27.986Z</time></trkpt><trkpt lat="36.9635318" lon="15.0406493"><ele>402.0</ele><time>2026-04-04T14:35:28.986Z</time></trkpt><trkpt lat="36.9635225" lon="15.0405004"><ele>402.0</ele><time>2026-04-04T14:35:29.985Z</time></trkpt><trkpt lat="36.9635151" lon="15.0403393"><ele>403.25</ele><time>2026-04-04T14:35:30.985Z</time></trkpt><trkpt lat="36.9635018" lon="15.0401611"><ele>404.5</ele><time>2026-04-04T14:35:31.986Z</time></trkpt><trkpt lat="36.963478" lon="15.0399697"><ele>405.75</ele><time>2026-04-04T14:35:32.986Z</time></trkpt><trkpt lat="36.963452" lon="15.0397939"><ele>407.0</ele><time>2026-04-04T14:35:33.986Z</time></trkpt><trkpt lat="36.9634268" lon="15.0396277"><ele>407.75</ele><time>2026-04-04T14:35:34.984Z</time></trkpt><trkpt lat="36.9634117" lon="15.0394644"><ele>408.5</ele><time>2026-04-04T14:35:35.985Z</time></trkpt><trkpt lat="36.9634143" lon="15.0393066"><ele>409.25</ele><time>2026-04-04T14:35:36.986Z</time></trkpt><trkpt lat="36.9634078" lon="15.0391602"><ele>410.0</ele><time>2026-04-04T14:35:37.985Z</time></trkpt><trkpt lat="36.963401" lon="15.0390354"><ele>410.0</ele><time>2026-04-04T14:35:38.986Z</time></trkpt><trkpt lat="36.9633823" lon="15.0389012"><ele>410.0</ele><time>2026-04-04T14:35:39.986Z</time></trkpt><trkpt lat="36.9633476" lon="15.038775"><ele>410.0</ele><time>2026-04-04T14:35:40.986Z</time></trkpt><trkpt lat="36.9632881" lon="15.0386574"><ele>410.0</ele><time>2026-04-04T14:35:41.986Z</time></trkpt><trkpt lat="36.9632042" lon="15.0385423"><ele>410.0</ele><time>2026-04-04T14:35:42.985Z</time></trkpt><trkpt lat="36.9631043" lon="15.0384311"><ele>410.0</ele><time>2026-04-04T14:35:43.984Z</time></trkpt><trkpt lat="36.9630062" lon="15.0383413"><ele>410.0</ele><time>2026-04-04T14:35:44.985Z</time></trkpt><trkpt lat="36.9629213" lon="15.038252"><ele>410.0</ele><time>2026-04-04T14:35:45.985Z</time></trkpt><trkpt lat="36.9628367" lon="15.0381593"><ele>411.3333333333333</ele><time>2026-04-04T14:35:46.985Z</time></trkpt><trkpt lat="36.9627646" lon="15.0380676"><ele>412.66666666666663</ele><time>2026-04-04T14:35:47.986Z</time></trkpt><trkpt lat="36.9627345" lon="15.0379968"><ele>414.0</ele><time>2026-04-04T14:35:48.985Z</time></trkpt><trkpt lat="36.962708" lon="15.0379017"><ele>415.33333333333337</ele><time>2026-04-04T14:35:50.984Z</time></trkpt><trkpt lat="36.9626643" lon="15.0378179"><ele>416.6666666666667</ele><time>2026-04-04T14:36:08.986Z</time></trkpt><trkpt lat="36.9626769" lon="15.037737"><ele>418.0</ele><time>2026-04-04T14:36:13.985Z</time></trkpt><trkpt lat="36.9627686" lon="15.0377089"><ele>418.0</ele><time>2026-04-04T14:36:17.985Z</time></trkpt><trkpt lat="36.9628587" lon="15.0376633"><ele>418.0</ele><time>2026-04-04T14:36:19.987Z</time></trkpt><trkpt lat="36.9629607" lon="15.0375957"><ele>418.0</ele><time>2026-04-04T14:36:21.985Z</time></trkpt><trkpt lat="36.963045" lon="15.0374975"><ele>418.0</ele><time>2026-04-04T14:36:23.985Z</time></trkpt><trkpt lat="36.963136" lon="15.0373856"><ele>418.50000000000006</ele><time>2026-04-04T14:36:25.986Z</time></trkpt><trkpt lat="36.9632235" lon="15.0372805"><ele>419.0</ele><time>2026-04-04T14:36:27.985Z</time></trkpt><trkpt lat="36.9632764" lon="15.0372165"><ele>419.5</ele><time>2026-04-04T14:36:28.986Z</time></trkpt><trkpt lat="36.9633291" lon="15.0371424"><ele>420.0</ele><time>2026-04-04T14:36:29.985Z</time></trkpt><trkpt lat="36.9633868" lon="15.0370794"><ele>420.50000000000006</ele><time>2026-04-04T14:36:30.985Z</time></trkpt><trkpt lat="36.9634449" lon="15.0370149"><ele>421.0</ele><time>2026-04-04T14:36:31.985Z</time></trkpt><trkpt lat="36.9634991" lon="15.0369555"><ele>421.6666666666667</ele><time>2026-04-04T14:36:32.985Z</time></trkpt><trkpt lat="36.9635484" lon="15.0368911"><ele>422.33333333333337</ele><time>2026-04-04T14:36:33.986Z</time></trkpt><trkpt lat="36.9636085" lon="15.036819"><ele>423.0</ele><time>2026-04-04T14:36:34.986Z</time></trkpt><trkpt lat="36.9636596" lon="15.0367579"><ele>423.66666666666663</ele><time>2026-04-04T14:36:35.985Z</time></trkpt><trkpt lat="36.9636987" lon="15.0366852"><ele>424.3333333333333</ele><time>2026-04-04T14:36:36.986Z</time></trkpt><trkpt lat="36.9637397" lon="15.0366222"><ele>425.0</ele><time>2026-04-04T14:36:37.985Z</time></trkpt><trkpt lat="36.9638127" lon="15.036516"><ele>426.16666666666663</ele><time>2026-04-04T14:36:39.986Z</time></trkpt><trkpt lat="36.9639016" lon="15.0364132"><ele>427.3333333333333</ele><time>2026-04-04T14:36:41.986Z</time></trkpt><trkpt lat="36.9639521" lon="15.0363495"><ele>428.5</ele><time>2026-04-04T14:36:42.985Z</time></trkpt><trkpt lat="36.9640007" lon="15.0362841"><ele>429.66666666666663</ele><time>2026-04-04T14:36:43.985Z</time></trkpt><trkpt lat="36.9640456" lon="15.036225"><ele>430.8333333333333</ele><time>2026-04-04T14:36:44.985Z</time></trkpt><trkpt lat="36.9640981" lon="15.0361633"><ele>432.0</ele><time>2026-04-04T14:36:45.986Z</time></trkpt><trkpt lat="36.9641441" lon="15.0360988"><ele>432.1666666666667</ele><time>2026-04-04T14:36:46.985Z</time></trkpt><trkpt lat="36.9642257" lon="15.0359728"><ele>432.33333333333337</ele><time>2026-04-04T14:36:48.985Z</time></trkpt><trkpt lat="36.964271" lon="15.0359065"><ele>432.5</ele><time>2026-04-04T14:36:49.985Z</time></trkpt><trkpt lat="36.9643156" lon="15.0358454"><ele>432.6666666666667</ele><time>2026-04-04T14:36:50.986Z</time></trkpt><trkpt lat="36.9643629" lon="15.0357892"><ele>432.83333333333337</ele><time>2026-04-04T14:36:51.986Z</time></trkpt><trkpt lat="36.9644061" lon="15.0357277"><ele>433.0</ele><time>2026-04-04T14:36:52.986Z</time></trkpt><trkpt lat="36.9644561" lon="15.0356618"><ele>433.83333333333337</ele><time>2026-04-04T14:36:53.985Z</time></trkpt><trkpt lat="36.9645102" lon="15.0356016"><ele>434.6666666666667</ele><time>2026-04-04T14:36:54.985Z</time></trkpt><trkpt lat="36.9645727" lon="15.0355377"><ele>435.5</ele><time>2026-04-04T14:36:55.985Z</time></trkpt><trkpt lat="36.9646349" lon="15.0354749"><ele>436.33333333333337</ele><time>2026-04-04T14:36:56.986Z</time></trkpt><trkpt lat="36.9646994" lon="15.0354117"><ele>437.1666666666667</ele><time>2026-04-04T14:36:57.985Z</time></trkpt><trkpt lat="36.9647581" lon="15.0353547"><ele>438.0</ele><time>2026-04-04T14:36:58.985Z</time></trkpt><trkpt lat="36.964826" lon="15.0353083"><ele>438.0</ele><time>2026-04-04T14:36:59.985Z</time></trkpt><trkpt lat="36.9649054" lon="15.0352705"><ele>437.99999999999994</ele><time>2026-04-04T14:37:00.985Z</time></trkpt><trkpt lat="36.9649834" lon="15.0352244"><ele>437.99999999999994</ele><time>2026-04-04T14:37:01.986Z</time></trkpt><trkpt lat="36.9650684" lon="15.0351741"><ele>438.0</ele><time>2026-04-04T14:37:02.985Z</time></trkpt><trkpt lat="36.9651481" lon="15.035113"><ele>438.0</ele><time>2026-04-04T14:37:03.985Z</time></trkpt><trkpt lat="36.9652318" lon="15.0350611"><ele>438.0</ele><time>2026-04-04T14:37:04.986Z</time></trkpt><trkpt lat="36.9653124" lon="15.0350116"><ele>438.0</ele><time>2026-04-04T14:37:05.985Z</time></trkpt><trkpt lat="36.9653848" lon="15.034958"><ele>438.0</ele><time>2026-04-04T14:37:06.984Z</time></trkpt><trkpt lat="36.9654549" lon="15.0349149"><ele>438.0</ele><time>2026-04-04T14:37:07.985Z</time></trkpt><trkpt lat="36.9655288" lon="15.0348692"><ele>438.0</ele><time>2026-04-04T14:37:08.986Z</time></trkpt><trkpt lat="36.9656004" lon="15.034822"><ele>438.0</ele><time>2026-04-04T14:37:09.986Z</time></trkpt><trkpt lat="36.9656705" lon="15.0347877"><ele>438.0</ele><time>2026-04-04T14:37:10.985Z</time></trkpt><trkpt lat="36.9657389" lon="15.03475"><ele>438.0</ele><time>2026-04-04T14:37:11.985Z</time></trkpt><trkpt lat="36.9658335" lon="15.0346774"><ele>438.0</ele><time>2026-04-04T14:37:13.985Z</time></trkpt><trkpt lat="36.965853" lon="15.0345796"><ele>438.0</ele><time>2026-04-04T14:37:15.986Z</time></trkpt><trkpt lat="36.9658459" lon="15.0344912"><ele>438.0</ele><time>2026-04-04T14:37:18.985Z</time></trkpt><trkpt lat="36.9658699" lon="15.0343904"><ele>438.0</ele><time>2026-04-04T14:38:05.985Z</time></trkpt><trkpt lat="36.9659766" lon="15.0343718"><ele>438.0</ele><time>2026-04-04T14:38:07.985Z</time></trkpt><trkpt lat="36.9660443" lon="15.0343624"><ele>437.99999999999994</ele><time>2026-04-04T14:38:08.986Z</time></trkpt><trkpt lat="36.9661247" lon="15.0343421"><ele>437.99999999999994</ele><time>2026-04-04T14:38:09.985Z</time></trkpt><trkpt lat="36.9662125" lon="15.034317"><ele>438.0</ele><time>2026-04-04T14:38:10.985Z</time></trkpt><trkpt lat="36.9663131" lon="15.0342942"><ele>438.0</ele><time>2026-04-04T14:38:11.985Z</time></trkpt><trkpt lat="36.9664244" lon="15.0342649"><ele>438.0</ele><time>2026-04-04T14:38:12.986Z</time></trkpt><trkpt lat="36.9665393" lon="15.0342356"><ele>438.0</ele><time>2026-04-04T14:38:13.986Z</time></trkpt><trkpt lat="36.966659" lon="15.0342069"><ele>438.0</ele><time>2026-04-04T14:38:14.985Z</time></trkpt><trkpt lat="36.9667813" lon="15.0341749"><ele>438.0</ele><time>2026-04-04T14:38:15.984Z</time></trkpt><trkpt lat="36.9669077" lon="15.0341488"><ele>438.0</ele><time>2026-04-04T14:38:16.985Z</time></trkpt><trkpt lat="36.9670354" lon="15.0341168"><ele>438.0</ele><time>2026-04-04T14:38:17.984Z</time></trkpt><trkpt lat="36.9671666" lon="15.0340879"><ele>438.0</ele><time>2026-04-04T14:38:18.984Z</time></trkpt><trkpt lat="36.9672997" lon="15.0340551"><ele>438.0</ele><time>2026-04-04T14:38:19.985Z</time></trkpt><trkpt lat="36.9674321" lon="15.0340199"><ele>438.75</ele><time>2026-04-04T14:38:20.985Z</time></trkpt><trkpt lat="36.967557" lon="15.0339906"><ele>439.5</ele><time>2026-04-04T14:38:21.985Z</time></trkpt><trkpt lat="36.9676842" lon="15.0339617"><ele>440.25</ele><time>2026-04-04T14:38:22.985Z</time></trkpt><trkpt lat="36.9678168" lon="15.0339338"><ele>441.0</ele><time>2026-04-04T14:38:23.986Z</time></trkpt><trkpt lat="36.9679521" lon="15.0339001"><ele>441.0</ele><time>2026-04-04T14:38:24.985Z</time></trkpt><trkpt lat="36.9680882" lon="15.0338639"><ele>441.0</ele><time>2026-04-04T14:38:25.985Z</time></trkpt><trkpt lat="36.9682212" lon="15.0338283"><ele>441.0</ele><time>2026-04-04T14:38:26.986Z</time></trkpt><trkpt lat="36.968361" lon="15.0337858"><ele>441.0</ele><time>2026-04-04T14:38:27.985Z</time></trkpt><trkpt lat="36.9685058" lon="15.0337453"><ele>441.33333333333337</ele><time>2026-04-04T14:38:28.985Z</time></trkpt><trkpt lat="36.9686494" lon="15.0336982"><ele>441.6666666666667</ele><time>2026-04-04T14:38:29.985Z</time></trkpt><trkpt lat="36.9687909" lon="15.0336495"><ele>442.0</ele><time>2026-04-04T14:38:30.986Z</time></trkpt><trkpt lat="36.9689686" lon="15.0335815"><ele>442.6666666666667</ele><time>2026-04-04T14:38:32.777Z</time></trkpt><trkpt lat="36.9692219" lon="15.0334803"><ele>443.33333333333337</ele><time>2026-04-04T14:38:33.985Z</time></trkpt><trkpt lat="36.9693725" lon="15.033421"><ele>444.0</ele><time>2026-04-04T14:38:34.985Z</time></trkpt><trkpt lat="36.9695238" lon="15.0333627"><ele>442.0</ele><time>2026-04-04T14:38:35.985Z</time></trkpt><trkpt lat="36.9696764" lon="15.0333048"><ele>440.0</ele><time>2026-04-04T14:38:36.985Z</time></trkpt><trkpt lat="36.9698269" lon="15.0332529"><ele>438.0</ele><time>2026-04-04T14:38:37.985Z</time></trkpt><trkpt lat="36.9699668" lon="15.0332112"><ele>439.5</ele><time>2026-04-04T14:38:38.985Z</time></trkpt><trkpt lat="36.9701032" lon="15.0331805"><ele>441.0</ele><time>2026-04-04T14:38:39.985Z</time></trkpt><trkpt lat="36.9702415" lon="15.0331604"><ele>442.5</ele><time>2026-04-04T14:38:40.985Z</time></trkpt><trkpt lat="36.9703904" lon="15.0331574"><ele>444.0</ele><time>2026-04-04T14:38:41.985Z</time></trkpt><trkpt lat="36.9705429" lon="15.0331524"><ele>444.0</ele><time>2026-04-04T14:38:42.985Z</time></trkpt><trkpt lat="36.9707026" lon="15.0331473"><ele>444.0</ele><time>2026-04-04T14:38:43.985Z</time></trkpt><trkpt lat="36.9708671" lon="15.0331456"><ele>444.0</ele><time>2026-04-04T14:38:44.985Z</time></trkpt><trkpt lat="36.9710374" lon="15.0331457"><ele>446.0</ele><time>2026-04-04T14:38:45.985Z</time></trkpt><trkpt lat="36.9712124" lon="15.0331426"><ele>448.0</ele><time>2026-04-04T14:38:46.985Z</time></trkpt><trkpt lat="36.971386" lon="15.0331408"><ele>450.0</ele><time>2026-04-04T14:38:47.985Z</time></trkpt><trkpt lat="36.971548" lon="15.0331375"><ele>448.66666666666663</ele><time>2026-04-04T14:38:48.985Z</time></trkpt><trkpt lat="36.9717093" lon="15.0331286"><ele>447.3333333333333</ele><time>2026-04-04T14:38:49.985Z</time></trkpt><trkpt lat="36.9718712" lon="15.0331023"><ele>446.0</ele><time>2026-04-04T14:38:50.984Z</time></trkpt><trkpt lat="36.9720342" lon="15.033054"><ele>446.0</ele><time>2026-04-04T14:38:51.985Z</time></trkpt><trkpt lat="36.9722018" lon="15.0329914"><ele>446.0</ele><time>2026-04-04T14:38:52.985Z</time></trkpt><trkpt lat="36.9723755" lon="15.0329208"><ele>446.0</ele><time>2026-04-04T14:38:53.985Z</time></trkpt><trkpt lat="36.9725542" lon="15.0328445"><ele>446.3333333333333</ele><time>2026-04-04T14:38:54.985Z</time></trkpt><trkpt lat="36.9727386" lon="15.0327664"><ele>446.66666666666663</ele><time>2026-04-04T14:38:55.985Z</time></trkpt><trkpt lat="36.9729228" lon="15.0326895"><ele>447.0</ele><time>2026-04-04T14:38:56.985Z</time></trkpt><trkpt lat="36.9731025" lon="15.0326156"><ele>447.0</ele><time>2026-04-04T14:38:57.985Z</time></trkpt><trkpt lat="36.9732864" lon="15.0325373"><ele>447.0</ele><time>2026-04-04T14:38:58.985Z</time></trkpt><trkpt lat="36.9734708" lon="15.0324579"><ele>447.0</ele><time>2026-04-04T14:38:59.985Z</time></trkpt><trkpt lat="36.9736584" lon="15.0323784"><ele>446.66666666666663</ele><time>2026-04-04T14:39:00.984Z</time></trkpt><trkpt lat="36.9738465" lon="15.0322967"><ele>446.3333333333333</ele><time>2026-04-04T14:39:01.985Z</time></trkpt><trkpt lat="36.9740372" lon="15.0322179"><ele>446.0</ele><time>2026-04-04T14:39:02.985Z</time></trkpt><trkpt lat="36.9742283" lon="15.0321382"><ele>446.0</ele><time>2026-04-04T14:39:03.985Z</time></trkpt><trkpt lat="36.9744198" lon="15.0320572"><ele>446.0</ele><time>2026-04-04T14:39:04.985Z</time></trkpt><trkpt lat="36.9746088" lon="15.0319785"><ele>446.0</ele><time>2026-04-04T14:39:05.984Z</time></trkpt><trkpt lat="36.9747864" lon="15.0319079"><ele>446.0</ele><time>2026-04-04T14:39:06.984Z</time></trkpt><trkpt lat="36.9749548" lon="15.0318365"><ele>446.0</ele><time>2026-04-04T14:39:07.985Z</time></trkpt><trkpt lat="36.9751212" lon="15.0317694"><ele>446.0</ele><time>2026-04-04T14:39:08.985Z</time></trkpt><trkpt lat="36.9752859" lon="15.0317073"><ele>447.3333333333333</ele><time>2026-04-04T14:39:09.985Z</time></trkpt><trkpt lat="36.9754452" lon="15.0316625"><ele>448.66666666666663</ele><time>2026-04-04T14:39:10.985Z</time></trkpt><trkpt lat="36.9755921" lon="15.0316456"><ele>450.0</ele><time>2026-04-04T14:39:11.985Z</time></trkpt><trkpt lat="36.9757398" lon="15.0316683"><ele>451.5</ele><time>2026-04-04T14:39:12.985Z</time></trkpt><trkpt lat="36.9758703" lon="15.0317236"><ele>453.0</ele><time>2026-04-04T14:39:13.985Z</time></trkpt><trkpt lat="36.9759853" lon="15.0318146"><ele>454.5</ele><time>2026-04-04T14:39:14.985Z</time></trkpt><trkpt lat="36.9760801" lon="15.0319345"><ele>456.0</ele><time>2026-04-04T14:39:15.985Z</time></trkpt><trkpt lat="36.9761669" lon="15.0320638"><ele>456.0</ele><time>2026-04-04T14:39:16.985Z</time></trkpt><trkpt lat="36.9762481" lon="15.0322003"><ele>456.0</ele><time>2026-04-04T14:39:17.985Z</time></trkpt><trkpt lat="36.9763244" lon="15.0323294"><ele>456.0</ele><time>2026-04-04T14:39:18.985Z</time></trkpt><trkpt lat="36.976406" lon="15.0324433"><ele>456.0</ele><time>2026-04-04T14:39:19.985Z</time></trkpt><trkpt lat="36.9765019" lon="15.0325311"><ele>454.75</ele><time>2026-04-04T14:39:20.985Z</time></trkpt><trkpt lat="36.9766326" lon="15.0325963"><ele>453.5</ele><time>2026-04-04T14:39:21.985Z</time></trkpt><trkpt lat="36.9767766" lon="15.0326214"><ele>452.25</ele><time>2026-04-04T14:39:22.985Z</time></trkpt><trkpt lat="36.976929" lon="15.0326254"><ele>451.0</ele><time>2026-04-04T14:39:23.985Z</time></trkpt><trkpt lat="36.9942253" lon="15.0251926"><ele>448.0</ele><time>2026-04-04T14:42:10.897Z</time></trkpt><trkpt lat="36.9944567" lon="15.0251179"><ele>445.0</ele><time>2026-04-04T14:42:11.985Z</time></trkpt><trkpt lat="36.9946093" lon="15.0250727"><ele>442.0</ele><time>2026-04-04T14:42:12.985Z</time></trkpt><trkpt lat="36.9947536" lon="15.0250228"><ele>442.0</ele><time>2026-04-04T14:42:13.985Z</time></trkpt><trkpt lat="36.9948894" lon="15.0249645"><ele>442.0</ele><time>2026-04-04T14:42:14.985Z</time></trkpt><trkpt lat="36.9950181" lon="15.024896"><ele>442.0</ele><time>2026-04-04T14:42:15.985Z</time></trkpt><trkpt lat="36.9951488" lon="15.0248061"><ele>442.0</ele><time>2026-04-04T14:42:16.985Z</time></trkpt><trkpt lat="36.9952866" lon="15.024694"><ele>442.0</ele><time>2026-04-04T14:42:17.985Z</time></trkpt><trkpt lat="36.995429" lon="15.0245633"><ele>442.0</ele><time>2026-04-04T14:42:18.985Z</time></trkpt><trkpt lat="36.9955595" lon="15.0244415"><ele>442.0</ele><time>2026-04-04T14:42:19.985Z</time></trkpt><trkpt lat="36.9956876" lon="15.0243189"><ele>442.0</ele><time>2026-04-04T14:42:20.985Z</time></trkpt><trkpt lat="36.9958122" lon="15.0242009"><ele>442.0</ele><time>2026-04-04T14:42:21.984Z</time></trkpt><trkpt lat="36.995931" lon="15.0240845"><ele>442.0</ele><time>2026-04-04T14:42:22.985Z</time></trkpt><trkpt lat="36.9960476" lon="15.0239687"><ele>441.6666666666667</ele><time>2026-04-04T14:42:23.985Z</time></trkpt><trkpt lat="36.9961645" lon="15.0238575"><ele>441.33333333333337</ele><time>2026-04-04T14:42:24.985Z</time></trkpt><trkpt lat="36.99629" lon="15.0237339"><ele>441.0</ele><time>2026-04-04T14:42:25.985Z</time></trkpt><trkpt lat="36.9964255" lon="15.0236029"><ele>441.0</ele><time>2026-04-04T14:42:26.985Z</time></trkpt><trkpt lat="36.996573" lon="15.0234633"><ele>441.0</ele><time>2026-04-04T14:42:27.985Z</time></trkpt><trkpt lat="36.9967186" lon="15.02332"><ele>441.0</ele><time>2026-04-04T14:42:28.985Z</time></trkpt><trkpt lat="36.9968605" lon="15.0231852"><ele>441.66666666666663</ele><time>2026-04-04T14:42:29.985Z</time></trkpt><trkpt lat="36.9969959" lon="15.0230545"><ele>442.3333333333333</ele><time>2026-04-04T14:42:30.985Z</time></trkpt><trkpt lat="36.9971337" lon="15.0229164"><ele>443.0</ele><time>2026-04-04T14:42:31.985Z</time></trkpt><trkpt lat="36.9972832" lon="15.0227709"><ele>443.0</ele><time>2026-04-04T14:42:32.985Z</time></trkpt><trkpt lat="36.9974326" lon="15.0226295"><ele>443.0</ele><time>2026-04-04T14:42:33.985Z</time></trkpt><trkpt lat="36.9975762" lon="15.0224917"><ele>443.0</ele><time>2026-04-04T14:42:34.985Z</time></trkpt><trkpt lat="36.997714" lon="15.0223556"><ele>443.0</ele><time>2026-04-04T14:42:35.985Z</time></trkpt><trkpt lat="36.9978481" lon="15.0222251"><ele>443.0</ele><time>2026-04-04T14:42:36.985Z</time></trkpt><trkpt lat="36.9979795" lon="15.0220989"><ele>443.0</ele><time>2026-04-04T14:42:37.984Z</time></trkpt><trkpt lat="36.9981066" lon="15.0219773"><ele>443.0</ele><time>2026-04-04T14:42:38.985Z</time></trkpt><trkpt lat="36.9982323" lon="15.0218588"><ele>443.0</ele><time>2026-04-04T14:42:39.985Z</time></trkpt><trkpt lat="36.9983519" lon="15.0217434"><ele>443.0</ele><time>2026-04-04T14:42:40.985Z</time></trkpt><trkpt lat="36.9984692" lon="15.0216308"><ele>443.3333333333333</ele><time>2026-04-04T14:42:41.985Z</time></trkpt><trkpt lat="36.9986001" lon="15.021504"><ele>443.66666666666663</ele><time>2026-04-04T14:42:42.985Z</time></trkpt><trkpt lat="36.9987422" lon="15.0213671"><ele>444.0</ele><time>2026-04-04T14:42:43.985Z</time></trkpt><trkpt lat="36.9988812" lon="15.0212342"><ele>444.0</ele><time>2026-04-04T14:42:44.985Z</time></trkpt><trkpt lat="36.9990143" lon="15.021106"><ele>444.0</ele><time>2026-04-04T14:42:45.985Z</time></trkpt><trkpt lat="36.9991541" lon="15.0209702"><ele>444.0</ele><time>2026-04-04T14:42:46.985Z</time></trkpt><trkpt lat="36.9992954" lon="15.0208365"><ele>444.0</ele><time>2026-04-04T14:42:47.985Z</time></trkpt><trkpt lat="36.9994399" lon="15.0206982"><ele>444.0</ele><time>2026-04-04T14:42:48.985Z</time></trkpt><trkpt lat="36.9995945" lon="15.020564"><ele>444.0</ele><time>2026-04-04T14:42:49.985Z</time></trkpt><trkpt lat="36.9997607" lon="15.0204349"><ele>444.0</ele><time>2026-04-04T14:42:50.985Z</time></trkpt><trkpt lat="36.9999389" lon="15.0203196"><ele>444.0</ele><time>2026-04-04T14:42:51.985Z</time></trkpt><trkpt lat="37.0001286" lon="15.0202141"><ele>444.0</ele><time>2026-04-04T14:42:52.985Z</time></trkpt><trkpt lat="37.0003343" lon="15.0201113"><ele>444.0</ele><time>2026-04-04T14:42:53.985Z</time></trkpt><trkpt lat="37.0005503" lon="15.0200028"><ele>444.0</ele><time>2026-04-04T14:42:54.985Z</time></trkpt><trkpt lat="37.0007744" lon="15.019895"><ele>444.0</ele><time>2026-04-04T14:42:55.985Z</time></trkpt><trkpt lat="37.0009894" lon="15.0197887"><ele>444.0</ele><time>2026-04-04T14:42:56.985Z</time></trkpt><trkpt lat="37.0011984" lon="15.0196836"><ele>444.0</ele><time>2026-04-04T14:42:57.985Z</time></trkpt><trkpt lat="37.0014055" lon="15.0195791"><ele>444.0</ele><time>2026-04-04T14:42:58.985Z</time></trkpt><trkpt lat="37.0016128" lon="15.0194759"><ele>444.0</ele><time>2026-04-04T14:42:59.985Z</time></trkpt><trkpt lat="37.0018232" lon="15.0193719"><ele>444.5</ele><time>2026-04-04T14:43:00.985Z</time></trkpt><trkpt lat="37.0020357" lon="15.0192688"><ele>445.0</ele><time>2026-04-04T14:43:01.985Z</time></trkpt><trkpt lat="37.0022506" lon="15.0191632"><ele>445.5</ele><time>2026-04-04T14:43:02.985Z</time></trkpt><trkpt lat="37.0024642" lon="15.0190598"><ele>446.0</ele><time>2026-04-04T14:43:03.985Z</time></trkpt><trkpt lat="37.0026791" lon="15.0189569"><ele>447.0</ele><time>2026-04-04T14:43:04.985Z</time></trkpt><trkpt lat="37.0028986" lon="15.0188502"><ele>448.0</ele><time>2026-04-04T14:43:05.985Z</time></trkpt><trkpt lat="37.0031188" lon="15.018736"><ele>449.0</ele><time>2026-04-04T14:43:06.985Z</time></trkpt><trkpt lat="37.0033427" lon="15.0186208"><ele>450.0</ele><time>2026-04-04T14:43:07.985Z</time></trkpt><trkpt lat="37.003571" lon="15.0185024"><ele>450.0</ele><time>2026-04-04T14:43:08.985Z</time></trkpt><trkpt lat="37.0037919" lon="15.0183783"><ele>450.0</ele><time>2026-04-04T14:43:09.985Z</time></trkpt><trkpt lat="37.0040028" lon="15.0182553"><ele>452.0</ele><time>2026-04-04T14:43:10.985Z</time></trkpt><trkpt lat="37.0042006" lon="15.0181265"><ele>454.0</ele><time>2026-04-04T14:43:11.985Z</time></trkpt><trkpt lat="37.0043936" lon="15.0179959"><ele>456.0</ele><time>2026-04-04T14:43:12.985Z</time></trkpt><trkpt lat="37.0045859" lon="15.0178673"><ele>456.0</ele><time>2026-04-04T14:43:13.985Z</time></trkpt><trkpt lat="37.0047767" lon="15.0177433"><ele>456.0</ele><time>2026-04-04T14:43:14.985Z</time></trkpt><trkpt lat="37.0087069" lon="15.0142227"><ele>454.5</ele><time>2026-04-04T14:43:41.762Z</time></trkpt><trkpt lat="37.0089267" lon="15.0138609"><ele>453.0</ele><time>2026-04-04T14:43:42.985Z</time></trkpt><trkpt lat="37.009055" lon="15.0136507"><ele>454.66666666666663</ele><time>2026-04-04T14:43:43.985Z</time></trkpt><trkpt lat="37.0091734" lon="15.0134557"><ele>456.3333333333333</ele><time>2026-04-04T14:43:44.985Z</time></trkpt><trkpt lat="37.0092855" lon="15.0132804"><ele>458.0</ele><time>2026-04-04T14:43:45.985Z</time></trkpt><trkpt lat="37.0094002" lon="15.0131213"><ele>458.0</ele><time>2026-04-04T14:43:46.985Z</time></trkpt><trkpt lat="37.0095274" lon="15.0129815"><ele>458.0</ele><time>2026-04-04T14:43:47.985Z</time></trkpt><trkpt lat="37.0096651" lon="15.0128691"><ele>458.0</ele><time>2026-04-04T14:43:48.985Z</time></trkpt><trkpt lat="37.0097961" lon="15.0128036"><ele>458.0</ele><time>2026-04-04T14:43:49.985Z</time></trkpt><trkpt lat="37.0099139" lon="15.0127878"><ele>458.0</ele><time>2026-04-04T14:43:50.985Z</time></trkpt><trkpt lat="37.0100402" lon="15.0128184"><ele>458.0</ele><time>2026-04-04T14:43:51.985Z</time></trkpt><trkpt lat="37.0101768" lon="15.0128722"><ele>458.0</ele><time>2026-04-04T14:43:52.985Z</time></trkpt><trkpt lat="37.0103267" lon="15.0129273"><ele>458.3333333333333</ele><time>2026-04-04T14:43:53.985Z</time></trkpt><trkpt lat="37.0104896" lon="15.0129898"><ele>458.66666666666663</ele><time>2026-04-04T14:43:54.985Z</time></trkpt><trkpt lat="37.0106621" lon="15.0130573"><ele>459.0</ele><time>2026-04-04T14:43:55.985Z</time></trkpt><trkpt lat="37.0108425" lon="15.0131322"><ele>459.0</ele><time>2026-04-04T14:43:56.985Z</time></trkpt><trkpt lat="37.0110173" lon="15.0132034"><ele>459.0</ele><time>2026-04-04T14:43:57.985Z</time></trkpt><trkpt lat="37.0111901" lon="15.0132772"><ele>459.0</ele><time>2026-04-04T14:43:58.985Z</time></trkpt><trkpt lat="37.0113606" lon="15.0133461"><ele>459.33333333333337</ele><time>2026-04-04T14:43:59.983Z</time></trkpt><trkpt lat="37.0115311" lon="15.0134062"><ele>459.6666666666667</ele><time>2026-04-04T14:44:00.985Z</time></trkpt><trkpt lat="37.0117001" lon="15.0134588"><ele>460.0</ele><time>2026-04-04T14:44:01.985Z</time></trkpt><trkpt lat="37.0118658" lon="15.0135008"><ele>459.33333333333337</ele><time>2026-04-04T14:44:02.985Z</time></trkpt><trkpt lat="37.0120405" lon="15.0135324"><ele>458.66666666666663</ele><time>2026-04-04T14:44:03.985Z</time></trkpt><trkpt lat="37.0122188" lon="15.0135609"><ele>458.0</ele><time>2026-04-04T14:44:04.985Z</time></trkpt><trkpt lat="37.0124004" lon="15.0135886"><ele>456.66666666666663</ele><time>2026-04-04T14:44:05.985Z</time></trkpt><trkpt lat="37.0125774" lon="15.0136053"><ele>455.33333333333337</ele><time>2026-04-04T14:44:06.985Z</time></trkpt><trkpt lat="37.0127524" lon="15.0136233"><ele>454.0</ele><time>2026-04-04T14:44:07.985Z</time></trkpt><trkpt lat="37.0129238" lon="15.0136416"><ele>454.0</ele><time>2026-04-04T14:44:08.985Z</time></trkpt><trkpt lat="37.0130926" lon="15.0136558"><ele>454.0</ele><time>2026-04-04T14:44:09.985Z</time></trkpt><trkpt lat="37.0132584" lon="15.0136698"><ele>454.0</ele><time>2026-04-04T14:44:10.985Z</time></trkpt><trkpt lat="37.0134199" lon="15.0136822"><ele>453.0</ele><time>2026-04-04T14:44:11.985Z</time></trkpt><trkpt lat="37.0135792" lon="15.0136948"><ele>452.0</ele><time>2026-04-04T14:44:12.985Z</time></trkpt><trkpt lat="37.0137322" lon="15.0137053"><ele>451.0</ele><time>2026-04-04T14:44:13.984Z</time></trkpt><trkpt lat="37.0138793" lon="15.0137133"><ele>451.0</ele><time>2026-04-04T14:44:14.985Z</time></trkpt><trkpt lat="37.0140285" lon="15.0137241"><ele>451.0</ele><time>2026-04-04T14:44:15.985Z</time></trkpt><trkpt lat="37.0141891" lon="15.0137364"><ele>451.0</ele><time>2026-04-04T14:44:16.984Z</time></trkpt><trkpt lat="37.0143625" lon="15.0137489"><ele>451.33333333333337</ele><time>2026-04-04T14:44:17.984Z</time></trkpt><trkpt lat="37.0145465" lon="15.0137621"><ele>451.66666666666663</ele><time>2026-04-04T14:44:18.985Z</time></trkpt><trkpt lat="37.0147449" lon="15.0137694"><ele>452.0</ele><time>2026-04-04T14:44:19.984Z</time></trkpt><trkpt lat="37.0149484" lon="15.0137704"><ele>452.66666666666663</ele><time>2026-04-04T14:44:20.985Z</time></trkpt><trkpt lat="37.0151444" lon="15.0137641"><ele>453.33333333333337</ele><time>2026-04-04T14:44:21.985Z</time></trkpt><trkpt lat="37.0153308" lon="15.0137532"><ele>454.0</ele><time>2026-04-04T14:44:22.985Z</time></trkpt><trkpt lat="37.0155088" lon="15.0137336"><ele>454.0</ele><time>2026-04-04T14:44:23.985Z</time></trkpt><trkpt lat="37.0156824" lon="15.0137058"><ele>454.0</ele><time>2026-04-04T14:44:24.985Z</time></trkpt><trkpt lat="37.0158693" lon="15.0136625"><ele>454.0</ele><time>2026-04-04T14:44:25.985Z</time></trkpt><trkpt lat="37.0160661" lon="15.0136"><ele>454.33333333333337</ele><time>2026-04-04T14:44:26.985Z</time></trkpt><trkpt lat="37.0162715" lon="15.0135206"><ele>454.66666666666663</ele><time>2026-04-04T14:44:27.984Z</time></trkpt><trkpt lat="37.0164751" lon="15.0134247"><ele>455.0</ele><time>2026-04-04T14:44:28.985Z</time></trkpt><trkpt lat="37.0166699" lon="15.0133154"><ele>455.0</ele><time>2026-04-04T14:44:29.985Z</time></trkpt><trkpt lat="37.0168659" lon="15.0131913"><ele>455.0</ele><time>2026-04-04T14:44:30.985Z</time></trkpt><trkpt lat="37.0170585" lon="15.0130532"><ele>455.0</ele><time>2026-04-04T14:44:31.985Z</time></trkpt><trkpt lat="37.0172384" lon="15.0129102"><ele>455.0</ele><time>2026-04-04T14:44:32.985Z</time></trkpt><trkpt lat="37.0174055" lon="15.0127693"><ele>455.0</ele><time>2026-04-04T14:44:33.985Z</time></trkpt><trkpt lat="37.0175573" lon="15.012634"><ele>455.0</ele><time>2026-04-04T14:44:34.985Z</time></trkpt><trkpt lat="37.0176919" lon="15.0125087"><ele>454.75</ele><time>2026-04-04T14:44:35.985Z</time></trkpt><trkpt lat="37.0178138" lon="15.0123925"><ele>454.5</ele><time>2026-04-04T14:44:36.985Z</time></trkpt><trkpt lat="37.0179277" lon="15.0122851"><ele>454.25</ele><time>2026-04-04T14:44:37.985Z</time></trkpt><trkpt lat="37.0180333" lon="15.0121811"><ele>454.0</ele><time>2026-04-04T14:44:38.984Z</time></trkpt><trkpt lat="37.0181239" lon="15.0120915"><ele>454.00000000000006</ele><time>2026-04-04T14:44:39.985Z</time></trkpt><trkpt lat="37.0181973" lon="15.0120124"><ele>454.0</ele><time>2026-04-04T14:44:40.985Z</time></trkpt><trkpt lat="37.0182631" lon="15.0119464"><ele>454.0</ele><time>2026-04-04T14:44:41.985Z</time></trkpt><trkpt lat="37.0183112" lon="15.0118565"><ele>454.0</ele><time>2026-04-04T14:44:43.985Z</time></trkpt><trkpt lat="37.0183073" lon="15.0117595"><ele>454.00000000000006</ele><time>2026-04-04T14:44:46.985Z</time></trkpt><trkpt lat="37.0182461" lon="15.0116812"><ele>454.0</ele><time>2026-04-04T14:44:49.985Z</time></trkpt><trkpt lat="37.0181878" lon="15.0116082"><ele>453.6666666666667</ele><time>2026-04-04T14:44:51.985Z</time></trkpt><trkpt lat="37.0181285" lon="15.0115195"><ele>453.33333333333337</ele><time>2026-04-04T14:44:53.985Z</time></trkpt><trkpt lat="37.0180706" lon="15.0114297"><ele>453.0</ele><time>2026-04-04T14:44:55.985Z</time></trkpt><trkpt lat="37.0179895" lon="15.0113735"><ele>452.66666666666663</ele><time>2026-04-04T14:44:57.985Z</time></trkpt><trkpt lat="37.0179203" lon="15.0113657"><ele>452.3333333333333</ele><time>2026-04-04T14:44:59.985Z</time></trkpt><trkpt lat="37.0178448" lon="15.0113564"><ele>452.0</ele><time>2026-04-04T14:45:01.985Z</time></trkpt><trkpt lat="37.0177855" lon="15.0113118"><ele>452.0</ele><time>2026-04-04T14:45:03.985Z</time></trkpt><trkpt lat="37.0177364" lon="15.0112327"><ele>452.00000000000006</ele><time>2026-04-04T14:45:05.985Z</time></trkpt><trkpt lat="37.0177115" lon="15.0111279"><ele>452.00000000000006</ele><time>2026-04-04T14:45:07.985Z</time></trkpt><trkpt lat="37.0177064" lon="15.011016"><ele>452.0</ele><time>2026-04-04T14:45:09.985Z</time></trkpt><trkpt lat="37.0176862" lon="15.0108832"><ele>452.0</ele><time>2026-04-04T14:45:11.985Z</time></trkpt><trkpt lat="37.0176719" lon="15.0107693"><ele>451.5</ele><time>2026-04-04T14:45:13.985Z</time></trkpt><trkpt lat="37.0176598" lon="15.0106278"><ele>451.0</ele><time>2026-04-04T14:45:15.985Z</time></trkpt><trkpt lat="37.0166995" lon="15.009163"><ele>450.33333333333337</ele><time>2026-04-04T14:46:23.969Z</time></trkpt><trkpt lat="37.0166462" lon="15.0092301"><ele>449.6666666666667</ele><time>2026-04-04T14:46:45.984Z</time></trkpt><trkpt lat="37.0166086" lon="15.0093028"><ele>449.0</ele><time>2026-04-04T14:46:58.985Z</time></trkpt><trkpt lat="37.0165543" lon="15.0093807"><ele>448.33333333333337</ele><time>2026-04-04T14:47:06.985Z</time></trkpt><trkpt lat="37.0164789" lon="15.0093538"><ele>447.6666666666667</ele><time>2026-04-04T14:47:16.985Z</time></trkpt><trkpt lat="37.0164172" lon="15.0093039"><ele>447.0</ele><time>2026-04-04T14:47:28.984Z</time></trkpt><trkpt lat="37.0164219" lon="15.0092154"><ele>447.4285714285714</ele><time>2026-04-04T14:47:51.985Z</time></trkpt><trkpt lat="37.016466" lon="15.009154"><ele>447.8571428571429</ele><time>2026-04-04T14:47:54.984Z</time></trkpt><trkpt lat="37.0164858" lon="15.0090733"><ele>448.28571428571433</ele><time>2026-04-04T14:47:58.985Z</time></trkpt><trkpt lat="37.0165065" lon="15.0089969"><ele>448.7142857142857</ele><time>2026-04-04T14:48:55.984Z</time></trkpt><trkpt lat="37.0164328" lon="15.0089565"><ele>449.14285714285717</ele><time>2026-04-04T14:49:00.984Z</time></trkpt><trkpt lat="37.0163736" lon="15.0089993"><ele>449.5714285714286</ele><time>2026-04-04T14:49:02.984Z</time></trkpt><trkpt lat="37.0163185" lon="15.0090513"><ele>450.00000000000006</ele><time>2026-04-04T14:49:20.984Z</time></trkpt><trkpt lat="37.0162418" lon="15.0090617"><ele>450.0</ele><time>2026-04-04T14:49:24.984Z</time></trkpt><trkpt lat="37.0161587" lon="15.009046"><ele>450.0</ele><time>2026-04-04T14:49:27.984Z</time></trkpt><trkpt lat="37.0160958" lon="15.0089911"><ele>450.0</ele><time>2026-04-04T14:49:29.984Z</time></trkpt><trkpt lat="37.0160528" lon="15.0088991"><ele>450.0</ele><time>2026-04-04T14:49:31.984Z</time></trkpt><trkpt lat="37.0160101" lon="15.0087951"><ele>450.0</ele><time>2026-04-04T14:49:33.984Z</time></trkpt><trkpt lat="37.0159878" lon="15.0086937"><ele>450.0</ele><time>2026-04-04T14:49:35.984Z</time></trkpt><trkpt lat="37.0159816" lon="15.0085916"><ele>450.0</ele><time>2026-04-04T14:49:37.984Z</time></trkpt><trkpt lat="37.0159804" lon="15.0084618"><ele>450.0</ele><time>2026-04-04T14:49:39.984Z</time></trkpt><trkpt lat="37.0159893" lon="15.0083178"><ele>450.0</ele><time>2026-04-04T14:49:41.984Z</time></trkpt><trkpt lat="37.0160004" lon="15.0081709"><ele>450.0</ele><time>2026-04-04T14:49:43.984Z</time></trkpt><trkpt lat="37.0160195" lon="15.0080237"><ele>450.4</ele><time>2026-04-04T14:49:45.983Z</time></trkpt><trkpt lat="37.0160369" lon="15.007826"><ele>450.8</ele><time>2026-04-04T14:49:47.984Z</time></trkpt><trkpt lat="37.0160433" lon="15.0076777"><ele>451.20000000000005</ele><time>2026-04-04T14:49:49.984Z</time></trkpt><trkpt lat="37.0160551" lon="15.0075535"><ele>451.6</ele><time>2026-04-04T14:49:51.984Z</time></trkpt><trkpt lat="37.0160384" lon="15.0074696"><ele>452.0</ele><time>2026-04-04T14:49:54.984Z</time></trkpt><trkpt lat="37.0159944" lon="15.007409"><ele>451.99999999999994</ele><time>2026-04-04T14:49:57.984Z</time></trkpt><trkpt lat="37.0159209" lon="15.0073631"><ele>452.0</ele><time>2026-04-04T14:50:00.983Z</time></trkpt><trkpt lat="37.0158421" lon="15.0073267"><ele>452.0</ele><time>2026-04-04T14:50:02.984Z</time></trkpt><trkpt lat="37.0157739" lon="15.0072666"><ele>452.0</ele><time>2026-04-04T14:50:04.984Z</time></trkpt><trkpt lat="37.015735" lon="15.007174"><ele>451.99999999999994</ele><time>2026-04-04T14:50:06.984Z</time></trkpt><trkpt lat="37.0157005" lon="15.0070544"><ele>452.0</ele><time>2026-04-04T14:50:08.984Z</time></trkpt><trkpt lat="37.0156596" lon="15.0069155"><ele>451.99999999999994</ele><time>2026-04-04T14:50:10.984Z</time></trkpt><trkpt lat="37.0156343" lon="15.0068409"><ele>452.0</ele><time>2026-04-04T14:50:11.983Z</time></trkpt><trkpt lat="37.015607" lon="15.006765"><ele>452.0</ele><time>2026-04-04T14:50:12.984Z</time></trkpt><trkpt lat="37.0155804" lon="15.0066874"><ele>452.0</ele><time>2026-04-04T14:50:13.984Z</time></trkpt><trkpt lat="37.0155474" lon="15.0065378"><ele>451.99999999999994</ele><time>2026-04-04T14:50:15.984Z</time></trkpt><trkpt lat="37.0155385" lon="15.0064551"><ele>452.0</ele><time>2026-04-04T14:50:16.984Z</time></trkpt><trkpt lat="37.0155309" lon="15.0063718"><ele>451.8333333333333</ele><time>2026-04-04T14:50:17.984Z</time></trkpt><trkpt lat="37.0155255" lon="15.0062878"><ele>451.66666666666663</ele><time>2026-04-04T14:50:18.984Z</time></trkpt><trkpt lat="37.0155228" lon="15.0062046"><ele>451.5</ele><time>2026-04-04T14:50:19.983Z</time></trkpt><trkpt lat="37.0155152" lon="15.0060537"><ele>451.33333333333337</ele><time>2026-04-04T14:50:21.984Z</time></trkpt><trkpt lat="37.0155096" lon="15.0059241"><ele>451.1666666666667</ele><time>2026-04-04T14:50:23.984Z</time></trkpt><trkpt lat="37.0155031" lon="15.0058113"><ele>451.0</ele><time>2026-04-04T14:50:25.984Z</time></trkpt><trkpt lat="37.0154871" lon="15.0056981"><ele>451.33333333333337</ele><time>2026-04-04T14:50:27.984Z</time></trkpt><trkpt lat="37.0154706" lon="15.0055993"><ele>451.6666666666667</ele><time>2026-04-04T14:50:29.984Z</time></trkpt><trkpt lat="37.0154488" lon="15.0054986"><ele>452.0</ele><time>2026-04-04T14:50:31.984Z</time></trkpt><trkpt lat="37.0154157" lon="15.0054091"><ele>452.33333333333337</ele><time>2026-04-04T14:50:33.984Z</time></trkpt><trkpt lat="37.0153792" lon="15.0053442"><ele>452.6666666666667</ele><time>2026-04-04T14:50:35.984Z</time></trkpt><trkpt lat="37.0153015" lon="15.0052582"><ele>453.0</ele><time>2026-04-04T14:50:37.984Z</time></trkpt><trkpt lat="37.0151938" lon="15.0051653"><ele>453.0</ele><time>2026-04-04T14:50:39.984Z</time></trkpt><trkpt lat="37.0151388" lon="15.0051183"><ele>453.0</ele><time>2026-04-04T14:50:40.984Z</time></trkpt><trkpt lat="37.015042" lon="15.0050299"><ele>453.0</ele><time>2026-04-04T14:50:42.984Z</time></trkpt><trkpt lat="37.0149837" lon="15.0049774"><ele>453.0</ele><time>2026-04-04T14:50:43.984Z</time></trkpt><trkpt lat="37.0149194" lon="15.0049164"><ele>453.0</ele><time>2026-04-04T14:50:44.984Z</time></trkpt><trkpt lat="37.0148605" lon="15.0048541"><ele>453.0</ele><time>2026-04-04T14:50:45.984Z</time></trkpt><trkpt lat="37.0148125" lon="15.004786"><ele>453.0</ele><time>2026-04-04T14:50:46.984Z</time></trkpt><trkpt lat="37.0147653" lon="15.0047125"><ele>453.0</ele><time>2026-04-04T14:50:47.985Z</time></trkpt><trkpt lat="37.0147266" lon="15.0046337"><ele>453.0</ele><time>2026-04-04T14:50:48.984Z</time></trkpt><trkpt lat="37.0146908" lon="15.0045516"><ele>453.0</ele><time>2026-04-04T14:50:49.984Z</time></trkpt><trkpt lat="37.0146587" lon="15.0044715"><ele>453.0</ele><time>2026-04-04T14:50:50.984Z</time></trkpt><trkpt lat="37.0146318" lon="15.0043808"><ele>453.0</ele><time>2026-04-04T14:50:51.985Z</time></trkpt><trkpt lat="37.0146053" lon="15.0042849"><ele>453.0</ele><time>2026-04-04T14:50:52.985Z</time></trkpt><trkpt lat="37.0145768" lon="15.0041942"><ele>453.0</ele><time>2026-04-04T14:50:53.985Z</time></trkpt><trkpt lat="37.0145534" lon="15.0041039"><ele>453.0</ele><time>2026-04-04T14:50:54.984Z</time></trkpt><trkpt lat="37.0145285" lon="15.0040055"><ele>453.0</ele><time>2026-04-04T14:50:55.984Z</time></trkpt><trkpt lat="37.0145047" lon="15.0039105"><ele>453.0</ele><time>2026-04-04T14:50:56.984Z</time></trkpt><trkpt lat="37.0144875" lon="15.0038106"><ele>453.0</ele><time>2026-04-04T14:50:57.984Z</time></trkpt><trkpt lat="37.0144749" lon="15.0037136"><ele>452.8333333333333</ele><time>2026-04-04T14:50:58.985Z</time></trkpt><trkpt lat="37.0144617" lon="15.0036169"><ele>452.66666666666663</ele><time>2026-04-04T14:50:59.985Z</time></trkpt><trkpt lat="37.0144421" lon="15.0035285"><ele>452.5</ele><time>2026-04-04T14:51:00.984Z</time></trkpt><trkpt lat="37.0144154" lon="15.0034399"><ele>452.3333333333333</ele><time>2026-04-04T14:51:01.985Z</time></trkpt><trkpt lat="37.0143877" lon="15.0033447"><ele>452.16666666666663</ele><time>2026-04-04T14:51:02.985Z</time></trkpt><trkpt lat="37.0143767" lon="15.0032641"><ele>452.0</ele><time>2026-04-04T14:51:03.984Z</time></trkpt><trkpt lat="37.0143508" lon="15.0031141"><ele>451.6</ele><time>2026-04-04T14:51:05.985Z</time></trkpt><trkpt lat="37.0143313" lon="15.0030326"><ele>451.20000000000005</ele><time>2026-04-04T14:51:06.985Z</time></trkpt><trkpt lat="37.0142914" lon="15.0028843"><ele>450.8</ele><time>2026-04-04T14:51:08.985Z</time></trkpt><trkpt lat="37.0142525" lon="15.0027381"><ele>450.4</ele><time>2026-04-04T14:51:10.984Z</time></trkpt><trkpt lat="37.0142159" lon="15.0026172"><ele>450.0</ele><time>2026-04-04T14:51:12.985Z</time></trkpt><trkpt lat="37.0141785" lon="15.002498"><ele>449.6</ele><time>2026-04-04T14:51:14.985Z</time></trkpt><trkpt lat="37.0141458" lon="15.0023663"><ele>449.2</ele><time>2026-04-04T14:51:16.984Z</time></trkpt><trkpt lat="37.0141046" lon="15.0022322"><ele>448.79999999999995</ele><time>2026-04-04T14:51:18.985Z</time></trkpt><trkpt lat="37.0140803" lon="15.0021572"><ele>448.4</ele><time>2026-04-04T14:51:19.985Z</time></trkpt><trkpt lat="37.0140419" lon="15.0020171"><ele>448.0</ele><time>2026-04-04T14:51:21.985Z</time></trkpt><trkpt lat="37.0140403" lon="15.0018785"><ele>448.0</ele><time>2026-04-04T14:51:23.984Z</time></trkpt><trkpt lat="37.0140438" lon="15.0017992"><ele>447.99999999999994</ele><time>2026-04-04T14:51:24.985Z</time></trkpt><trkpt lat="37.0140556" lon="15.0017146"><ele>447.99999999999994</ele><time>2026-04-04T14:51:25.984Z</time></trkpt><trkpt lat="37.014079" lon="15.0015667"><ele>448.0</ele><time>2026-04-04T14:51:27.984Z</time></trkpt><trkpt lat="37.014098" lon="15.0014194"><ele>448.0</ele><time>2026-04-04T14:51:29.984Z</time></trkpt><trkpt lat="37.0141163" lon="15.0012664"><ele>447.79999999999995</ele><time>2026-04-04T14:51:31.985Z</time></trkpt><trkpt lat="37.014126" lon="15.0011831"><ele>447.59999999999997</ele><time>2026-04-04T14:51:32.984Z</time></trkpt><trkpt lat="37.0141351" lon="15.0010984"><ele>447.40000000000003</ele><time>2026-04-04T14:51:33.985Z</time></trkpt><trkpt lat="37.0141595" lon="15.0009465"><ele>447.20000000000005</ele><time>2026-04-04T14:51:35.985Z</time></trkpt><trkpt lat="37.0141838" lon="15.0007762"><ele>447.0</ele><time>2026-04-04T14:51:37.984Z</time></trkpt><trkpt lat="37.0141955" lon="15.0006911"><ele>447.3333333333333</ele><time>2026-04-04T14:51:38.985Z</time></trkpt><trkpt lat="37.0141997" lon="15.000609"><ele>447.66666666666663</ele><time>2026-04-04T14:51:39.985Z</time></trkpt><trkpt lat="37.0141955" lon="15.0005246"><ele>448.0</ele><time>2026-04-04T14:51:40.984Z</time></trkpt><trkpt lat="37.014169" lon="15.0004045"><ele>448.3333333333333</ele><time>2026-04-04T14:51:42.984Z</time></trkpt><trkpt lat="37.014116" lon="15.0003405"><ele>448.66666666666663</ele><time>2026-04-04T14:51:44.985Z</time></trkpt><trkpt lat="37.014032" lon="15.0003071"><ele>449.0</ele><time>2026-04-04T14:51:46.984Z</time></trkpt><trkpt lat="37.0139661" lon="15.0002727"><ele>449.0</ele><time>2026-04-04T14:51:47.984Z</time></trkpt><trkpt lat="37.0139035" lon="15.0002517"><ele>448.99999999999994</ele><time>2026-04-04T14:51:48.984Z</time></trkpt><trkpt lat="37.0138281" lon="15.0002233"><ele>449.0</ele><time>2026-04-04T14:51:49.984Z</time></trkpt><trkpt lat="37.0137522" lon="15.0001895"><ele>449.0</ele><time>2026-04-04T14:51:50.985Z</time></trkpt><trkpt lat="37.013693" lon="15.0001557"><ele>448.99999999999994</ele><time>2026-04-04T14:51:51.985Z</time></trkpt><trkpt lat="37.0136318" lon="15.0001007"><ele>449.0</ele><time>2026-04-04T14:51:52.984Z</time></trkpt><trkpt lat="37.0135792" lon="15.0000268"><ele>449.0</ele><time>2026-04-04T14:51:53.985Z</time></trkpt><trkpt lat="37.0135356" lon="14.999954"><ele>449.0</ele><time>2026-04-04T14:51:54.985Z</time></trkpt><trkpt lat="37.0134819" lon="14.9998648"><ele>449.0</ele><time>2026-04-04T14:51:55.985Z</time></trkpt><trkpt lat="37.0134323" lon="14.9997932"><ele>449.0</ele><time>2026-04-04T14:51:56.984Z</time></trkpt><trkpt lat="37.0133631" lon="14.9996715"><ele>449.0</ele><time>2026-04-04T14:51:58.984Z</time></trkpt><trkpt lat="37.0133172" lon="14.999527"><ele>449.0</ele><time>2026-04-04T14:52:00.985Z</time></trkpt><trkpt lat="37.0132928" lon="14.9994354"><ele>449.49999999999994</ele><time>2026-04-04T14:52:01.984Z</time></trkpt><trkpt lat="37.0132739" lon="14.9993317"><ele>450.0</ele><time>2026-04-04T14:52:02.985Z</time></trkpt><trkpt lat="37.0132583" lon="14.999224"><ele>450.5</ele><time>2026-04-04T14:52:03.984Z</time></trkpt><trkpt lat="37.0132467" lon="14.9991106"><ele>451.0</ele><time>2026-04-04T14:52:04.984Z</time></trkpt><trkpt lat="37.0132387" lon="14.9990048"><ele>451.49999999999994</ele><time>2026-04-04T14:52:05.985Z</time></trkpt><trkpt lat="37.0132331" lon="14.9989023"><ele>452.0</ele><time>2026-04-04T14:52:06.984Z</time></trkpt><trkpt lat="37.0132251" lon="14.9987951"><ele>451.99999999999994</ele><time>2026-04-04T14:52:07.984Z</time></trkpt><trkpt lat="37.0132146" lon="14.998693"><ele>452.0</ele><time>2026-04-04T14:52:08.985Z</time></trkpt><trkpt lat="37.013204" lon="14.9986026"><ele>452.0</ele><time>2026-04-04T14:52:09.984Z</time></trkpt><trkpt lat="37.0131952" lon="14.9985227"><ele>452.0</ele><time>2026-04-04T14:52:10.985Z</time></trkpt><trkpt lat="37.0131888" lon="14.9983934"><ele>451.99999999999994</ele><time>2026-04-04T14:52:12.985Z</time></trkpt><trkpt lat="37.0132173" lon="14.9982815"><ele>452.0</ele><time>2026-04-04T14:52:14.985Z</time></trkpt><trkpt lat="37.0132831" lon="14.9981544"><ele>452.16666666666663</ele><time>2026-04-04T14:52:16.985Z</time></trkpt><trkpt lat="37.0133368" lon="14.998004"><ele>452.3333333333333</ele><time>2026-04-04T14:52:18.984Z</time></trkpt><trkpt lat="37.0133641" lon="14.9979229"><ele>452.5</ele><time>2026-04-04T14:52:19.985Z</time></trkpt><trkpt lat="37.0133903" lon="14.9978426"><ele>452.66666666666663</ele><time>2026-04-04T14:52:20.985Z</time></trkpt><trkpt lat="37.0134191" lon="14.9977476"><ele>452.8333333333333</ele><time>2026-04-04T14:52:21.984Z</time></trkpt><trkpt lat="37.0134468" lon="14.9976576"><ele>453.0</ele><time>2026-04-04T14:52:22.984Z</time></trkpt><trkpt lat="37.01347" lon="14.9975697"><ele>453.1666666666667</ele><time>2026-04-04T14:52:23.984Z</time></trkpt><trkpt lat="37.0134955" lon="14.997489"><ele>453.33333333333337</ele><time>2026-04-04T14:52:24.985Z</time></trkpt><trkpt lat="37.0135452" lon="14.9973292"><ele>453.5</ele><time>2026-04-04T14:52:26.984Z</time></trkpt><trkpt lat="37.0135683" lon="14.9972338"><ele>453.6666666666667</ele><time>2026-04-04T14:52:27.985Z</time></trkpt><trkpt lat="37.0135928" lon="14.997145"><ele>453.83333333333337</ele><time>2026-04-04T14:52:28.985Z</time></trkpt><trkpt lat="37.0136217" lon="14.9970569"><ele>454.0</ele><time>2026-04-04T14:52:29.985Z</time></trkpt><trkpt lat="37.0136505" lon="14.9969724"><ele>454.00000000000006</ele><time>2026-04-04T14:52:30.984Z</time></trkpt><trkpt lat="37.013675" lon="14.9968859"><ele>454.0</ele><time>2026-04-04T14:52:31.984Z</time></trkpt><trkpt lat="37.0136976" lon="14.9968058"><ele>454.0</ele><time>2026-04-04T14:52:32.984Z</time></trkpt><trkpt lat="37.0137261" lon="14.9967241"><ele>454.0</ele><time>2026-04-04T14:52:33.984Z</time></trkpt><trkpt lat="37.0137715" lon="14.9965739"><ele>454.00000000000006</ele><time>2026-04-04T14:52:35.985Z</time></trkpt><trkpt lat="37.0138009" lon="14.9964831"><ele>454.0</ele><time>2026-04-04T14:52:36.984Z</time></trkpt><trkpt lat="37.013835" lon="14.996388"><ele>454.50000000000006</ele><time>2026-04-04T14:52:37.984Z</time></trkpt><trkpt lat="37.0138692" lon="14.996302"><ele>455.0</ele><time>2026-04-04T14:52:38.984Z</time></trkpt><trkpt lat="37.0139055" lon="14.9962121"><ele>455.5</ele><time>2026-04-04T14:52:39.984Z</time></trkpt><trkpt lat="37.0139373" lon="14.9961225"><ele>456.0</ele><time>2026-04-04T14:52:40.985Z</time></trkpt><trkpt lat="37.0139717" lon="14.9960225"><ele>456.50000000000006</ele><time>2026-04-04T14:52:41.984Z</time></trkpt><trkpt lat="37.0140128" lon="14.9959246"><ele>457.0</ele><time>2026-04-04T14:52:42.985Z</time></trkpt><trkpt lat="37.0140615" lon="14.9958386"><ele>457.1666666666667</ele><time>2026-04-04T14:52:43.984Z</time></trkpt><trkpt lat="37.0141087" lon="14.9957538"><ele>457.33333333333337</ele><time>2026-04-04T14:52:44.984Z</time></trkpt><trkpt lat="37.0141593" lon="14.9956703"><ele>457.5</ele><time>2026-04-04T14:52:45.984Z</time></trkpt><trkpt lat="37.0142016" lon="14.9955819"><ele>457.66666666666663</ele><time>2026-04-04T14:52:46.984Z</time></trkpt><trkpt lat="37.0142499" lon="14.9954936"><ele>457.8333333333333</ele><time>2026-04-04T14:52:47.984Z</time></trkpt><trkpt lat="37.0142938" lon="14.9954063"><ele>458.0</ele><time>2026-04-04T14:52:48.984Z</time></trkpt><trkpt lat="37.0143303" lon="14.9953225"><ele>458.16666666666663</ele><time>2026-04-04T14:52:49.984Z</time></trkpt><trkpt lat="37.0143642" lon="14.9952549"><ele>458.3333333333333</ele><time>2026-04-04T14:52:50.984Z</time></trkpt><trkpt lat="37.0144065" lon="14.9951628"><ele>458.5</ele><time>2026-04-04T14:52:52.985Z</time></trkpt><trkpt lat="37.0144514" lon="14.9950956"><ele>458.66666666666663</ele><time>2026-04-04T14:52:55.985Z</time></trkpt><trkpt lat="37.0145336" lon="14.9950855"><ele>458.8333333333333</ele><time>2026-04-04T14:53:02.984Z</time></trkpt><trkpt lat="37.0146137" lon="14.9951454"><ele>459.0</ele><time>2026-04-04T14:53:04.984Z</time></trkpt><trkpt lat="37.0146909" lon="14.9952378"><ele>459.0</ele><time>2026-04-04T14:53:06.985Z</time></trkpt><trkpt lat="37.0147705" lon="14.9953261"><ele>459.0</ele><time>2026-04-04T14:53:08.985Z</time></trkpt><trkpt lat="37.0148213" lon="14.9953771"><ele>459.0</ele><time>2026-04-04T14:53:09.984Z</time></trkpt><trkpt lat="37.0148745" lon="14.995426"><ele>459.0</ele><time>2026-04-04T14:53:10.984Z</time></trkpt><trkpt lat="37.0149584" lon="14.9954912"><ele>459.0</ele><time>2026-04-04T14:53:12.985Z</time></trkpt><trkpt lat="37.0150193" lon="14.99554"><ele>459.0</ele><time>2026-04-04T14:53:15.984Z</time></trkpt><trkpt lat="37.0150797" lon="14.9955746"><ele>459.5</ele><time>2026-04-04T14:53:26.984Z</time></trkpt><trkpt lat="37.0151587" lon="14.9956099"><ele>460.0</ele><time>2026-04-04T14:53:30.984Z</time></trkpt><trkpt lat="37.0152465" lon="14.995622"><ele>460.5</ele><time>2026-04-04T14:53:34.985Z</time></trkpt><trkpt lat="37.0153262" lon="14.9956357"><ele>461.0</ele><time>2026-04-04T14:53:38.984Z</time></trkpt><trkpt lat="37.0154138" lon="14.9956636"><ele>461.5</ele><time>2026-04-04T14:53:40.985Z</time></trkpt><trkpt lat="37.0154966" lon="14.9956827"><ele>462.0</ele><time>2026-04-04T14:53:42.985Z</time></trkpt><trkpt lat="37.0155899" lon="14.9957006"><ele>462.0</ele><time>2026-04-04T14:53:44.984Z</time></trkpt><trkpt lat="37.0156781" lon="14.9957193"><ele>462.0</ele><time>2026-04-04T14:53:46.985Z</time></trkpt><trkpt lat="37.0157581" lon="14.995722"><ele>462.0</ele><time>2026-04-04T14:53:48.984Z</time></trkpt><trkpt lat="37.0158337" lon="14.9956737"><ele>462.0</ele><time>2026-04-04T14:53:50.985Z</time></trkpt><trkpt lat="37.0158993" lon="14.9955964"><ele>462.0</ele><time>2026-04-04T14:53:52.984Z</time></trkpt><trkpt lat="37.0159547" lon="14.9954851"><ele>462.0</ele><time>2026-04-04T14:53:54.984Z</time></trkpt><trkpt lat="37.0160261" lon="14.9953869"><ele>462.20000000000005</ele><time>2026-04-04T14:53:56.984Z</time></trkpt><trkpt lat="37.0160971" lon="14.9952661"><ele>462.40000000000003</ele><time>2026-04-04T14:53:58.985Z</time></trkpt><trkpt lat="37.0161552" lon="14.9951625"><ele>462.59999999999997</ele><time>2026-04-04T14:54:00.984Z</time></trkpt><trkpt lat="37.0162189" lon="14.9950463"><ele>462.79999999999995</ele><time>2026-04-04T14:54:02.985Z</time></trkpt><trkpt lat="37.0162767" lon="14.9949378"><ele>463.0</ele><time>2026-04-04T14:54:04.984Z</time></trkpt><trkpt lat="37.0163454" lon="14.994815"><ele>463.4</ele><time>2026-04-04T14:54:06.984Z</time></trkpt><trkpt lat="37.0163951" lon="14.9947114"><ele>463.79999999999995</ele><time>2026-04-04T14:54:08.984Z</time></trkpt><trkpt lat="37.0164549" lon="14.9946219"><ele>464.2</ele><time>2026-04-04T14:54:10.985Z</time></trkpt><trkpt lat="37.0165184" lon="14.9945233"><ele>464.6</ele><time>2026-04-04T14:54:12.984Z</time></trkpt><trkpt lat="37.0165737" lon="14.9944413"><ele>465.0</ele><time>2026-04-04T14:54:14.985Z</time></trkpt><trkpt lat="37.0166337" lon="14.9943688"><ele>465.6</ele><time>2026-04-04T14:54:16.984Z</time></trkpt><trkpt lat="37.016697" lon="14.9942888"><ele>466.2</ele><time>2026-04-04T14:54:18.984Z</time></trkpt><trkpt lat="37.0167684" lon="14.9942034"><ele>466.79999999999995</ele><time>2026-04-04T14:54:20.984Z</time></trkpt><trkpt lat="37.0168254" lon="14.994114"><ele>467.4</ele><time>2026-04-04T14:54:22.984Z</time></trkpt><trkpt lat="37.0168925" lon="14.9940276"><ele>468.0</ele><time>2026-04-04T14:54:24.984Z</time></trkpt><trkpt lat="37.0169567" lon="14.9939215"><ele>469.0</ele><time>2026-04-04T14:54:26.985Z</time></trkpt><trkpt lat="37.017027" lon="14.9938144"><ele>469.99999999999994</ele><time>2026-04-04T14:54:28.985Z</time></trkpt><trkpt lat="37.0171012" lon="14.993704"><ele>470.99999999999994</ele><time>2026-04-04T14:54:30.985Z</time></trkpt><trkpt lat="37.0171614" lon="14.9935978"><ele>472.0</ele><time>2026-04-04T14:54:32.984Z</time></trkpt><trkpt lat="37.0172281" lon="14.9934921"><ele>473.0</ele><time>2026-04-04T14:54:34.985Z</time></trkpt><trkpt lat="37.0172966" lon="14.9934011"><ele>472.99999999999994</ele><time>2026-04-04T14:54:36.984Z</time></trkpt><trkpt lat="37.0173514" lon="14.9933185"><ele>473.0</ele><time>2026-04-04T14:54:38.985Z</time></trkpt><trkpt lat="37.0174111" lon="14.9932287"><ele>473.0</ele><time>2026-04-04T14:54:40.984Z</time></trkpt><trkpt lat="37.01747" lon="14.9931487"><ele>473.0</ele><time>2026-04-04T14:54:42.984Z</time></trkpt><trkpt lat="37.017534" lon="14.9930925"><ele>472.99999999999994</ele><time>2026-04-04T14:54:45.984Z</time></trkpt><trkpt lat="37.0175925" lon="14.9930346"><ele>473.0</ele><time>2026-04-04T14:55:10.984Z</time></trkpt><trkpt lat="37.0176455" lon="14.9929814"><ele>473.0</ele><time>2026-04-04T14:55:13.985Z</time></trkpt><trkpt lat="37.0177018" lon="14.9929309"><ele>473.0</ele><time>2026-04-04T14:55:16.985Z</time></trkpt><trkpt lat="37.0177662" lon="14.9928702"><ele>473.0</ele><time>2026-04-04T14:55:20.985Z</time></trkpt><trkpt lat="37.0178174" lon="14.9928138"><ele>473.0</ele><time>2026-04-04T14:55:22.985Z</time></trkpt><trkpt lat="37.0178839" lon="14.9927533"><ele>473.0</ele><time>2026-04-04T14:55:25.984Z</time></trkpt><trkpt lat="37.0179388" lon="14.9926973"><ele>473.0</ele><time>2026-04-04T14:55:28.984Z</time></trkpt><trkpt lat="37.0179829" lon="14.992638"><ele>473.0</ele><time>2026-04-04T14:56:02.985Z</time></trkpt><trkpt lat="37.0180347" lon="14.9925817"><ele>472.99999999999994</ele><time>2026-04-04T14:56:42.984Z</time></trkpt><trkpt lat="37.0181092" lon="14.9925345"><ele>473.0</ele><time>2026-04-04T14:56:46.984Z</time></trkpt><trkpt lat="37.0181678" lon="14.9924891"><ele>473.0</ele><time>2026-04-04T14:57:43.984Z</time></trkpt><trkpt lat="37.0182394" lon="14.9924474"><ele>473.0</ele><time>2026-04-04T14:57:47.984Z</time></trkpt><trkpt lat="37.0182967" lon="14.992384"><ele>472.99999999999994</ele><time>2026-04-04T14:57:51.983Z</time></trkpt><trkpt lat="37.0183534" lon="14.9923355"><ele>473.0</ele><time>2026-04-04T14:57:55.984Z</time></trkpt><trkpt lat="37.0184039" lon="14.9922583"><ele>473.49999999999994</ele><time>2026-04-04T14:57:57.984Z</time></trkpt><trkpt lat="37.0184799" lon="14.9921604"><ele>474.0</ele><time>2026-04-04T14:57:59.984Z</time></trkpt><trkpt lat="37.0185433" lon="14.9920731"><ele>474.5</ele><time>2026-04-04T14:58:01.984Z</time></trkpt><trkpt lat="37.0185984" lon="14.9919908"><ele>475.0</ele><time>2026-04-04T14:58:03.984Z</time></trkpt><trkpt lat="37.0186272" lon="14.9919156"><ele>475.49999999999994</ele><time>2026-04-04T14:58:05.984Z</time></trkpt><trkpt lat="37.0186678" lon="14.9918396"><ele>476.0</ele><time>2026-04-04T14:58:07.984Z</time></trkpt><trkpt lat="37.0187033" lon="14.9917679"><ele>475.99999999999994</ele><time>2026-04-04T14:58:19.984Z</time></trkpt><trkpt lat="37.0187712" lon="14.9916815"><ele>476.0</ele><time>2026-04-04T14:58:22.984Z</time></trkpt><trkpt lat="37.018826" lon="14.9916149"><ele>476.0</ele><time>2026-04-04T14:58:24.983Z</time></trkpt><trkpt lat="37.0188834" lon="14.9915355"><ele>476.0</ele><time>2026-04-04T14:58:26.984Z</time></trkpt><trkpt lat="37.0189382" lon="14.9914658"><ele>475.99999999999994</ele><time>2026-04-04T14:58:28.984Z</time></trkpt><trkpt lat="37.019001" lon="14.9913815"><ele>476.0</ele><time>2026-04-04T14:58:30.984Z</time></trkpt><trkpt lat="37.0190734" lon="14.9912973"><ele>477.20000000000005</ele><time>2026-04-04T14:58:32.984Z</time></trkpt><trkpt lat="37.019137" lon="14.9912268"><ele>478.40000000000003</ele><time>2026-04-04T14:58:34.984Z</time></trkpt><trkpt lat="37.0192045" lon="14.9911365"><ele>479.6</ele><time>2026-04-04T14:58:36.984Z</time></trkpt><trkpt lat="37.0192747" lon="14.9910498"><ele>480.8</ele><time>2026-04-04T14:58:38.984Z</time></trkpt><trkpt lat="37.0193452" lon="14.9909605"><ele>482.0</ele><time>2026-04-04T14:58:40.984Z</time></trkpt><trkpt lat="37.0194073" lon="14.9908623"><ele>483.20000000000005</ele><time>2026-04-04T14:58:42.984Z</time></trkpt><trkpt lat="37.0194825" lon="14.9907439"><ele>484.40000000000003</ele><time>2026-04-04T14:58:44.984Z</time></trkpt><trkpt lat="37.0195501" lon="14.9906402"><ele>485.59999999999997</ele><time>2026-04-04T14:58:46.984Z</time></trkpt><trkpt lat="37.0196274" lon="14.9905434"><ele>486.79999999999995</ele><time>2026-04-04T14:58:48.984Z</time></trkpt><trkpt lat="37.0197016" lon="14.9904548"><ele>488.0</ele><time>2026-04-04T14:58:50.984Z</time></trkpt><trkpt lat="37.0197749" lon="14.990362"><ele>487.99999999999994</ele><time>2026-04-04T14:58:52.984Z</time></trkpt><trkpt lat="37.0198504" lon="14.9902654"><ele>488.0</ele><time>2026-04-04T14:58:54.984Z</time></trkpt><trkpt lat="37.0199256" lon="14.9901741"><ele>488.0</ele><time>2026-04-04T14:58:56.984Z</time></trkpt><trkpt lat="37.0199766" lon="14.9901053"><ele>488.0</ele><time>2026-04-04T14:58:58.984Z</time></trkpt><trkpt lat="37.0200139" lon="14.9900351"><ele>487.99999999999994</ele><time>2026-04-04T14:59:11.984Z</time></trkpt><trkpt lat="37.0200722" lon="14.9899466"><ele>488.0</ele><time>2026-04-04T14:59:13.984Z</time></trkpt><trkpt lat="37.0201576" lon="14.9898452"><ele>489.3333333333333</ele><time>2026-04-04T14:59:15.984Z</time></trkpt><trkpt lat="37.0202228" lon="14.989749"><ele>490.66666666666663</ele><time>2026-04-04T14:59:17.984Z</time></trkpt><trkpt lat="37.0202737" lon="14.9896729"><ele>492.0</ele><time>2026-04-04T14:59:19.984Z</time></trkpt><trkpt lat="37.0203091" lon="14.989599"><ele>493.33333333333337</ele><time>2026-04-04T14:59:21.984Z</time></trkpt><trkpt lat="37.0203232" lon="14.9895168"><ele>494.6666666666667</ele><time>2026-04-04T14:59:24.984Z</time></trkpt><trkpt lat="37.0203643" lon="14.9894504"><ele>496.0</ele><time>2026-04-04T14:59:27.984Z</time></trkpt><trkpt lat="37.020426" lon="14.9894006"><ele>496.00000000000006</ele><time>2026-04-04T14:59:29.984Z</time></trkpt><trkpt lat="37.0204918" lon="14.9893366"><ele>496.0</ele><time>2026-04-04T14:59:31.984Z</time></trkpt><trkpt lat="37.0205402" lon="14.989251"><ele>496.0</ele><time>2026-04-04T14:59:33.984Z</time></trkpt><trkpt lat="37.020562" lon="14.9891701"><ele>496.0</ele><time>2026-04-04T14:59:35.984Z</time></trkpt><trkpt lat="37.0205935" lon="14.9890736"><ele>496.00000000000006</ele><time>2026-04-04T14:59:38.984Z</time></trkpt><trkpt lat="37.0206278" lon="14.988994"><ele>496.0</ele><time>2026-04-04T15:00:09.984Z</time></trkpt><trkpt lat="37.020632" lon="14.9888687"><ele>496.6666666666667</ele><time>2026-04-04T15:00:11.984Z</time></trkpt><trkpt lat="37.0206397" lon="14.9887428"><ele>497.33333333333337</ele><time>2026-04-04T15:00:13.984Z</time></trkpt><trkpt lat="37.0206917" lon="14.9886118"><ele>498.0</ele><time>2026-04-04T15:00:15.984Z</time></trkpt><trkpt lat="37.0207406" lon="14.988551"><ele>498.66666666666663</ele><time>2026-04-04T15:00:16.984Z</time></trkpt><trkpt lat="37.0207795" lon="14.9884871"><ele>499.3333333333333</ele><time>2026-04-04T15:00:17.984Z</time></trkpt><trkpt lat="37.020828" lon="14.9884225"><ele>500.0</ele><time>2026-04-04T15:00:18.984Z</time></trkpt><trkpt lat="37.0208817" lon="14.9883534"><ele>500.99999999999994</ele><time>2026-04-04T15:00:19.984Z</time></trkpt><trkpt lat="37.0209393" lon="14.9882768"><ele>502.0</ele><time>2026-04-04T15:00:20.984Z</time></trkpt><trkpt lat="37.0209979" lon="14.9882032"><ele>503.0</ele><time>2026-04-04T15:00:21.984Z</time></trkpt><trkpt lat="37.0210577" lon="14.988132"><ele>504.0</ele><time>2026-04-04T15:00:22.984Z</time></trkpt><trkpt lat="37.0211165" lon="14.9880655"><ele>504.99999999999994</ele><time>2026-04-04T15:00:23.984Z</time></trkpt><trkpt lat="37.0211744" lon="14.9879976"><ele>506.0</ele><time>2026-04-04T15:00:24.983Z</time></trkpt><trkpt lat="37.021228" lon="14.9879286"><ele>505.99999999999994</ele><time>2026-04-04T15:00:25.983Z</time></trkpt><trkpt lat="37.0212833" lon="14.9878618"><ele>506.0</ele><time>2026-04-04T15:00:26.984Z</time></trkpt><trkpt lat="37.0213394" lon="14.9877931"><ele>506.0</ele><time>2026-04-04T15:00:27.984Z</time></trkpt><trkpt lat="37.0213912" lon="14.9877319"><ele>506.0</ele><time>2026-04-04T15:00:28.984Z</time></trkpt><trkpt lat="37.0214487" lon="14.9876666"><ele>505.99999999999994</ele><time>2026-04-04T15:00:29.984Z</time></trkpt><trkpt lat="37.0215074" lon="14.9876043"><ele>506.0</ele><time>2026-04-04T15:00:30.984Z</time></trkpt><trkpt lat="37.0215669" lon="14.9875386"><ele>508.0</ele><time>2026-04-04T15:00:31.983Z</time></trkpt><trkpt lat="37.0216378" lon="14.9874712"><ele>510.0</ele><time>2026-04-04T15:00:32.984Z</time></trkpt><trkpt lat="37.0217032" lon="14.9874058"><ele>512.0</ele><time>2026-04-04T15:00:33.984Z</time></trkpt><trkpt lat="37.0217759" lon="14.9873277"><ele>514.0</ele><time>2026-04-04T15:00:34.984Z</time></trkpt><trkpt lat="37.0218461" lon="14.98725"><ele>516.0</ele><time>2026-04-04T15:00:35.984Z</time></trkpt><trkpt lat="37.0219156" lon="14.9871711"><ele>516.6</ele><time>2026-04-04T15:00:36.984Z</time></trkpt><trkpt lat="37.0219888" lon="14.9870885"><ele>517.2</ele><time>2026-04-04T15:00:37.984Z</time></trkpt><trkpt lat="37.0220595" lon="14.9870074"><ele>517.8</ele><time>2026-04-04T15:00:38.983Z</time></trkpt><trkpt lat="37.0221356" lon="14.9869239"><ele>518.4</ele><time>2026-04-04T15:00:39.984Z</time></trkpt><trkpt lat="37.0222025" lon="14.9868478"><ele>519.0</ele><time>2026-04-04T15:00:40.984Z</time></trkpt><trkpt lat="37.022268" lon="14.9867886"><ele>519.0</ele><time>2026-04-04T15:00:41.984Z</time></trkpt><trkpt lat="37.0223328" lon="14.9867232"><ele>519.0</ele><time>2026-04-04T15:00:42.983Z</time></trkpt><trkpt lat="37.0224021" lon="14.9866592"><ele>519.0</ele><time>2026-04-04T15:00:43.984Z</time></trkpt><trkpt lat="37.0224585" lon="14.986596"><ele>519.0</ele><time>2026-04-04T15:00:44.984Z</time></trkpt><trkpt lat="37.0225082" lon="14.9865329"><ele>519.0</ele><time>2026-04-04T15:00:45.984Z</time></trkpt><trkpt lat="37.0225468" lon="14.9864525"><ele>519.0</ele><time>2026-04-04T15:00:46.984Z</time></trkpt><trkpt lat="37.0225738" lon="14.9863504"><ele>520.8</ele><time>2026-04-04T15:00:47.984Z</time></trkpt><trkpt lat="37.0226049" lon="14.9862326"><ele>522.5999999999999</ele><time>2026-04-04T15:00:48.983Z</time></trkpt><trkpt lat="37.0226456" lon="14.986112"><ele>524.4</ele><time>2026-04-04T15:00:49.984Z</time></trkpt><trkpt lat="37.0226836" lon="14.986009"><ele>526.1999999999999</ele><time>2026-04-04T15:00:50.984Z</time></trkpt><trkpt lat="37.0227148" lon="14.9859036"><ele>528.0</ele><time>2026-04-04T15:00:51.984Z</time></trkpt><trkpt lat="37.0227497" lon="14.9858018"><ele>528.2857142857142</ele><time>2026-04-04T15:00:52.983Z</time></trkpt><trkpt lat="37.0227899" lon="14.9857158"><ele>528.5714285714286</ele><time>2026-04-04T15:00:53.984Z</time></trkpt><trkpt lat="37.0228292" lon="14.9856522"><ele>528.8571428571429</ele><time>2026-04-04T15:00:54.984Z</time></trkpt><trkpt lat="37.0228754" lon="14.9855939"><ele>529.1428571428571</ele><time>2026-04-04T15:00:55.983Z</time></trkpt><trkpt lat="37.0229257" lon="14.9855445"><ele>529.4285714285714</ele><time>2026-04-04T15:00:56.983Z</time></trkpt><trkpt lat="37.0229874" lon="14.9855035"><ele>529.7142857142857</ele><time>2026-04-04T15:00:57.984Z</time></trkpt><trkpt lat="37.0230574" lon="14.9854687"><ele>530.0</ele><time>2026-04-04T15:00:58.983Z</time></trkpt><trkpt lat="37.0231291" lon="14.985434"><ele>530.0</ele><time>2026-04-04T15:00:59.984Z</time></trkpt><trkpt lat="37.0232109" lon="14.985397"><ele>530.0</ele><time>2026-04-04T15:01:00.984Z</time></trkpt><trkpt lat="37.0232939" lon="14.9853609"><ele>530.0</ele><time>2026-04-04T15:01:01.984Z</time></trkpt><trkpt lat="37.0233841" lon="14.9853253"><ele>530.0</ele><time>2026-04-04T15:01:02.984Z</time></trkpt><trkpt lat="37.0234682" lon="14.985292"><ele>530.0</ele><time>2026-04-04T15:01:03.984Z</time></trkpt><trkpt lat="37.023545" lon="14.9852596"><ele>530.0</ele><time>2026-04-04T15:01:04.984Z</time></trkpt><trkpt lat="37.023624" lon="14.9852226"><ele>529.8333333333333</ele><time>2026-04-04T15:01:05.984Z</time></trkpt><trkpt lat="37.0236998" lon="14.9851968"><ele>529.6666666666666</ele><time>2026-04-04T15:01:06.984Z</time></trkpt><trkpt lat="37.0237786" lon="14.9851656"><ele>529.5</ele><time>2026-04-04T15:01:07.983Z</time></trkpt><trkpt lat="37.023857" lon="14.9851176"><ele>529.3333333333334</ele><time>2026-04-04T15:01:08.984Z</time></trkpt><trkpt lat="37.0239344" lon="14.9850558"><ele>529.1666666666667</ele><time>2026-04-04T15:01:09.983Z</time></trkpt><trkpt lat="37.0240124" lon="14.9849794"><ele>529.0</ele><time>2026-04-04T15:01:10.984Z</time></trkpt><trkpt lat="37.0240843" lon="14.9848991"><ele>529.3333333333334</ele><time>2026-04-04T15:01:11.984Z</time></trkpt><trkpt lat="37.0241429" lon="14.9848271"><ele>529.6666666666667</ele><time>2026-04-04T15:01:12.984Z</time></trkpt><trkpt lat="37.0242074" lon="14.9847513"><ele>530.0</ele><time>2026-04-04T15:01:13.984Z</time></trkpt><trkpt lat="37.0242756" lon="14.984686"><ele>530.3333333333334</ele><time>2026-04-04T15:01:14.984Z</time></trkpt><trkpt lat="37.024349" lon="14.9846157"><ele>530.6666666666666</ele><time>2026-04-04T15:01:15.984Z</time></trkpt><trkpt lat="37.0244206" lon="14.98454"><ele>531.0</ele><time>2026-04-04T15:01:16.983Z</time></trkpt><trkpt lat="37.0244923" lon="14.9844608"><ele>531.0</ele><time>2026-04-04T15:01:17.984Z</time></trkpt><trkpt lat="37.0245626" lon="14.9843774"><ele>531.0</ele><time>2026-04-04T15:01:18.983Z</time></trkpt><trkpt lat="37.0246303" lon="14.9842856"><ele>531.0</ele><time>2026-04-04T15:01:19.984Z</time></trkpt><trkpt lat="37.0246975" lon="14.9841843"><ele>531.0</ele><time>2026-04-04T15:01:20.984Z</time></trkpt><trkpt lat="37.0247588" lon="14.9840791"><ele>531.0</ele><time>2026-04-04T15:01:21.984Z</time></trkpt><trkpt lat="37.0248084" lon="14.983984"><ele>531.3333333333334</ele><time>2026-04-04T15:01:22.984Z</time></trkpt><trkpt lat="37.024858" lon="14.9838825"><ele>531.6666666666666</ele><time>2026-04-04T15:01:23.984Z</time></trkpt><trkpt lat="37.0249073" lon="14.9837872"><ele>532.0</ele><time>2026-04-04T15:01:24.984Z</time></trkpt><trkpt lat="37.0249498" lon="14.9836908"><ele>532.3333333333333</ele><time>2026-04-04T15:01:25.984Z</time></trkpt><trkpt lat="37.0249809" lon="14.9836156"><ele>532.6666666666666</ele><time>2026-04-04T15:01:26.984Z</time></trkpt><trkpt lat="37.0250155" lon="14.9835309"><ele>533.0</ele><time>2026-04-04T15:01:27.984Z</time></trkpt><trkpt lat="37.0250546" lon="14.983441"><ele>533.0</ele><time>2026-04-04T15:01:28.984Z</time></trkpt><trkpt lat="37.025084" lon="14.9833506"><ele>533.0</ele><time>2026-04-04T15:01:29.983Z</time></trkpt><trkpt lat="37.0251089" lon="14.9832578"><ele>533.0</ele><time>2026-04-04T15:01:30.983Z</time></trkpt><trkpt lat="37.0251287" lon="14.983155"><ele>533.0</ele><time>2026-04-04T15:01:31.984Z</time></trkpt><trkpt lat="37.0251539" lon="14.9830593"><ele>533.0</ele><time>2026-04-04T15:01:32.984Z</time></trkpt><trkpt lat="37.0251763" lon="14.9829717"><ele>533.0</ele><time>2026-04-04T15:01:33.984Z</time></trkpt><trkpt lat="37.0251984" lon="14.9828844"><ele>533.6666666666666</ele><time>2026-04-04T15:01:34.984Z</time></trkpt><trkpt lat="37.0252153" lon="14.9827895"><ele>534.3333333333333</ele><time>2026-04-04T15:01:35.983Z</time></trkpt><trkpt lat="37.0252232" lon="14.9826948"><ele>535.0</ele><time>2026-04-04T15:01:36.984Z</time></trkpt><trkpt lat="37.0252316" lon="14.9825951"><ele>535.6666666666666</ele><time>2026-04-04T15:01:37.984Z</time></trkpt><trkpt lat="37.0252483" lon="14.9825049"><ele>536.3333333333334</ele><time>2026-04-04T15:01:38.984Z</time></trkpt><trkpt lat="37.0252596" lon="14.9824106"><ele>537.0</ele><time>2026-04-04T15:01:39.984Z</time></trkpt><trkpt lat="37.0252755" lon="14.9823146"><ele>537.0</ele><time>2026-04-04T15:01:40.983Z</time></trkpt><trkpt lat="37.0252899" lon="14.9822155"><ele>537.0</ele><time>2026-04-04T15:01:41.983Z</time></trkpt><trkpt lat="37.02531" lon="14.9821276"><ele>537.0</ele><time>2026-04-04T15:01:42.984Z</time></trkpt><trkpt lat="37.0253481" lon="14.9820026"><ele>537.0</ele><time>2026-04-04T15:01:44.983Z</time></trkpt><trkpt lat="37.0254125" lon="14.9819489"><ele>537.0</ele><time>2026-04-04T15:01:46.984Z</time></trkpt><trkpt lat="37.0255181" lon="14.9819467"><ele>537.0</ele><time>2026-04-04T15:01:48.983Z</time></trkpt><trkpt lat="37.0255914" lon="14.9819653"><ele>537.0</ele><time>2026-04-04T15:01:49.983Z</time></trkpt><trkpt lat="37.0256633" lon="14.981992"><ele>537.0</ele><time>2026-04-04T15:01:50.984Z</time></trkpt><trkpt lat="37.0257389" lon="14.9820196"><ele>537.0</ele><time>2026-04-04T15:01:51.984Z</time></trkpt><trkpt lat="37.0258128" lon="14.9820537"><ele>537.0</ele><time>2026-04-04T15:01:52.984Z</time></trkpt><trkpt lat="37.0259008" lon="14.9820822"><ele>537.0</ele><time>2026-04-04T15:01:53.984Z</time></trkpt><trkpt lat="37.0259784" lon="14.9821104"><ele>537.0</ele><time>2026-04-04T15:01:54.984Z</time></trkpt><trkpt lat="37.026054" lon="14.9821333"><ele>535.3333333333334</ele><time>2026-04-04T15:01:55.984Z</time></trkpt><trkpt lat="37.0261355" lon="14.9821608"><ele>533.6666666666666</ele><time>2026-04-04T15:01:56.984Z</time></trkpt><trkpt lat="37.0262124" lon="14.9821831"><ele>532.0</ele><time>2026-04-04T15:01:57.984Z</time></trkpt><trkpt lat="37.0262936" lon="14.9822079"><ele>530.3333333333333</ele><time>2026-04-04T15:01:58.984Z</time></trkpt><trkpt lat="37.0263869" lon="14.982225"><ele>528.6666666666666</ele><time>2026-04-04T15:01:59.983Z</time></trkpt><trkpt lat="37.0264729" lon="14.9822426"><ele>527.0</ele><time>2026-04-04T15:02:00.983Z</time></trkpt><trkpt lat="37.0265501" lon="14.9822567"><ele>527.0</ele><time>2026-04-04T15:02:01.984Z</time></trkpt><trkpt lat="37.0266226" lon="14.9822711"><ele>527.0</ele><time>2026-04-04T15:02:02.984Z</time></trkpt><trkpt lat="37.0266963" lon="14.9822876"><ele>527.0</ele><time>2026-04-04T15:02:03.983Z</time></trkpt><trkpt lat="37.0268218" lon="14.9823149"><ele>527.0</ele><time>2026-04-04T15:02:05.984Z</time></trkpt><trkpt lat="37.0268872" lon="14.9823168"><ele>527.0</ele><time>2026-04-04T15:02:06.984Z</time></trkpt><trkpt lat="37.0269548" lon="14.9823065"><ele>527.0</ele><time>2026-04-04T15:02:07.984Z</time></trkpt><trkpt lat="37.0270736" lon="14.9822497"><ele>525.5</ele><time>2026-04-04T15:02:09.983Z</time></trkpt><trkpt lat="37.0271371" lon="14.9822059"><ele>524.0</ele><time>2026-04-04T15:02:10.983Z</time></trkpt><trkpt lat="37.0271995" lon="14.9821475"><ele>522.5</ele><time>2026-04-04T15:02:11.984Z</time></trkpt><trkpt lat="37.0272565" lon="14.9820867"><ele>521.0</ele><time>2026-04-04T15:02:12.984Z</time></trkpt><trkpt lat="37.0273165" lon="14.9820297"><ele>519.5</ele><time>2026-04-04T15:02:13.984Z</time></trkpt><trkpt lat="37.027384" lon="14.9819612"><ele>518.0</ele><time>2026-04-04T15:02:14.984Z</time></trkpt><trkpt lat="37.0274486" lon="14.9818994"><ele>516.5</ele><time>2026-04-04T15:02:15.984Z</time></trkpt><trkpt lat="37.0275095" lon="14.9818403"><ele>515.0</ele><time>2026-04-04T15:02:16.984Z</time></trkpt><trkpt lat="37.0275734" lon="14.9817819"><ele>513.5</ele><time>2026-04-04T15:02:17.984Z</time></trkpt><trkpt lat="37.0276346" lon="14.9817206"><ele>512.0</ele><time>2026-04-04T15:02:18.984Z</time></trkpt><trkpt lat="37.027694" lon="14.9816437"><ele>510.49999999999994</ele><time>2026-04-04T15:02:19.984Z</time></trkpt><trkpt lat="37.0277543" lon="14.9815622"><ele>509.0</ele><time>2026-04-04T15:02:20.984Z</time></trkpt><trkpt lat="37.0278085" lon="14.981479"><ele>508.99999999999994</ele><time>2026-04-04T15:02:21.984Z</time></trkpt><trkpt lat="37.0278466" lon="14.9814001"><ele>509.0</ele><time>2026-04-04T15:02:22.984Z</time></trkpt><trkpt lat="37.0278871" lon="14.9813165"><ele>509.0</ele><time>2026-04-04T15:02:23.984Z</time></trkpt><trkpt lat="37.0279294" lon="14.9812306"><ele>509.0</ele><time>2026-04-04T15:02:24.984Z</time></trkpt><trkpt lat="37.0279782" lon="14.981139"><ele>508.99999999999994</ele><time>2026-04-04T15:02:25.984Z</time></trkpt><trkpt lat="37.0280258" lon="14.9810355"><ele>509.0</ele><time>2026-04-04T15:02:26.984Z</time></trkpt><trkpt lat="37.0280724" lon="14.9809312"><ele>509.66666666666663</ele><time>2026-04-04T15:02:27.984Z</time></trkpt><trkpt lat="37.0281128" lon="14.980832"><ele>510.3333333333333</ele><time>2026-04-04T15:02:28.984Z</time></trkpt><trkpt lat="37.0281519" lon="14.980735"><ele>511.0</ele><time>2026-04-04T15:02:29.984Z</time></trkpt><trkpt lat="37.0281972" lon="14.9806223"><ele>511.66666666666663</ele><time>2026-04-04T15:02:30.984Z</time></trkpt><trkpt lat="37.0282374" lon="14.9805254"><ele>512.3333333333334</ele><time>2026-04-04T15:02:31.984Z</time></trkpt><trkpt lat="37.0282707" lon="14.9804321"><ele>513.0</ele><time>2026-04-04T15:02:32.983Z</time></trkpt><trkpt lat="37.0283017" lon="14.980327"><ele>511.1428571428572</ele><time>2026-04-04T15:02:33.984Z</time></trkpt><trkpt lat="37.028326" lon="14.9802256"><ele>509.28571428571433</ele><time>2026-04-04T15:02:34.984Z</time></trkpt><trkpt lat="37.0283425" lon="14.9801303"><ele>507.42857142857144</ele><time>2026-04-04T15:02:35.983Z</time></trkpt><trkpt lat="37.0283546" lon="14.9800405"><ele>505.5714285714286</ele><time>2026-04-04T15:02:36.984Z</time></trkpt><trkpt lat="37.0283515" lon="14.9799499"><ele>503.7142857142858</ele><time>2026-04-04T15:02:37.983Z</time></trkpt><trkpt lat="37.0283473" lon="14.9798576"><ele>501.85714285714283</ele><time>2026-04-04T15:02:38.984Z</time></trkpt><trkpt lat="37.0283438" lon="14.9797723"><ele>500.0</ele><time>2026-04-04T15:02:39.984Z</time></trkpt><trkpt lat="37.0283356" lon="14.9796837"><ele>499.71428571428567</ele><time>2026-04-04T15:02:40.984Z</time></trkpt><trkpt lat="37.0283287" lon="14.979599"><ele>499.42857142857144</ele><time>2026-04-04T15:02:41.983Z</time></trkpt><trkpt lat="37.0283249" lon="14.9795177"><ele>499.1428571428571</ele><time>2026-04-04T15:02:42.984Z</time></trkpt><trkpt lat="37.0283199" lon="14.9794316"><ele>498.85714285714283</ele><time>2026-04-04T15:02:43.983Z</time></trkpt><trkpt lat="37.0283184" lon="14.9793462"><ele>498.57142857142856</ele><time>2026-04-04T15:02:44.984Z</time></trkpt><trkpt lat="37.0283179" lon="14.9792617"><ele>498.2857142857143</ele><time>2026-04-04T15:02:45.984Z</time></trkpt><trkpt lat="37.028326" lon="14.9791794"><ele>498.0</ele><time>2026-04-04T15:02:46.983Z</time></trkpt><trkpt lat="37.0283304" lon="14.9790974"><ele>497.1666666666667</ele><time>2026-04-04T15:02:47.984Z</time></trkpt><trkpt lat="37.028316" lon="14.9789397"><ele>496.33333333333337</ele><time>2026-04-04T15:02:49.983Z</time></trkpt><trkpt lat="37.028297" lon="14.9788627"><ele>495.5</ele><time>2026-04-04T15:02:50.984Z</time></trkpt><trkpt lat="37.0282745" lon="14.9787852"><ele>494.6666666666667</ele><time>2026-04-04T15:02:51.984Z</time></trkpt><trkpt lat="37.0282463" lon="14.9787077"><ele>493.83333333333337</ele><time>2026-04-04T15:02:52.984Z</time></trkpt><trkpt lat="37.0281991" lon="14.9785939"><ele>493.0</ele><time>2026-04-04T15:02:54.984Z</time></trkpt><trkpt lat="37.0281489" lon="14.9785213"><ele>495.50000000000006</ele><time>2026-04-04T15:02:58.984Z</time></trkpt><trkpt lat="37.0281006" lon="14.9784476"><ele>498.0</ele><time>2026-04-04T15:03:02.984Z</time></trkpt><trkpt lat="37.0280551" lon="14.9783795"><ele>500.5</ele><time>2026-04-04T15:03:06.984Z</time></trkpt><trkpt lat="37.0280173" lon="14.9783093"><ele>503.0</ele><time>2026-04-04T15:03:08.984Z</time></trkpt><trkpt lat="37.0279766" lon="14.9782281"><ele>505.50000000000006</ele><time>2026-04-04T15:03:10.984Z</time></trkpt><trkpt lat="37.0279426" lon="14.9781563"><ele>508.0</ele><time>2026-04-04T15:03:11.984Z</time></trkpt><trkpt lat="37.0279207" lon="14.9780263"><ele>508.0</ele><time>2026-04-04T15:03:13.984Z</time></trkpt><trkpt lat="37.0279279" lon="14.9778818"><ele>507.99999999999994</ele><time>2026-04-04T15:03:15.983Z</time></trkpt><trkpt lat="37.0279846" lon="14.9777619"><ele>507.99999999999994</ele><time>2026-04-04T15:03:17.984Z</time></trkpt><trkpt lat="37.0280686" lon="14.9776943"><ele>508.0</ele><time>2026-04-04T15:03:19.984Z</time></trkpt><trkpt lat="37.0281622" lon="14.977626"><ele>508.0</ele><time>2026-04-04T15:03:21.983Z</time></trkpt><trkpt lat="37.0282185" lon="14.9775907"><ele>504.0</ele><time>2026-04-04T15:03:22.984Z</time></trkpt><trkpt lat="37.0283163" lon="14.9775144"><ele>499.99999999999994</ele><time>2026-04-04T15:03:24.984Z</time></trkpt><trkpt lat="37.0284316" lon="14.9774525"><ele>495.99999999999994</ele><time>2026-04-04T15:03:26.984Z</time></trkpt><trkpt lat="37.0284915" lon="14.9774248"><ele>492.0</ele><time>2026-04-04T15:03:27.983Z</time></trkpt><trkpt lat="37.0286195" lon="14.9774058"><ele>488.0</ele><time>2026-04-04T15:03:29.984Z</time></trkpt><trkpt lat="37.0287366" lon="14.9774386"><ele>487.99999999999994</ele><time>2026-04-04T15:03:31.984Z</time></trkpt><trkpt lat="37.0288303" lon="14.977458"><ele>488.0</ele><time>2026-04-04T15:03:33.984Z</time></trkpt><trkpt lat="37.0288859" lon="14.9774154"><ele>488.0</ele><time>2026-04-04T15:03:35.984Z</time></trkpt><trkpt lat="37.0289021" lon="14.9773343"><ele>488.0</ele><time>2026-04-04T15:03:37.983Z</time></trkpt><trkpt lat="37.0289285" lon="14.9771898"><ele>487.99999999999994</ele><time>2026-04-04T15:03:39.984Z</time></trkpt><trkpt lat="37.0289515" lon="14.9770942"><ele>488.0</ele><time>2026-04-04T15:03:40.983Z</time></trkpt><trkpt lat="37.0289749" lon="14.9769993"><ele>487.99999999999994</ele><time>2026-04-04T15:03:41.983Z</time></trkpt><trkpt lat="37.0289988" lon="14.9769044"><ele>488.0</ele><time>2026-04-04T15:03:42.984Z</time></trkpt><trkpt lat="37.0290253" lon="14.9768084"><ele>488.0</ele><time>2026-04-04T15:03:43.982Z</time></trkpt><trkpt lat="37.0290572" lon="14.9767048"><ele>488.0</ele><time>2026-04-04T15:03:44.983Z</time></trkpt><trkpt lat="37.0290929" lon="14.9766152"><ele>487.99999999999994</ele><time>2026-04-04T15:03:45.984Z</time></trkpt><trkpt lat="37.0291362" lon="14.9765291"><ele>488.0</ele><time>2026-04-04T15:03:46.984Z</time></trkpt><trkpt lat="37.0291771" lon="14.9764498"><ele>488.8333333333333</ele><time>2026-04-04T15:03:47.984Z</time></trkpt><trkpt lat="37.0292183" lon="14.9763772"><ele>489.66666666666663</ele><time>2026-04-04T15:03:48.984Z</time></trkpt><trkpt lat="37.0292508" lon="14.9762992"><ele>490.5</ele><time>2026-04-04T15:03:49.984Z</time></trkpt><trkpt lat="37.0292761" lon="14.9762075"><ele>491.33333333333337</ele><time>2026-04-04T15:03:50.984Z</time></trkpt><trkpt lat="37.0292947" lon="14.9761043"><ele>492.1666666666667</ele><time>2026-04-04T15:03:51.984Z</time></trkpt><trkpt lat="37.0293175" lon="14.9760024"><ele>493.0</ele><time>2026-04-04T15:03:52.983Z</time></trkpt><trkpt lat="37.0293472" lon="14.9759187"><ele>493.2857142857143</ele><time>2026-04-04T15:03:53.984Z</time></trkpt><trkpt lat="37.0293778" lon="14.9758372"><ele>493.57142857142856</ele><time>2026-04-04T15:03:54.985Z</time></trkpt><trkpt lat="37.0294146" lon="14.9757604"><ele>493.85714285714283</ele><time>2026-04-04T15:03:55.983Z</time></trkpt><trkpt lat="37.0294496" lon="14.9756817"><ele>494.1428571428571</ele><time>2026-04-04T15:03:56.984Z</time></trkpt><trkpt lat="37.0294818" lon="14.9756016"><ele>494.42857142857144</ele><time>2026-04-04T15:03:57.984Z</time></trkpt><trkpt lat="37.0295073" lon="14.9755231"><ele>494.71428571428567</ele><time>2026-04-04T15:03:58.983Z</time></trkpt><trkpt lat="37.029534" lon="14.9754459"><ele>494.99999999999994</ele><time>2026-04-04T15:03:59.984Z</time></trkpt><trkpt lat="37.0295608" lon="14.9753666"><ele>495.0</ele><time>2026-04-04T15:04:00.983Z</time></trkpt><trkpt lat="37.0295856" lon="14.9752814"><ele>495.0</ele><time>2026-04-04T15:04:01.984Z</time></trkpt><trkpt lat="37.0296204" lon="14.9751874"><ele>495.0</ele><time>2026-04-04T15:04:02.983Z</time></trkpt><trkpt lat="37.029651" lon="14.9750875"><ele>495.0</ele><time>2026-04-04T15:04:03.984Z</time></trkpt><trkpt lat="37.0296854" lon="14.9749974"><ele>495.0</ele><time>2026-04-04T15:04:04.984Z</time></trkpt><trkpt lat="37.0297131" lon="14.9748967"><ele>495.0</ele><time>2026-04-04T15:04:05.984Z</time></trkpt><trkpt lat="37.0297509" lon="14.9747841"><ele>495.0</ele><time>2026-04-04T15:04:06.984Z</time></trkpt><trkpt lat="37.0298007" lon="14.9746662"><ele>495.0</ele><time>2026-04-04T15:04:07.984Z</time></trkpt><trkpt lat="37.0298407" lon="14.9745447"><ele>495.0</ele><time>2026-04-04T15:04:08.984Z</time></trkpt><trkpt lat="37.0298722" lon="14.9744343"><ele>495.0</ele><time>2026-04-04T15:04:09.984Z</time></trkpt><trkpt lat="37.0298981" lon="14.9743196"><ele>495.0</ele><time>2026-04-04T15:04:10.983Z</time></trkpt><trkpt lat="37.0299202" lon="14.9742058"><ele>494.6</ele><time>2026-04-04T15:04:11.984Z</time></trkpt><trkpt lat="37.02994" lon="14.9740804"><ele>494.2</ele><time>2026-04-04T15:04:12.983Z</time></trkpt><trkpt lat="37.0299575" lon="14.9739601"><ele>493.79999999999995</ele><time>2026-04-04T15:04:13.984Z</time></trkpt><trkpt lat="37.0299778" lon="14.9738525"><ele>493.4</ele><time>2026-04-04T15:04:14.984Z</time></trkpt><trkpt lat="37.0300081" lon="14.9737525"><ele>493.0</ele><time>2026-04-04T15:04:15.983Z</time></trkpt><trkpt lat="37.0300453" lon="14.9736587"><ele>493.4</ele><time>2026-04-04T15:04:16.984Z</time></trkpt><trkpt lat="37.0301142" lon="14.9735771"><ele>493.79999999999995</ele><time>2026-04-04T15:04:17.984Z</time></trkpt><trkpt lat="37.0301872" lon="14.9735005"><ele>494.2</ele><time>2026-04-04T15:04:18.984Z</time></trkpt><trkpt lat="37.0302693" lon="14.9734118"><ele>494.6</ele><time>2026-04-04T15:04:19.984Z</time></trkpt><trkpt lat="37.0303524" lon="14.9733233"><ele>495.0</ele><time>2026-04-04T15:04:20.984Z</time></trkpt><trkpt lat="37.0304299" lon="14.9732484"><ele>495.0</ele><time>2026-04-04T15:04:21.983Z</time></trkpt><trkpt lat="37.030509" lon="14.9731816"><ele>495.0</ele><time>2026-04-04T15:04:22.984Z</time></trkpt><trkpt lat="37.0305947" lon="14.9731198"><ele>495.0</ele><time>2026-04-04T15:04:23.983Z</time></trkpt><trkpt lat="37.0306851" lon="14.9730534"><ele>495.0</ele><time>2026-04-04T15:04:24.984Z</time></trkpt><trkpt lat="37.0307721" lon="14.9729833"><ele>495.0</ele><time>2026-04-04T15:04:25.984Z</time></trkpt><trkpt lat="37.0308463" lon="14.9729071"><ele>495.5</ele><time>2026-04-04T15:04:26.984Z</time></trkpt><trkpt lat="37.0309056" lon="14.9728274"><ele>496.0</ele><time>2026-04-04T15:04:27.984Z</time></trkpt><trkpt lat="37.0309587" lon="14.9727468"><ele>496.5</ele><time>2026-04-04T15:04:28.984Z</time></trkpt><trkpt lat="37.0310102" lon="14.9726664"><ele>497.0</ele><time>2026-04-04T15:04:29.984Z</time></trkpt><trkpt lat="37.0310635" lon="14.9725809"><ele>497.5</ele><time>2026-04-04T15:04:30.984Z</time></trkpt><trkpt lat="37.031127" lon="14.9725089"><ele>498.0</ele><time>2026-04-04T15:04:31.983Z</time></trkpt><trkpt lat="37.0312006" lon="14.9724495"><ele>498.0</ele><time>2026-04-04T15:04:32.984Z</time></trkpt><trkpt lat="37.0312787" lon="14.972388"><ele>497.99999999999994</ele><time>2026-04-04T15:04:33.984Z</time></trkpt><trkpt lat="37.0313622" lon="14.972322"><ele>497.99999999999994</ele><time>2026-04-04T15:04:34.982Z</time></trkpt><trkpt lat="37.0314519" lon="14.9722657"><ele>498.0</ele><time>2026-04-04T15:04:35.984Z</time></trkpt><trkpt lat="37.0315465" lon="14.9722043"><ele>498.0</ele><time>2026-04-04T15:04:36.984Z</time></trkpt><trkpt lat="37.0316412" lon="14.9721447"><ele>499.25</ele><time>2026-04-04T15:04:37.984Z</time></trkpt><trkpt lat="37.0317393" lon="14.9720892"><ele>500.5</ele><time>2026-04-04T15:04:38.984Z</time></trkpt><trkpt lat="37.0318379" lon="14.9720251"><ele>501.75</ele><time>2026-04-04T15:04:39.983Z</time></trkpt><trkpt lat="37.0319375" lon="14.9719595"><ele>503.0</ele><time>2026-04-04T15:04:40.983Z</time></trkpt><trkpt lat="37.0320431" lon="14.9718901"><ele>503.0</ele><time>2026-04-04T15:04:41.984Z</time></trkpt><trkpt lat="37.0321535" lon="14.9718154"><ele>503.0</ele><time>2026-04-04T15:04:42.984Z</time></trkpt><trkpt lat="37.0322657" lon="14.9717352"><ele>503.0</ele><time>2026-04-04T15:04:43.984Z</time></trkpt><trkpt lat="37.0323879" lon="14.9716535"><ele>503.0</ele><time>2026-04-04T15:04:44.983Z</time></trkpt><trkpt lat="37.032513" lon="14.9715692"><ele>503.5</ele><time>2026-04-04T15:04:45.983Z</time></trkpt><trkpt lat="37.0326429" lon="14.9714883"><ele>504.0</ele><time>2026-04-04T15:04:46.984Z</time></trkpt><trkpt lat="37.0327608" lon="14.9714105"><ele>504.5</ele><time>2026-04-04T15:04:47.984Z</time></trkpt><trkpt lat="37.0328648" lon="14.9713414"><ele>505.0</ele><time>2026-04-04T15:04:48.984Z</time></trkpt><trkpt lat="37.0329643" lon="14.9712801"><ele>505.0</ele><time>2026-04-04T15:04:49.984Z</time></trkpt><trkpt lat="37.033065" lon="14.9712213"><ele>505.0</ele><time>2026-04-04T15:04:50.984Z</time></trkpt><trkpt lat="37.0331618" lon="14.9711589"><ele>505.0</ele><time>2026-04-04T15:04:51.983Z</time></trkpt><trkpt lat="37.0332578" lon="14.971092"><ele>505.0</ele><time>2026-04-04T15:04:52.983Z</time></trkpt><trkpt lat="37.033352" lon="14.9710272"><ele>505.0</ele><time>2026-04-04T15:04:53.984Z</time></trkpt><trkpt lat="37.0334519" lon="14.9709628"><ele>505.75</ele><time>2026-04-04T15:04:54.983Z</time></trkpt><trkpt lat="37.0335533" lon="14.9708988"><ele>506.5</ele><time>2026-04-04T15:04:55.984Z</time></trkpt><trkpt lat="37.0336547" lon="14.9708319"><ele>507.25</ele><time>2026-04-04T15:04:56.984Z</time></trkpt><trkpt lat="37.0337568" lon="14.970764"><ele>508.0</ele><time>2026-04-04T15:04:57.984Z</time></trkpt><trkpt lat="37.0338562" lon="14.9706976"><ele>508.25</ele><time>2026-04-04T15:04:58.983Z</time></trkpt><trkpt lat="37.0339646" lon="14.9706276"><ele>508.5</ele><time>2026-04-04T15:04:59.984Z</time></trkpt><trkpt lat="37.0340743" lon="14.9705584"><ele>508.75</ele><time>2026-04-04T15:05:00.984Z</time></trkpt><trkpt lat="37.0341785" lon="14.970488"><ele>509.0</ele><time>2026-04-04T15:05:01.983Z</time></trkpt><trkpt lat="37.0342812" lon="14.9704214"><ele>509.25</ele><time>2026-04-04T15:05:02.984Z</time></trkpt><trkpt lat="37.0343874" lon="14.970351"><ele>509.5</ele><time>2026-04-04T15:05:03.984Z</time></trkpt><trkpt lat="37.0344948" lon="14.9702775"><ele>509.75</ele><time>2026-04-04T15:05:04.984Z</time></trkpt><trkpt lat="37.0346039" lon="14.9702082"><ele>510.0</ele><time>2026-04-04T15:05:05.984Z</time></trkpt><trkpt lat="37.0347132" lon="14.9701332"><ele>510.0</ele><time>2026-04-04T15:05:06.983Z</time></trkpt><trkpt lat="37.0348133" lon="14.9700724"><ele>510.0</ele><time>2026-04-04T15:05:07.984Z</time></trkpt><trkpt lat="37.0349168" lon="14.9700087"><ele>510.0</ele><time>2026-04-04T15:05:08.984Z</time></trkpt><trkpt lat="37.0350179" lon="14.969945"><ele>510.0</ele><time>2026-04-04T15:05:09.983Z</time></trkpt><trkpt lat="37.0351263" lon="14.9698862"><ele>510.0</ele><time>2026-04-04T15:05:10.983Z</time></trkpt><trkpt lat="37.0352464" lon="14.9698303"><ele>510.0</ele><time>2026-04-04T15:05:11.983Z</time></trkpt><trkpt lat="37.0353766" lon="14.9697724"><ele>510.0</ele><time>2026-04-04T15:05:12.983Z</time></trkpt><trkpt lat="37.035512" lon="14.9697171"><ele>510.0</ele><time>2026-04-04T15:05:13.984Z</time></trkpt><trkpt lat="37.0356369" lon="14.9696657"><ele>510.0</ele><time>2026-04-04T15:05:14.983Z</time></trkpt><trkpt lat="37.0357537" lon="14.9696178"><ele>510.0</ele><time>2026-04-04T15:05:15.983Z</time></trkpt><trkpt lat="37.0358664" lon="14.9695746"><ele>510.0</ele><time>2026-04-04T15:05:16.984Z</time></trkpt><trkpt lat="37.0359674" lon="14.9695343"><ele>510.0</ele><time>2026-04-04T15:05:17.984Z</time></trkpt><trkpt lat="37.0360644" lon="14.9694951"><ele>510.0</ele><time>2026-04-04T15:05:18.984Z</time></trkpt><trkpt lat="37.0361675" lon="14.9694539"><ele>510.0</ele><time>2026-04-04T15:05:19.983Z</time></trkpt><trkpt lat="37.0362705" lon="14.9694194"><ele>510.0</ele><time>2026-04-04T15:05:20.983Z</time></trkpt><trkpt lat="37.0363657" lon="14.9693831"><ele>510.0</ele><time>2026-04-04T15:05:21.984Z</time></trkpt><trkpt lat="37.0364538" lon="14.969348"><ele>510.0</ele><time>2026-04-04T15:05:22.983Z</time></trkpt><trkpt lat="37.0365356" lon="14.9693151"><ele>510.0</ele><time>2026-04-04T15:05:23.984Z</time></trkpt><trkpt lat="37.03661" lon="14.9692777"><ele>510.0</ele><time>2026-04-04T15:05:24.984Z</time></trkpt><trkpt lat="37.0366812" lon="14.9692463"><ele>511.0</ele><time>2026-04-04T15:05:25.983Z</time></trkpt><trkpt lat="37.0367475" lon="14.9692182"><ele>511.0</ele><time>2026-04-04T15:05:26.984Z</time></trkpt><trkpt lat="37.0368418" lon="14.969187"><ele>512.0</ele><time>2026-04-04T15:05:28.983Z</time></trkpt><trkpt lat="37.0369033" lon="14.9691614"><ele>512.0</ele><time>2026-04-04T15:05:30.984Z</time></trkpt></trkseg><trkseg><trkpt lat="36.9276673" lon="15.0225549"><ele>219.0</ele><time>2026-04-04T16:05:29.983Z</time></trkpt><trkpt lat="36.9276181" lon="15.022622"><ele>218.99999999999997</ele><time>2026-04-04T16:05:33.983Z</time></trkpt><trkpt lat="36.9275997" lon="15.0227434"><ele>218.99999999999997</ele><time>2026-04-04T16:05:36.983Z</time></trkpt><trkpt lat="36.9276004" lon="15.0228758"><ele>219.0</ele><time>2026-04-04T16:05:38.983Z</time></trkpt><trkpt lat="36.9276089" lon="15.0230364"><ele>219.0</ele><time>2026-04-04T16:05:40.982Z</time></trkpt><trkpt lat="36.9276102" lon="15.0231276"><ele>219.0</ele><time>2026-04-04T16:05:41.982Z</time></trkpt><trkpt lat="36.927593" lon="15.0232154"><ele>218.99999999999997</ele><time>2026-04-04T16:05:42.983Z</time></trkpt><trkpt lat="36.9275679" lon="15.023296"><ele>218.99999999999997</ele><time>2026-04-04T16:05:43.983Z</time></trkpt><trkpt lat="36.9274899" lon="15.0234382"><ele>219.0</ele><time>2026-04-04T16:05:45.982Z</time></trkpt><trkpt lat="36.9274309" lon="15.023515"><ele>219.0</ele><time>2026-04-04T16:05:46.983Z</time></trkpt><trkpt lat="36.9273625" lon="15.0235951"><ele>218.83333333333334</ele><time>2026-04-04T16:05:47.983Z</time></trkpt><trkpt lat="36.9272912" lon="15.0236547"><ele>218.66666666666669</ele><time>2026-04-04T16:05:48.983Z</time></trkpt><trkpt lat="36.9272127" lon="15.0236953"><ele>218.5</ele><time>2026-04-04T16:05:49.983Z</time></trkpt><trkpt lat="36.9271366" lon="15.023724"><ele>218.33333333333334</ele><time>2026-04-04T16:05:50.982Z</time></trkpt><trkpt lat="36.9270589" lon="15.0237624"><ele>218.16666666666669</ele><time>2026-04-04T16:05:51.983Z</time></trkpt><trkpt lat="36.9269783" lon="15.0238062"><ele>218.0</ele><time>2026-04-04T16:05:52.983Z</time></trkpt><trkpt lat="36.9268979" lon="15.0238462"><ele>218.00000000000003</ele><time>2026-04-04T16:05:53.983Z</time></trkpt><trkpt lat="36.9268188" lon="15.0238874"><ele>218.0</ele><time>2026-04-04T16:05:54.983Z</time></trkpt><trkpt lat="36.9267546" lon="15.0239379"><ele>218.0</ele><time>2026-04-04T16:05:55.982Z</time></trkpt><trkpt lat="36.9266934" lon="15.023973"><ele>218.0</ele><time>2026-04-04T16:05:56.983Z</time></trkpt><trkpt lat="36.9266317" lon="15.0240003"><ele>218.00000000000003</ele><time>2026-04-04T16:05:57.983Z</time></trkpt><trkpt lat="36.9265169" lon="15.024061"><ele>218.0</ele><time>2026-04-04T16:05:59.983Z</time></trkpt><trkpt lat="36.9264018" lon="15.0241185"><ele>217.83333333333334</ele><time>2026-04-04T16:06:01.983Z</time></trkpt><trkpt lat="36.9263352" lon="15.0241603"><ele>217.66666666666669</ele><time>2026-04-04T16:06:02.983Z</time></trkpt><trkpt lat="36.9262659" lon="15.024194"><ele>217.5</ele><time>2026-04-04T16:06:03.983Z</time></trkpt><trkpt lat="36.9261974" lon="15.0242262"><ele>217.33333333333331</ele><time>2026-04-04T16:06:04.983Z</time></trkpt><trkpt lat="36.9261271" lon="15.0242548"><ele>217.16666666666666</ele><time>2026-04-04T16:06:05.982Z</time></trkpt><trkpt lat="36.9260585" lon="15.0242909"><ele>217.0</ele><time>2026-04-04T16:06:06.983Z</time></trkpt><trkpt lat="36.9259843" lon="15.0243371"><ele>217.0</ele><time>2026-04-04T16:06:07.983Z</time></trkpt><trkpt lat="36.9259104" lon="15.0243974"><ele>217.0</ele><time>2026-04-04T16:06:08.983Z</time></trkpt><trkpt lat="36.925836" lon="15.0244724"><ele>217.0</ele><time>2026-04-04T16:06:09.983Z</time></trkpt><trkpt lat="36.9257653" lon="15.0245482"><ele>217.0</ele><time>2026-04-04T16:06:10.983Z</time></trkpt><trkpt lat="36.9256978" lon="15.0246207"><ele>217.0</ele><time>2026-04-04T16:06:11.983Z</time></trkpt><trkpt lat="36.9256242" lon="15.0246802"><ele>216.39999999999998</ele><time>2026-04-04T16:06:12.983Z</time></trkpt><trkpt lat="36.9255567" lon="15.0247361"><ele>215.79999999999998</ele><time>2026-04-04T16:06:13.983Z</time></trkpt><trkpt lat="36.9254827" lon="15.0247927"><ele>215.2</ele><time>2026-04-04T16:06:14.983Z</time></trkpt><trkpt lat="36.9254039" lon="15.0248548"><ele>214.6</ele><time>2026-04-04T16:06:15.983Z</time></trkpt><trkpt lat="36.925311" lon="15.0249164"><ele>214.0</ele><time>2026-04-04T16:06:16.984Z</time></trkpt><trkpt lat="36.925219" lon="15.0249901"><ele>214.0</ele><time>2026-04-04T16:06:17.983Z</time></trkpt><trkpt lat="36.9251325" lon="15.0250496"><ele>213.99999999999997</ele><time>2026-04-04T16:06:18.982Z</time></trkpt><trkpt lat="36.925042" lon="15.0251135"><ele>213.99999999999997</ele><time>2026-04-04T16:06:19.983Z</time></trkpt><trkpt lat="36.9249571" lon="15.0251614"><ele>214.0</ele><time>2026-04-04T16:06:20.983Z</time></trkpt><trkpt lat="36.9248751" lon="15.0251849"><ele>214.0</ele><time>2026-04-04T16:06:21.983Z</time></trkpt><trkpt lat="36.9247846" lon="15.0251931"><ele>216.0</ele><time>2026-04-04T16:06:22.983Z</time></trkpt><trkpt lat="36.9246789" lon="15.0252167"><ele>217.99999999999997</ele><time>2026-04-04T16:06:23.983Z</time></trkpt><trkpt lat="36.9245672" lon="15.0252505"><ele>219.99999999999997</ele><time>2026-04-04T16:06:24.983Z</time></trkpt><trkpt lat="36.9244594" lon="15.0252884"><ele>222.0</ele><time>2026-04-04T16:06:25.983Z</time></trkpt><trkpt lat="36.9243627" lon="15.0253174"><ele>224.0</ele><time>2026-04-04T16:06:26.983Z</time></trkpt><trkpt lat="36.924268" lon="15.0253473"><ele>225.2</ele><time>2026-04-04T16:06:27.983Z</time></trkpt><trkpt lat="36.9241724" lon="15.0253681"><ele>226.39999999999998</ele><time>2026-04-04T16:06:28.983Z</time></trkpt><trkpt lat="36.9240758" lon="15.0253709"><ele>227.6</ele><time>2026-04-04T16:06:29.983Z</time></trkpt><trkpt lat="36.9239776" lon="15.0253605"><ele>228.8</ele><time>2026-04-04T16:06:30.983Z</time></trkpt><trkpt lat="36.9238787" lon="15.025343"><ele>230.0</ele><time>2026-04-04T16:06:31.983Z</time></trkpt><trkpt lat="36.9237978" lon="15.0253236"><ele>230.0</ele><time>2026-04-04T16:06:32.983Z</time></trkpt><trkpt lat="36.9237106" lon="15.0253261"><ele>230.0</ele><time>2026-04-04T16:06:33.983Z</time></trkpt><trkpt lat="36.9236229" lon="15.0253596"><ele>230.0</ele><time>2026-04-04T16:06:34.983Z</time></trkpt><trkpt lat="36.9235268" lon="15.0254224"><ele>230.0</ele><time>2026-04-04T16:06:35.983Z</time></trkpt><trkpt lat="36.9234312" lon="15.0255178"><ele>230.0</ele><time>2026-04-04T16:06:36.983Z</time></trkpt><trkpt lat="36.9233371" lon="15.0256074"><ele>229.0</ele><time>2026-04-04T16:06:37.983Z</time></trkpt><trkpt lat="36.9232461" lon="15.0256721"><ele>228.0</ele><time>2026-04-04T16:06:38.983Z</time></trkpt><trkpt lat="36.9231363" lon="15.0257256"><ele>227.0</ele><time>2026-04-04T16:06:39.983Z</time></trkpt><trkpt lat="36.9230185" lon="15.0257784"><ele>226.0</ele><time>2026-04-04T16:06:40.983Z</time></trkpt><trkpt lat="36.922908" lon="15.0258226"><ele>226.0</ele><time>2026-04-04T16:06:41.983Z</time></trkpt><trkpt lat="36.9227991" lon="15.0258684"><ele>226.0</ele><time>2026-04-04T16:06:42.983Z</time></trkpt><trkpt lat="36.9227087" lon="15.0259403"><ele>226.0</ele><time>2026-04-04T16:06:43.983Z</time></trkpt><trkpt lat="36.922615" lon="15.0260326"><ele>226.0</ele><time>2026-04-04T16:06:44.983Z</time></trkpt><trkpt lat="36.9225236" lon="15.0261409"><ele>229.25</ele><time>2026-04-04T16:06:45.983Z</time></trkpt><trkpt lat="36.9224232" lon="15.0262718"><ele>232.5</ele><time>2026-04-04T16:06:46.983Z</time></trkpt><trkpt lat="36.922328" lon="15.0264061"><ele>235.75</ele><time>2026-04-04T16:06:47.983Z</time></trkpt><trkpt lat="36.9222321" lon="15.0265296"><ele>239.0</ele><time>2026-04-04T16:06:48.983Z</time></trkpt><trkpt lat="36.9221348" lon="15.026642"><ele>239.0</ele><time>2026-04-04T16:06:49.983Z</time></trkpt><trkpt lat="36.9220421" lon="15.0267534"><ele>239.0</ele><time>2026-04-04T16:06:50.983Z</time></trkpt><trkpt lat="36.9219583" lon="15.0268704"><ele>239.0</ele><time>2026-04-04T16:06:51.983Z</time></trkpt><trkpt lat="36.9218803" lon="15.0269832"><ele>239.0</ele><time>2026-04-04T16:06:52.983Z</time></trkpt><trkpt lat="36.9217974" lon="15.0270921"><ele>237.75</ele><time>2026-04-04T16:06:53.983Z</time></trkpt><trkpt lat="36.9216936" lon="15.0271902"><ele>236.5</ele><time>2026-04-04T16:06:54.983Z</time></trkpt><trkpt lat="36.9215793" lon="15.0272785"><ele>235.25</ele><time>2026-04-04T16:06:55.983Z</time></trkpt><trkpt lat="36.9214699" lon="15.027366"><ele>234.0</ele><time>2026-04-04T16:06:56.983Z</time></trkpt><trkpt lat="36.921359" lon="15.0274474"><ele>232.25</ele><time>2026-04-04T16:06:57.983Z</time></trkpt><trkpt lat="36.9212484" lon="15.0275313"><ele>230.5</ele><time>2026-04-04T16:06:58.982Z</time></trkpt><trkpt lat="36.9211281" lon="15.0276057"><ele>228.75</ele><time>2026-04-04T16:06:59.982Z</time></trkpt><trkpt lat="36.9210127" lon="15.027675"><ele>227.0</ele><time>2026-04-04T16:07:00.983Z</time></trkpt><trkpt lat="36.9208925" lon="15.0277379"><ele>226.25</ele><time>2026-04-04T16:07:01.983Z</time></trkpt><trkpt lat="36.9207756" lon="15.0277985"><ele>225.5</ele><time>2026-04-04T16:07:02.982Z</time></trkpt><trkpt lat="36.9206652" lon="15.0278584"><ele>224.75</ele><time>2026-04-04T16:07:03.983Z</time></trkpt><trkpt lat="36.9205599" lon="15.0279134"><ele>224.0</ele><time>2026-04-04T16:07:04.983Z</time></trkpt><trkpt lat="36.9204512" lon="15.0279564"><ele>224.0</ele><time>2026-04-04T16:07:05.983Z</time></trkpt><trkpt lat="36.9203357" lon="15.027976"><ele>224.0</ele><time>2026-04-04T16:07:06.983Z</time></trkpt><trkpt lat="36.9202117" lon="15.0279797"><ele>224.0</ele><time>2026-04-04T16:07:07.983Z</time></trkpt><trkpt lat="36.9200844" lon="15.0279603"><ele>224.0</ele><time>2026-04-04T16:07:08.983Z</time></trkpt><trkpt lat="36.9199642" lon="15.0279314"><ele>224.25</ele><time>2026-04-04T16:07:09.982Z</time></trkpt><trkpt lat="36.9198508" lon="15.0278975"><ele>224.5</ele><time>2026-04-04T16:07:10.983Z</time></trkpt><trkpt lat="36.9197377" lon="15.0278534"><ele>224.75</ele><time>2026-04-04T16:07:11.983Z</time></trkpt><trkpt lat="36.9196237" lon="15.0278076"><ele>225.0</ele><time>2026-04-04T16:07:12.983Z</time></trkpt><trkpt lat="36.9195076" lon="15.0277795"><ele>225.0</ele><time>2026-04-04T16:07:13.983Z</time></trkpt><trkpt lat="36.9193846" lon="15.0277806"><ele>225.0</ele><time>2026-04-04T16:07:14.983Z</time></trkpt><trkpt lat="36.9192509" lon="15.0278128"><ele>225.0</ele><time>2026-04-04T16:07:15.983Z</time></trkpt><trkpt lat="36.9191176" lon="15.0278559"><ele>225.0</ele><time>2026-04-04T16:07:16.983Z</time></trkpt><trkpt lat="36.9189787" lon="15.0279055"><ele>225.25</ele><time>2026-04-04T16:07:17.983Z</time></trkpt><trkpt lat="36.9188401" lon="15.0279613"><ele>225.5</ele><time>2026-04-04T16:07:18.983Z</time></trkpt><trkpt lat="36.918702" lon="15.0280077"><ele>225.75</ele><time>2026-04-04T16:07:19.982Z</time></trkpt><trkpt lat="36.9185641" lon="15.0280641"><ele>226.0</ele><time>2026-04-04T16:07:20.983Z</time></trkpt><trkpt lat="36.9184322" lon="15.0281211"><ele>225.0</ele><time>2026-04-04T16:07:21.983Z</time></trkpt><trkpt lat="36.9183025" lon="15.0281698"><ele>224.0</ele><time>2026-04-04T16:07:22.983Z</time></trkpt><trkpt lat="36.9181791" lon="15.0281973"><ele>223.0</ele><time>2026-04-04T16:07:23.983Z</time></trkpt><trkpt lat="36.9180669" lon="15.0282047"><ele>222.0</ele><time>2026-04-04T16:07:24.983Z</time></trkpt><trkpt lat="36.9179607" lon="15.0282174"><ele>222.0</ele><time>2026-04-04T16:07:25.983Z</time></trkpt><trkpt lat="36.9178619" lon="15.0282543"><ele>222.0</ele><time>2026-04-04T16:07:26.982Z</time></trkpt><trkpt lat="36.9177585" lon="15.028334"><ele>222.0</ele><time>2026-04-04T16:07:27.983Z</time></trkpt><trkpt lat="36.9176559" lon="15.0284344"><ele>222.0</ele><time>2026-04-04T16:07:28.983Z</time></trkpt><trkpt lat="36.9175545" lon="15.0285322"><ele>216.25</ele><time>2026-04-04T16:07:29.983Z</time></trkpt><trkpt lat="36.917455" lon="15.0286236"><ele>210.5</ele><time>2026-04-04T16:07:30.983Z</time></trkpt><trkpt lat="36.9173582" lon="15.0287187"><ele>204.75</ele><time>2026-04-04T16:07:31.983Z</time></trkpt><trkpt lat="36.9172402" lon="15.0288015"><ele>199.0</ele><time>2026-04-04T16:07:32.983Z</time></trkpt><trkpt lat="36.9171224" lon="15.0288696"><ele>199.0</ele><time>2026-04-04T16:07:33.983Z</time></trkpt><trkpt lat="36.9170124" lon="15.0289386"><ele>199.0</ele><time>2026-04-04T16:07:34.983Z</time></trkpt><trkpt lat="36.9169062" lon="15.0290109"><ele>199.0</ele><time>2026-04-04T16:07:35.983Z</time></trkpt><trkpt lat="36.9167997" lon="15.0290726"><ele>199.0</ele><time>2026-04-04T16:07:36.983Z</time></trkpt><trkpt lat="36.9166922" lon="15.0291309"><ele>196.2</ele><time>2026-04-04T16:07:37.983Z</time></trkpt><trkpt lat="36.9165901" lon="15.0291886"><ele>193.39999999999998</ele><time>2026-04-04T16:07:38.983Z</time></trkpt><trkpt lat="36.916491" lon="15.0292377"><ele>190.6</ele><time>2026-04-04T16:07:39.983Z</time></trkpt><trkpt lat="36.9164029" lon="15.029264"><ele>187.8</ele><time>2026-04-04T16:07:40.982Z</time></trkpt><trkpt lat="36.9163346" lon="15.0292867"><ele>185.0</ele><time>2026-04-04T16:07:41.983Z</time></trkpt><trkpt lat="36.9162099" lon="15.0293151"><ele>185.0</ele><time>2026-04-04T16:07:43.983Z</time></trkpt><trkpt lat="36.916109" lon="15.0293626"><ele>185.0</ele><time>2026-04-04T16:07:45.983Z</time></trkpt><trkpt lat="36.9160211" lon="15.0294314"><ele>185.0</ele><time>2026-04-04T16:07:47.983Z</time></trkpt><trkpt lat="36.915946" lon="15.0294984"><ele>185.0</ele><time>2026-04-04T16:07:49.983Z</time></trkpt><trkpt lat="36.9158757" lon="15.0295794"><ele>185.0</ele><time>2026-04-04T16:07:51.983Z</time></trkpt><trkpt lat="36.9157949" lon="15.0296511"><ele>185.0</ele><time>2026-04-04T16:07:53.983Z</time></trkpt><trkpt lat="36.9156861" lon="15.0297246"><ele>185.0</ele><time>2026-04-04T16:07:55.983Z</time></trkpt><trkpt lat="36.915631" lon="15.0297939"><ele>185.0</ele><time>2026-04-04T16:07:56.983Z</time></trkpt><trkpt lat="36.9155689" lon="15.0298655"><ele>185.0</ele><time>2026-04-04T16:07:57.982Z</time></trkpt><trkpt lat="36.915509" lon="15.0299386"><ele>185.0</ele><time>2026-04-04T16:07:58.983Z</time></trkpt><trkpt lat="36.9154512" lon="15.0300182"><ele>182.2</ele><time>2026-04-04T16:07:59.983Z</time></trkpt><trkpt lat="36.9153909" lon="15.0301116"><ele>179.4</ele><time>2026-04-04T16:08:00.983Z</time></trkpt><trkpt lat="36.9153265" lon="15.0302097"><ele>176.60000000000002</ele><time>2026-04-04T16:08:01.982Z</time></trkpt><trkpt lat="36.9152652" lon="15.0303175"><ele>173.8</ele><time>2026-04-04T16:08:02.983Z</time></trkpt><trkpt lat="36.9152046" lon="15.0304151"><ele>171.0</ele><time>2026-04-04T16:08:03.983Z</time></trkpt><trkpt lat="36.9151415" lon="15.0305157"><ele>171.0</ele><time>2026-04-04T16:08:04.982Z</time></trkpt><trkpt lat="36.9150852" lon="15.0306119"><ele>171.0</ele><time>2026-04-04T16:08:05.983Z</time></trkpt><trkpt lat="36.9150165" lon="15.0307099"><ele>171.0</ele><time>2026-04-04T16:08:06.983Z</time></trkpt><trkpt lat="36.914952" lon="15.0308053"><ele>171.0</ele><time>2026-04-04T16:08:07.982Z</time></trkpt><trkpt lat="36.9148732" lon="15.0308995"><ele>171.0</ele><time>2026-04-04T16:08:08.982Z</time></trkpt><trkpt lat="36.9147946" lon="15.0309769"><ele>169.66666666666666</ele><time>2026-04-04T16:08:09.983Z</time></trkpt><trkpt lat="36.9147123" lon="15.0310548"><ele>168.33333333333334</ele><time>2026-04-04T16:08:10.983Z</time></trkpt><trkpt lat="36.9146393" lon="15.0311208"><ele>167.0</ele><time>2026-04-04T16:08:11.983Z</time></trkpt><trkpt lat="36.9145736" lon="15.0311704"><ele>165.66666666666669</ele><time>2026-04-04T16:08:12.983Z</time></trkpt><trkpt lat="36.9145165" lon="15.0312197"><ele>164.33333333333334</ele><time>2026-04-04T16:08:13.983Z</time></trkpt><trkpt lat="36.914443" lon="15.0313131"><ele>163.0</ele><time>2026-04-04T16:08:15.983Z</time></trkpt><trkpt lat="36.914411" lon="15.0313979"><ele>163.0</ele><time>2026-04-04T16:08:17.982Z</time></trkpt><trkpt lat="36.9144035" lon="15.0314983"><ele>163.0</ele><time>2026-04-04T16:08:19.983Z</time></trkpt><trkpt lat="36.9144048" lon="15.0315996"><ele>163.0</ele><time>2026-04-04T16:08:21.983Z</time></trkpt><trkpt lat="36.9144327" lon="15.0317418"><ele>163.0</ele><time>2026-04-04T16:08:23.983Z</time></trkpt><trkpt lat="36.9144453" lon="15.0318348"><ele>163.0</ele><time>2026-04-04T16:08:24.983Z</time></trkpt><trkpt lat="36.9144532" lon="15.0319326"><ele>163.0</ele><time>2026-04-04T16:08:25.983Z</time></trkpt><trkpt lat="36.9144721" lon="15.0320746"><ele>163.0</ele><time>2026-04-04T16:08:26.983Z</time></trkpt><trkpt lat="36.9144882" lon="15.0321953"><ele>163.0</ele><time>2026-04-04T16:08:27.983Z</time></trkpt><trkpt lat="36.9144834" lon="15.0323101"><ele>163.0</ele><time>2026-04-04T16:08:28.983Z</time></trkpt><trkpt lat="36.914442" lon="15.0324122"><ele>163.0</ele><time>2026-04-04T16:08:29.983Z</time></trkpt><trkpt lat="36.9143638" lon="15.0325008"><ele>163.0</ele><time>2026-04-04T16:08:30.983Z</time></trkpt><trkpt lat="36.9142745" lon="15.0326026"><ele>162.5</ele><time>2026-04-04T16:08:31.983Z</time></trkpt><trkpt lat="36.9141817" lon="15.0327117"><ele>162.0</ele><time>2026-04-04T16:08:32.981Z</time></trkpt><trkpt lat="36.9140841" lon="15.0328221"><ele>161.5</ele><time>2026-04-04T16:08:33.983Z</time></trkpt><trkpt lat="36.913976" lon="15.0329342"><ele>161.0</ele><time>2026-04-04T16:08:34.983Z</time></trkpt><trkpt lat="36.9138665" lon="15.0330458"><ele>161.0</ele><time>2026-04-04T16:08:35.983Z</time></trkpt><trkpt lat="36.9137568" lon="15.0331544"><ele>161.0</ele><time>2026-04-04T16:08:36.983Z</time></trkpt><trkpt lat="36.9136623" lon="15.0332695"><ele>161.0</ele><time>2026-04-04T16:08:37.983Z</time></trkpt><trkpt lat="36.9135721" lon="15.0333903"><ele>161.0</ele><time>2026-04-04T16:08:38.982Z</time></trkpt><trkpt lat="36.9134839" lon="15.0335154"><ele>162.5</ele><time>2026-04-04T16:08:39.983Z</time></trkpt><trkpt lat="36.9133897" lon="15.033632"><ele>164.0</ele><time>2026-04-04T16:08:40.983Z</time></trkpt><trkpt lat="36.9132886" lon="15.0337422"><ele>165.5</ele><time>2026-04-04T16:08:41.983Z</time></trkpt><trkpt lat="36.9131936" lon="15.0338473"><ele>167.0</ele><time>2026-04-04T16:08:42.983Z</time></trkpt><trkpt lat="36.9131" lon="15.03395"><ele>167.0</ele><time>2026-04-04T16:08:43.983Z</time></trkpt><trkpt lat="36.9130051" lon="15.034053"><ele>167.0</ele><time>2026-04-04T16:08:44.983Z</time></trkpt><trkpt lat="36.9129074" lon="15.0341627"><ele>167.0</ele><time>2026-04-04T16:08:45.983Z</time></trkpt><trkpt lat="36.9128003" lon="15.034312"><ele>167.0</ele><time>2026-04-04T16:08:46.983Z</time></trkpt><trkpt lat="36.912698" lon="15.0344554"><ele>166.75</ele><time>2026-04-04T16:08:47.983Z</time></trkpt><trkpt lat="36.9126047" lon="15.0345972"><ele>166.5</ele><time>2026-04-04T16:08:48.983Z</time></trkpt><trkpt lat="36.9125218" lon="15.0347164"><ele>166.25</ele><time>2026-04-04T16:08:49.983Z</time></trkpt><trkpt lat="36.9124305" lon="15.0348251"><ele>166.0</ele><time>2026-04-04T16:08:50.983Z</time></trkpt><trkpt lat="36.9123287" lon="15.0349268"><ele>169.75</ele><time>2026-04-04T16:08:51.983Z</time></trkpt><trkpt lat="36.9122317" lon="15.0350219"><ele>173.5</ele><time>2026-04-04T16:08:52.983Z</time></trkpt><trkpt lat="36.9121241" lon="15.0351212"><ele>177.25</ele><time>2026-04-04T16:08:53.983Z</time></trkpt><trkpt lat="36.9120134" lon="15.0352307"><ele>181.0</ele><time>2026-04-04T16:08:54.983Z</time></trkpt><trkpt lat="36.9119002" lon="15.0353402"><ele>181.0</ele><time>2026-04-04T16:08:55.982Z</time></trkpt><trkpt lat="36.9117852" lon="15.0354628"><ele>181.0</ele><time>2026-04-04T16:08:56.983Z</time></trkpt><trkpt lat="36.911667" lon="15.0355912"><ele>181.0</ele><time>2026-04-04T16:08:57.983Z</time></trkpt><trkpt lat="36.9115424" lon="15.0357353"><ele>180.0</ele><time>2026-04-04T16:08:58.982Z</time></trkpt><trkpt lat="36.911416" lon="15.0358721"><ele>179.0</ele><time>2026-04-04T16:08:59.983Z</time></trkpt><trkpt lat="36.9112867" lon="15.0360135"><ele>178.0</ele><time>2026-04-04T16:09:00.982Z</time></trkpt><trkpt lat="36.9111588" lon="15.0361479"><ele>178.0</ele><time>2026-04-04T16:09:01.983Z</time></trkpt><trkpt lat="36.9110416" lon="15.0362756"><ele>178.0</ele><time>2026-04-04T16:09:02.982Z</time></trkpt><trkpt lat="36.9109315" lon="15.0363937"><ele>178.0</ele><time>2026-04-04T16:09:03.983Z</time></trkpt><trkpt lat="36.9108223" lon="15.0365205"><ele>178.0</ele><time>2026-04-04T16:09:04.983Z</time></trkpt><trkpt lat="36.910723" lon="15.0366571"><ele>176.0</ele><time>2026-04-04T16:09:05.983Z</time></trkpt><trkpt lat="36.9106369" lon="15.0368095"><ele>174.0</ele><time>2026-04-04T16:09:06.983Z</time></trkpt><trkpt lat="36.9105711" lon="15.0369789"><ele>172.0</ele><time>2026-04-04T16:09:07.983Z</time></trkpt><trkpt lat="36.9105136" lon="15.0371644"><ele>172.0</ele><time>2026-04-04T16:09:08.983Z</time></trkpt><trkpt lat="36.9104573" lon="15.037359"><ele>172.0</ele><time>2026-04-04T16:09:09.983Z</time></trkpt><trkpt lat="36.9104046" lon="15.0375419"><ele>172.0</ele><time>2026-04-04T16:09:10.983Z</time></trkpt><trkpt lat="36.910355" lon="15.0377276"><ele>173.0</ele><time>2026-04-04T16:09:11.983Z</time></trkpt><trkpt lat="36.9103015" lon="15.0379104"><ele>174.0</ele><time>2026-04-04T16:09:12.983Z</time></trkpt><trkpt lat="36.9102429" lon="15.0380908"><ele>175.0</ele><time>2026-04-04T16:09:13.983Z</time></trkpt><trkpt lat="36.910185" lon="15.0382752"><ele>172.0</ele><time>2026-04-04T16:09:14.983Z</time></trkpt><trkpt lat="36.9101265" lon="15.0384689"><ele>169.0</ele><time>2026-04-04T16:09:15.983Z</time></trkpt><trkpt lat="36.910072" lon="15.0386478"><ele>166.0</ele><time>2026-04-04T16:09:16.983Z</time></trkpt><trkpt lat="36.9100284" lon="15.0388064"><ele>162.0</ele><time>2026-04-04T16:09:17.983Z</time></trkpt><trkpt lat="36.9099728" lon="15.0389899"><ele>158.0</ele><time>2026-04-04T16:09:18.982Z</time></trkpt><trkpt lat="36.909913" lon="15.0391935"><ele>154.0</ele><time>2026-04-04T16:09:19.982Z</time></trkpt><trkpt lat="36.9098496" lon="15.0394078"><ele>153.0</ele><time>2026-04-04T16:09:20.983Z</time></trkpt><trkpt lat="36.9097867" lon="15.0396142"><ele>152.0</ele><time>2026-04-04T16:09:21.983Z</time></trkpt><trkpt lat="36.9097197" lon="15.0398365"><ele>151.0</ele><time>2026-04-04T16:09:22.983Z</time></trkpt><trkpt lat="36.9096516" lon="15.0400684"><ele>151.0</ele><time>2026-04-04T16:09:23.983Z</time></trkpt><trkpt lat="36.909588" lon="15.0402943"><ele>151.0</ele><time>2026-04-04T16:09:24.983Z</time></trkpt><trkpt lat="36.9095267" lon="15.0405189"><ele>151.0</ele><time>2026-04-04T16:09:25.982Z</time></trkpt><trkpt lat="36.9094601" lon="15.0407549"><ele>153.0</ele><time>2026-04-04T16:09:26.982Z</time></trkpt><trkpt lat="36.9093884" lon="15.0409825"><ele>155.0</ele><time>2026-04-04T16:09:27.981Z</time></trkpt><trkpt lat="36.9093193" lon="15.0412117"><ele>157.0</ele><time>2026-04-04T16:09:28.983Z</time></trkpt><trkpt lat="36.9092526" lon="15.041441"><ele>157.33333333333334</ele><time>2026-04-04T16:09:29.983Z</time></trkpt><trkpt lat="36.9091855" lon="15.0416617"><ele>157.66666666666666</ele><time>2026-04-04T16:09:30.982Z</time></trkpt><trkpt lat="36.9091251" lon="15.0418683"><ele>158.0</ele><time>2026-04-04T16:09:31.983Z</time></trkpt><trkpt lat="36.9090672" lon="15.0420587"><ele>158.0</ele><time>2026-04-04T16:09:32.983Z</time></trkpt><trkpt lat="36.9090077" lon="15.0422369"><ele>158.0</ele><time>2026-04-04T16:09:33.982Z</time></trkpt><trkpt lat="36.9089405" lon="15.0424258"><ele>158.0</ele><time>2026-04-04T16:09:34.983Z</time></trkpt><trkpt lat="36.9088744" lon="15.0426161"><ele>160.66666666666666</ele><time>2026-04-04T16:09:35.983Z</time></trkpt><trkpt lat="36.9088054" lon="15.0428162"><ele>163.33333333333334</ele><time>2026-04-04T16:09:36.983Z</time></trkpt><trkpt lat="36.9087319" lon="15.0430251"><ele>166.0</ele><time>2026-04-04T16:09:37.982Z</time></trkpt><trkpt lat="36.9086547" lon="15.0432385"><ele>167.0</ele><time>2026-04-04T16:09:38.983Z</time></trkpt><trkpt lat="36.9085781" lon="15.0434436"><ele>168.0</ele><time>2026-04-04T16:09:39.983Z</time></trkpt><trkpt lat="36.9085029" lon="15.0436463"><ele>169.0</ele><time>2026-04-04T16:09:40.983Z</time></trkpt><trkpt lat="36.9084286" lon="15.0438592"><ele>164.0</ele><time>2026-04-04T16:09:41.982Z</time></trkpt><trkpt lat="36.9083547" lon="15.0440751"><ele>159.0</ele><time>2026-04-04T16:09:42.983Z</time></trkpt><trkpt lat="36.9082751" lon="15.0442994"><ele>154.0</ele><time>2026-04-04T16:09:43.982Z</time></trkpt><trkpt lat="36.9081944" lon="15.0445213"><ele>154.0</ele><time>2026-04-04T16:09:44.983Z</time></trkpt><trkpt lat="36.9081164" lon="15.0447386"><ele>154.0</ele><time>2026-04-04T16:09:45.982Z</time></trkpt><trkpt lat="36.9080404" lon="15.0449494"><ele>154.0</ele><time>2026-04-04T16:09:46.982Z</time></trkpt><trkpt lat="36.9079676" lon="15.0451453"><ele>154.33333333333334</ele><time>2026-04-04T16:09:47.983Z</time></trkpt><trkpt lat="36.907896" lon="15.0453328"><ele>154.66666666666666</ele><time>2026-04-04T16:09:48.983Z</time></trkpt><trkpt lat="36.9078302" lon="15.0455094"><ele>155.0</ele><time>2026-04-04T16:09:49.983Z</time></trkpt><trkpt lat="36.9077653" lon="15.0456824"><ele>155.0</ele><time>2026-04-04T16:09:50.983Z</time></trkpt><trkpt lat="36.9077109" lon="15.0458456"><ele>155.0</ele><time>2026-04-04T16:09:51.982Z</time></trkpt><trkpt lat="36.9076716" lon="15.046015"><ele>155.0</ele><time>2026-04-04T16:09:52.983Z</time></trkpt><trkpt lat="36.907657" lon="15.0461972"><ele>155.0</ele><time>2026-04-04T16:09:53.983Z</time></trkpt><trkpt lat="36.9076554" lon="15.0464112"><ele>155.0</ele><time>2026-04-04T16:09:54.983Z</time></trkpt><trkpt lat="36.9076703" lon="15.0466246"><ele>155.0</ele><time>2026-04-04T16:09:55.982Z</time></trkpt><trkpt lat="36.9076761" lon="15.046835"><ele>155.0</ele><time>2026-04-04T16:09:56.982Z</time></trkpt><trkpt lat="36.9076639" lon="15.0470481"><ele>154.66666666666666</ele><time>2026-04-04T16:09:57.983Z</time></trkpt><trkpt lat="36.9076388" lon="15.0472608"><ele>154.33333333333334</ele><time>2026-04-04T16:09:58.983Z</time></trkpt><trkpt lat="36.9076067" lon="15.0474812"><ele>154.0</ele><time>2026-04-04T16:09:59.983Z</time></trkpt><trkpt lat="36.90757" lon="15.0477054"><ele>151.0</ele><time>2026-04-04T16:10:00.983Z</time></trkpt><trkpt lat="36.9075241" lon="15.0479257"><ele>148.0</ele><time>2026-04-04T16:10:01.983Z</time></trkpt><trkpt lat="36.9074806" lon="15.0481423"><ele>145.0</ele><time>2026-04-04T16:10:02.983Z</time></trkpt><trkpt lat="36.9074385" lon="15.0483602"><ele>145.0</ele><time>2026-04-04T16:10:03.983Z</time></trkpt><trkpt lat="36.9073974" lon="15.0485704"><ele>145.0</ele><time>2026-04-04T16:10:04.982Z</time></trkpt><trkpt lat="36.9073595" lon="15.0487829"><ele>145.0</ele><time>2026-04-04T16:10:05.983Z</time></trkpt><trkpt lat="36.9073155" lon="15.0489861"><ele>145.33333333333334</ele><time>2026-04-04T16:10:06.983Z</time></trkpt><trkpt lat="36.9072737" lon="15.0491862"><ele>145.66666666666666</ele><time>2026-04-04T16:10:07.983Z</time></trkpt><trkpt lat="36.907234" lon="15.0493853"><ele>146.0</ele><time>2026-04-04T16:10:08.983Z</time></trkpt><trkpt lat="36.9071962" lon="15.0495783"><ele>146.0</ele><time>2026-04-04T16:10:09.983Z</time></trkpt><trkpt lat="36.9071619" lon="15.0497517"><ele>146.0</ele><time>2026-04-04T16:10:10.982Z</time></trkpt><trkpt lat="36.907133" lon="15.049919"><ele>146.0</ele><time>2026-04-04T16:10:11.983Z</time></trkpt><trkpt lat="36.9071026" lon="15.0500864"><ele>146.0</ele><time>2026-04-04T16:10:12.983Z</time></trkpt><trkpt lat="36.907071" lon="15.0502532"><ele>146.25</ele><time>2026-04-04T16:10:13.983Z</time></trkpt><trkpt lat="36.9070462" lon="15.0504143"><ele>146.5</ele><time>2026-04-04T16:10:14.982Z</time></trkpt><trkpt lat="36.9070151" lon="15.0505779"><ele>146.75</ele><time>2026-04-04T16:10:15.983Z</time></trkpt><trkpt lat="36.906985" lon="15.0507367"><ele>147.0</ele><time>2026-04-04T16:10:16.983Z</time></trkpt><trkpt lat="36.906955" lon="15.0508892"><ele>145.75</ele><time>2026-04-04T16:10:17.983Z</time></trkpt><trkpt lat="36.9069214" lon="15.0510379"><ele>144.5</ele><time>2026-04-04T16:10:18.983Z</time></trkpt><trkpt lat="36.9068612" lon="15.0511809"><ele>143.25</ele><time>2026-04-04T16:10:19.983Z</time></trkpt><trkpt lat="36.9067645" lon="15.0513244"><ele>142.0</ele><time>2026-04-04T16:10:20.982Z</time></trkpt><trkpt lat="36.9066504" lon="15.0514768"><ele>136.0</ele><time>2026-04-04T16:10:21.982Z</time></trkpt><trkpt lat="36.9065299" lon="15.0516477"><ele>130.0</ele><time>2026-04-04T16:10:22.983Z</time></trkpt><trkpt lat="36.9064007" lon="15.0518184"><ele>124.0</ele><time>2026-04-04T16:10:23.983Z</time></trkpt><trkpt lat="36.9062771" lon="15.0519879"><ele>124.0</ele><time>2026-04-04T16:10:24.983Z</time></trkpt><trkpt lat="36.9061463" lon="15.0521607"><ele>124.0</ele><time>2026-04-04T16:10:25.983Z</time></trkpt><trkpt lat="36.9060183" lon="15.0523273"><ele>124.0</ele><time>2026-04-04T16:10:26.982Z</time></trkpt><trkpt lat="36.9058891" lon="15.0524963"><ele>121.0</ele><time>2026-04-04T16:10:27.983Z</time></trkpt><trkpt lat="36.9057643" lon="15.0526586"><ele>118.0</ele><time>2026-04-04T16:10:28.983Z</time></trkpt><trkpt lat="36.9056464" lon="15.0528158"><ele>115.0</ele><time>2026-04-04T16:10:29.983Z</time></trkpt><trkpt lat="36.9055299" lon="15.0529673"><ele>115.0</ele><time>2026-04-04T16:10:30.983Z</time></trkpt><trkpt lat="36.9054183" lon="15.0531103"><ele>115.0</ele><time>2026-04-04T16:10:31.983Z</time></trkpt><trkpt lat="36.9053216" lon="15.0532422"><ele>115.0</ele><time>2026-04-04T16:10:32.982Z</time></trkpt><trkpt lat="36.9052323" lon="15.0533641"><ele>115.0</ele><time>2026-04-04T16:10:33.983Z</time></trkpt><trkpt lat="36.9051347" lon="15.0534896"><ele>114.25</ele><time>2026-04-04T16:10:34.983Z</time></trkpt><trkpt lat="36.9050386" lon="15.053617"><ele>113.5</ele><time>2026-04-04T16:10:35.982Z</time></trkpt><trkpt lat="36.9049488" lon="15.0537405"><ele>112.75</ele><time>2026-04-04T16:10:36.983Z</time></trkpt><trkpt lat="36.9048515" lon="15.0538685"><ele>112.0</ele><time>2026-04-04T16:10:37.982Z</time></trkpt><trkpt lat="36.9047481" lon="15.0539999"><ele>113.0</ele><time>2026-04-04T16:10:38.983Z</time></trkpt><trkpt lat="36.9046475" lon="15.0541273"><ele>114.0</ele><time>2026-04-04T16:10:39.983Z</time></trkpt><trkpt lat="36.904547" lon="15.0542588"><ele>115.0</ele><time>2026-04-04T16:10:40.982Z</time></trkpt><trkpt lat="36.9044515" lon="15.0543829"><ele>116.0</ele><time>2026-04-04T16:10:41.982Z</time></trkpt><trkpt lat="36.9043659" lon="15.0545098"><ele>116.0</ele><time>2026-04-04T16:10:42.983Z</time></trkpt><trkpt lat="36.9042939" lon="15.0546432"><ele>116.0</ele><time>2026-04-04T16:10:43.983Z</time></trkpt><trkpt lat="36.9042222" lon="15.0548074"><ele>116.0</ele><time>2026-04-04T16:10:44.983Z</time></trkpt><trkpt lat="36.9041649" lon="15.0549863"><ele>116.0</ele><time>2026-04-04T16:10:45.982Z</time></trkpt><trkpt lat="36.9041033" lon="15.0551894"><ele>115.0</ele><time>2026-04-04T16:10:46.981Z</time></trkpt><trkpt lat="36.9040449" lon="15.0554019"><ele>114.0</ele><time>2026-04-04T16:10:47.983Z</time></trkpt><trkpt lat="36.9039782" lon="15.055625"><ele>113.0</ele><time>2026-04-04T16:10:48.983Z</time></trkpt><trkpt lat="36.9039129" lon="15.0558517"><ele>113.0</ele><time>2026-04-04T16:10:49.983Z</time></trkpt><trkpt lat="36.9038469" lon="15.0560809"><ele>113.0</ele><time>2026-04-04T16:10:50.983Z</time></trkpt><trkpt lat="36.9037736" lon="15.0563212"><ele>113.0</ele><time>2026-04-04T16:10:51.983Z</time></trkpt><trkpt lat="36.903686" lon="15.0565565"><ele>113.33333333333333</ele><time>2026-04-04T16:10:52.983Z</time></trkpt><trkpt lat="36.9035926" lon="15.0567945"><ele>113.66666666666666</ele><time>2026-04-04T16:10:53.982Z</time></trkpt><trkpt lat="36.9034956" lon="15.0570426"><ele>114.0</ele><time>2026-04-04T16:10:54.983Z</time></trkpt><trkpt lat="36.9033982" lon="15.0572887"><ele>115.33333333333334</ele><time>2026-04-04T16:10:55.982Z</time></trkpt><trkpt lat="36.9033036" lon="15.0575343"><ele>116.66666666666667</ele><time>2026-04-04T16:10:56.983Z</time></trkpt><trkpt lat="36.9032103" lon="15.0577797"><ele>118.0</ele><time>2026-04-04T16:10:57.982Z</time></trkpt><trkpt lat="36.9031248" lon="15.0579976"><ele>118.0</ele><time>2026-04-04T16:10:58.983Z</time></trkpt><trkpt lat="36.9030406" lon="15.0582051"><ele>118.0</ele><time>2026-04-04T16:10:59.983Z</time></trkpt><trkpt lat="36.9029498" lon="15.0583943"><ele>118.0</ele><time>2026-04-04T16:11:00.983Z</time></trkpt><trkpt lat="36.9028469" lon="15.0585686"><ele>118.0</ele><time>2026-04-04T16:11:01.982Z</time></trkpt><trkpt lat="36.9027185" lon="15.0587179"><ele>118.0</ele><time>2026-04-04T16:11:02.982Z</time></trkpt><trkpt lat="36.9025811" lon="15.05886"><ele>118.0</ele><time>2026-04-04T16:11:03.983Z</time></trkpt><trkpt lat="36.9024302" lon="15.0590208"><ele>122.66666666666667</ele><time>2026-04-04T16:11:04.983Z</time></trkpt><trkpt lat="36.9022754" lon="15.0591859"><ele>127.33333333333334</ele><time>2026-04-04T16:11:05.982Z</time></trkpt><trkpt lat="36.9021102" lon="15.0593539"><ele>132.0</ele><time>2026-04-04T16:11:06.983Z</time></trkpt><trkpt lat="36.9019302" lon="15.05952"><ele>126.5</ele><time>2026-04-04T16:11:07.982Z</time></trkpt><trkpt lat="36.9017458" lon="15.0596863"><ele>121.0</ele><time>2026-04-04T16:11:08.983Z</time></trkpt><trkpt lat="36.9015524" lon="15.059852"><ele>128.5</ele><time>2026-04-04T16:11:09.983Z</time></trkpt><trkpt lat="36.9013517" lon="15.0600167"><ele>136.0</ele><time>2026-04-04T16:11:10.983Z</time></trkpt><trkpt lat="36.9011613" lon="15.0601715"><ele>136.0</ele><time>2026-04-04T16:11:11.982Z</time></trkpt><trkpt lat="36.9009866" lon="15.0603132"><ele>136.0</ele><time>2026-04-04T16:11:12.983Z</time></trkpt><trkpt lat="36.9008181" lon="15.0604425"><ele>136.0</ele><time>2026-04-04T16:11:13.982Z</time></trkpt><trkpt lat="36.9006759" lon="15.0605561"><ele>134.0</ele><time>2026-04-04T16:11:14.983Z</time></trkpt><trkpt lat="36.9005386" lon="15.0606684"><ele>132.0</ele><time>2026-04-04T16:11:15.983Z</time></trkpt><trkpt lat="36.9004108" lon="15.06077"><ele>130.0</ele><time>2026-04-04T16:11:16.983Z</time></trkpt><trkpt lat="36.9002871" lon="15.0608682"><ele>132.0</ele><time>2026-04-04T16:11:17.982Z</time></trkpt><trkpt lat="36.9001745" lon="15.060957"><ele>134.0</ele><time>2026-04-04T16:11:18.983Z</time></trkpt><trkpt lat="36.9000633" lon="15.0610541"><ele>136.0</ele><time>2026-04-04T16:11:19.982Z</time></trkpt><trkpt lat="36.8999545" lon="15.0611521"><ele>138.0</ele><time>2026-04-04T16:11:20.983Z</time></trkpt><trkpt lat="36.8998478" lon="15.0612584"><ele>138.0</ele><time>2026-04-04T16:11:21.983Z</time></trkpt><trkpt lat="36.8997553" lon="15.0613669"><ele>138.0</ele><time>2026-04-04T16:11:22.983Z</time></trkpt><trkpt lat="36.8996611" lon="15.0614824"><ele>138.0</ele><time>2026-04-04T16:11:23.983Z</time></trkpt><trkpt lat="36.8995682" lon="15.0615884"><ele>138.0</ele><time>2026-04-04T16:11:24.982Z</time></trkpt><trkpt lat="36.8994675" lon="15.0616898"><ele>137.5</ele><time>2026-04-04T16:11:25.982Z</time></trkpt><trkpt lat="36.8993583" lon="15.0617668"><ele>137.0</ele><time>2026-04-04T16:11:26.982Z</time></trkpt><trkpt lat="36.8992394" lon="15.0618291"><ele>136.5</ele><time>2026-04-04T16:11:27.982Z</time></trkpt><trkpt lat="36.899115" lon="15.0618832"><ele>136.0</ele><time>2026-04-04T16:11:28.983Z</time></trkpt><trkpt lat="36.8989891" lon="15.0619309"><ele>135.25</ele><time>2026-04-04T16:11:29.982Z</time></trkpt><trkpt lat="36.8988586" lon="15.0619563"><ele>134.5</ele><time>2026-04-04T16:11:30.982Z</time></trkpt><trkpt lat="36.8987319" lon="15.0619586"><ele>133.75</ele><time>2026-04-04T16:11:31.983Z</time></trkpt><trkpt lat="36.8985997" lon="15.0619546"><ele>133.0</ele><time>2026-04-04T16:11:32.983Z</time></trkpt><trkpt lat="36.8984736" lon="15.0619359"><ele>132.0</ele><time>2026-04-04T16:11:33.983Z</time></trkpt><trkpt lat="36.898345" lon="15.0619262"><ele>131.0</ele><time>2026-04-04T16:11:34.983Z</time></trkpt><trkpt lat="36.8982192" lon="15.0619121"><ele>130.0</ele><time>2026-04-04T16:11:35.982Z</time></trkpt><trkpt lat="36.8980902" lon="15.0619001"><ele>129.0</ele><time>2026-04-04T16:11:36.983Z</time></trkpt><trkpt lat="36.8979573" lon="15.0618897"><ele>129.0</ele><time>2026-04-04T16:11:37.983Z</time></trkpt><trkpt lat="36.8978241" lon="15.0618798"><ele>129.0</ele><time>2026-04-04T16:11:38.983Z</time></trkpt><trkpt lat="36.8976918" lon="15.0618641"><ele>129.0</ele><time>2026-04-04T16:11:39.982Z</time></trkpt><trkpt lat="36.897548" lon="15.0618526"><ele>129.0</ele><time>2026-04-04T16:11:40.982Z</time></trkpt><trkpt lat="36.8973999" lon="15.061838"><ele>125.66666666666666</ele><time>2026-04-04T16:11:41.983Z</time></trkpt><trkpt lat="36.8972444" lon="15.0618233"><ele>122.33333333333333</ele><time>2026-04-04T16:11:42.983Z</time></trkpt><trkpt lat="36.8970802" lon="15.0618053"><ele>119.0</ele><time>2026-04-04T16:11:43.983Z</time></trkpt><trkpt lat="36.8969089" lon="15.0617852"><ele>115.33333333333333</ele><time>2026-04-04T16:11:44.982Z</time></trkpt><trkpt lat="36.8967308" lon="15.061768"><ele>111.66666666666666</ele><time>2026-04-04T16:11:45.982Z</time></trkpt><trkpt lat="36.8965486" lon="15.0617487"><ele>108.0</ele><time>2026-04-04T16:11:46.983Z</time></trkpt><trkpt lat="36.8963686" lon="15.0617315"><ele>108.0</ele><time>2026-04-04T16:11:47.982Z</time></trkpt><trkpt lat="36.8961992" lon="15.0617124"><ele>108.0</ele><time>2026-04-04T16:11:48.983Z</time></trkpt><trkpt lat="36.8960402" lon="15.061698"><ele>108.0</ele><time>2026-04-04T16:11:49.982Z</time></trkpt><trkpt lat="36.895883" lon="15.0617006"><ele>108.66666666666666</ele><time>2026-04-04T16:11:50.983Z</time></trkpt><trkpt lat="36.8957188" lon="15.0617396"><ele>109.33333333333333</ele><time>2026-04-04T16:11:51.982Z</time></trkpt><trkpt lat="36.8955652" lon="15.0617813"><ele>110.0</ele><time>2026-04-04T16:11:52.983Z</time></trkpt><trkpt lat="36.8954204" lon="15.0618142"><ele>110.0</ele><time>2026-04-04T16:11:53.983Z</time></trkpt><trkpt lat="36.8952835" lon="15.0618387"><ele>110.0</ele><time>2026-04-04T16:11:54.983Z</time></trkpt><trkpt lat="36.8951481" lon="15.0618579"><ele>110.0</ele><time>2026-04-04T16:11:55.983Z</time></trkpt><trkpt lat="36.895034" lon="15.0618704"><ele>110.0</ele><time>2026-04-04T16:11:56.983Z</time></trkpt><trkpt lat="36.894927" lon="15.0618813"><ele>109.99999999999999</ele><time>2026-04-04T16:11:57.982Z</time></trkpt><trkpt lat="36.894831" lon="15.0618889"><ele>110.0</ele><time>2026-04-04T16:11:58.983Z</time></trkpt><trkpt lat="36.8947595" lon="15.0618902"><ele>110.0</ele><time>2026-04-04T16:11:59.983Z</time></trkpt><trkpt lat="36.8946913" lon="15.0618909"><ele>110.0</ele><time>2026-04-04T16:12:00.982Z</time></trkpt><trkpt lat="36.8945876" lon="15.0618931"><ele>109.99999999999999</ele><time>2026-04-04T16:12:02.983Z</time></trkpt><trkpt lat="36.894509" lon="15.0618995"><ele>110.0</ele><time>2026-04-04T16:12:05.982Z</time></trkpt><trkpt lat="36.8944419" lon="15.0619266"><ele>110.0</ele><time>2026-04-04T16:12:46.981Z</time></trkpt><trkpt lat="36.894332" lon="15.0619271"><ele>110.0</ele><time>2026-04-04T16:12:48.983Z</time></trkpt><trkpt lat="36.8941951" lon="15.0619125"><ele>110.0</ele><time>2026-04-04T16:12:50.983Z</time></trkpt><trkpt lat="36.8941114" lon="15.0619084"><ele>110.0</ele><time>2026-04-04T16:12:51.983Z</time></trkpt><trkpt lat="36.8940254" lon="15.0619003"><ele>110.0</ele><time>2026-04-04T16:12:52.982Z</time></trkpt><trkpt lat="36.8939325" lon="15.0618932"><ele>110.2</ele><time>2026-04-04T16:12:53.983Z</time></trkpt><trkpt lat="36.8938335" lon="15.0618819"><ele>110.4</ele><time>2026-04-04T16:12:54.982Z</time></trkpt><trkpt lat="36.8937272" lon="15.0618642"><ele>110.6</ele><time>2026-04-04T16:12:55.983Z</time></trkpt><trkpt lat="36.8936268" lon="15.0618256"><ele>110.8</ele><time>2026-04-04T16:12:56.983Z</time></trkpt><trkpt lat="36.8935291" lon="15.0617834"><ele>111.0</ele><time>2026-04-04T16:12:57.982Z</time></trkpt><trkpt lat="36.8934344" lon="15.0617414"><ele>111.4</ele><time>2026-04-04T16:12:58.983Z</time></trkpt><trkpt lat="36.8933346" lon="15.0616933"><ele>111.8</ele><time>2026-04-04T16:12:59.982Z</time></trkpt><trkpt lat="36.8932334" lon="15.0616459"><ele>112.20000000000002</ele><time>2026-04-04T16:13:00.982Z</time></trkpt><trkpt lat="36.8931375" lon="15.0616031"><ele>112.60000000000001</ele><time>2026-04-04T16:13:01.983Z</time></trkpt><trkpt lat="36.893039" lon="15.061559"><ele>113.0</ele><time>2026-04-04T16:13:02.982Z</time></trkpt><trkpt lat="36.8929328" lon="15.0615167"><ele>110.4</ele><time>2026-04-04T16:13:03.982Z</time></trkpt><trkpt lat="36.8928224" lon="15.0614848"><ele>107.80000000000001</ele><time>2026-04-04T16:13:04.983Z</time></trkpt><trkpt lat="36.8927119" lon="15.0614691"><ele>105.2</ele><time>2026-04-04T16:13:05.982Z</time></trkpt><trkpt lat="36.8926038" lon="15.0614648"><ele>102.6</ele><time>2026-04-04T16:13:06.983Z</time></trkpt><trkpt lat="36.8924961" lon="15.061482"><ele>100.0</ele><time>2026-04-04T16:13:07.983Z</time></trkpt><trkpt lat="36.8923779" lon="15.0615117"><ele>99.2</ele><time>2026-04-04T16:13:08.982Z</time></trkpt><trkpt lat="36.8922772" lon="15.06155"><ele>98.4</ele><time>2026-04-04T16:13:09.982Z</time></trkpt><trkpt lat="36.8921779" lon="15.0615949"><ele>97.6</ele><time>2026-04-04T16:13:10.982Z</time></trkpt><trkpt lat="36.8920787" lon="15.0616565"><ele>96.8</ele><time>2026-04-04T16:13:11.983Z</time></trkpt><trkpt lat="36.8919715" lon="15.0617281"><ele>96.0</ele><time>2026-04-04T16:13:12.983Z</time></trkpt><trkpt lat="36.8918632" lon="15.0618062"><ele>96.0</ele><time>2026-04-04T16:13:13.983Z</time></trkpt><trkpt lat="36.891752" lon="15.0618769"><ele>96.0</ele><time>2026-04-04T16:13:14.983Z</time></trkpt><trkpt lat="36.8916504" lon="15.0619445"><ele>96.0</ele><time>2026-04-04T16:13:15.983Z</time></trkpt><trkpt lat="36.891553" lon="15.0620104"><ele>96.0</ele><time>2026-04-04T16:13:16.982Z</time></trkpt><trkpt lat="36.8914529" lon="15.062073"><ele>96.0</ele><time>2026-04-04T16:13:17.983Z</time></trkpt><trkpt lat="36.891348" lon="15.0621402"><ele>96.0</ele><time>2026-04-04T16:13:18.982Z</time></trkpt><trkpt lat="36.891254" lon="15.0622045"><ele>96.0</ele><time>2026-04-04T16:13:19.983Z</time></trkpt><trkpt lat="36.8911658" lon="15.0622669"><ele>96.0</ele><time>2026-04-04T16:13:20.983Z</time></trkpt><trkpt lat="36.891083" lon="15.0623252"><ele>96.0</ele><time>2026-04-04T16:13:21.982Z</time></trkpt><trkpt lat="36.8910022" lon="15.0623807"><ele>96.0</ele><time>2026-04-04T16:13:22.982Z</time></trkpt><trkpt lat="36.8909331" lon="15.0624321"><ele>96.0</ele><time>2026-04-04T16:13:23.983Z</time></trkpt><trkpt lat="36.890871" lon="15.0624773"><ele>96.0</ele><time>2026-04-04T16:13:24.982Z</time></trkpt><trkpt lat="36.8908138" lon="15.0625148"><ele>96.0</ele><time>2026-04-04T16:13:25.982Z</time></trkpt><trkpt lat="36.8907066" lon="15.062584"><ele>96.0</ele><time>2026-04-04T16:13:27.983Z</time></trkpt><trkpt lat="36.8905907" lon="15.0626404"><ele>95.4</ele><time>2026-04-04T16:13:29.983Z</time></trkpt><trkpt lat="36.8904864" lon="15.0626126"><ele>94.8</ele><time>2026-04-04T16:13:31.983Z</time></trkpt><trkpt lat="36.8904101" lon="15.06253"><ele>94.2</ele><time>2026-04-04T16:13:32.983Z</time></trkpt><trkpt lat="36.89033" lon="15.062449"><ele>93.60000000000001</ele><time>2026-04-04T16:13:33.983Z</time></trkpt><trkpt lat="36.89025" lon="15.06238"><ele>93.0</ele><time>2026-04-04T16:13:34.983Z</time></trkpt><trkpt lat="36.8901372" lon="15.0623262"><ele>91.25</ele><time>2026-04-04T16:13:35.982Z</time></trkpt><trkpt lat="36.89003" lon="15.0622941"><ele>89.5</ele><time>2026-04-04T16:13:36.982Z</time></trkpt><trkpt lat="36.8899131" lon="15.0622919"><ele>87.75</ele><time>2026-04-04T16:13:37.983Z</time></trkpt><trkpt lat="36.8898042" lon="15.0623145"><ele>86.0</ele><time>2026-04-04T16:13:38.983Z</time></trkpt><trkpt lat="36.8896928" lon="15.0623407"><ele>86.0</ele><time>2026-04-04T16:13:39.983Z</time></trkpt><trkpt lat="36.8895793" lon="15.062406"><ele>86.0</ele><time>2026-04-04T16:13:40.982Z</time></trkpt><trkpt lat="36.88947" lon="15.0624731"><ele>86.0</ele><time>2026-04-04T16:13:41.981Z</time></trkpt><trkpt lat="36.8893891" lon="15.0625646"><ele>86.0</ele><time>2026-04-04T16:13:42.983Z</time></trkpt><trkpt lat="36.8893052" lon="15.0626423"><ele>86.19999999999999</ele><time>2026-04-04T16:13:43.983Z</time></trkpt><trkpt lat="36.8892144" lon="15.0627035"><ele>86.39999999999999</ele><time>2026-04-04T16:13:44.982Z</time></trkpt><trkpt lat="36.8891122" lon="15.0627522"><ele>86.6</ele><time>2026-04-04T16:13:45.983Z</time></trkpt><trkpt lat="36.8889974" lon="15.0627765"><ele>86.8</ele><time>2026-04-04T16:13:46.982Z</time></trkpt><trkpt lat="36.8888842" lon="15.0627825"><ele>87.0</ele><time>2026-04-04T16:13:47.982Z</time></trkpt><trkpt lat="36.8887655" lon="15.0627383"><ele>87.0</ele><time>2026-04-04T16:13:48.983Z</time></trkpt><trkpt lat="36.8886439" lon="15.0626941"><ele>87.0</ele><time>2026-04-04T16:13:49.983Z</time></trkpt><trkpt lat="36.8885252" lon="15.0626421"><ele>87.0</ele><time>2026-04-04T16:13:50.982Z</time></trkpt><trkpt lat="36.8883944" lon="15.0625851"><ele>87.0</ele><time>2026-04-04T16:13:51.983Z</time></trkpt><trkpt lat="36.8882589" lon="15.062531"><ele>85.75</ele><time>2026-04-04T16:13:52.983Z</time></trkpt><trkpt lat="36.8881254" lon="15.0624756"><ele>84.5</ele><time>2026-04-04T16:13:53.982Z</time></trkpt><trkpt lat="36.8879917" lon="15.0624217"><ele>83.25</ele><time>2026-04-04T16:13:54.982Z</time></trkpt><trkpt lat="36.8878571" lon="15.0623536"><ele>82.0</ele><time>2026-04-04T16:13:55.983Z</time></trkpt><trkpt lat="36.887728" lon="15.0622702"><ele>81.75</ele><time>2026-04-04T16:13:56.982Z</time></trkpt><trkpt lat="36.8876034" lon="15.0621692"><ele>81.5</ele><time>2026-04-04T16:13:57.982Z</time></trkpt><trkpt lat="36.8874807" lon="15.0620579"><ele>81.25</ele><time>2026-04-04T16:13:58.982Z</time></trkpt><trkpt lat="36.8873648" lon="15.0619485"><ele>81.0</ele><time>2026-04-04T16:13:59.983Z</time></trkpt><trkpt lat="36.8872526" lon="15.0618489"><ele>80.0</ele><time>2026-04-04T16:14:00.983Z</time></trkpt><trkpt lat="36.8871459" lon="15.0617524"><ele>79.0</ele><time>2026-04-04T16:14:01.983Z</time></trkpt><trkpt lat="36.8870387" lon="15.0616673"><ele>78.0</ele><time>2026-04-04T16:14:02.983Z</time></trkpt><trkpt lat="36.8869284" lon="15.0616427"><ele>77.0</ele><time>2026-04-04T16:14:03.983Z</time></trkpt><trkpt lat="36.8868089" lon="15.0616579"><ele>79.5</ele><time>2026-04-04T16:14:04.982Z</time></trkpt><trkpt lat="36.8866821" lon="15.061719"><ele>82.0</ele><time>2026-04-04T16:14:05.983Z</time></trkpt><trkpt lat="36.8865471" lon="15.0617927"><ele>84.5</ele><time>2026-04-04T16:14:06.983Z</time></trkpt><trkpt lat="36.8864112" lon="15.0618659"><ele>87.0</ele><time>2026-04-04T16:14:07.983Z</time></trkpt><trkpt lat="36.8862494" lon="15.0619537"><ele>87.0</ele><time>2026-04-04T16:14:08.983Z</time></trkpt><trkpt lat="36.8860938" lon="15.0620348"><ele>87.0</ele><time>2026-04-04T16:14:09.983Z</time></trkpt><trkpt lat="36.8859366" lon="15.0621121"><ele>87.0</ele><time>2026-04-04T16:14:10.982Z</time></trkpt><trkpt lat="36.8857695" lon="15.0621987"><ele>88.33333333333333</ele><time>2026-04-04T16:14:11.983Z</time></trkpt><trkpt lat="36.8856026" lon="15.0622867"><ele>89.66666666666666</ele><time>2026-04-04T16:14:12.983Z</time></trkpt><trkpt lat="36.8854267" lon="15.0623699"><ele>91.0</ele><time>2026-04-04T16:14:13.982Z</time></trkpt><trkpt lat="36.8852464" lon="15.0624481"><ele>89.33333333333333</ele><time>2026-04-04T16:14:14.983Z</time></trkpt><trkpt lat="36.8850607" lon="15.0625252"><ele>87.66666666666667</ele><time>2026-04-04T16:14:15.983Z</time></trkpt><trkpt lat="36.8848734" lon="15.0625946"><ele>86.0</ele><time>2026-04-04T16:14:16.982Z</time></trkpt><trkpt lat="36.8846842" lon="15.0626683"><ele>86.0</ele><time>2026-04-04T16:14:17.982Z</time></trkpt><trkpt lat="36.8844974" lon="15.0627419"><ele>86.0</ele><time>2026-04-04T16:14:18.982Z</time></trkpt><trkpt lat="36.8843239" lon="15.0628053"><ele>86.0</ele><time>2026-04-04T16:14:19.983Z</time></trkpt><trkpt lat="36.8841527" lon="15.0628659"><ele>85.66666666666667</ele><time>2026-04-04T16:14:20.983Z</time></trkpt><trkpt lat="36.883994" lon="15.0629203"><ele>85.33333333333333</ele><time>2026-04-04T16:14:21.983Z</time></trkpt><trkpt lat="36.8838468" lon="15.0629659"><ele>85.0</ele><time>2026-04-04T16:14:22.981Z</time></trkpt><trkpt lat="36.8836961" lon="15.0630004"><ele>85.0</ele><time>2026-04-04T16:14:23.982Z</time></trkpt><trkpt lat="36.8835377" lon="15.0630211"><ele>85.0</ele><time>2026-04-04T16:14:24.983Z</time></trkpt><trkpt lat="36.883377" lon="15.0630359"><ele>85.0</ele><time>2026-04-04T16:14:25.982Z</time></trkpt><trkpt lat="36.8832222" lon="15.0630497"><ele>83.25</ele><time>2026-04-04T16:14:26.983Z</time></trkpt><trkpt lat="36.8830776" lon="15.0630596"><ele>81.5</ele><time>2026-04-04T16:14:27.982Z</time></trkpt><trkpt lat="36.8829425" lon="15.0630685"><ele>79.75</ele><time>2026-04-04T16:14:28.983Z</time></trkpt><trkpt lat="36.882828" lon="15.0630629"><ele>78.0</ele><time>2026-04-04T16:14:29.983Z</time></trkpt><trkpt lat="36.882727" lon="15.0630415"><ele>78.0</ele><time>2026-04-04T16:14:30.983Z</time></trkpt><trkpt lat="36.8826393" lon="15.0629938"><ele>78.0</ele><time>2026-04-04T16:14:31.982Z</time></trkpt><trkpt lat="36.8825357" lon="15.0629359"><ele>78.0</ele><time>2026-04-04T16:14:32.982Z</time></trkpt><trkpt lat="36.8824182" lon="15.0628591"><ele>78.0</ele><time>2026-04-04T16:14:33.983Z</time></trkpt><trkpt lat="36.8823075" lon="15.0627523"><ele>78.33333333333333</ele><time>2026-04-04T16:14:34.983Z</time></trkpt><trkpt lat="36.8821843" lon="15.0626273"><ele>78.66666666666666</ele><time>2026-04-04T16:14:35.983Z</time></trkpt><trkpt lat="36.8820618" lon="15.0624851"><ele>79.0</ele><time>2026-04-04T16:14:36.982Z</time></trkpt><trkpt lat="36.8819293" lon="15.0623372"><ele>79.66666666666666</ele><time>2026-04-04T16:14:37.982Z</time></trkpt><trkpt lat="36.8817902" lon="15.0621776"><ele>80.33333333333333</ele><time>2026-04-04T16:14:38.981Z</time></trkpt><trkpt lat="36.8816475" lon="15.0620066"><ele>81.0</ele><time>2026-04-04T16:14:39.983Z</time></trkpt><trkpt lat="36.8815015" lon="15.061827"><ele>82.0</ele><time>2026-04-04T16:14:40.983Z</time></trkpt><trkpt lat="36.8813463" lon="15.0616485"><ele>83.0</ele><time>2026-04-04T16:14:41.982Z</time></trkpt><trkpt lat="36.8812037" lon="15.0614805"><ele>84.0</ele><time>2026-04-04T16:14:42.982Z</time></trkpt><trkpt lat="36.881054" lon="15.0613093"><ele>85.0</ele><time>2026-04-04T16:14:43.983Z</time></trkpt><trkpt lat="36.8809008" lon="15.0611349"><ele>86.0</ele><time>2026-04-04T16:14:44.982Z</time></trkpt><trkpt lat="36.8807414" lon="15.0609564"><ele>87.0</ele><time>2026-04-04T16:14:45.982Z</time></trkpt><trkpt lat="36.8805787" lon="15.0607728"><ele>88.0</ele><time>2026-04-04T16:14:46.982Z</time></trkpt><trkpt lat="36.8804124" lon="15.0605845"><ele>89.0</ele><time>2026-04-04T16:14:47.983Z</time></trkpt><trkpt lat="36.8802518" lon="15.060396"><ele>90.0</ele><time>2026-04-04T16:14:48.983Z</time></trkpt><trkpt lat="36.8801006" lon="15.0602239"><ele>91.66666666666667</ele><time>2026-04-04T16:14:49.983Z</time></trkpt><trkpt lat="36.8799554" lon="15.0600506"><ele>93.33333333333334</ele><time>2026-04-04T16:14:50.981Z</time></trkpt><trkpt lat="36.8798154" lon="15.0598821"><ele>95.0</ele><time>2026-04-04T16:14:51.983Z</time></trkpt><trkpt lat="36.8796843" lon="15.0597089"><ele>95.33333333333334</ele><time>2026-04-04T16:14:52.983Z</time></trkpt><trkpt lat="36.8795676" lon="15.0595248"><ele>95.66666666666667</ele><time>2026-04-04T16:14:53.982Z</time></trkpt><trkpt lat="36.8794671" lon="15.0593259"><ele>96.0</ele><time>2026-04-04T16:14:54.982Z</time></trkpt><trkpt lat="36.8793693" lon="15.0591214"><ele>97.0</ele><time>2026-04-04T16:14:55.983Z</time></trkpt><trkpt lat="36.8792837" lon="15.0589071"><ele>98.0</ele><time>2026-04-04T16:14:56.982Z</time></trkpt><trkpt lat="36.8791921" lon="15.0586821"><ele>99.0</ele><time>2026-04-04T16:14:57.983Z</time></trkpt><trkpt lat="36.8790977" lon="15.0584447"><ele>101.0</ele><time>2026-04-04T16:14:58.983Z</time></trkpt><trkpt lat="36.8790016" lon="15.0581989"><ele>103.0</ele><time>2026-04-04T16:14:59.983Z</time></trkpt><trkpt lat="36.8789037" lon="15.0579545"><ele>105.0</ele><time>2026-04-04T16:15:00.982Z</time></trkpt><trkpt lat="36.8788088" lon="15.0577096"><ele>105.0</ele><time>2026-04-04T16:15:01.982Z</time></trkpt><trkpt lat="36.8787161" lon="15.0574698"><ele>105.0</ele><time>2026-04-04T16:15:02.982Z</time></trkpt><trkpt lat="36.878628" lon="15.0572393"><ele>105.0</ele><time>2026-04-04T16:15:03.983Z</time></trkpt><trkpt lat="36.8785423" lon="15.0570038"><ele>106.33333333333334</ele><time>2026-04-04T16:15:04.983Z</time></trkpt><trkpt lat="36.8784555" lon="15.056781"><ele>107.66666666666667</ele><time>2026-04-04T16:15:05.982Z</time></trkpt><trkpt lat="36.8783695" lon="15.0565648"><ele>109.0</ele><time>2026-04-04T16:15:06.982Z</time></trkpt><trkpt lat="36.8782823" lon="15.0563441"><ele>109.33333333333334</ele><time>2026-04-04T16:15:07.982Z</time></trkpt><trkpt lat="36.8781996" lon="15.0561304"><ele>109.66666666666666</ele><time>2026-04-04T16:15:08.982Z</time></trkpt><trkpt lat="36.8781228" lon="15.0559188"><ele>110.0</ele><time>2026-04-04T16:15:09.982Z</time></trkpt><trkpt lat="36.8780356" lon="15.0557047"><ele>111.0</ele><time>2026-04-04T16:15:10.983Z</time></trkpt><trkpt lat="36.8779509" lon="15.0554852"><ele>112.0</ele><time>2026-04-04T16:15:11.983Z</time></trkpt><trkpt lat="36.8778707" lon="15.0552785"><ele>113.0</ele><time>2026-04-04T16:15:12.982Z</time></trkpt><trkpt lat="36.8777919" lon="15.0550865"><ele>113.66666666666666</ele><time>2026-04-04T16:15:13.981Z</time></trkpt><trkpt lat="36.8777173" lon="15.0548935"><ele>114.33333333333334</ele><time>2026-04-04T16:15:14.983Z</time></trkpt><trkpt lat="36.8776369" lon="15.0546874"><ele>115.0</ele><time>2026-04-04T16:15:15.983Z</time></trkpt><trkpt lat="36.877549" lon="15.0544708"><ele>115.0</ele><time>2026-04-04T16:15:16.983Z</time></trkpt><trkpt lat="36.8774546" lon="15.0542408"><ele>115.0</ele><time>2026-04-04T16:15:17.983Z</time></trkpt><trkpt lat="36.8773522" lon="15.053996"><ele>115.0</ele><time>2026-04-04T16:15:18.983Z</time></trkpt><trkpt lat="36.8772418" lon="15.053729"><ele>116.0</ele><time>2026-04-04T16:15:19.982Z</time></trkpt><trkpt lat="36.8771423" lon="15.0534497"><ele>117.0</ele><time>2026-04-04T16:15:20.982Z</time></trkpt><trkpt lat="36.8770392" lon="15.0531596"><ele>119.5</ele><time>2026-04-04T16:15:21.983Z</time></trkpt><trkpt lat="36.8769406" lon="15.052893"><ele>122.0</ele><time>2026-04-04T16:15:22.982Z</time></trkpt><trkpt lat="36.8768465" lon="15.0526495"><ele>122.66666666666666</ele><time>2026-04-04T16:15:23.982Z</time></trkpt><trkpt lat="36.8767612" lon="15.05242"><ele>123.33333333333334</ele><time>2026-04-04T16:15:24.982Z</time></trkpt><trkpt lat="36.8766966" lon="15.0522027"><ele>124.0</ele><time>2026-04-04T16:15:25.983Z</time></trkpt><trkpt lat="36.8766498" lon="15.0519724"><ele>124.0</ele><time>2026-04-04T16:15:26.983Z</time></trkpt><trkpt lat="36.876625" lon="15.0517337"><ele>124.0</ele><time>2026-04-04T16:15:27.983Z</time></trkpt><trkpt lat="36.8766246" lon="15.0514807"><ele>124.0</ele><time>2026-04-04T16:15:28.983Z</time></trkpt><trkpt lat="36.8766452" lon="15.0512125"><ele>125.0</ele><time>2026-04-04T16:15:29.983Z</time></trkpt><trkpt lat="36.8766607" lon="15.0509369"><ele>126.0</ele><time>2026-04-04T16:15:30.982Z</time></trkpt><trkpt lat="36.8766851" lon="15.0506392"><ele>127.5</ele><time>2026-04-04T16:15:31.983Z</time></trkpt><trkpt lat="36.876715" lon="15.0503398"><ele>129.0</ele><time>2026-04-04T16:15:32.982Z</time></trkpt><trkpt lat="36.8767456" lon="15.0500601"><ele>130.0</ele><time>2026-04-04T16:15:33.982Z</time></trkpt><trkpt lat="36.8767797" lon="15.0497809"><ele>131.0</ele><time>2026-04-04T16:15:34.983Z</time></trkpt><trkpt lat="36.8768266" lon="15.0495012"><ele>131.0</ele><time>2026-04-04T16:15:35.982Z</time></trkpt><trkpt lat="36.8768878" lon="15.049223"><ele>131.0</ele><time>2026-04-04T16:15:36.983Z</time></trkpt><trkpt lat="36.8769564" lon="15.048952"><ele>133.0</ele><time>2026-04-04T16:15:37.983Z</time></trkpt><trkpt lat="36.8770337" lon="15.0486753"><ele>135.0</ele><time>2026-04-04T16:15:38.983Z</time></trkpt><trkpt lat="36.8771125" lon="15.0484009"><ele>136.5</ele><time>2026-04-04T16:15:39.983Z</time></trkpt><trkpt lat="36.8771893" lon="15.048132"><ele>138.0</ele><time>2026-04-04T16:15:40.982Z</time></trkpt><trkpt lat="36.8772597" lon="15.0478591"><ele>138.0</ele><time>2026-04-04T16:15:41.983Z</time></trkpt><trkpt lat="36.8773298" lon="15.0475975"><ele>138.0</ele><time>2026-04-04T16:15:42.983Z</time></trkpt><trkpt lat="36.8774011" lon="15.0473425"><ele>138.0</ele><time>2026-04-04T16:15:43.983Z</time></trkpt><trkpt lat="36.8774712" lon="15.0470861"><ele>138.33333333333334</ele><time>2026-04-04T16:15:44.982Z</time></trkpt><trkpt lat="36.8775412" lon="15.0468295"><ele>138.66666666666669</ele><time>2026-04-04T16:15:45.983Z</time></trkpt><trkpt lat="36.8776087" lon="15.0465745"><ele>139.0</ele><time>2026-04-04T16:15:46.983Z</time></trkpt><trkpt lat="36.8776783" lon="15.0463255"><ele>139.33333333333334</ele><time>2026-04-04T16:15:47.983Z</time></trkpt><trkpt lat="36.8777472" lon="15.0460845"><ele>139.66666666666666</ele><time>2026-04-04T16:15:48.983Z</time></trkpt><trkpt lat="36.8778125" lon="15.0458395"><ele>140.0</ele><time>2026-04-04T16:15:49.983Z</time></trkpt><trkpt lat="36.8778843" lon="15.045606"><ele>140.0</ele><time>2026-04-04T16:15:50.983Z</time></trkpt><trkpt lat="36.8779506" lon="15.0453893"><ele>140.0</ele><time>2026-04-04T16:15:51.983Z</time></trkpt><trkpt lat="36.8780077" lon="15.0451762"><ele>140.0</ele><time>2026-04-04T16:15:52.982Z</time></trkpt><trkpt lat="36.8780548" lon="15.0449599"><ele>140.33333333333331</ele><time>2026-04-04T16:15:53.983Z</time></trkpt><trkpt lat="36.8780884" lon="15.0447456"><ele>140.66666666666666</ele><time>2026-04-04T16:15:54.983Z</time></trkpt><trkpt lat="36.878091" lon="15.0445466"><ele>141.0</ele><time>2026-04-04T16:15:55.982Z</time></trkpt><trkpt lat="36.8780779" lon="15.0443641"><ele>141.0</ele><time>2026-04-04T16:15:56.983Z</time></trkpt><trkpt lat="36.8780484" lon="15.0441991"><ele>141.0</ele><time>2026-04-04T16:15:57.983Z</time></trkpt><trkpt lat="36.8780185" lon="15.0440315"><ele>141.0</ele><time>2026-04-04T16:15:58.983Z</time></trkpt><trkpt lat="36.8779943" lon="15.0438566"><ele>141.0</ele><time>2026-04-04T16:15:59.983Z</time></trkpt><trkpt lat="36.877958" lon="15.043672"><ele>141.25</ele><time>2026-04-04T16:16:00.983Z</time></trkpt><trkpt lat="36.8779285" lon="15.043486"><ele>141.5</ele><time>2026-04-04T16:16:01.983Z</time></trkpt><trkpt lat="36.8779" lon="15.0433161"><ele>141.75</ele><time>2026-04-04T16:16:02.982Z</time></trkpt><trkpt lat="36.8778735" lon="15.0431467"><ele>142.0</ele><time>2026-04-04T16:16:03.982Z</time></trkpt><trkpt lat="36.8778456" lon="15.0429846"><ele>142.25</ele><time>2026-04-04T16:16:04.982Z</time></trkpt><trkpt lat="36.8778176" lon="15.0428303"><ele>142.5</ele><time>2026-04-04T16:16:05.983Z</time></trkpt><trkpt lat="36.877794" lon="15.0426846"><ele>142.75</ele><time>2026-04-04T16:16:06.982Z</time></trkpt><trkpt lat="36.8777699" lon="15.0425337"><ele>143.0</ele><time>2026-04-04T16:16:07.983Z</time></trkpt><trkpt lat="36.8777421" lon="15.0423795"><ele>143.0</ele><time>2026-04-04T16:16:08.982Z</time></trkpt><trkpt lat="36.8777144" lon="15.0422261"><ele>143.0</ele><time>2026-04-04T16:16:09.982Z</time></trkpt><trkpt lat="36.8776931" lon="15.0420727"><ele>143.0</ele><time>2026-04-04T16:16:10.982Z</time></trkpt><trkpt lat="36.8776699" lon="15.0419265"><ele>143.0</ele><time>2026-04-04T16:16:11.983Z</time></trkpt><trkpt lat="36.8776463" lon="15.0417853"><ele>143.0</ele><time>2026-04-04T16:16:12.982Z</time></trkpt><trkpt lat="36.8776205" lon="15.0416496"><ele>143.0</ele><time>2026-04-04T16:16:13.983Z</time></trkpt><trkpt lat="36.8776" lon="15.0415298"><ele>143.0</ele><time>2026-04-04T16:16:14.982Z</time></trkpt><trkpt lat="36.8775804" lon="15.0414162"><ele>143.0</ele><time>2026-04-04T16:16:15.982Z</time></trkpt><trkpt lat="36.8775659" lon="15.0413095"><ele>143.0</ele><time>2026-04-04T16:16:16.983Z</time></trkpt><trkpt lat="36.8775492" lon="15.0412121"><ele>143.0</ele><time>2026-04-04T16:16:17.982Z</time></trkpt><trkpt lat="36.8775376" lon="15.0411314"><ele>143.0</ele><time>2026-04-04T16:16:18.983Z</time></trkpt><trkpt lat="36.8775692" lon="15.0410082"><ele>143.0</ele><time>2026-04-04T16:16:20.981Z</time></trkpt><trkpt lat="36.8776827" lon="15.0409469"><ele>143.0</ele><time>2026-04-04T16:16:22.982Z</time></trkpt><trkpt lat="36.8777506" lon="15.0409136"><ele>143.0</ele><time>2026-04-04T16:16:23.982Z</time></trkpt><trkpt lat="36.8778153" lon="15.0408754"><ele>143.0</ele><time>2026-04-04T16:16:24.983Z</time></trkpt><trkpt lat="36.8778929" lon="15.0408234"><ele>144.0</ele><time>2026-04-04T16:16:25.982Z</time></trkpt><trkpt lat="36.8779859" lon="15.0407665"><ele>145.0</ele><time>2026-04-04T16:16:26.982Z</time></trkpt><trkpt lat="36.8781016" lon="15.0406887"><ele>146.0</ele><time>2026-04-04T16:16:27.982Z</time></trkpt><trkpt lat="36.878222" lon="15.0406076"><ele>147.0</ele><time>2026-04-04T16:16:28.983Z</time></trkpt><trkpt lat="36.8783548" lon="15.0405195"><ele>148.0</ele><time>2026-04-04T16:16:29.983Z</time></trkpt><trkpt lat="36.8784865" lon="15.0404371"><ele>149.0</ele><time>2026-04-04T16:16:30.982Z</time></trkpt><trkpt lat="36.87861" lon="15.0403626"><ele>150.0</ele><time>2026-04-04T16:16:31.983Z</time></trkpt><trkpt lat="36.8787384" lon="15.0402889"><ele>151.0</ele><time>2026-04-04T16:16:32.983Z</time></trkpt><trkpt lat="36.8788601" lon="15.0402146"><ele>151.0</ele><time>2026-04-04T16:16:33.982Z</time></trkpt><trkpt lat="36.8789829" lon="15.0401368"><ele>151.0</ele><time>2026-04-04T16:16:34.982Z</time></trkpt><trkpt lat="36.8791047" lon="15.0400634"><ele>151.0</ele><time>2026-04-04T16:16:35.983Z</time></trkpt><trkpt lat="36.8792233" lon="15.0399916"><ele>151.0</ele><time>2026-04-04T16:16:36.982Z</time></trkpt><trkpt lat="36.879343" lon="15.0399173"><ele>151.5</ele><time>2026-04-04T16:16:37.983Z</time></trkpt><trkpt lat="36.879462" lon="15.0398469"><ele>152.0</ele><time>2026-04-04T16:16:38.982Z</time></trkpt><trkpt lat="36.8795759" lon="15.0397899"><ele>152.5</ele><time>2026-04-04T16:16:39.983Z</time></trkpt><trkpt lat="36.8796845" lon="15.0397215"><ele>153.0</ele><time>2026-04-04T16:16:40.983Z</time></trkpt><trkpt lat="36.8797941" lon="15.0396244"><ele>153.0</ele><time>2026-04-04T16:16:41.983Z</time></trkpt><trkpt lat="36.8798848" lon="15.0395128"><ele>153.0</ele><time>2026-04-04T16:16:42.983Z</time></trkpt><trkpt lat="36.8799749" lon="15.0393897"><ele>153.0</ele><time>2026-04-04T16:16:43.983Z</time></trkpt><trkpt lat="36.8800588" lon="15.0392571"><ele>153.0</ele><time>2026-04-04T16:16:44.983Z</time></trkpt><trkpt lat="36.8801415" lon="15.039126"><ele>151.25</ele><time>2026-04-04T16:16:45.982Z</time></trkpt><trkpt lat="36.880223" lon="15.0389852"><ele>149.5</ele><time>2026-04-04T16:16:46.982Z</time></trkpt><trkpt lat="36.8803037" lon="15.0388449"><ele>147.75</ele><time>2026-04-04T16:16:47.982Z</time></trkpt><trkpt lat="36.8803857" lon="15.0387128"><ele>146.0</ele><time>2026-04-04T16:16:48.983Z</time></trkpt><trkpt lat="36.8804634" lon="15.038585"><ele>146.0</ele><time>2026-04-04T16:16:49.983Z</time></trkpt><trkpt lat="36.8805352" lon="15.0384533"><ele>146.0</ele><time>2026-04-04T16:16:50.983Z</time></trkpt><trkpt lat="36.880612" lon="15.0383049"><ele>146.0</ele><time>2026-04-04T16:16:51.983Z</time></trkpt><trkpt lat="36.8806875" lon="15.0381471"><ele>146.0</ele><time>2026-04-04T16:16:52.981Z</time></trkpt><trkpt lat="36.8807656" lon="15.0379786"><ele>147.33333333333331</ele><time>2026-04-04T16:16:53.982Z</time></trkpt><trkpt lat="36.8808441" lon="15.0378048"><ele>148.66666666666666</ele><time>2026-04-04T16:16:54.982Z</time></trkpt><trkpt lat="36.8809164" lon="15.037633"><ele>150.0</ele><time>2026-04-04T16:16:55.982Z</time></trkpt><trkpt lat="36.8809955" lon="15.0374751"><ele>150.25</ele><time>2026-04-04T16:16:56.982Z</time></trkpt><trkpt lat="36.8810792" lon="15.0373242"><ele>150.5</ele><time>2026-04-04T16:16:57.982Z</time></trkpt><trkpt lat="36.8811672" lon="15.0371743"><ele>150.75</ele><time>2026-04-04T16:16:58.983Z</time></trkpt><trkpt lat="36.8812611" lon="15.0370257"><ele>151.0</ele><time>2026-04-04T16:16:59.983Z</time></trkpt><trkpt lat="36.8813634" lon="15.0368756"><ele>151.0</ele><time>2026-04-04T16:17:00.982Z</time></trkpt><trkpt lat="36.8814667" lon="15.0367279"><ele>151.0</ele><time>2026-04-04T16:17:01.983Z</time></trkpt><trkpt lat="36.8815709" lon="15.0365847"><ele>151.0</ele><time>2026-04-04T16:17:02.982Z</time></trkpt><trkpt lat="36.8816725" lon="15.0364439"><ele>152.0</ele><time>2026-04-04T16:17:03.983Z</time></trkpt><trkpt lat="36.8817779" lon="15.0363059"><ele>153.0</ele><time>2026-04-04T16:17:04.983Z</time></trkpt><trkpt lat="36.881881" lon="15.0361756"><ele>154.0</ele><time>2026-04-04T16:17:05.983Z</time></trkpt><trkpt lat="36.8819965" lon="15.0360625"><ele>155.0</ele><time>2026-04-04T16:17:06.982Z</time></trkpt><trkpt lat="36.8821268" lon="15.0359639"><ele>155.0</ele><time>2026-04-04T16:17:07.982Z</time></trkpt><trkpt lat="36.8822574" lon="15.0358692"><ele>155.0</ele><time>2026-04-04T16:17:08.983Z</time></trkpt><trkpt lat="36.8823858" lon="15.0357593"><ele>155.0</ele><time>2026-04-04T16:17:09.983Z</time></trkpt><trkpt lat="36.8824947" lon="15.0356254"><ele>156.0</ele><time>2026-04-04T16:17:10.983Z</time></trkpt><trkpt lat="36.8825898" lon="15.0354777"><ele>157.0</ele><time>2026-04-04T16:17:11.983Z</time></trkpt><trkpt lat="36.8826826" lon="15.0353239"><ele>158.0</ele><time>2026-04-04T16:17:12.982Z</time></trkpt><trkpt lat="36.8827671" lon="15.0351735"><ele>158.33333333333331</ele><time>2026-04-04T16:17:13.983Z</time></trkpt><trkpt lat="36.8828481" lon="15.0350119"><ele>158.66666666666666</ele><time>2026-04-04T16:17:14.983Z</time></trkpt><trkpt lat="36.8829212" lon="15.0348415"><ele>159.0</ele><time>2026-04-04T16:17:15.982Z</time></trkpt><trkpt lat="36.8829903" lon="15.0346719"><ele>159.33333333333334</ele><time>2026-04-04T16:17:16.983Z</time></trkpt><trkpt lat="36.8830397" lon="15.0344833"><ele>159.66666666666669</ele><time>2026-04-04T16:17:17.982Z</time></trkpt><trkpt lat="36.8830845" lon="15.0342997"><ele>160.0</ele><time>2026-04-04T16:17:18.983Z</time></trkpt><trkpt lat="36.8831236" lon="15.0341314"><ele>160.75</ele><time>2026-04-04T16:17:19.982Z</time></trkpt><trkpt lat="36.8831616" lon="15.0339678"><ele>161.5</ele><time>2026-04-04T16:17:20.982Z</time></trkpt><trkpt lat="36.8831949" lon="15.0337874"><ele>162.25</ele><time>2026-04-04T16:17:21.982Z</time></trkpt><trkpt lat="36.8832342" lon="15.033599"><ele>163.0</ele><time>2026-04-04T16:17:22.982Z</time></trkpt><trkpt lat="36.8832823" lon="15.0334068"><ele>163.25</ele><time>2026-04-04T16:17:23.981Z</time></trkpt><trkpt lat="36.8833289" lon="15.0332226"><ele>163.5</ele><time>2026-04-04T16:17:24.982Z</time></trkpt><trkpt lat="36.8833698" lon="15.0330497"><ele>163.75</ele><time>2026-04-04T16:17:25.983Z</time></trkpt><trkpt lat="36.8834116" lon="15.0328906"><ele>164.0</ele><time>2026-04-04T16:17:26.982Z</time></trkpt><trkpt lat="36.883448" lon="15.0327508"><ele>164.0</ele><time>2026-04-04T16:17:27.983Z</time></trkpt><trkpt lat="36.8834824" lon="15.0326289"><ele>164.0</ele><time>2026-04-04T16:17:28.983Z</time></trkpt><trkpt lat="36.8835211" lon="15.0325011"><ele>164.0</ele><time>2026-04-04T16:17:29.982Z</time></trkpt><trkpt lat="36.8835561" lon="15.0323794"><ele>164.0</ele><time>2026-04-04T16:17:30.983Z</time></trkpt><trkpt lat="36.8835911" lon="15.0322591"><ele>164.0</ele><time>2026-04-04T16:17:31.983Z</time></trkpt><trkpt lat="36.8836251" lon="15.0321479"><ele>164.33333333333331</ele><time>2026-04-04T16:17:32.983Z</time></trkpt><trkpt lat="36.8836543" lon="15.0320424"><ele>164.66666666666666</ele><time>2026-04-04T16:17:33.983Z</time></trkpt><trkpt lat="36.883677" lon="15.0319385"><ele>165.0</ele><time>2026-04-04T16:17:34.982Z</time></trkpt><trkpt lat="36.8836847" lon="15.0318393"><ele>165.33333333333334</ele><time>2026-04-04T16:17:35.983Z</time></trkpt><trkpt lat="36.8836759" lon="15.0317372"><ele>165.66666666666669</ele><time>2026-04-04T16:17:36.982Z</time></trkpt><trkpt lat="36.8836539" lon="15.0316391"><ele>166.0</ele><time>2026-04-04T16:17:37.983Z</time></trkpt><trkpt lat="36.8836296" lon="15.0315358"><ele>166.5</ele><time>2026-04-04T16:17:38.982Z</time></trkpt><trkpt lat="36.8836054" lon="15.0314297"><ele>167.0</ele><time>2026-04-04T16:17:39.982Z</time></trkpt><trkpt lat="36.8835744" lon="15.0313293"><ele>167.5</ele><time>2026-04-04T16:17:40.982Z</time></trkpt><trkpt lat="36.8835459" lon="15.0312349"><ele>168.0</ele><time>2026-04-04T16:17:41.982Z</time></trkpt><trkpt lat="36.8835278" lon="15.0311474"><ele>168.5</ele><time>2026-04-04T16:17:42.982Z</time></trkpt><trkpt lat="36.8835143" lon="15.0310547"><ele>169.0</ele><time>2026-04-04T16:17:43.982Z</time></trkpt><trkpt lat="36.8834992" lon="15.0309633"><ele>169.0</ele><time>2026-04-04T16:17:44.982Z</time></trkpt><trkpt lat="36.8834929" lon="15.0308652"><ele>169.0</ele><time>2026-04-04T16:17:45.983Z</time></trkpt><trkpt lat="36.8834906" lon="15.0307687"><ele>169.0</ele><time>2026-04-04T16:17:46.982Z</time></trkpt><trkpt lat="36.8834952" lon="15.030671"><ele>169.0</ele><time>2026-04-04T16:17:47.982Z</time></trkpt><trkpt lat="36.883501" lon="15.0305797"><ele>169.0</ele><time>2026-04-04T16:17:48.982Z</time></trkpt><trkpt lat="36.8834992" lon="15.0304645"><ele>169.0</ele><time>2026-04-04T16:17:49.983Z</time></trkpt><trkpt lat="36.883503" lon="15.0303479"><ele>169.6</ele><time>2026-04-04T16:17:50.983Z</time></trkpt><trkpt lat="36.8835109" lon="15.0302188"><ele>170.2</ele><time>2026-04-04T16:17:51.981Z</time></trkpt><trkpt lat="36.8835206" lon="15.0300819"><ele>170.79999999999998</ele><time>2026-04-04T16:17:52.983Z</time></trkpt><trkpt lat="36.883529" lon="15.0299429"><ele>171.39999999999998</ele><time>2026-04-04T16:17:53.983Z</time></trkpt><trkpt lat="36.8835394" lon="15.0298067"><ele>172.0</ele><time>2026-04-04T16:17:54.983Z</time></trkpt><trkpt lat="36.8835436" lon="15.0296719"><ele>172.0</ele><time>2026-04-04T16:17:55.982Z</time></trkpt><trkpt lat="36.8835414" lon="15.0295342"><ele>172.0</ele><time>2026-04-04T16:17:56.982Z</time></trkpt><trkpt lat="36.8835363" lon="15.0294062"><ele>172.0</ele><time>2026-04-04T16:17:57.983Z</time></trkpt><trkpt lat="36.8835296" lon="15.029289"><ele>172.0</ele><time>2026-04-04T16:17:58.982Z</time></trkpt><trkpt lat="36.8835273" lon="15.0291964"><ele>172.0</ele><time>2026-04-04T16:17:59.982Z</time></trkpt><trkpt lat="36.8835397" lon="15.0291104"><ele>172.0</ele><time>2026-04-04T16:18:00.982Z</time></trkpt><trkpt lat="36.8835786" lon="15.0290431"><ele>172.0</ele><time>2026-04-04T16:18:01.982Z</time></trkpt><trkpt lat="36.8836453" lon="15.0289935"><ele>172.0</ele><time>2026-04-04T16:18:02.982Z</time></trkpt><trkpt lat="36.88373" lon="15.0289511"><ele>172.0</ele><time>2026-04-04T16:18:03.982Z</time></trkpt><trkpt lat="36.8838185" lon="15.0289025"><ele>172.0</ele><time>2026-04-04T16:18:04.983Z</time></trkpt><trkpt lat="36.8839031" lon="15.0288437"><ele>172.0</ele><time>2026-04-04T16:18:05.982Z</time></trkpt><trkpt lat="36.8839805" lon="15.0287669"><ele>172.0</ele><time>2026-04-04T16:18:06.983Z</time></trkpt><trkpt lat="36.8840559" lon="15.028675"><ele>172.0</ele><time>2026-04-04T16:18:07.983Z</time></trkpt><trkpt lat="36.8841383" lon="15.0285828"><ele>172.0</ele><time>2026-04-04T16:18:08.983Z</time></trkpt><trkpt lat="36.8842218" lon="15.0284976"><ele>172.0</ele><time>2026-04-04T16:18:09.983Z</time></trkpt><trkpt lat="36.8843051" lon="15.0284102"><ele>172.0</ele><time>2026-04-04T16:18:10.983Z</time></trkpt><trkpt lat="36.8843966" lon="15.0283309"><ele>172.75</ele><time>2026-04-04T16:18:11.982Z</time></trkpt><trkpt lat="36.8844893" lon="15.0282482"><ele>173.5</ele><time>2026-04-04T16:18:12.983Z</time></trkpt><trkpt lat="36.8845802" lon="15.0281662"><ele>174.25</ele><time>2026-04-04T16:18:13.982Z</time></trkpt><trkpt lat="36.8846732" lon="15.0280814"><ele>175.0</ele><time>2026-04-04T16:18:14.983Z</time></trkpt><trkpt lat="36.8847627" lon="15.0279987"><ele>175.0</ele><time>2026-04-04T16:18:15.982Z</time></trkpt><trkpt lat="36.8848497" lon="15.0279115"><ele>175.0</ele><time>2026-04-04T16:18:16.983Z</time></trkpt><trkpt lat="36.8849315" lon="15.0278271"><ele>175.0</ele><time>2026-04-04T16:18:17.982Z</time></trkpt><trkpt lat="36.8850075" lon="15.0277428"><ele>175.0</ele><time>2026-04-04T16:18:18.983Z</time></trkpt><trkpt lat="36.8850736" lon="15.0276678"><ele>175.0</ele><time>2026-04-04T16:18:19.983Z</time></trkpt><trkpt lat="36.8851337" lon="15.027608"><ele>175.66666666666669</ele><time>2026-04-04T16:18:20.982Z</time></trkpt><trkpt lat="36.8851819" lon="15.0275437"><ele>176.33333333333334</ele><time>2026-04-04T16:18:21.982Z</time></trkpt><trkpt lat="36.885228" lon="15.0274052"><ele>177.0</ele><time>2026-04-04T16:18:23.982Z</time></trkpt><trkpt lat="36.8852249" lon="15.027321"><ele>177.66666666666666</ele><time>2026-04-04T16:18:24.982Z</time></trkpt><trkpt lat="36.8851877" lon="15.0272304"><ele>178.33333333333331</ele><time>2026-04-04T16:18:25.982Z</time></trkpt><trkpt lat="36.8851491" lon="15.0271238"><ele>179.0</ele><time>2026-04-04T16:18:26.983Z</time></trkpt><trkpt lat="36.8851294" lon="15.0270171"><ele>179.0</ele><time>2026-04-04T16:18:27.982Z</time></trkpt><trkpt lat="36.8851262" lon="15.0269084"><ele>179.0</ele><time>2026-04-04T16:18:28.983Z</time></trkpt><trkpt lat="36.8851315" lon="15.0267972"><ele>179.0</ele><time>2026-04-04T16:18:29.982Z</time></trkpt><trkpt lat="36.8851516" lon="15.0266863"><ele>179.0</ele><time>2026-04-04T16:18:30.982Z</time></trkpt><trkpt lat="36.8851696" lon="15.0265898"><ele>179.0</ele><time>2026-04-04T16:18:31.982Z</time></trkpt><trkpt lat="36.8851631" lon="15.026492"><ele>179.0</ele><time>2026-04-04T16:18:32.983Z</time></trkpt><trkpt lat="36.8851365" lon="15.0263851"><ele>178.33333333333331</ele><time>2026-04-04T16:18:33.983Z</time></trkpt><trkpt lat="36.8850929" lon="15.0262798"><ele>177.66666666666666</ele><time>2026-04-04T16:18:34.982Z</time></trkpt><trkpt lat="36.8850502" lon="15.0261848"><ele>177.0</ele><time>2026-04-04T16:18:35.983Z</time></trkpt><trkpt lat="36.8850061" lon="15.0260984"><ele>176.33333333333334</ele><time>2026-04-04T16:18:36.982Z</time></trkpt><trkpt lat="36.8849632" lon="15.026014"><ele>175.66666666666669</ele><time>2026-04-04T16:18:37.983Z</time></trkpt><trkpt lat="36.884923" lon="15.0259319"><ele>175.0</ele><time>2026-04-04T16:18:38.983Z</time></trkpt><trkpt lat="36.8848803" lon="15.0258411"><ele>175.4</ele><time>2026-04-04T16:18:39.982Z</time></trkpt><trkpt lat="36.8848478" lon="15.0257379"><ele>175.8</ele><time>2026-04-04T16:18:40.982Z</time></trkpt><trkpt lat="36.8848219" lon="15.0256253"><ele>176.2</ele><time>2026-04-04T16:18:41.982Z</time></trkpt><trkpt lat="36.8848035" lon="15.0255075"><ele>176.6</ele><time>2026-04-04T16:18:42.982Z</time></trkpt><trkpt lat="36.8847938" lon="15.0253869"><ele>177.0</ele><time>2026-04-04T16:18:43.982Z</time></trkpt><trkpt lat="36.8847904" lon="15.0252608"><ele>177.0</ele><time>2026-04-04T16:18:44.982Z</time></trkpt><trkpt lat="36.8847886" lon="15.0251356"><ele>177.0</ele><time>2026-04-04T16:18:45.982Z</time></trkpt><trkpt lat="36.8847935" lon="15.0249975"><ele>177.0</ele><time>2026-04-04T16:18:46.982Z</time></trkpt><trkpt lat="36.8847935" lon="15.0248595"><ele>177.0</ele><time>2026-04-04T16:18:47.982Z</time></trkpt><trkpt lat="36.8848005" lon="15.0247096"><ele>177.0</ele><time>2026-04-04T16:18:48.982Z</time></trkpt><trkpt lat="36.8848068" lon="15.024569"><ele>177.6</ele><time>2026-04-04T16:18:49.983Z</time></trkpt><trkpt lat="36.8848214" lon="15.0244242"><ele>178.2</ele><time>2026-04-04T16:18:50.982Z</time></trkpt><trkpt lat="36.8848308" lon="15.0243034"><ele>178.8</ele><time>2026-04-04T16:18:51.982Z</time></trkpt><trkpt lat="36.8848437" lon="15.0241859"><ele>179.4</ele><time>2026-04-04T16:18:52.983Z</time></trkpt><trkpt lat="36.8848601" lon="15.0240915"><ele>180.0</ele><time>2026-04-04T16:18:53.982Z</time></trkpt><trkpt lat="36.884885" lon="15.0240075"><ele>180.0</ele><time>2026-04-04T16:18:54.982Z</time></trkpt><trkpt lat="36.884915" lon="15.0239143"><ele>180.0</ele><time>2026-04-04T16:18:55.982Z</time></trkpt><trkpt lat="36.8849548" lon="15.0238459"><ele>180.0</ele><time>2026-04-04T16:18:56.982Z</time></trkpt><trkpt lat="36.8850005" lon="15.0237812"><ele>180.0</ele><time>2026-04-04T16:18:57.983Z</time></trkpt><trkpt lat="36.8850618" lon="15.0236498"><ele>180.0</ele><time>2026-04-04T16:18:59.982Z</time></trkpt><trkpt lat="36.8850757" lon="15.0235566"><ele>180.0</ele><time>2026-04-04T16:19:00.982Z</time></trkpt><trkpt lat="36.8850595" lon="15.0234509"><ele>180.0</ele><time>2026-04-04T16:19:01.983Z</time></trkpt><trkpt lat="36.8850507" lon="15.0233581"><ele>180.0</ele><time>2026-04-04T16:19:02.982Z</time></trkpt><trkpt lat="36.8850373" lon="15.0232671"><ele>180.0</ele><time>2026-04-04T16:19:03.982Z</time></trkpt><trkpt lat="36.885024" lon="15.0231832"><ele>180.0</ele><time>2026-04-04T16:19:04.983Z</time></trkpt><trkpt lat="36.8850363" lon="15.0230279"><ele>180.0</ele><time>2026-04-04T16:19:06.983Z</time></trkpt><trkpt lat="36.8850571" lon="15.0229383"><ele>180.0</ele><time>2026-04-04T16:19:07.983Z</time></trkpt><trkpt lat="36.8850864" lon="15.0228336"><ele>180.2</ele><time>2026-04-04T16:19:08.982Z</time></trkpt><trkpt lat="36.8851257" lon="15.0227389"><ele>180.4</ele><time>2026-04-04T16:19:09.982Z</time></trkpt><trkpt lat="36.8851624" lon="15.0226447"><ele>180.60000000000002</ele><time>2026-04-04T16:19:10.982Z</time></trkpt><trkpt lat="36.8852137" lon="15.0225439"><ele>180.8</ele><time>2026-04-04T16:19:11.982Z</time></trkpt><trkpt lat="36.8852655" lon="15.0224449"><ele>181.0</ele><time>2026-04-04T16:19:12.981Z</time></trkpt><trkpt lat="36.8853156" lon="15.0223392"><ele>181.0</ele><time>2026-04-04T16:19:13.982Z</time></trkpt><trkpt lat="36.8853605" lon="15.022248"><ele>181.0</ele><time>2026-04-04T16:19:14.981Z</time></trkpt><trkpt lat="36.8853995" lon="15.0221606"><ele>181.0</ele><time>2026-04-04T16:19:15.983Z</time></trkpt><trkpt lat="36.8854377" lon="15.0220796"><ele>181.0</ele><time>2026-04-04T16:19:16.983Z</time></trkpt><trkpt lat="36.885473" lon="15.0220041"><ele>181.0</ele><time>2026-04-04T16:19:17.983Z</time></trkpt><trkpt lat="36.8855145" lon="15.0219153"><ele>181.0</ele><time>2026-04-04T16:19:18.981Z</time></trkpt><trkpt lat="36.8855476" lon="15.0218207"><ele>181.0</ele><time>2026-04-04T16:19:19.982Z</time></trkpt><trkpt lat="36.8855822" lon="15.0217271"><ele>181.0</ele><time>2026-04-04T16:19:20.983Z</time></trkpt><trkpt lat="36.8856166" lon="15.0216317"><ele>181.0</ele><time>2026-04-04T16:19:21.982Z</time></trkpt><trkpt lat="36.8856556" lon="15.021536"><ele>181.0</ele><time>2026-04-04T16:19:22.981Z</time></trkpt><trkpt lat="36.8856982" lon="15.0214374"><ele>181.0</ele><time>2026-04-04T16:19:23.982Z</time></trkpt><trkpt lat="36.8857429" lon="15.0213353"><ele>181.0</ele><time>2026-04-04T16:19:24.983Z</time></trkpt><trkpt lat="36.8857866" lon="15.0212465"><ele>180.5</ele><time>2026-04-04T16:19:25.982Z</time></trkpt><trkpt lat="36.8858267" lon="15.0211572"><ele>180.0</ele><time>2026-04-04T16:19:26.983Z</time></trkpt><trkpt lat="36.885869" lon="15.0210695"><ele>179.5</ele><time>2026-04-04T16:19:27.983Z</time></trkpt><trkpt lat="36.8859081" lon="15.0209856"><ele>179.0</ele><time>2026-04-04T16:19:28.982Z</time></trkpt><trkpt lat="36.8859409" lon="15.0209002"><ele>178.5</ele><time>2026-04-04T16:19:29.983Z</time></trkpt><trkpt lat="36.8859621" lon="15.0208246"><ele>178.0</ele><time>2026-04-04T16:19:30.982Z</time></trkpt><trkpt lat="36.88599" lon="15.0207071"><ele>176.83333333333334</ele><time>2026-04-04T16:19:32.982Z</time></trkpt><trkpt lat="36.8860109" lon="15.0206061"><ele>175.66666666666669</ele><time>2026-04-04T16:19:34.982Z</time></trkpt><trkpt lat="36.8860483" lon="15.0205155"><ele>174.5</ele><time>2026-04-04T16:19:36.982Z</time></trkpt><trkpt lat="36.8861074" lon="15.0204818"><ele>173.33333333333334</ele><time>2026-04-04T16:19:38.983Z</time></trkpt><trkpt lat="36.8861851" lon="15.020431"><ele>172.16666666666666</ele><time>2026-04-04T16:19:40.983Z</time></trkpt><trkpt lat="36.886266" lon="15.0203649"><ele>171.0</ele><time>2026-04-04T16:19:42.982Z</time></trkpt><trkpt lat="36.8863559" lon="15.0203258"><ele>171.0</ele><time>2026-04-04T16:19:44.983Z</time></trkpt><trkpt lat="36.8864427" lon="15.020292"><ele>171.0</ele><time>2026-04-04T16:19:46.983Z</time></trkpt><trkpt lat="36.8865148" lon="15.0202336"><ele>171.0</ele><time>2026-04-04T16:19:48.983Z</time></trkpt><trkpt lat="36.8865382" lon="15.0201224"><ele>171.0</ele><time>2026-04-04T16:19:50.982Z</time></trkpt><trkpt lat="36.8865032" lon="15.0199791"><ele>171.0</ele><time>2026-04-04T16:19:52.982Z</time></trkpt><trkpt lat="36.8864644" lon="15.0199088"><ele>170.33333333333334</ele><time>2026-04-04T16:19:53.983Z</time></trkpt><trkpt lat="36.886419" lon="15.0198291"><ele>169.66666666666666</ele><time>2026-04-04T16:19:54.983Z</time></trkpt><trkpt lat="36.8863724" lon="15.0197568"><ele>169.0</ele><time>2026-04-04T16:19:55.983Z</time></trkpt><trkpt lat="36.886324" lon="15.0196819"><ele>168.33333333333331</ele><time>2026-04-04T16:19:56.982Z</time></trkpt><trkpt lat="36.8862786" lon="15.0196121"><ele>167.66666666666666</ele><time>2026-04-04T16:19:57.982Z</time></trkpt><trkpt lat="36.8862101" lon="15.0194904"><ele>167.0</ele><time>2026-04-04T16:19:59.983Z</time></trkpt><trkpt lat="36.8862326" lon="15.0193281"><ele>167.0</ele><time>2026-04-04T16:20:01.982Z</time></trkpt><trkpt lat="36.8862682" lon="15.0192365"><ele>167.0</ele><time>2026-04-04T16:20:02.982Z</time></trkpt><trkpt lat="36.8863034" lon="15.0191403"><ele>167.0</ele><time>2026-04-04T16:20:03.983Z</time></trkpt><trkpt lat="36.8863422" lon="15.0190474"><ele>167.0</ele><time>2026-04-04T16:20:04.983Z</time></trkpt><trkpt lat="36.8863789" lon="15.0189505"><ele>167.0</ele><time>2026-04-04T16:20:05.982Z</time></trkpt><trkpt lat="36.8864165" lon="15.0188479"><ele>167.0</ele><time>2026-04-04T16:20:06.982Z</time></trkpt><trkpt lat="36.88646" lon="15.0187438"><ele>165.4</ele><time>2026-04-04T16:20:07.983Z</time></trkpt><trkpt lat="36.8864923" lon="15.0186416"><ele>163.79999999999998</ele><time>2026-04-04T16:20:08.983Z</time></trkpt><trkpt lat="36.8865326" lon="15.0185484"><ele>162.2</ele><time>2026-04-04T16:20:09.982Z</time></trkpt><trkpt lat="36.8865799" lon="15.0184453"><ele>160.6</ele><time>2026-04-04T16:20:10.983Z</time></trkpt><trkpt lat="36.8866349" lon="15.0183435"><ele>159.0</ele><time>2026-04-04T16:20:11.982Z</time></trkpt><trkpt lat="36.8866912" lon="15.0182463"><ele>159.0</ele><time>2026-04-04T16:20:12.982Z</time></trkpt><trkpt lat="36.886756" lon="15.0181477"><ele>159.0</ele><time>2026-04-04T16:20:13.982Z</time></trkpt><trkpt lat="36.8868214" lon="15.018042"><ele>159.0</ele><time>2026-04-04T16:20:14.983Z</time></trkpt><trkpt lat="36.8868872" lon="15.0179315"><ele>159.0</ele><time>2026-04-04T16:20:15.983Z</time></trkpt><trkpt lat="36.8869536" lon="15.0178299"><ele>159.0</ele><time>2026-04-04T16:20:16.983Z</time></trkpt><trkpt lat="36.8870307" lon="15.0177301"><ele>159.0</ele><time>2026-04-04T16:20:17.982Z</time></trkpt><trkpt lat="36.8871095" lon="15.017642"><ele>159.0</ele><time>2026-04-04T16:20:18.982Z</time></trkpt><trkpt lat="36.8871915" lon="15.0175469"><ele>159.0</ele><time>2026-04-04T16:20:19.982Z</time></trkpt><trkpt lat="36.8872686" lon="15.0174583"><ele>159.0</ele><time>2026-04-04T16:20:20.981Z</time></trkpt><trkpt lat="36.8873413" lon="15.0173755"><ele>159.0</ele><time>2026-04-04T16:20:21.983Z</time></trkpt><trkpt lat="36.8874125" lon="15.0173018"><ele>159.0</ele><time>2026-04-04T16:20:22.982Z</time></trkpt><trkpt lat="36.887475" lon="15.0172371"><ele>159.0</ele><time>2026-04-04T16:20:23.983Z</time></trkpt><trkpt lat="36.8875294" lon="15.0171756"><ele>159.0</ele><time>2026-04-04T16:20:24.983Z</time></trkpt><trkpt lat="36.8875784" lon="15.0171141"><ele>159.0</ele><time>2026-04-04T16:20:25.982Z</time></trkpt><trkpt lat="36.8876122" lon="15.0170418"><ele>159.0</ele><time>2026-04-04T16:20:26.981Z</time></trkpt><trkpt lat="36.8876236" lon="15.0169615"><ele>159.0</ele><time>2026-04-04T16:20:27.982Z</time></trkpt><trkpt lat="36.8876177" lon="15.0168741"><ele>159.0</ele><time>2026-04-04T16:20:28.983Z</time></trkpt><trkpt lat="36.887607" lon="15.0167877"><ele>159.16666666666666</ele><time>2026-04-04T16:20:29.983Z</time></trkpt><trkpt lat="36.8876119" lon="15.0166901"><ele>159.33333333333334</ele><time>2026-04-04T16:20:30.982Z</time></trkpt><trkpt lat="36.8876218" lon="15.0165877"><ele>159.5</ele><time>2026-04-04T16:20:31.982Z</time></trkpt><trkpt lat="36.8876607" lon="15.0164793"><ele>159.66666666666669</ele><time>2026-04-04T16:20:32.983Z</time></trkpt><trkpt lat="36.8877094" lon="15.0163879"><ele>159.83333333333334</ele><time>2026-04-04T16:20:33.982Z</time></trkpt><trkpt lat="36.8877811" lon="15.0163039"><ele>160.0</ele><time>2026-04-04T16:20:34.982Z</time></trkpt><trkpt lat="36.8878557" lon="15.0162432"><ele>161.33333333333334</ele><time>2026-04-04T16:20:35.982Z</time></trkpt><trkpt lat="36.8879414" lon="15.0162235"><ele>162.66666666666669</ele><time>2026-04-04T16:20:36.982Z</time></trkpt><trkpt lat="36.8880389" lon="15.0162127"><ele>164.0</ele><time>2026-04-04T16:20:37.983Z</time></trkpt><trkpt lat="36.8881169" lon="15.0162451"><ele>165.33333333333334</ele><time>2026-04-04T16:20:38.982Z</time></trkpt><trkpt lat="36.8881832" lon="15.0162923"><ele>166.66666666666666</ele><time>2026-04-04T16:20:39.983Z</time></trkpt><trkpt lat="36.8882448" lon="15.0163281"><ele>168.0</ele><time>2026-04-04T16:20:40.983Z</time></trkpt><trkpt lat="36.8883169" lon="15.0163325"><ele>168.0</ele><time>2026-04-04T16:20:41.983Z</time></trkpt><trkpt lat="36.8883952" lon="15.0163008"><ele>168.0</ele><time>2026-04-04T16:20:42.983Z</time></trkpt><trkpt lat="36.8884747" lon="15.016254"><ele>168.0</ele><time>2026-04-04T16:20:43.982Z</time></trkpt><trkpt lat="36.8885551" lon="15.0161719"><ele>168.0</ele><time>2026-04-04T16:20:44.982Z</time></trkpt><trkpt lat="36.8886396" lon="15.0160836"><ele>168.0</ele><time>2026-04-04T16:20:45.982Z</time></trkpt><trkpt lat="36.8887232" lon="15.0159817"><ele>168.75</ele><time>2026-04-04T16:20:46.981Z</time></trkpt><trkpt lat="36.8888083" lon="15.0158747"><ele>169.5</ele><time>2026-04-04T16:20:47.983Z</time></trkpt><trkpt lat="36.8888925" lon="15.0157718"><ele>170.25</ele><time>2026-04-04T16:20:48.982Z</time></trkpt><trkpt lat="36.8889835" lon="15.0156645"><ele>171.0</ele><time>2026-04-04T16:20:49.983Z</time></trkpt><trkpt lat="36.8890669" lon="15.0155615"><ele>173.25</ele><time>2026-04-04T16:20:50.982Z</time></trkpt><trkpt lat="36.8891533" lon="15.0154629"><ele>175.5</ele><time>2026-04-04T16:20:51.982Z</time></trkpt><trkpt lat="36.8892512" lon="15.0153602"><ele>177.75</ele><time>2026-04-04T16:20:52.982Z</time></trkpt><trkpt lat="36.8893379" lon="15.0152651"><ele>180.0</ele><time>2026-04-04T16:20:53.983Z</time></trkpt><trkpt lat="36.8894331" lon="15.0151839"><ele>180.5</ele><time>2026-04-04T16:20:54.982Z</time></trkpt><trkpt lat="36.8895334" lon="15.0151015"><ele>181.0</ele><time>2026-04-04T16:20:55.982Z</time></trkpt><trkpt lat="36.889644" lon="15.0150273"><ele>181.5</ele><time>2026-04-04T16:20:56.981Z</time></trkpt><trkpt lat="36.8897555" lon="15.0149494"><ele>182.0</ele><time>2026-04-04T16:20:57.982Z</time></trkpt><trkpt lat="36.8898621" lon="15.0148603"><ele>184.25</ele><time>2026-04-04T16:20:58.982Z</time></trkpt><trkpt lat="36.8899597" lon="15.0147656"><ele>186.5</ele><time>2026-04-04T16:20:59.982Z</time></trkpt><trkpt lat="36.8900661" lon="15.0146588"><ele>188.75</ele><time>2026-04-04T16:21:00.983Z</time></trkpt><trkpt lat="36.8901657" lon="15.0145585"><ele>191.0</ele><time>2026-04-04T16:21:01.982Z</time></trkpt><trkpt lat="36.8902681" lon="15.0144595"><ele>191.75</ele><time>2026-04-04T16:21:02.982Z</time></trkpt><trkpt lat="36.8903624" lon="15.0143658"><ele>192.5</ele><time>2026-04-04T16:21:03.982Z</time></trkpt><trkpt lat="36.8904641" lon="15.0142659"><ele>193.25</ele><time>2026-04-04T16:21:04.983Z</time></trkpt><trkpt lat="36.8905535" lon="15.0141597"><ele>194.0</ele><time>2026-04-04T16:21:05.982Z</time></trkpt><trkpt lat="36.8906432" lon="15.0140476"><ele>194.5</ele><time>2026-04-04T16:21:06.983Z</time></trkpt><trkpt lat="36.8907298" lon="15.0139265"><ele>195.0</ele><time>2026-04-04T16:21:07.983Z</time></trkpt><trkpt lat="36.8908101" lon="15.013796"><ele>195.5</ele><time>2026-04-04T16:21:08.983Z</time></trkpt><trkpt lat="36.8908924" lon="15.0136766"><ele>196.0</ele><time>2026-04-04T16:21:09.982Z</time></trkpt><trkpt lat="36.8909914" lon="15.0135735"><ele>197.25</ele><time>2026-04-04T16:21:10.983Z</time></trkpt><trkpt lat="36.8911002" lon="15.0134851"><ele>198.5</ele><time>2026-04-04T16:21:11.983Z</time></trkpt><trkpt lat="36.8912197" lon="15.0134"><ele>199.75</ele><time>2026-04-04T16:21:12.982Z</time></trkpt><trkpt lat="36.8913493" lon="15.013312"><ele>201.0</ele><time>2026-04-04T16:21:13.983Z</time></trkpt><trkpt lat="36.8914838" lon="15.0132347"><ele>202.66666666666669</ele><time>2026-04-04T16:21:14.982Z</time></trkpt><trkpt lat="36.8916327" lon="15.0131714"><ele>204.33333333333334</ele><time>2026-04-04T16:21:15.983Z</time></trkpt><trkpt lat="36.8917838" lon="15.0131034"><ele>206.0</ele><time>2026-04-04T16:21:16.982Z</time></trkpt><trkpt lat="36.8919148" lon="15.0130443"><ele>206.5</ele><time>2026-04-04T16:21:17.982Z</time></trkpt><trkpt lat="36.8920364" lon="15.0129922"><ele>207.0</ele><time>2026-04-04T16:21:18.983Z</time></trkpt><trkpt lat="36.892164" lon="15.0129424"><ele>207.5</ele><time>2026-04-04T16:21:19.982Z</time></trkpt><trkpt lat="36.8922819" lon="15.0128889"><ele>208.0</ele><time>2026-04-04T16:21:20.983Z</time></trkpt><trkpt lat="36.8923991" lon="15.012829"><ele>208.0</ele><time>2026-04-04T16:21:21.983Z</time></trkpt><trkpt lat="36.892523" lon="15.0127575"><ele>208.0</ele><time>2026-04-04T16:21:22.983Z</time></trkpt><trkpt lat="36.8926424" lon="15.012688"><ele>208.0</ele><time>2026-04-04T16:21:23.983Z</time></trkpt><trkpt lat="36.892767" lon="15.0126188"><ele>208.0</ele><time>2026-04-04T16:21:24.983Z</time></trkpt><trkpt lat="36.892896" lon="15.0125604"><ele>208.75</ele><time>2026-04-04T16:21:25.982Z</time></trkpt><trkpt lat="36.8930252" lon="15.0125129"><ele>209.5</ele><time>2026-04-04T16:21:26.983Z</time></trkpt><trkpt lat="36.8931536" lon="15.0124495"><ele>210.25</ele><time>2026-04-04T16:21:27.982Z</time></trkpt><trkpt lat="36.8932772" lon="15.0123792"><ele>211.0</ele><time>2026-04-04T16:21:28.982Z</time></trkpt><trkpt lat="36.8933991" lon="15.012302"><ele>213.5</ele><time>2026-04-04T16:21:29.983Z</time></trkpt><trkpt lat="36.8935173" lon="15.0122273"><ele>216.0</ele><time>2026-04-04T16:21:30.981Z</time></trkpt><trkpt lat="36.893634" lon="15.0121587"><ele>218.5</ele><time>2026-04-04T16:21:31.982Z</time></trkpt><trkpt lat="36.8937523" lon="15.0120847"><ele>221.0</ele><time>2026-04-04T16:21:32.982Z</time></trkpt><trkpt lat="36.8938596" lon="15.0120226"><ele>221.0</ele><time>2026-04-04T16:21:33.983Z</time></trkpt><trkpt lat="36.8939552" lon="15.0119667"><ele>221.00000000000003</ele><time>2026-04-04T16:21:34.982Z</time></trkpt><trkpt lat="36.8940404" lon="15.0119171"><ele>221.00000000000003</ele><time>2026-04-04T16:21:35.983Z</time></trkpt><trkpt lat="36.8941294" lon="15.0118668"><ele>221.0</ele><time>2026-04-04T16:21:36.982Z</time></trkpt><trkpt lat="36.8942106" lon="15.0118166"><ele>221.0</ele><time>2026-04-04T16:21:37.983Z</time></trkpt><trkpt lat="36.894279" lon="15.0117723"><ele>219.33333333333334</ele><time>2026-04-04T16:21:38.982Z</time></trkpt><trkpt lat="36.8943342" lon="15.0117145"><ele>217.66666666666669</ele><time>2026-04-04T16:21:39.982Z</time></trkpt><trkpt lat="36.8943772" lon="15.0116239"><ele>216.0</ele><time>2026-04-04T16:21:40.982Z</time></trkpt><trkpt lat="36.8943873" lon="15.0115193"><ele>214.33333333333331</ele><time>2026-04-04T16:21:41.983Z</time></trkpt><trkpt lat="36.8943861" lon="15.011406"><ele>212.66666666666666</ele><time>2026-04-04T16:21:42.983Z</time></trkpt><trkpt lat="36.8943753" lon="15.0112732"><ele>211.0</ele><time>2026-04-04T16:21:43.983Z</time></trkpt><trkpt lat="36.8943704" lon="15.011129"><ele>211.0</ele><time>2026-04-04T16:21:44.982Z</time></trkpt><trkpt lat="36.8943698" lon="15.0109743"><ele>211.0</ele><time>2026-04-04T16:21:45.982Z</time></trkpt><trkpt lat="36.8943693" lon="15.0108082"><ele>211.0</ele><time>2026-04-04T16:21:46.982Z</time></trkpt><trkpt lat="36.8943721" lon="15.0106189"><ele>211.0</ele><time>2026-04-04T16:21:47.983Z</time></trkpt><trkpt lat="36.8943802" lon="15.010433"><ele>212.25</ele><time>2026-04-04T16:21:48.982Z</time></trkpt><trkpt lat="36.8943851" lon="15.0102712"><ele>213.5</ele><time>2026-04-04T16:21:49.982Z</time></trkpt><trkpt lat="36.8943936" lon="15.0101209"><ele>214.75</ele><time>2026-04-04T16:21:50.982Z</time></trkpt><trkpt lat="36.8944211" lon="15.0099684"><ele>216.0</ele><time>2026-04-04T16:21:51.982Z</time></trkpt><trkpt lat="36.8944592" lon="15.0098159"><ele>217.25</ele><time>2026-04-04T16:21:52.983Z</time></trkpt><trkpt lat="36.8944828" lon="15.0096715"><ele>218.5</ele><time>2026-04-04T16:21:53.983Z</time></trkpt><trkpt lat="36.8944984" lon="15.0095273"><ele>219.75</ele><time>2026-04-04T16:21:54.982Z</time></trkpt><trkpt lat="36.894511" lon="15.0093816"><ele>221.0</ele><time>2026-04-04T16:21:55.982Z</time></trkpt><trkpt lat="36.8945171" lon="15.0092443"><ele>222.0</ele><time>2026-04-04T16:21:56.983Z</time></trkpt><trkpt lat="36.8945166" lon="15.0091129"><ele>223.00000000000003</ele><time>2026-04-04T16:21:57.982Z</time></trkpt><trkpt lat="36.8945164" lon="15.0089867"><ele>224.00000000000003</ele><time>2026-04-04T16:21:58.982Z</time></trkpt><trkpt lat="36.8945123" lon="15.0088708"><ele>225.0</ele><time>2026-04-04T16:21:59.982Z</time></trkpt><trkpt lat="36.8945109" lon="15.0087602"><ele>226.0</ele><time>2026-04-04T16:22:00.982Z</time></trkpt><trkpt lat="36.8945058" lon="15.0086411"><ele>226.0</ele><time>2026-04-04T16:22:01.982Z</time></trkpt><trkpt lat="36.894488" lon="15.0085246"><ele>226.00000000000003</ele><time>2026-04-04T16:22:02.983Z</time></trkpt><trkpt lat="36.8944639" lon="15.0084022"><ele>226.00000000000003</ele><time>2026-04-04T16:22:03.982Z</time></trkpt><trkpt lat="36.8944406" lon="15.0082726"><ele>226.0</ele><time>2026-04-04T16:22:04.983Z</time></trkpt><trkpt lat="36.8944109" lon="15.0081491"><ele>226.0</ele><time>2026-04-04T16:22:05.982Z</time></trkpt><trkpt lat="36.8943857" lon="15.0080188"><ele>227.60000000000002</ele><time>2026-04-04T16:22:06.982Z</time></trkpt><trkpt lat="36.8943656" lon="15.0078914"><ele>229.20000000000002</ele><time>2026-04-04T16:22:07.983Z</time></trkpt><trkpt lat="36.8943618" lon="15.0077716"><ele>230.79999999999998</ele><time>2026-04-04T16:22:08.983Z</time></trkpt><trkpt lat="36.8943814" lon="15.0076537"><ele>232.39999999999998</ele><time>2026-04-04T16:22:09.983Z</time></trkpt><trkpt lat="36.8944241" lon="15.0075363"><ele>234.0</ele><time>2026-04-04T16:22:10.982Z</time></trkpt><trkpt lat="36.8944811" lon="15.0074196"><ele>236.0</ele><time>2026-04-04T16:22:11.982Z</time></trkpt><trkpt lat="36.8945512" lon="15.007304"><ele>237.99999999999997</ele><time>2026-04-04T16:22:12.983Z</time></trkpt><trkpt lat="36.8946181" lon="15.0071958"><ele>239.99999999999997</ele><time>2026-04-04T16:22:13.982Z</time></trkpt><trkpt lat="36.8946735" lon="15.0071006"><ele>242.0</ele><time>2026-04-04T16:22:14.982Z</time></trkpt><trkpt lat="36.8947223" lon="15.0069943"><ele>244.0</ele><time>2026-04-04T16:22:15.983Z</time></trkpt><trkpt lat="36.894764" lon="15.0068806"><ele>244.0</ele><time>2026-04-04T16:22:16.983Z</time></trkpt><trkpt lat="36.8947815" lon="15.0067517"><ele>243.99999999999997</ele><time>2026-04-04T16:22:17.983Z</time></trkpt><trkpt lat="36.8948053" lon="15.0066297"><ele>243.99999999999997</ele><time>2026-04-04T16:22:18.982Z</time></trkpt><trkpt lat="36.8948172" lon="15.0065078"><ele>244.0</ele><time>2026-04-04T16:22:19.983Z</time></trkpt><trkpt lat="36.894833" lon="15.0063863"><ele>244.0</ele><time>2026-04-04T16:22:20.981Z</time></trkpt><trkpt lat="36.8948495" lon="15.0062696"><ele>245.39999999999998</ele><time>2026-04-04T16:22:21.983Z</time></trkpt><trkpt lat="36.8948606" lon="15.0061552"><ele>246.79999999999998</ele><time>2026-04-04T16:22:22.982Z</time></trkpt><trkpt lat="36.894861" lon="15.0060388"><ele>248.20000000000002</ele><time>2026-04-04T16:22:23.982Z</time></trkpt><trkpt lat="36.8948711" lon="15.005926"><ele>249.60000000000002</ele><time>2026-04-04T16:22:24.983Z</time></trkpt><trkpt lat="36.8948858" lon="15.0057986"><ele>251.0</ele><time>2026-04-04T16:22:25.983Z</time></trkpt><trkpt lat="36.894912" lon="15.0056612"><ele>252.0</ele><time>2026-04-04T16:22:26.982Z</time></trkpt><trkpt lat="36.8949367" lon="15.0055242"><ele>253.0</ele><time>2026-04-04T16:22:27.982Z</time></trkpt><trkpt lat="36.8949781" lon="15.0053872"><ele>254.0</ele><time>2026-04-04T16:22:28.983Z</time></trkpt><trkpt lat="36.8950333" lon="15.0052505"><ele>255.0</ele><time>2026-04-04T16:22:29.983Z</time></trkpt><trkpt lat="36.8950881" lon="15.005123"><ele>253.25</ele><time>2026-04-04T16:22:30.983Z</time></trkpt><trkpt lat="36.8951431" lon="15.0049876"><ele>251.5</ele><time>2026-04-04T16:22:31.982Z</time></trkpt><trkpt lat="36.8951944" lon="15.0048487"><ele>249.75</ele><time>2026-04-04T16:22:32.982Z</time></trkpt><trkpt lat="36.8952459" lon="15.0047098"><ele>248.0</ele><time>2026-04-04T16:22:33.983Z</time></trkpt><trkpt lat="36.8952859" lon="15.0045919"><ele>248.00000000000003</ele><time>2026-04-04T16:22:34.982Z</time></trkpt><trkpt lat="36.8953264" lon="15.004479"><ele>248.0</ele><time>2026-04-04T16:22:35.983Z</time></trkpt><trkpt lat="36.895354" lon="15.0043929"><ele>248.0</ele><time>2026-04-04T16:22:36.982Z</time></trkpt><trkpt lat="36.8953821" lon="15.00427"><ele>248.0</ele><time>2026-04-04T16:22:38.983Z</time></trkpt><trkpt lat="36.8953874" lon="15.0041799"><ele>248.00000000000003</ele><time>2026-04-04T16:22:40.982Z</time></trkpt><trkpt lat="36.8953723" lon="15.0040653"><ele>248.0</ele><time>2026-04-04T16:22:42.983Z</time></trkpt><trkpt lat="36.895345" lon="15.0039593"><ele>248.83333333333334</ele><time>2026-04-04T16:22:45.982Z</time></trkpt><trkpt lat="36.8953454" lon="15.003857"><ele>249.66666666666669</ele><time>2026-04-04T16:22:47.982Z</time></trkpt><trkpt lat="36.8953415" lon="15.00374"><ele>250.5</ele><time>2026-04-04T16:22:49.982Z</time></trkpt><trkpt lat="36.8953292" lon="15.0036347"><ele>251.33333333333331</ele><time>2026-04-04T16:22:51.982Z</time></trkpt><trkpt lat="36.895318" lon="15.0035302"><ele>252.16666666666666</ele><time>2026-04-04T16:22:53.982Z</time></trkpt><trkpt lat="36.8953114" lon="15.0034318"><ele>253.0</ele><time>2026-04-04T16:22:55.982Z</time></trkpt><trkpt lat="36.8953108" lon="15.003338"><ele>253.83333333333331</ele><time>2026-04-04T16:22:58.982Z</time></trkpt><trkpt lat="36.8952927" lon="15.0032242"><ele>254.66666666666666</ele><time>2026-04-04T16:23:04.982Z</time></trkpt><trkpt lat="36.8952866" lon="15.0031034"><ele>255.5</ele><time>2026-04-04T16:23:06.982Z</time></trkpt><trkpt lat="36.8953239" lon="15.0029933"><ele>256.3333333333333</ele><time>2026-04-04T16:23:08.983Z</time></trkpt><trkpt lat="36.8953673" lon="15.0029341"><ele>257.1666666666667</ele><time>2026-04-04T16:23:09.982Z</time></trkpt><trkpt lat="36.8954244" lon="15.0028724"><ele>258.0</ele><time>2026-04-04T16:23:10.981Z</time></trkpt><trkpt lat="36.8954911" lon="15.002816"><ele>258.0</ele><time>2026-04-04T16:23:11.983Z</time></trkpt><trkpt lat="36.8955621" lon="15.0027688"><ele>258.0</ele><time>2026-04-04T16:23:12.983Z</time></trkpt><trkpt lat="36.8956219" lon="15.0027188"><ele>258.0</ele><time>2026-04-04T16:23:13.982Z</time></trkpt><trkpt lat="36.8956939" lon="15.0026025"><ele>258.0</ele><time>2026-04-04T16:23:15.982Z</time></trkpt><trkpt lat="36.8957181" lon="15.0024818"><ele>258.0</ele><time>2026-04-04T16:23:17.982Z</time></trkpt><trkpt lat="36.8957257" lon="15.0023986"><ele>258.0</ele><time>2026-04-04T16:23:19.983Z</time></trkpt><trkpt lat="36.895693" lon="15.0023269"><ele>258.6</ele><time>2026-04-04T16:23:42.983Z</time></trkpt><trkpt lat="36.8957676" lon="15.0023181"><ele>259.20000000000005</ele><time>2026-04-04T16:23:46.983Z</time></trkpt><trkpt lat="36.8958172" lon="15.0023886"><ele>259.8</ele><time>2026-04-04T16:23:48.983Z</time></trkpt><trkpt lat="36.8958905" lon="15.0024741"><ele>260.40000000000003</ele><time>2026-04-04T16:23:50.983Z</time></trkpt><trkpt lat="36.8959702" lon="15.0025658"><ele>261.0</ele><time>2026-04-04T16:23:52.983Z</time></trkpt><trkpt lat="36.8960523" lon="15.0026489"><ele>261.6</ele><time>2026-04-04T16:23:54.982Z</time></trkpt><trkpt lat="36.8961336" lon="15.0027466"><ele>262.20000000000005</ele><time>2026-04-04T16:23:56.983Z</time></trkpt><trkpt lat="36.8962161" lon="15.0028504"><ele>262.79999999999995</ele><time>2026-04-04T16:23:58.981Z</time></trkpt><trkpt lat="36.8962814" lon="15.0029254"><ele>263.4</ele><time>2026-04-04T16:24:00.982Z</time></trkpt><trkpt lat="36.896339" lon="15.0029849"><ele>264.0</ele><time>2026-04-04T16:24:02.982Z</time></trkpt><trkpt lat="36.896416" lon="15.0030543"><ele>264.0</ele><time>2026-04-04T16:24:05.982Z</time></trkpt><trkpt lat="36.8964699" lon="15.0031067"><ele>264.0</ele><time>2026-04-04T16:24:07.982Z</time></trkpt><trkpt lat="36.8965186" lon="15.0031819"><ele>264.0</ele><time>2026-04-04T16:24:11.983Z</time></trkpt><trkpt lat="36.8965943" lon="15.0032238"><ele>264.0</ele><time>2026-04-04T16:24:15.982Z</time></trkpt><trkpt lat="36.8966601" lon="15.0032615"><ele>264.0</ele><time>2026-04-04T16:24:18.983Z</time></trkpt><trkpt lat="36.896737" lon="15.0033124"><ele>264.0</ele><time>2026-04-04T16:24:21.983Z</time></trkpt><trkpt lat="36.8968147" lon="15.0033654"><ele>261.7142857142857</ele><time>2026-04-04T16:24:24.983Z</time></trkpt><trkpt lat="36.8968697" lon="15.0034072"><ele>259.42857142857144</ele><time>2026-04-04T16:24:26.982Z</time></trkpt><trkpt lat="36.8969144" lon="15.003463"><ele>257.14285714285717</ele><time>2026-04-04T16:24:28.983Z</time></trkpt><trkpt lat="36.8969638" lon="15.0035256"><ele>254.85714285714286</ele><time>2026-04-04T16:24:30.983Z</time></trkpt><trkpt lat="36.8970274" lon="15.0036112"><ele>252.5714285714286</ele><time>2026-04-04T16:24:33.982Z</time></trkpt><trkpt lat="36.8970907" lon="15.0036604"><ele>250.2857142857143</ele><time>2026-04-04T16:24:37.982Z</time></trkpt><trkpt lat="36.8971423" lon="15.0037074"><ele>248.0</ele><time>2026-04-04T16:24:42.982Z</time></trkpt><trkpt lat="36.897192" lon="15.0037572"><ele>248.00000000000003</ele><time>2026-04-04T16:24:46.982Z</time></trkpt><trkpt lat="36.8972471" lon="15.0038115"><ele>248.0</ele><time>2026-04-04T16:24:52.982Z</time></trkpt><trkpt lat="36.8972979" lon="15.0038693"><ele>248.0</ele><time>2026-04-04T16:24:56.982Z</time></trkpt><trkpt lat="36.8973478" lon="15.0039258"><ele>248.0</ele><time>2026-04-04T16:24:59.982Z</time></trkpt><trkpt lat="36.8974004" lon="15.0040032"><ele>248.00000000000003</ele><time>2026-04-04T16:25:01.982Z</time></trkpt><trkpt lat="36.8974612" lon="15.0040855"><ele>248.0</ele><time>2026-04-04T16:25:03.982Z</time></trkpt><trkpt lat="36.8975074" lon="15.0041619"><ele>245.85714285714286</ele><time>2026-04-04T16:25:05.982Z</time></trkpt><trkpt lat="36.8975399" lon="15.0042379"><ele>243.71428571428572</ele><time>2026-04-04T16:25:07.982Z</time></trkpt><trkpt lat="36.8975797" lon="15.0043053"><ele>241.57142857142858</ele><time>2026-04-04T16:25:09.981Z</time></trkpt><trkpt lat="36.8976148" lon="15.0043768"><ele>239.42857142857144</ele><time>2026-04-04T16:25:11.982Z</time></trkpt><trkpt lat="36.8976537" lon="15.0044455"><ele>237.28571428571428</ele><time>2026-04-04T16:25:13.983Z</time></trkpt><trkpt lat="36.8976903" lon="15.0045313"><ele>235.14285714285717</ele><time>2026-04-04T16:25:15.982Z</time></trkpt><trkpt lat="36.8977206" lon="15.0046027"><ele>233.0</ele><time>2026-04-04T16:25:17.982Z</time></trkpt><trkpt lat="36.8977721" lon="15.0046866"><ele>233.00000000000003</ele><time>2026-04-04T16:25:20.983Z</time></trkpt><trkpt lat="36.8978246" lon="15.0047726"><ele>233.0</ele><time>2026-04-04T16:25:23.982Z</time></trkpt><trkpt lat="36.8978804" lon="15.0048329"><ele>233.0</ele><time>2026-04-04T16:25:26.982Z</time></trkpt><trkpt lat="36.8979333" lon="15.0049092"><ele>233.0</ele><time>2026-04-04T16:25:29.982Z</time></trkpt><trkpt lat="36.8979563" lon="15.0050038"><ele>233.00000000000003</ele><time>2026-04-04T16:25:31.983Z</time></trkpt><trkpt lat="36.8979674" lon="15.0051598"><ele>233.0</ele><time>2026-04-04T16:25:33.983Z</time></trkpt><trkpt lat="36.897964" lon="15.0052442"><ele>232.60000000000002</ele><time>2026-04-04T16:25:34.981Z</time></trkpt><trkpt lat="36.8979738" lon="15.0053869"><ele>232.20000000000002</ele><time>2026-04-04T16:25:36.982Z</time></trkpt><trkpt lat="36.8980007" lon="15.0055311"><ele>231.8</ele><time>2026-04-04T16:25:38.982Z</time></trkpt><trkpt lat="36.8980231" lon="15.0056673"><ele>231.4</ele><time>2026-04-04T16:25:40.983Z</time></trkpt><trkpt lat="36.8980267" lon="15.0057623"><ele>231.0</ele><time>2026-04-04T16:25:42.982Z</time></trkpt><trkpt lat="36.8980363" lon="15.0058501"><ele>230.85714285714286</ele><time>2026-04-04T16:25:45.982Z</time></trkpt><trkpt lat="36.8980844" lon="15.0059132"><ele>230.71428571428572</ele><time>2026-04-04T16:26:45.982Z</time></trkpt><trkpt lat="36.8980902" lon="15.0060258"><ele>230.57142857142856</ele><time>2026-04-04T16:26:48.982Z</time></trkpt><trkpt lat="36.898111" lon="15.0061126"><ele>230.42857142857142</ele><time>2026-04-04T16:26:51.982Z</time></trkpt><trkpt lat="36.8981347" lon="15.0061916"><ele>230.28571428571428</ele><time>2026-04-04T16:29:40.982Z</time></trkpt><trkpt lat="36.8981546" lon="15.0062726"><ele>230.1428571428571</ele><time>2026-04-04T16:29:44.982Z</time></trkpt><trkpt lat="36.8981762" lon="15.0063578"><ele>229.99999999999997</ele><time>2026-04-04T16:29:48.982Z</time></trkpt><trkpt lat="36.8982043" lon="15.006442"><ele>230.00000000000003</ele><time>2026-04-04T16:29:51.886Z</time></trkpt><trkpt lat="36.898248" lon="15.0065025"><ele>230.0</ele><time>2026-04-04T16:29:53.982Z</time></trkpt><trkpt lat="36.8982979" lon="15.0065646"><ele>230.0</ele><time>2026-04-04T16:29:57.982Z</time></trkpt><trkpt lat="36.8983353" lon="15.0066519"><ele>230.0</ele><time>2026-04-04T16:30:53.982Z</time></trkpt><trkpt lat="36.8983846" lon="15.0067396"><ele>230.00000000000003</ele><time>2026-04-04T16:30:55.982Z</time></trkpt><trkpt lat="36.8984517" lon="15.0068408"><ele>230.0</ele><time>2026-04-04T16:30:57.982Z</time></trkpt><trkpt lat="36.8985069" lon="15.0069288"><ele>231.16666666666669</ele><time>2026-04-04T16:30:59.981Z</time></trkpt><trkpt lat="36.8985517" lon="15.007001"><ele>232.33333333333334</ele><time>2026-04-04T16:31:01.982Z</time></trkpt><trkpt lat="36.898592" lon="15.0070798"><ele>233.5</ele><time>2026-04-04T16:31:03.982Z</time></trkpt><trkpt lat="36.8986353" lon="15.007164"><ele>234.66666666666669</ele><time>2026-04-04T16:31:05.982Z</time></trkpt><trkpt lat="36.8986937" lon="15.0072379"><ele>235.83333333333334</ele><time>2026-04-04T16:31:07.983Z</time></trkpt><trkpt lat="36.8987466" lon="15.0072968"><ele>237.0</ele><time>2026-04-04T16:31:09.982Z</time></trkpt><trkpt lat="36.8988113" lon="15.0073836"><ele>237.0</ele><time>2026-04-04T16:31:11.983Z</time></trkpt><trkpt lat="36.8988751" lon="15.0074536"><ele>237.0</ele><time>2026-04-04T16:31:13.982Z</time></trkpt><trkpt lat="36.8989451" lon="15.0075118"><ele>237.0</ele><time>2026-04-04T16:31:15.982Z</time></trkpt><trkpt lat="36.8990071" lon="15.0075546"><ele>237.0</ele><time>2026-04-04T16:31:18.983Z</time></trkpt><trkpt lat="36.8990806" lon="15.0075906"><ele>237.0</ele><time>2026-04-04T16:31:23.982Z</time></trkpt><trkpt lat="36.8991556" lon="15.0076301"><ele>237.0</ele><time>2026-04-04T16:35:37.982Z</time></trkpt><trkpt lat="36.899217" lon="15.0076577"><ele>235.0</ele><time>2026-04-04T16:35:40.981Z</time></trkpt><trkpt lat="36.8992761" lon="15.0076994"><ele>236.0</ele><time>2026-04-04T16:35:47.981Z</time></trkpt><trkpt lat="36.8993366" lon="15.0077563"><ele>236.0</ele><time>2026-04-04T16:35:51.982Z</time></trkpt><trkpt lat="36.8993876" lon="15.0078101"><ele>236.0</ele><time>2026-04-04T16:35:55.981Z</time></trkpt><trkpt lat="36.899444" lon="15.0078501"><ele>236.0</ele><time>2026-04-04T16:36:12.982Z</time></trkpt></trkseg><trkseg><trkpt lat="36.9001706" lon="15.0101292"><ele>228.0</ele><time>2026-04-04T16:53:37.98Z</time></trkpt><trkpt lat="36.9001936" lon="15.0102349"><ele>228.0</ele><time>2026-04-04T16:54:11.98Z</time></trkpt><trkpt lat="36.9002046" lon="15.0103132"><ele>228.0</ele><time>2026-04-04T16:54:13.98Z</time></trkpt><trkpt lat="36.9002126" lon="15.0103979"><ele>228.0</ele><time>2026-04-04T16:54:15.98Z</time></trkpt><trkpt lat="36.9002281" lon="15.0104985"><ele>228.0</ele><time>2026-04-04T16:54:18.98Z</time></trkpt><trkpt lat="36.9002714" lon="15.0106119"><ele>228.0</ele><time>2026-04-04T16:54:21.98Z</time></trkpt><trkpt lat="36.9002904" lon="15.010703"><ele>228.0</ele><time>2026-04-04T16:54:24.98Z</time></trkpt><trkpt lat="36.9003046" lon="15.0107831"><ele>227.99999999999997</ele><time>2026-04-04T16:54:27.979Z</time></trkpt><trkpt lat="36.9003208" lon="15.0108857"><ele>228.0</ele><time>2026-04-04T16:54:30.98Z</time></trkpt><trkpt lat="36.9003329" lon="15.0109663"><ele>228.0</ele><time>2026-04-04T16:54:33.98Z</time></trkpt><trkpt lat="36.9003402" lon="15.0110505"><ele>227.99999999999997</ele><time>2026-04-04T16:54:38.98Z</time></trkpt><trkpt lat="36.9003393" lon="15.0111513"><ele>228.0</ele><time>2026-04-04T16:54:41.98Z</time></trkpt><trkpt lat="36.9003653" lon="15.011234"><ele>228.0</ele><time>2026-04-04T16:54:47.98Z</time></trkpt><trkpt lat="36.9004023" lon="15.0113211"><ele>228.0</ele><time>2026-04-04T16:54:50.98Z</time></trkpt><trkpt lat="36.9004274" lon="15.0114029"><ele>228.0</ele><time>2026-04-04T16:54:53.98Z</time></trkpt><trkpt lat="36.9004704" lon="15.0115099"><ele>228.0</ele><time>2026-04-04T16:55:09.979Z</time></trkpt><trkpt lat="36.9004887" lon="15.0115993"><ele>228.0</ele><time>2026-04-04T16:55:12.979Z</time></trkpt><trkpt lat="36.9004869" lon="15.0117025"><ele>228.0</ele><time>2026-04-04T16:55:15.979Z</time></trkpt><trkpt lat="36.900476" lon="15.0118101"><ele>228.0</ele><time>2026-04-04T16:55:17.979Z</time></trkpt><trkpt lat="36.9004845" lon="15.0119741"><ele>228.0</ele><time>2026-04-04T16:55:19.979Z</time></trkpt><trkpt lat="36.9004944" lon="15.0120572"><ele>228.0</ele><time>2026-04-04T16:55:20.979Z</time></trkpt><trkpt lat="36.9005129" lon="15.0121773"><ele>228.0</ele><time>2026-04-04T16:55:21.979Z</time></trkpt><trkpt lat="36.9005364" lon="15.0123056"><ele>228.0</ele><time>2026-04-04T16:55:22.978Z</time></trkpt><trkpt lat="36.9005594" lon="15.0124104"><ele>228.0</ele><time>2026-04-04T16:55:23.979Z</time></trkpt><trkpt lat="36.9005832" lon="15.0125053"><ele>228.0</ele><time>2026-04-04T16:55:24.979Z</time></trkpt><trkpt lat="36.9006085" lon="15.0125877"><ele>228.5</ele><time>2026-04-04T16:55:25.979Z</time></trkpt><trkpt lat="36.9006468" lon="15.0126854"><ele>229.0</ele><time>2026-04-04T16:55:26.978Z</time></trkpt><trkpt lat="36.9007078" lon="15.0128196"><ele>229.5</ele><time>2026-04-04T16:55:27.979Z</time></trkpt><trkpt lat="36.9007656" lon="15.0129623"><ele>230.0</ele><time>2026-04-04T16:55:28.979Z</time></trkpt><trkpt lat="36.9008153" lon="15.0130971"><ele>230.0</ele><time>2026-04-04T16:55:29.979Z</time></trkpt><trkpt lat="36.9008815" lon="15.0132473"><ele>230.0</ele><time>2026-04-04T16:55:30.979Z</time></trkpt><trkpt lat="36.9009409" lon="15.0133742"><ele>230.0</ele><time>2026-04-04T16:55:31.979Z</time></trkpt><trkpt lat="36.9010047" lon="15.0135012"><ele>230.0</ele><time>2026-04-04T16:55:32.978Z</time></trkpt><trkpt lat="36.9010776" lon="15.013634"><ele>231.25</ele><time>2026-04-04T16:55:33.979Z</time></trkpt><trkpt lat="36.9011437" lon="15.0137566"><ele>232.5</ele><time>2026-04-04T16:55:34.979Z</time></trkpt><trkpt lat="36.9012158" lon="15.0138861"><ele>233.75</ele><time>2026-04-04T16:55:35.979Z</time></trkpt><trkpt lat="36.9012876" lon="15.0140225"><ele>235.0</ele><time>2026-04-04T16:55:36.979Z</time></trkpt><trkpt lat="36.9013539" lon="15.0141596"><ele>235.0</ele><time>2026-04-04T16:55:37.979Z</time></trkpt><trkpt lat="36.9014178" lon="15.0142886"><ele>235.0</ele><time>2026-04-04T16:55:38.979Z</time></trkpt><trkpt lat="36.9014868" lon="15.0144263"><ele>235.0</ele><time>2026-04-04T16:55:39.978Z</time></trkpt><trkpt lat="36.9015509" lon="15.0145601"><ele>235.0</ele><time>2026-04-04T16:55:40.979Z</time></trkpt><trkpt lat="36.9016077" lon="15.0146827"><ele>235.0</ele><time>2026-04-04T16:55:41.979Z</time></trkpt><trkpt lat="36.9016572" lon="15.0147818"><ele>235.0</ele><time>2026-04-04T16:55:42.979Z</time></trkpt><trkpt lat="36.9016986" lon="15.0148609"><ele>235.0</ele><time>2026-04-04T16:55:43.979Z</time></trkpt><trkpt lat="36.9017642" lon="15.0149871"><ele>235.0</ele><time>2026-04-04T16:55:45.978Z</time></trkpt><trkpt lat="36.9018255" lon="15.0150956"><ele>235.0</ele><time>2026-04-04T16:55:47.979Z</time></trkpt><trkpt lat="36.9018766" lon="15.0151989"><ele>235.33333333333331</ele><time>2026-04-04T16:55:49.979Z</time></trkpt><trkpt lat="36.9019467" lon="15.0153169"><ele>235.66666666666666</ele><time>2026-04-04T16:55:51.979Z</time></trkpt><trkpt lat="36.9019832" lon="15.0153882"><ele>236.0</ele><time>2026-04-04T16:55:52.979Z</time></trkpt><trkpt lat="36.9020203" lon="15.0154656"><ele>236.33333333333331</ele><time>2026-04-04T16:55:53.979Z</time></trkpt><trkpt lat="36.9020559" lon="15.0155347"><ele>236.66666666666666</ele><time>2026-04-04T16:55:54.979Z</time></trkpt><trkpt lat="36.9021259" lon="15.0156589"><ele>237.0</ele><time>2026-04-04T16:55:56.979Z</time></trkpt><trkpt lat="36.9021874" lon="15.0157724"><ele>234.6</ele><time>2026-04-04T16:55:58.979Z</time></trkpt><trkpt lat="36.9022542" lon="15.0158657"><ele>232.2</ele><time>2026-04-04T16:56:00.979Z</time></trkpt><trkpt lat="36.9023366" lon="15.0159298"><ele>229.8</ele><time>2026-04-04T16:56:02.979Z</time></trkpt><trkpt lat="36.9024261" lon="15.0159834"><ele>227.4</ele><time>2026-04-04T16:56:04.979Z</time></trkpt><trkpt lat="36.9025165" lon="15.0160169"><ele>225.0</ele><time>2026-04-04T16:56:06.978Z</time></trkpt><trkpt lat="36.902638" lon="15.0160231"><ele>225.00000000000003</ele><time>2026-04-04T16:56:08.979Z</time></trkpt><trkpt lat="36.9027021" lon="15.0160314"><ele>225.0</ele><time>2026-04-04T16:56:09.979Z</time></trkpt><trkpt lat="36.9027675" lon="15.0160417"><ele>225.00000000000003</ele><time>2026-04-04T16:56:10.979Z</time></trkpt><trkpt lat="36.9028301" lon="15.0160578"><ele>225.00000000000003</ele><time>2026-04-04T16:56:11.979Z</time></trkpt><trkpt lat="36.902894" lon="15.0160843"><ele>225.0</ele><time>2026-04-04T16:56:12.979Z</time></trkpt><trkpt lat="36.9029528" lon="15.0161292"><ele>225.00000000000003</ele><time>2026-04-04T16:56:13.979Z</time></trkpt><trkpt lat="36.9030083" lon="15.0161776"><ele>225.00000000000003</ele><time>2026-04-04T16:56:14.979Z</time></trkpt><trkpt lat="36.9030641" lon="15.0162227"><ele>225.0</ele><time>2026-04-04T16:56:15.979Z</time></trkpt><trkpt lat="36.9031222" lon="15.0162765"><ele>225.0</ele><time>2026-04-04T16:56:16.979Z</time></trkpt><trkpt lat="36.9031809" lon="15.01635"><ele>225.0</ele><time>2026-04-04T16:56:17.979Z</time></trkpt><trkpt lat="36.90324" lon="15.0164312"><ele>225.0</ele><time>2026-04-04T16:56:18.979Z</time></trkpt><trkpt lat="36.9032977" lon="15.0165055"><ele>225.0</ele><time>2026-04-04T16:56:19.979Z</time></trkpt><trkpt lat="36.9033571" lon="15.0165847"><ele>225.0</ele><time>2026-04-04T16:56:20.979Z</time></trkpt><trkpt lat="36.9034145" lon="15.0166575"><ele>224.16666666666666</ele><time>2026-04-04T16:56:21.979Z</time></trkpt><trkpt lat="36.9034807" lon="15.0167296"><ele>223.33333333333331</ele><time>2026-04-04T16:56:22.979Z</time></trkpt><trkpt lat="36.9035479" lon="15.0168054"><ele>222.5</ele><time>2026-04-04T16:56:23.979Z</time></trkpt><trkpt lat="36.9036091" lon="15.0168754"><ele>221.66666666666666</ele><time>2026-04-04T16:56:24.979Z</time></trkpt><trkpt lat="36.9036714" lon="15.0169431"><ele>220.83333333333331</ele><time>2026-04-04T16:56:25.978Z</time></trkpt><trkpt lat="36.9037344" lon="15.0170048"><ele>220.0</ele><time>2026-04-04T16:56:26.979Z</time></trkpt><trkpt lat="36.9037903" lon="15.0170605"><ele>220.0</ele><time>2026-04-04T16:56:27.979Z</time></trkpt><trkpt lat="36.9038564" lon="15.0171685"><ele>220.0</ele><time>2026-04-04T16:56:29.979Z</time></trkpt><trkpt lat="36.9038432" lon="15.017275"><ele>220.0</ele><time>2026-04-04T16:56:31.979Z</time></trkpt><trkpt lat="36.9037591" lon="15.0173349"><ele>220.0</ele><time>2026-04-04T16:56:33.979Z</time></trkpt><trkpt lat="36.9036452" lon="15.0173277"><ele>220.0</ele><time>2026-04-04T16:56:35.979Z</time></trkpt><trkpt lat="36.9035401" lon="15.0173334"><ele>219.99999999999997</ele><time>2026-04-04T16:56:37.979Z</time></trkpt><trkpt lat="36.9034588" lon="15.0173782"><ele>220.0</ele><time>2026-04-04T16:56:39.979Z</time></trkpt><trkpt lat="36.9034054" lon="15.0174664"><ele>220.0</ele><time>2026-04-04T16:56:41.979Z</time></trkpt><trkpt lat="36.9034181" lon="15.0175614"><ele>220.0</ele><time>2026-04-04T16:56:43.978Z</time></trkpt><trkpt lat="36.9035193" lon="15.0176148"><ele>219.99999999999997</ele><time>2026-04-04T16:56:45.979Z</time></trkpt><trkpt lat="36.9035927" lon="15.0176309"><ele>220.0</ele><time>2026-04-04T16:56:46.979Z</time></trkpt><trkpt lat="36.9036803" lon="15.017638"><ele>220.66666666666666</ele><time>2026-04-04T16:56:47.979Z</time></trkpt><trkpt lat="36.9037587" lon="15.017655"><ele>221.33333333333331</ele><time>2026-04-04T16:56:48.979Z</time></trkpt><trkpt lat="36.9038247" lon="15.0177111"><ele>222.0</ele><time>2026-04-04T16:56:49.979Z</time></trkpt><trkpt lat="36.9038825" lon="15.0177771"><ele>222.66666666666669</ele><time>2026-04-04T16:56:50.979Z</time></trkpt><trkpt lat="36.9039475" lon="15.0178592"><ele>223.33333333333334</ele><time>2026-04-04T16:56:51.979Z</time></trkpt><trkpt lat="36.9040163" lon="15.0179344"><ele>224.0</ele><time>2026-04-04T16:56:52.979Z</time></trkpt><trkpt lat="36.9041003" lon="15.0180018"><ele>224.0</ele><time>2026-04-04T16:56:53.979Z</time></trkpt><trkpt lat="36.9041863" lon="15.0180701"><ele>223.99999999999997</ele><time>2026-04-04T16:56:54.979Z</time></trkpt><trkpt lat="36.9042598" lon="15.0181578"><ele>223.99999999999997</ele><time>2026-04-04T16:56:55.979Z</time></trkpt><trkpt lat="36.904322" lon="15.018242"><ele>224.0</ele><time>2026-04-04T16:56:56.979Z</time></trkpt><trkpt lat="36.9043638" lon="15.0183266"><ele>224.0</ele><time>2026-04-04T16:56:57.979Z</time></trkpt><trkpt lat="36.9044017" lon="15.0184449"><ele>226.33333333333334</ele><time>2026-04-04T16:56:58.979Z</time></trkpt><trkpt lat="36.9044444" lon="15.0185666"><ele>228.66666666666669</ele><time>2026-04-04T16:56:59.979Z</time></trkpt><trkpt lat="36.9044645" lon="15.0186643"><ele>231.0</ele><time>2026-04-04T16:57:00.979Z</time></trkpt><trkpt lat="36.9044603" lon="15.0187559"><ele>233.33333333333331</ele><time>2026-04-04T16:57:01.979Z</time></trkpt><trkpt lat="36.9044417" lon="15.018845"><ele>235.66666666666666</ele><time>2026-04-04T16:57:02.978Z</time></trkpt><trkpt lat="36.9044178" lon="15.0189473"><ele>238.0</ele><time>2026-04-04T16:57:03.979Z</time></trkpt><trkpt lat="36.904426" lon="15.0190738"><ele>241.25</ele><time>2026-04-04T16:57:04.979Z</time></trkpt><trkpt lat="36.9044347" lon="15.01922"><ele>244.5</ele><time>2026-04-04T16:57:05.979Z</time></trkpt><trkpt lat="36.9044266" lon="15.0193863"><ele>247.75</ele><time>2026-04-04T16:57:06.979Z</time></trkpt><trkpt lat="36.9044198" lon="15.0195723"><ele>251.0</ele><time>2026-04-04T16:57:07.979Z</time></trkpt><trkpt lat="36.9044116" lon="15.0197312"><ele>251.0</ele><time>2026-04-04T16:57:08.979Z</time></trkpt><trkpt lat="36.904398" lon="15.0198644"><ele>251.00000000000003</ele><time>2026-04-04T16:57:09.979Z</time></trkpt><trkpt lat="36.9043755" lon="15.0199766"><ele>251.00000000000003</ele><time>2026-04-04T16:57:10.979Z</time></trkpt><trkpt lat="36.9043272" lon="15.0200814"><ele>251.0</ele><time>2026-04-04T16:57:11.979Z</time></trkpt><trkpt lat="36.9042583" lon="15.0201928"><ele>251.0</ele><time>2026-04-04T16:57:12.979Z</time></trkpt><trkpt lat="36.9041845" lon="15.0202816"><ele>251.33333333333334</ele><time>2026-04-04T16:57:13.979Z</time></trkpt><trkpt lat="36.9041279" lon="15.0203479"><ele>251.66666666666669</ele><time>2026-04-04T16:57:14.979Z</time></trkpt><trkpt lat="36.9040824" lon="15.0204083"><ele>252.0</ele><time>2026-04-04T16:57:15.979Z</time></trkpt><trkpt lat="36.9040199" lon="15.0204835"><ele>252.33333333333331</ele><time>2026-04-04T16:57:17.979Z</time></trkpt><trkpt lat="36.9039709" lon="15.0205544"><ele>252.66666666666666</ele><time>2026-04-04T16:57:27.979Z</time></trkpt><trkpt lat="36.9039356" lon="15.0206454"><ele>253.0</ele><time>2026-04-04T17:10:09.989Z</time></trkpt><trkpt lat="36.9039001" lon="15.0207244"><ele>252.99999999999997</ele><time>2026-04-04T17:10:11.989Z</time></trkpt><trkpt lat="36.903849" lon="15.0207947"><ele>253.0</ele><time>2026-04-04T17:10:12.989Z</time></trkpt><trkpt lat="36.9038016" lon="15.020861"><ele>253.0</ele><time>2026-04-04T17:10:13.989Z</time></trkpt><trkpt lat="36.9037531" lon="15.0209414"><ele>253.0</ele><time>2026-04-04T17:10:14.989Z</time></trkpt><trkpt lat="36.903712" lon="15.0210239"><ele>252.99999999999997</ele><time>2026-04-04T17:10:15.989Z</time></trkpt><trkpt lat="36.9036842" lon="15.0211098"><ele>253.0</ele><time>2026-04-04T17:10:16.989Z</time></trkpt><trkpt lat="36.9036638" lon="15.0211993"><ele>255.99999999999997</ele><time>2026-04-04T17:10:17.989Z</time></trkpt><trkpt lat="36.9036453" lon="15.0212913"><ele>259.0</ele><time>2026-04-04T17:10:18.989Z</time></trkpt><trkpt lat="36.9036372" lon="15.0213907"><ele>262.0</ele><time>2026-04-04T17:10:19.989Z</time></trkpt><trkpt lat="36.9036343" lon="15.021498"><ele>265.0</ele><time>2026-04-04T17:10:20.989Z</time></trkpt><trkpt lat="36.9036334" lon="15.0216206"><ele>268.0</ele><time>2026-04-04T17:10:21.989Z</time></trkpt><trkpt lat="36.9036343" lon="15.021734"><ele>271.0</ele><time>2026-04-04T17:10:22.989Z</time></trkpt><trkpt lat="36.9036361" lon="15.0218599"><ele>273.0</ele><time>2026-04-04T17:10:23.989Z</time></trkpt><trkpt lat="36.9036425" lon="15.021997"><ele>275.0</ele><time>2026-04-04T17:10:24.989Z</time></trkpt><trkpt lat="36.9036526" lon="15.022113"><ele>277.0</ele><time>2026-04-04T17:10:25.989Z</time></trkpt><trkpt lat="36.9036662" lon="15.0222027"><ele>279.0</ele><time>2026-04-04T17:10:26.989Z</time></trkpt><trkpt lat="36.9036868" lon="15.0222979"><ele>281.0</ele><time>2026-04-04T17:10:27.989Z</time></trkpt><trkpt lat="36.9037169" lon="15.0223951"><ele>283.0</ele><time>2026-04-04T17:10:28.989Z</time></trkpt><trkpt lat="36.9037526" lon="15.0224877"><ele>283.16666666666663</ele><time>2026-04-04T17:10:29.989Z</time></trkpt><trkpt lat="36.9038003" lon="15.0225776"><ele>283.3333333333333</ele><time>2026-04-04T17:10:30.989Z</time></trkpt><trkpt lat="36.9038487" lon="15.0226537"><ele>283.5</ele><time>2026-04-04T17:10:31.989Z</time></trkpt><trkpt lat="36.9039029" lon="15.0227137"><ele>283.6666666666667</ele><time>2026-04-04T17:10:32.989Z</time></trkpt><trkpt lat="36.9039728" lon="15.0227775"><ele>283.83333333333337</ele><time>2026-04-04T17:10:33.989Z</time></trkpt><trkpt lat="36.904053" lon="15.0228488"><ele>284.0</ele><time>2026-04-04T17:10:34.989Z</time></trkpt><trkpt lat="36.9041298" lon="15.0229231"><ele>284.0</ele><time>2026-04-04T17:10:35.989Z</time></trkpt><trkpt lat="36.9042082" lon="15.0230077"><ele>284.0</ele><time>2026-04-04T17:10:36.989Z</time></trkpt><trkpt lat="36.9042846" lon="15.0230884"><ele>284.0</ele><time>2026-04-04T17:10:37.989Z</time></trkpt><trkpt lat="36.9043537" lon="15.0231567"><ele>284.0</ele><time>2026-04-04T17:10:38.989Z</time></trkpt><trkpt lat="36.9044206" lon="15.0232185"><ele>284.0</ele><time>2026-04-04T17:10:39.989Z</time></trkpt><trkpt lat="36.904486" lon="15.0232732"><ele>284.83333333333337</ele><time>2026-04-04T17:10:40.988Z</time></trkpt><trkpt lat="36.9045403" lon="15.0233315"><ele>285.6666666666667</ele><time>2026-04-04T17:10:41.989Z</time></trkpt><trkpt lat="36.9045834" lon="15.0234081"><ele>286.5</ele><time>2026-04-04T17:10:42.989Z</time></trkpt><trkpt lat="36.9046098" lon="15.0235083"><ele>287.3333333333333</ele><time>2026-04-04T17:10:43.989Z</time></trkpt><trkpt lat="36.9046205" lon="15.0236135"><ele>288.16666666666663</ele><time>2026-04-04T17:10:44.989Z</time></trkpt><trkpt lat="36.9046197" lon="15.0237313"><ele>289.0</ele><time>2026-04-04T17:10:45.989Z</time></trkpt><trkpt lat="36.9046157" lon="15.0238507"><ele>289.0</ele><time>2026-04-04T17:10:46.989Z</time></trkpt><trkpt lat="36.9046191" lon="15.0239656"><ele>289.0</ele><time>2026-04-04T17:10:47.989Z</time></trkpt><trkpt lat="36.9046419" lon="15.0240854"><ele>289.0</ele><time>2026-04-04T17:10:48.989Z</time></trkpt><trkpt lat="36.9046828" lon="15.0241982"><ele>289.0</ele><time>2026-04-04T17:10:49.989Z</time></trkpt><trkpt lat="36.9047415" lon="15.0243008"><ele>289.0</ele><time>2026-04-04T17:10:50.988Z</time></trkpt><trkpt lat="36.9048281" lon="15.0243839"><ele>288.5</ele><time>2026-04-04T17:10:51.989Z</time></trkpt><trkpt lat="36.9049371" lon="15.0244567"><ele>288.0</ele><time>2026-04-04T17:10:52.989Z</time></trkpt><trkpt lat="36.9050406" lon="15.0245242"><ele>287.5</ele><time>2026-04-04T17:10:53.989Z</time></trkpt><trkpt lat="36.9051352" lon="15.0245972"><ele>287.0</ele><time>2026-04-04T17:10:54.988Z</time></trkpt><trkpt lat="36.9052259" lon="15.0246729"><ele>288.4</ele><time>2026-04-04T17:10:55.989Z</time></trkpt><trkpt lat="36.9053092" lon="15.0247605"><ele>289.79999999999995</ele><time>2026-04-04T17:10:56.989Z</time></trkpt><trkpt lat="36.9053808" lon="15.0248661"><ele>291.2</ele><time>2026-04-04T17:10:57.989Z</time></trkpt><trkpt lat="36.9054445" lon="15.024982"><ele>292.59999999999997</ele><time>2026-04-04T17:10:58.989Z</time></trkpt><trkpt lat="36.9055033" lon="15.025089"><ele>294.0</ele><time>2026-04-04T17:10:59.989Z</time></trkpt><trkpt lat="36.9055677" lon="15.025194"><ele>294.0</ele><time>2026-04-04T17:11:00.989Z</time></trkpt><trkpt lat="36.905642" lon="15.025287"><ele>294.0</ele><time>2026-04-04T17:11:01.989Z</time></trkpt><trkpt lat="36.9057265" lon="15.0253662"><ele>294.0</ele><time>2026-04-04T17:11:02.989Z</time></trkpt><trkpt lat="36.9058191" lon="15.0254389"><ele>294.0</ele><time>2026-04-04T17:11:03.989Z</time></trkpt><trkpt lat="36.9059205" lon="15.0254952"><ele>294.0</ele><time>2026-04-04T17:11:04.989Z</time></trkpt><trkpt lat="36.9060263" lon="15.0255384"><ele>296.0</ele><time>2026-04-04T17:11:05.989Z</time></trkpt><trkpt lat="36.9061263" lon="15.0255678"><ele>298.0</ele><time>2026-04-04T17:11:06.989Z</time></trkpt><trkpt lat="36.9062195" lon="15.0255867"><ele>300.0</ele><time>2026-04-04T17:11:07.989Z</time></trkpt><trkpt lat="36.9063041" lon="15.0255928"><ele>302.0</ele><time>2026-04-04T17:11:08.989Z</time></trkpt><trkpt lat="36.9063815" lon="15.0255923"><ele>304.0</ele><time>2026-04-04T17:11:09.989Z</time></trkpt><trkpt lat="36.9064562" lon="15.0256052"><ele>306.0</ele><time>2026-04-04T17:11:10.989Z</time></trkpt><trkpt lat="36.9065285" lon="15.0256407"><ele>306.0</ele><time>2026-04-04T17:11:11.989Z</time></trkpt><trkpt lat="36.9065893" lon="15.0257059"><ele>306.0</ele><time>2026-04-04T17:11:12.989Z</time></trkpt><trkpt lat="36.9066383" lon="15.0258092"><ele>306.0</ele><time>2026-04-04T17:11:13.989Z</time></trkpt><trkpt lat="36.9066748" lon="15.0259133"><ele>306.0</ele><time>2026-04-04T17:11:14.989Z</time></trkpt><trkpt lat="36.9067174" lon="15.0260083"><ele>306.0</ele><time>2026-04-04T17:11:15.989Z</time></trkpt><trkpt lat="36.9067711" lon="15.0260861"><ele>306.0</ele><time>2026-04-04T17:11:16.989Z</time></trkpt><trkpt lat="36.9068371" lon="15.0261458"><ele>304.40000000000003</ele><time>2026-04-04T17:11:17.989Z</time></trkpt><trkpt lat="36.9069151" lon="15.0261912"><ele>302.8</ele><time>2026-04-04T17:11:18.989Z</time></trkpt><trkpt lat="36.9070047" lon="15.0262197"><ele>301.20000000000005</ele><time>2026-04-04T17:11:19.988Z</time></trkpt><trkpt lat="36.9071016" lon="15.0262418"><ele>299.6</ele><time>2026-04-04T17:11:20.989Z</time></trkpt><trkpt lat="36.9072042" lon="15.0262608"><ele>298.0</ele><time>2026-04-04T17:11:21.989Z</time></trkpt><trkpt lat="36.9073053" lon="15.0262771"><ele>298.0</ele><time>2026-04-04T17:11:22.986Z</time></trkpt><trkpt lat="36.9074054" lon="15.0262945"><ele>298.0</ele><time>2026-04-04T17:11:23.986Z</time></trkpt><trkpt lat="36.9074972" lon="15.026307"><ele>298.0</ele><time>2026-04-04T17:11:24.989Z</time></trkpt><trkpt lat="36.9075833" lon="15.0263082"><ele>298.0</ele><time>2026-04-04T17:11:25.989Z</time></trkpt><trkpt lat="36.9076623" lon="15.0263045"><ele>298.0</ele><time>2026-04-04T17:11:26.989Z</time></trkpt><trkpt lat="36.907734" lon="15.026293"><ele>298.0</ele><time>2026-04-04T17:11:27.989Z</time></trkpt><trkpt lat="36.9077984" lon="15.0262873"><ele>298.2</ele><time>2026-04-04T17:11:28.989Z</time></trkpt><trkpt lat="36.9078879" lon="15.0263459"><ele>298.4</ele><time>2026-04-04T17:11:30.989Z</time></trkpt><trkpt lat="36.9079039" lon="15.0264809"><ele>298.59999999999997</ele><time>2026-04-04T17:11:32.989Z</time></trkpt><trkpt lat="36.9078761" lon="15.0265655"><ele>298.8</ele><time>2026-04-04T17:11:34.989Z</time></trkpt><trkpt lat="36.9077716" lon="15.0266631"><ele>299.0</ele><time>2026-04-04T17:11:36.989Z</time></trkpt><trkpt lat="36.9077087" lon="15.0267471"><ele>299.0</ele><time>2026-04-04T17:11:37.989Z</time></trkpt><trkpt lat="36.9076478" lon="15.0268414"><ele>299.0</ele><time>2026-04-04T17:11:38.989Z</time></trkpt><trkpt lat="36.9075878" lon="15.0269284"><ele>299.0</ele><time>2026-04-04T17:11:39.989Z</time></trkpt><trkpt lat="36.9075312" lon="15.0270167"><ele>299.0</ele><time>2026-04-04T17:11:40.989Z</time></trkpt><trkpt lat="36.9074849" lon="15.0271122"><ele>299.0</ele><time>2026-04-04T17:11:41.989Z</time></trkpt><trkpt lat="36.9074559" lon="15.0272167"><ele>295.59999999999997</ele><time>2026-04-04T17:11:42.989Z</time></trkpt><trkpt lat="36.9074408" lon="15.0273336"><ele>292.2</ele><time>2026-04-04T17:11:43.989Z</time></trkpt><trkpt lat="36.9074329" lon="15.0274557"><ele>288.79999999999995</ele><time>2026-04-04T17:11:44.989Z</time></trkpt><trkpt lat="36.9074214" lon="15.0275881"><ele>285.4</ele><time>2026-04-04T17:11:45.989Z</time></trkpt><trkpt lat="36.907383" lon="15.0277293"><ele>282.0</ele><time>2026-04-04T17:11:46.989Z</time></trkpt><trkpt lat="36.9073174" lon="15.0278677"><ele>281.0</ele><time>2026-04-04T17:11:47.989Z</time></trkpt><trkpt lat="36.9072611" lon="15.0280055"><ele>280.0</ele><time>2026-04-04T17:11:48.989Z</time></trkpt><trkpt lat="36.907212" lon="15.0281491"><ele>279.0</ele><time>2026-04-04T17:11:49.989Z</time></trkpt><trkpt lat="36.9071663" lon="15.028296"><ele>278.0</ele><time>2026-04-04T17:11:50.989Z</time></trkpt><trkpt lat="36.9071287" lon="15.0284415"><ele>276.75</ele><time>2026-04-04T17:11:51.989Z</time></trkpt><trkpt lat="36.907101" lon="15.0285844"><ele>275.5</ele><time>2026-04-04T17:11:52.989Z</time></trkpt><trkpt lat="36.9070879" lon="15.0287258"><ele>274.25</ele><time>2026-04-04T17:11:53.989Z</time></trkpt><trkpt lat="36.9070921" lon="15.0288646"><ele>273.0</ele><time>2026-04-04T17:11:54.989Z</time></trkpt><trkpt lat="36.9071182" lon="15.0289964"><ele>273.0</ele><time>2026-04-04T17:11:55.989Z</time></trkpt><trkpt lat="36.907167" lon="15.0291156"><ele>273.0</ele><time>2026-04-04T17:11:56.989Z</time></trkpt><trkpt lat="36.907237" lon="15.0292308"><ele>273.0</ele><time>2026-04-04T17:11:57.989Z</time></trkpt><trkpt lat="36.9073081" lon="15.0293468"><ele>273.0</ele><time>2026-04-04T17:11:58.989Z</time></trkpt><trkpt lat="36.9073768" lon="15.0294533"><ele>273.0</ele><time>2026-04-04T17:11:59.989Z</time></trkpt><trkpt lat="36.9074392" lon="15.02955"><ele>272.0</ele><time>2026-04-04T17:12:00.989Z</time></trkpt><trkpt lat="36.9074908" lon="15.0296439"><ele>271.0</ele><time>2026-04-04T17:12:01.989Z</time></trkpt><trkpt lat="36.9075272" lon="15.0297378"><ele>270.0</ele><time>2026-04-04T17:12:02.989Z</time></trkpt><trkpt lat="36.907539" lon="15.0298382"><ele>269.0</ele><time>2026-04-04T17:12:03.989Z</time></trkpt><trkpt lat="36.9075262" lon="15.0299486"><ele>268.0</ele><time>2026-04-04T17:12:04.989Z</time></trkpt><trkpt lat="36.9074978" lon="15.030077"><ele>266.25</ele><time>2026-04-04T17:12:05.989Z</time></trkpt><trkpt lat="36.9074577" lon="15.0302184"><ele>264.5</ele><time>2026-04-04T17:12:06.989Z</time></trkpt><trkpt lat="36.9074162" lon="15.030365"><ele>262.75</ele><time>2026-04-04T17:12:07.989Z</time></trkpt><trkpt lat="36.9073729" lon="15.0305096"><ele>261.0</ele><time>2026-04-04T17:12:08.989Z</time></trkpt><trkpt lat="36.9073278" lon="15.0306559"><ele>259.3333333333333</ele><time>2026-04-04T17:12:09.989Z</time></trkpt><trkpt lat="36.9072734" lon="15.0308201"><ele>257.66666666666663</ele><time>2026-04-04T17:12:10.989Z</time></trkpt><trkpt lat="36.907208" lon="15.0310108"><ele>256.0</ele><time>2026-04-04T17:12:11.988Z</time></trkpt><trkpt lat="36.9071264" lon="15.0312148"><ele>256.0</ele><time>2026-04-04T17:12:12.989Z</time></trkpt><trkpt lat="36.9070275" lon="15.0314368"><ele>256.0</ele><time>2026-04-04T17:12:13.988Z</time></trkpt><trkpt lat="36.9069289" lon="15.0316551"><ele>256.0</ele><time>2026-04-04T17:12:14.989Z</time></trkpt><trkpt lat="36.9068356" lon="15.0318618"><ele>254.33333333333331</ele><time>2026-04-04T17:12:15.989Z</time></trkpt><trkpt lat="36.9067464" lon="15.0320592"><ele>252.66666666666669</ele><time>2026-04-04T17:12:16.986Z</time></trkpt><trkpt lat="36.9066557" lon="15.0322441"><ele>251.0</ele><time>2026-04-04T17:12:17.989Z</time></trkpt><trkpt lat="36.9065663" lon="15.0324175"><ele>249.66666666666669</ele><time>2026-04-04T17:12:18.988Z</time></trkpt><trkpt lat="36.9064784" lon="15.032584"><ele>248.33333333333331</ele><time>2026-04-04T17:12:19.989Z</time></trkpt><trkpt lat="36.9063884" lon="15.0327534"><ele>247.0</ele><time>2026-04-04T17:12:20.986Z</time></trkpt><trkpt lat="36.9062962" lon="15.0329203"><ele>247.0</ele><time>2026-04-04T17:12:21.989Z</time></trkpt><trkpt lat="36.9062042" lon="15.0330723"><ele>247.0</ele><time>2026-04-04T17:12:22.989Z</time></trkpt><trkpt lat="36.9061056" lon="15.0332178"><ele>247.0</ele><time>2026-04-04T17:12:23.989Z</time></trkpt><trkpt lat="36.9059997" lon="15.0333598"><ele>245.66666666666666</ele><time>2026-04-04T17:12:24.989Z</time></trkpt><trkpt lat="36.9058876" lon="15.0334934"><ele>244.33333333333331</ele><time>2026-04-04T17:12:25.989Z</time></trkpt><trkpt lat="36.9057685" lon="15.0336131"><ele>243.0</ele><time>2026-04-04T17:12:26.988Z</time></trkpt><trkpt lat="36.9056396" lon="15.0337264"><ele>243.0</ele><time>2026-04-04T17:12:27.989Z</time></trkpt><trkpt lat="36.9055087" lon="15.0338378"><ele>243.0</ele><time>2026-04-04T17:12:28.989Z</time></trkpt><trkpt lat="36.9053783" lon="15.0339496"><ele>243.0</ele><time>2026-04-04T17:12:29.989Z</time></trkpt><trkpt lat="36.9052512" lon="15.034073"><ele>242.33333333333331</ele><time>2026-04-04T17:12:30.989Z</time></trkpt><trkpt lat="36.9051337" lon="15.034204"><ele>241.66666666666666</ele><time>2026-04-04T17:12:31.989Z</time></trkpt><trkpt lat="36.9050292" lon="15.0343386"><ele>241.0</ele><time>2026-04-04T17:12:32.989Z</time></trkpt><trkpt lat="36.9049249" lon="15.034481"><ele>240.66666666666666</ele><time>2026-04-04T17:12:33.989Z</time></trkpt><trkpt lat="36.9048208" lon="15.0346379"><ele>240.33333333333331</ele><time>2026-04-04T17:12:34.989Z</time></trkpt><trkpt lat="36.9047145" lon="15.0348103"><ele>240.0</ele><time>2026-04-04T17:12:35.989Z</time></trkpt><trkpt lat="36.9046021" lon="15.035004"><ele>239.66666666666669</ele><time>2026-04-04T17:12:36.989Z</time></trkpt><trkpt lat="36.9044862" lon="15.0352076"><ele>239.33333333333334</ele><time>2026-04-04T17:12:37.989Z</time></trkpt><trkpt lat="36.9043713" lon="15.0354143"><ele>239.0</ele><time>2026-04-04T17:12:38.989Z</time></trkpt><trkpt lat="36.9042612" lon="15.0356135"><ele>237.33333333333334</ele><time>2026-04-04T17:12:39.989Z</time></trkpt><trkpt lat="36.9041511" lon="15.0358175"><ele>235.66666666666669</ele><time>2026-04-04T17:12:40.989Z</time></trkpt><trkpt lat="36.9040493" lon="15.036016"><ele>234.0</ele><time>2026-04-04T17:12:41.989Z</time></trkpt><trkpt lat="36.9039495" lon="15.0362143"><ele>234.0</ele><time>2026-04-04T17:12:42.989Z</time></trkpt><trkpt lat="36.9038531" lon="15.0364053"><ele>234.0</ele><time>2026-04-04T17:12:43.989Z</time></trkpt><trkpt lat="36.9037592" lon="15.0365913"><ele>234.0</ele><time>2026-04-04T17:12:44.989Z</time></trkpt><trkpt lat="36.9036679" lon="15.0367719"><ele>232.66666666666669</ele><time>2026-04-04T17:12:45.989Z</time></trkpt><trkpt lat="36.9035812" lon="15.036947"><ele>231.33333333333334</ele><time>2026-04-04T17:12:46.989Z</time></trkpt><trkpt lat="36.9034935" lon="15.0371254"><ele>230.0</ele><time>2026-04-04T17:12:47.989Z</time></trkpt><trkpt lat="36.9034031" lon="15.0373091"><ele>226.66666666666669</ele><time>2026-04-04T17:12:48.989Z</time></trkpt><trkpt lat="36.9033102" lon="15.0374949"><ele>223.33333333333331</ele><time>2026-04-04T17:12:49.989Z</time></trkpt><trkpt lat="36.9032165" lon="15.0376739"><ele>220.0</ele><time>2026-04-04T17:12:50.989Z</time></trkpt><trkpt lat="36.9031246" lon="15.0378434"><ele>220.0</ele><time>2026-04-04T17:12:51.989Z</time></trkpt><trkpt lat="36.9030396" lon="15.0380086"><ele>220.0</ele><time>2026-04-04T17:12:52.989Z</time></trkpt><trkpt lat="36.9029553" lon="15.0381708"><ele>220.0</ele><time>2026-04-04T17:12:53.989Z</time></trkpt><trkpt lat="36.9028707" lon="15.0383386"><ele>218.0</ele><time>2026-04-04T17:12:54.989Z</time></trkpt><trkpt lat="36.9027803" lon="15.0385097"><ele>216.0</ele><time>2026-04-04T17:12:55.989Z</time></trkpt><trkpt lat="36.9026904" lon="15.0386796"><ele>214.0</ele><time>2026-04-04T17:12:56.989Z</time></trkpt><trkpt lat="36.9026029" lon="15.0388423"><ele>213.66666666666666</ele><time>2026-04-04T17:12:57.989Z</time></trkpt><trkpt lat="36.9025149" lon="15.0390029"><ele>213.33333333333331</ele><time>2026-04-04T17:12:58.989Z</time></trkpt><trkpt lat="36.9024315" lon="15.0391586"><ele>213.0</ele><time>2026-04-04T17:12:59.989Z</time></trkpt><trkpt lat="36.9023466" lon="15.0393262"><ele>212.0</ele><time>2026-04-04T17:13:00.989Z</time></trkpt><trkpt lat="36.9022628" lon="15.0394961"><ele>211.0</ele><time>2026-04-04T17:13:01.989Z</time></trkpt><trkpt lat="36.902186" lon="15.0396762"><ele>210.0</ele><time>2026-04-04T17:13:02.989Z</time></trkpt><trkpt lat="36.9021214" lon="15.039852"><ele>209.66666666666669</ele><time>2026-04-04T17:13:03.989Z</time></trkpt><trkpt lat="36.9020605" lon="15.0400348"><ele>209.33333333333334</ele><time>2026-04-04T17:13:04.989Z</time></trkpt><trkpt lat="36.9020027" lon="15.0402133"><ele>209.0</ele><time>2026-04-04T17:13:05.989Z</time></trkpt><trkpt lat="36.9019481" lon="15.040379"><ele>209.0</ele><time>2026-04-04T17:13:06.989Z</time></trkpt><trkpt lat="36.9018929" lon="15.0405284"><ele>209.0</ele><time>2026-04-04T17:13:07.989Z</time></trkpt><trkpt lat="36.9018316" lon="15.0406659"><ele>209.0</ele><time>2026-04-04T17:13:08.989Z</time></trkpt><trkpt lat="36.9017634" lon="15.0407991"><ele>209.0</ele><time>2026-04-04T17:13:09.989Z</time></trkpt><trkpt lat="36.9016863" lon="15.0409195"><ele>210.0</ele><time>2026-04-04T17:13:10.989Z</time></trkpt><trkpt lat="36.9016104" lon="15.041033"><ele>211.0</ele><time>2026-04-04T17:13:11.989Z</time></trkpt><trkpt lat="36.9015322" lon="15.0411441"><ele>212.0</ele><time>2026-04-04T17:13:12.989Z</time></trkpt><trkpt lat="36.90145" lon="15.0412508"><ele>213.0</ele><time>2026-04-04T17:13:13.989Z</time></trkpt><trkpt lat="36.9013796" lon="15.041344"><ele>213.0</ele><time>2026-04-04T17:13:14.989Z</time></trkpt><trkpt lat="36.90132" lon="15.0414218"><ele>213.0</ele><time>2026-04-04T17:13:15.989Z</time></trkpt><trkpt lat="36.9012609" lon="15.0414942"><ele>213.0</ele><time>2026-04-04T17:13:16.989Z</time></trkpt><trkpt lat="36.901187" lon="15.0415627"><ele>213.0</ele><time>2026-04-04T17:13:17.989Z</time></trkpt><trkpt lat="36.9010938" lon="15.0416231"><ele>213.0</ele><time>2026-04-04T17:13:18.989Z</time></trkpt><trkpt lat="36.900982" lon="15.0416782"><ele>211.75</ele><time>2026-04-04T17:13:19.989Z</time></trkpt><trkpt lat="36.9008589" lon="15.0417462"><ele>210.5</ele><time>2026-04-04T17:13:20.989Z</time></trkpt><trkpt lat="36.9007199" lon="15.0418213"><ele>209.25</ele><time>2026-04-04T17:13:21.989Z</time></trkpt><trkpt lat="36.900582" lon="15.0419"><ele>208.0</ele><time>2026-04-04T17:13:22.989Z</time></trkpt><trkpt lat="36.9004422" lon="15.0419865"><ele>208.0</ele><time>2026-04-04T17:13:23.989Z</time></trkpt><trkpt lat="36.900309" lon="15.0420703"><ele>208.0</ele><time>2026-04-04T17:13:24.989Z</time></trkpt><trkpt lat="36.9001886" lon="15.0421384"><ele>208.0</ele><time>2026-04-04T17:13:25.989Z</time></trkpt><trkpt lat="36.9000817" lon="15.0421881"><ele>208.0</ele><time>2026-04-04T17:13:26.989Z</time></trkpt><trkpt lat="36.8999813" lon="15.0422126"><ele>207.25</ele><time>2026-04-04T17:13:27.989Z</time></trkpt><trkpt lat="36.8998784" lon="15.0421985"><ele>206.5</ele><time>2026-04-04T17:13:28.989Z</time></trkpt><trkpt lat="36.8997644" lon="15.0421396"><ele>205.75</ele><time>2026-04-04T17:13:29.989Z</time></trkpt><trkpt lat="36.8996392" lon="15.0420523"><ele>205.0</ele><time>2026-04-04T17:13:30.989Z</time></trkpt><trkpt lat="36.8995001" lon="15.0419545"><ele>205.0</ele><time>2026-04-04T17:13:31.989Z</time></trkpt><trkpt lat="36.8993655" lon="15.0418722"><ele>205.0</ele><time>2026-04-04T17:13:32.987Z</time></trkpt><trkpt lat="36.8992356" lon="15.0418056"><ele>205.0</ele><time>2026-04-04T17:13:33.989Z</time></trkpt><trkpt lat="36.8991044" lon="15.0417593"><ele>205.0</ele><time>2026-04-04T17:13:34.989Z</time></trkpt><trkpt lat="36.8989699" lon="15.0417291"><ele>204.75</ele><time>2026-04-04T17:13:35.989Z</time></trkpt><trkpt lat="36.898844" lon="15.0417115"><ele>204.5</ele><time>2026-04-04T17:13:36.989Z</time></trkpt><trkpt lat="36.8987307" lon="15.0416838"><ele>204.25</ele><time>2026-04-04T17:13:37.988Z</time></trkpt><trkpt lat="36.8986268" lon="15.0416311"><ele>204.0</ele><time>2026-04-04T17:13:38.988Z</time></trkpt><trkpt lat="36.8985346" lon="15.0415535"><ele>204.0</ele><time>2026-04-04T17:13:39.989Z</time></trkpt><trkpt lat="36.8984464" lon="15.0414539"><ele>204.0</ele><time>2026-04-04T17:13:40.988Z</time></trkpt><trkpt lat="36.8983555" lon="15.041342"><ele>204.0</ele><time>2026-04-04T17:13:41.989Z</time></trkpt><trkpt lat="36.8982574" lon="15.0412211"><ele>204.0</ele><time>2026-04-04T17:13:42.989Z</time></trkpt><trkpt lat="36.8981556" lon="15.0411033"><ele>202.0</ele><time>2026-04-04T17:13:43.987Z</time></trkpt><trkpt lat="36.898054" lon="15.0410061"><ele>200.0</ele><time>2026-04-04T17:13:44.989Z</time></trkpt><trkpt lat="36.8979479" lon="15.0409229"><ele>198.0</ele><time>2026-04-04T17:13:45.989Z</time></trkpt><trkpt lat="36.8978323" lon="15.040849"><ele>196.0</ele><time>2026-04-04T17:13:46.989Z</time></trkpt><trkpt lat="36.8977157" lon="15.0407846"><ele>196.0</ele><time>2026-04-04T17:13:47.989Z</time></trkpt><trkpt lat="36.8976003" lon="15.0407265"><ele>196.0</ele><time>2026-04-04T17:13:48.989Z</time></trkpt><trkpt lat="36.8974831" lon="15.0406757"><ele>196.0</ele><time>2026-04-04T17:13:49.989Z</time></trkpt><trkpt lat="36.8973637" lon="15.0406402"><ele>196.0</ele><time>2026-04-04T17:13:50.989Z</time></trkpt><trkpt lat="36.8972387" lon="15.0406172"><ele>194.0</ele><time>2026-04-04T17:13:51.989Z</time></trkpt><trkpt lat="36.8971164" lon="15.0406185"><ele>192.0</ele><time>2026-04-04T17:13:52.989Z</time></trkpt><trkpt lat="36.8969899" lon="15.0406454"><ele>190.0</ele><time>2026-04-04T17:13:53.989Z</time></trkpt><trkpt lat="36.8968651" lon="15.0406979"><ele>188.0</ele><time>2026-04-04T17:13:54.989Z</time></trkpt><trkpt lat="36.8967467" lon="15.0407667"><ele>185.75</ele><time>2026-04-04T17:13:55.989Z</time></trkpt><trkpt lat="36.8966268" lon="15.0408419"><ele>183.5</ele><time>2026-04-04T17:13:56.989Z</time></trkpt><trkpt lat="36.8965136" lon="15.0409109"><ele>181.25</ele><time>2026-04-04T17:13:57.989Z</time></trkpt><trkpt lat="36.8964069" lon="15.0409771"><ele>179.0</ele><time>2026-04-04T17:13:58.989Z</time></trkpt><trkpt lat="36.8963036" lon="15.0410373"><ele>179.0</ele><time>2026-04-04T17:13:59.989Z</time></trkpt><trkpt lat="36.8961951" lon="15.041094"><ele>179.0</ele><time>2026-04-04T17:14:00.989Z</time></trkpt><trkpt lat="36.8960887" lon="15.041138"><ele>179.0</ele><time>2026-04-04T17:14:01.989Z</time></trkpt><trkpt lat="36.8959792" lon="15.0411592"><ele>179.0</ele><time>2026-04-04T17:14:02.989Z</time></trkpt><trkpt lat="36.8958819" lon="15.0411599"><ele>179.0</ele><time>2026-04-04T17:14:03.989Z</time></trkpt><trkpt lat="36.8957823" lon="15.0411371"><ele>177.75</ele><time>2026-04-04T17:14:04.989Z</time></trkpt><trkpt lat="36.895688" lon="15.0410848"><ele>176.5</ele><time>2026-04-04T17:14:05.989Z</time></trkpt><trkpt lat="36.8955939" lon="15.0410246"><ele>175.25</ele><time>2026-04-04T17:14:06.989Z</time></trkpt><trkpt lat="36.8954809" lon="15.0409846"><ele>174.0</ele><time>2026-04-04T17:14:07.989Z</time></trkpt><trkpt lat="36.8953573" lon="15.0409836"><ele>174.0</ele><time>2026-04-04T17:14:08.989Z</time></trkpt><trkpt lat="36.8952318" lon="15.0410082"><ele>174.0</ele><time>2026-04-04T17:14:09.989Z</time></trkpt><trkpt lat="36.8951156" lon="15.0410475"><ele>174.0</ele><time>2026-04-04T17:14:10.989Z</time></trkpt><trkpt lat="36.8949903" lon="15.0410873"><ele>174.0</ele><time>2026-04-04T17:14:11.989Z</time></trkpt><trkpt lat="36.894869" lon="15.0411243"><ele>172.5</ele><time>2026-04-04T17:14:12.989Z</time></trkpt><trkpt lat="36.8947437" lon="15.0411539"><ele>171.0</ele><time>2026-04-04T17:14:13.989Z</time></trkpt><trkpt lat="36.8946206" lon="15.0411629"><ele>169.5</ele><time>2026-04-04T17:14:14.989Z</time></trkpt><trkpt lat="36.894488" lon="15.041154"><ele>168.0</ele><time>2026-04-04T17:14:15.988Z</time></trkpt><trkpt lat="36.8943541" lon="15.0411398"><ele>166.25</ele><time>2026-04-04T17:14:16.986Z</time></trkpt><trkpt lat="36.8942305" lon="15.0411195"><ele>164.5</ele><time>2026-04-04T17:14:17.989Z</time></trkpt><trkpt lat="36.8940993" lon="15.0411076"><ele>162.75</ele><time>2026-04-04T17:14:18.989Z</time></trkpt><trkpt lat="36.8939643" lon="15.0411139"><ele>161.0</ele><time>2026-04-04T17:14:19.986Z</time></trkpt><trkpt lat="36.8938322" lon="15.0411388"><ele>161.0</ele><time>2026-04-04T17:14:20.989Z</time></trkpt><trkpt lat="36.8937077" lon="15.0411742"><ele>161.0</ele><time>2026-04-04T17:14:21.988Z</time></trkpt><trkpt lat="36.8935832" lon="15.0412151"><ele>161.0</ele><time>2026-04-04T17:14:22.989Z</time></trkpt><trkpt lat="36.8934498" lon="15.0412589"><ele>161.0</ele><time>2026-04-04T17:14:23.989Z</time></trkpt><trkpt lat="36.8933114" lon="15.041307"><ele>158.5</ele><time>2026-04-04T17:14:24.987Z</time></trkpt><trkpt lat="36.8931782" lon="15.0413569"><ele>156.0</ele><time>2026-04-04T17:14:25.989Z</time></trkpt><trkpt lat="36.8930547" lon="15.0414141"><ele>153.5</ele><time>2026-04-04T17:14:26.989Z</time></trkpt><trkpt lat="36.892932" lon="15.041487"><ele>151.0</ele><time>2026-04-04T17:14:27.989Z</time></trkpt><trkpt lat="36.8928139" lon="15.0415729"><ele>150.75</ele><time>2026-04-04T17:14:28.989Z</time></trkpt><trkpt lat="36.8927022" lon="15.0416639"><ele>150.5</ele><time>2026-04-04T17:14:29.989Z</time></trkpt><trkpt lat="36.8925951" lon="15.0417643"><ele>150.25</ele><time>2026-04-04T17:14:30.989Z</time></trkpt><trkpt lat="36.8924979" lon="15.0418732"><ele>150.0</ele><time>2026-04-04T17:14:31.989Z</time></trkpt><trkpt lat="36.8924199" lon="15.0419901"><ele>149.0</ele><time>2026-04-04T17:14:32.989Z</time></trkpt><trkpt lat="36.8923572" lon="15.0421158"><ele>148.0</ele><time>2026-04-04T17:14:33.989Z</time></trkpt><trkpt lat="36.8923106" lon="15.0422535"><ele>147.0</ele><time>2026-04-04T17:14:34.989Z</time></trkpt><trkpt lat="36.8922627" lon="15.0423995"><ele>146.0</ele><time>2026-04-04T17:14:35.989Z</time></trkpt><trkpt lat="36.8922084" lon="15.0425365"><ele>146.0</ele><time>2026-04-04T17:14:36.989Z</time></trkpt><trkpt lat="36.8921482" lon="15.0426643"><ele>146.0</ele><time>2026-04-04T17:14:37.989Z</time></trkpt><trkpt lat="36.8920763" lon="15.0427823"><ele>146.0</ele><time>2026-04-04T17:14:38.989Z</time></trkpt><trkpt lat="36.8919985" lon="15.0428969"><ele>146.0</ele><time>2026-04-04T17:14:39.989Z</time></trkpt><trkpt lat="36.8919043" lon="15.0430104"><ele>146.0</ele><time>2026-04-04T17:14:40.989Z</time></trkpt><trkpt lat="36.8917871" lon="15.0431271"><ele>146.0</ele><time>2026-04-04T17:14:41.989Z</time></trkpt><trkpt lat="36.8916717" lon="15.0432464"><ele>146.0</ele><time>2026-04-04T17:14:42.989Z</time></trkpt><trkpt lat="36.8915561" lon="15.0433716"><ele>144.75</ele><time>2026-04-04T17:14:43.989Z</time></trkpt><trkpt lat="36.8914432" lon="15.0435037"><ele>143.5</ele><time>2026-04-04T17:14:44.989Z</time></trkpt><trkpt lat="36.8913367" lon="15.0436335"><ele>142.25</ele><time>2026-04-04T17:14:45.989Z</time></trkpt><trkpt lat="36.8912364" lon="15.0437647"><ele>141.0</ele><time>2026-04-04T17:14:46.986Z</time></trkpt><trkpt lat="36.8911386" lon="15.043913"><ele>141.0</ele><time>2026-04-04T17:14:47.989Z</time></trkpt><trkpt lat="36.8910474" lon="15.0440789"><ele>141.0</ele><time>2026-04-04T17:14:48.988Z</time></trkpt><trkpt lat="36.8909595" lon="15.0442536"><ele>141.0</ele><time>2026-04-04T17:14:49.989Z</time></trkpt><trkpt lat="36.8908794" lon="15.0444235"><ele>139.33333333333334</ele><time>2026-04-04T17:14:50.989Z</time></trkpt><trkpt lat="36.8908034" lon="15.0445852"><ele>137.66666666666669</ele><time>2026-04-04T17:14:51.989Z</time></trkpt><trkpt lat="36.8907221" lon="15.044743"><ele>136.0</ele><time>2026-04-04T17:14:52.989Z</time></trkpt><trkpt lat="36.8906242" lon="15.0448981"><ele>137.0</ele><time>2026-04-04T17:14:53.989Z</time></trkpt><trkpt lat="36.8905169" lon="15.0450371"><ele>138.0</ele><time>2026-04-04T17:14:54.989Z</time></trkpt><trkpt lat="36.8904172" lon="15.0451706"><ele>139.0</ele><time>2026-04-04T17:14:55.989Z</time></trkpt><trkpt lat="36.8903241" lon="15.0453065"><ele>140.0</ele><time>2026-04-04T17:14:56.989Z</time></trkpt><trkpt lat="36.8902345" lon="15.04544"><ele>140.0</ele><time>2026-04-04T17:14:57.989Z</time></trkpt><trkpt lat="36.8901476" lon="15.0455699"><ele>140.0</ele><time>2026-04-04T17:14:58.988Z</time></trkpt><trkpt lat="36.8900588" lon="15.0456944"><ele>140.0</ele><time>2026-04-04T17:14:59.989Z</time></trkpt><trkpt lat="36.8899687" lon="15.0458119"><ele>140.0</ele><time>2026-04-04T17:15:00.989Z</time></trkpt><trkpt lat="36.8898798" lon="15.0459209"><ele>138.25</ele><time>2026-04-04T17:15:01.989Z</time></trkpt><trkpt lat="36.8897884" lon="15.0460268"><ele>136.5</ele><time>2026-04-04T17:15:02.989Z</time></trkpt><trkpt lat="36.8896982" lon="15.0461351"><ele>134.75</ele><time>2026-04-04T17:15:03.989Z</time></trkpt><trkpt lat="36.8896047" lon="15.0462423"><ele>133.0</ele><time>2026-04-04T17:15:04.989Z</time></trkpt><trkpt lat="36.8895136" lon="15.046348"><ele>133.0</ele><time>2026-04-04T17:15:05.989Z</time></trkpt><trkpt lat="36.8894261" lon="15.046459"><ele>133.0</ele><time>2026-04-04T17:15:06.989Z</time></trkpt><trkpt lat="36.8893478" lon="15.0465832"><ele>133.0</ele><time>2026-04-04T17:15:07.989Z</time></trkpt><trkpt lat="36.8892769" lon="15.0467195"><ele>133.0</ele><time>2026-04-04T17:15:08.989Z</time></trkpt><trkpt lat="36.8892113" lon="15.0468711"><ele>133.0</ele><time>2026-04-04T17:15:09.989Z</time></trkpt><trkpt lat="36.88914" lon="15.0470255"><ele>133.0</ele><time>2026-04-04T17:15:10.989Z</time></trkpt><trkpt lat="36.8890644" lon="15.0471743"><ele>133.0</ele><time>2026-04-04T17:15:11.989Z</time></trkpt><trkpt lat="36.8889895" lon="15.0473266"><ele>133.0</ele><time>2026-04-04T17:15:12.989Z</time></trkpt><trkpt lat="36.888932" lon="15.0474936"><ele>133.75</ele><time>2026-04-04T17:15:13.989Z</time></trkpt><trkpt lat="36.888887" lon="15.0476693"><ele>134.5</ele><time>2026-04-04T17:15:14.989Z</time></trkpt><trkpt lat="36.8888476" lon="15.0478481"><ele>135.25</ele><time>2026-04-04T17:15:15.989Z</time></trkpt><trkpt lat="36.8888041" lon="15.0480252"><ele>136.0</ele><time>2026-04-04T17:15:16.988Z</time></trkpt><trkpt lat="36.8887592" lon="15.0481924"><ele>136.5</ele><time>2026-04-04T17:15:17.989Z</time></trkpt><trkpt lat="36.8887138" lon="15.0483483"><ele>137.0</ele><time>2026-04-04T17:15:18.989Z</time></trkpt><trkpt lat="36.8886639" lon="15.0484995"><ele>137.5</ele><time>2026-04-04T17:15:19.989Z</time></trkpt><trkpt lat="36.8886082" lon="15.0486488"><ele>138.0</ele><time>2026-04-04T17:15:20.989Z</time></trkpt><trkpt lat="36.88856" lon="15.0488077"><ele>138.0</ele><time>2026-04-04T17:15:21.989Z</time></trkpt><trkpt lat="36.8885287" lon="15.0489842"><ele>138.0</ele><time>2026-04-04T17:15:22.989Z</time></trkpt><trkpt lat="36.8885082" lon="15.0491548"><ele>138.0</ele><time>2026-04-04T17:15:23.989Z</time></trkpt><trkpt lat="36.8884928" lon="15.0493177"><ele>138.0</ele><time>2026-04-04T17:15:24.989Z</time></trkpt><trkpt lat="36.8884827" lon="15.0494719"><ele>138.0</ele><time>2026-04-04T17:15:25.989Z</time></trkpt><trkpt lat="36.8884719" lon="15.0496185"><ele>138.0</ele><time>2026-04-04T17:15:26.989Z</time></trkpt><trkpt lat="36.8884537" lon="15.049761"><ele>138.0</ele><time>2026-04-04T17:15:27.989Z</time></trkpt><trkpt lat="36.888417" lon="15.0499131"><ele>138.0</ele><time>2026-04-04T17:15:28.989Z</time></trkpt><trkpt lat="36.8883574" lon="15.0500666"><ele>138.0</ele><time>2026-04-04T17:15:29.989Z</time></trkpt><trkpt lat="36.8882933" lon="15.0502182"><ele>138.0</ele><time>2026-04-04T17:15:30.989Z</time></trkpt><trkpt lat="36.8882333" lon="15.0503606"><ele>138.0</ele><time>2026-04-04T17:15:31.989Z</time></trkpt><trkpt lat="36.888177" lon="15.0504996"><ele>138.0</ele><time>2026-04-04T17:15:32.989Z</time></trkpt><trkpt lat="36.8881259" lon="15.0506383"><ele>138.0</ele><time>2026-04-04T17:15:33.989Z</time></trkpt><trkpt lat="36.8880822" lon="15.0507779"><ele>138.0</ele><time>2026-04-04T17:15:34.989Z</time></trkpt><trkpt lat="36.8880392" lon="15.0509165"><ele>138.0</ele><time>2026-04-04T17:15:35.989Z</time></trkpt><trkpt lat="36.8879922" lon="15.0510515"><ele>138.0</ele><time>2026-04-04T17:15:36.989Z</time></trkpt><trkpt lat="36.8879349" lon="15.0511893"><ele>137.75</ele><time>2026-04-04T17:15:37.989Z</time></trkpt><trkpt lat="36.8878668" lon="15.0513291"><ele>137.5</ele><time>2026-04-04T17:15:38.989Z</time></trkpt><trkpt lat="36.8877958" lon="15.0514709"><ele>137.25</ele><time>2026-04-04T17:15:39.989Z</time></trkpt><trkpt lat="36.8877295" lon="15.0516116"><ele>137.0</ele><time>2026-04-04T17:15:40.989Z</time></trkpt><trkpt lat="36.88766" lon="15.051755"><ele>137.0</ele><time>2026-04-04T17:15:41.989Z</time></trkpt><trkpt lat="36.8875932" lon="15.0519025"><ele>137.0</ele><time>2026-04-04T17:15:42.989Z</time></trkpt><trkpt lat="36.8875277" lon="15.0520547"><ele>137.0</ele><time>2026-04-04T17:15:43.989Z</time></trkpt><trkpt lat="36.8874624" lon="15.0522118"><ele>137.0</ele><time>2026-04-04T17:15:44.989Z</time></trkpt><trkpt lat="36.8874009" lon="15.0523684"><ele>136.0</ele><time>2026-04-04T17:15:45.989Z</time></trkpt><trkpt lat="36.887346" lon="15.0525243"><ele>135.0</ele><time>2026-04-04T17:15:46.989Z</time></trkpt><trkpt lat="36.8872883" lon="15.0526881"><ele>134.0</ele><time>2026-04-04T17:15:47.989Z</time></trkpt><trkpt lat="36.887228" lon="15.0528529"><ele>133.0</ele><time>2026-04-04T17:15:48.989Z</time></trkpt><trkpt lat="36.8871684" lon="15.0530089"><ele>133.0</ele><time>2026-04-04T17:15:49.989Z</time></trkpt><trkpt lat="36.8871144" lon="15.0531616"><ele>133.0</ele><time>2026-04-04T17:15:50.989Z</time></trkpt><trkpt lat="36.8870669" lon="15.0533113"><ele>133.0</ele><time>2026-04-04T17:15:51.988Z</time></trkpt><trkpt lat="36.8870203" lon="15.0534677"><ele>133.0</ele><time>2026-04-04T17:15:52.989Z</time></trkpt><trkpt lat="36.8869705" lon="15.0536277"><ele>132.25</ele><time>2026-04-04T17:15:53.989Z</time></trkpt><trkpt lat="36.8869254" lon="15.0537929"><ele>131.5</ele><time>2026-04-04T17:15:54.989Z</time></trkpt><trkpt lat="36.8868873" lon="15.0539615"><ele>130.75</ele><time>2026-04-04T17:15:55.989Z</time></trkpt><trkpt lat="36.8868571" lon="15.054128"><ele>130.0</ele><time>2026-04-04T17:15:56.989Z</time></trkpt><trkpt lat="36.8868287" lon="15.0542884"><ele>128.75</ele><time>2026-04-04T17:15:57.989Z</time></trkpt><trkpt lat="36.8867986" lon="15.0544483"><ele>127.5</ele><time>2026-04-04T17:15:58.989Z</time></trkpt><trkpt lat="36.8867633" lon="15.0546101"><ele>126.25</ele><time>2026-04-04T17:15:59.989Z</time></trkpt><trkpt lat="36.8867201" lon="15.0547741"><ele>125.0</ele><time>2026-04-04T17:16:00.989Z</time></trkpt><trkpt lat="36.8866658" lon="15.0549376"><ele>123.75</ele><time>2026-04-04T17:16:01.988Z</time></trkpt><trkpt lat="36.8866023" lon="15.0551031"><ele>122.5</ele><time>2026-04-04T17:16:02.989Z</time></trkpt><trkpt lat="36.8865362" lon="15.0552712"><ele>121.25</ele><time>2026-04-04T17:16:03.989Z</time></trkpt><trkpt lat="36.88647" lon="15.0554421"><ele>120.0</ele><time>2026-04-04T17:16:04.989Z</time></trkpt><trkpt lat="36.8864062" lon="15.0556152"><ele>119.5</ele><time>2026-04-04T17:16:05.987Z</time></trkpt><trkpt lat="36.8863475" lon="15.0557882"><ele>119.0</ele><time>2026-04-04T17:16:06.989Z</time></trkpt><trkpt lat="36.8862897" lon="15.0559566"><ele>118.5</ele><time>2026-04-04T17:16:07.989Z</time></trkpt><trkpt lat="36.8862356" lon="15.056122"><ele>118.0</ele><time>2026-04-04T17:16:08.987Z</time></trkpt><trkpt lat="36.8861808" lon="15.0562867"><ele>118.0</ele><time>2026-04-04T17:16:09.989Z</time></trkpt><trkpt lat="36.8861283" lon="15.0564572"><ele>118.0</ele><time>2026-04-04T17:16:10.987Z</time></trkpt><trkpt lat="36.8860752" lon="15.0566299"><ele>118.0</ele><time>2026-04-04T17:16:11.988Z</time></trkpt><trkpt lat="36.8860195" lon="15.0568102"><ele>118.0</ele><time>2026-04-04T17:16:12.989Z</time></trkpt><trkpt lat="36.8859619" lon="15.0569974"><ele>115.66666666666667</ele><time>2026-04-04T17:16:13.989Z</time></trkpt><trkpt lat="36.8858988" lon="15.0571922"><ele>113.33333333333334</ele><time>2026-04-04T17:16:14.989Z</time></trkpt><trkpt lat="36.8858278" lon="15.0573886"><ele>111.0</ele><time>2026-04-04T17:16:15.985Z</time></trkpt><trkpt lat="36.885746" lon="15.0575726"><ele>110.66666666666666</ele><time>2026-04-04T17:16:16.989Z</time></trkpt><trkpt lat="36.8856643" lon="15.0577557"><ele>110.33333333333333</ele><time>2026-04-04T17:16:17.989Z</time></trkpt><trkpt lat="36.8855812" lon="15.0579339"><ele>110.0</ele><time>2026-04-04T17:16:18.989Z</time></trkpt><trkpt lat="36.8855029" lon="15.0581044"><ele>110.0</ele><time>2026-04-04T17:16:19.989Z</time></trkpt><trkpt lat="36.8854265" lon="15.0582674"><ele>110.0</ele><time>2026-04-04T17:16:20.989Z</time></trkpt><trkpt lat="36.8853538" lon="15.0584343"><ele>110.0</ele><time>2026-04-04T17:16:21.989Z</time></trkpt><trkpt lat="36.8852782" lon="15.0586058"><ele>108.66666666666666</ele><time>2026-04-04T17:16:22.989Z</time></trkpt><trkpt lat="36.8851994" lon="15.0587821"><ele>107.33333333333334</ele><time>2026-04-04T17:16:23.989Z</time></trkpt><trkpt lat="36.8851191" lon="15.0589588"><ele>106.0</ele><time>2026-04-04T17:16:24.989Z</time></trkpt><trkpt lat="36.8850374" lon="15.0591344"><ele>105.0</ele><time>2026-04-04T17:16:25.989Z</time></trkpt><trkpt lat="36.8849605" lon="15.0593081"><ele>104.0</ele><time>2026-04-04T17:16:26.989Z</time></trkpt><trkpt lat="36.8848869" lon="15.0594759"><ele>103.0</ele><time>2026-04-04T17:16:27.989Z</time></trkpt><trkpt lat="36.8848153" lon="15.0596363"><ele>103.0</ele><time>2026-04-04T17:16:28.989Z</time></trkpt><trkpt lat="36.8847468" lon="15.0597922"><ele>103.0</ele><time>2026-04-04T17:16:29.989Z</time></trkpt><trkpt lat="36.8846816" lon="15.0599416"><ele>103.0</ele><time>2026-04-04T17:16:30.989Z</time></trkpt><trkpt lat="36.8846295" lon="15.0601006"><ele>103.0</ele><time>2026-04-04T17:16:31.989Z</time></trkpt><trkpt lat="36.8845901" lon="15.0602714"><ele>103.0</ele><time>2026-04-04T17:16:32.989Z</time></trkpt><trkpt lat="36.8845599" lon="15.0604428"><ele>103.0</ele><time>2026-04-04T17:16:33.987Z</time></trkpt><trkpt lat="36.8845346" lon="15.0606015"><ele>103.0</ele><time>2026-04-04T17:16:34.989Z</time></trkpt><trkpt lat="36.8845131" lon="15.0607427"><ele>103.0</ele><time>2026-04-04T17:16:35.989Z</time></trkpt><trkpt lat="36.884492" lon="15.0608777"><ele>101.5</ele><time>2026-04-04T17:16:36.989Z</time></trkpt><trkpt lat="36.8844674" lon="15.0610246"><ele>100.0</ele><time>2026-04-04T17:16:37.989Z</time></trkpt><trkpt lat="36.8844381" lon="15.0611703"><ele>98.5</ele><time>2026-04-04T17:16:38.989Z</time></trkpt><trkpt lat="36.884398" lon="15.0613208"><ele>97.0</ele><time>2026-04-04T17:16:39.989Z</time></trkpt><trkpt lat="36.8843466" lon="15.0614683"><ele>97.0</ele><time>2026-04-04T17:16:40.989Z</time></trkpt><trkpt lat="36.884297" lon="15.061607"><ele>97.0</ele><time>2026-04-04T17:16:41.989Z</time></trkpt><trkpt lat="36.8842534" lon="15.0617278"><ele>97.0</ele><time>2026-04-04T17:16:42.989Z</time></trkpt><trkpt lat="36.884215" lon="15.0618346"><ele>97.0</ele><time>2026-04-04T17:16:43.989Z</time></trkpt><trkpt lat="36.8841788" lon="15.0619383"><ele>97.0</ele><time>2026-04-04T17:16:44.989Z</time></trkpt><trkpt lat="36.8841497" lon="15.0620394"><ele>95.50000000000001</ele><time>2026-04-04T17:16:45.989Z</time></trkpt><trkpt lat="36.8841474" lon="15.0621483"><ele>94.0</ele><time>2026-04-04T17:16:46.988Z</time></trkpt><trkpt lat="36.8841577" lon="15.0622557"><ele>92.5</ele><time>2026-04-04T17:16:47.989Z</time></trkpt><trkpt lat="36.8841735" lon="15.0623576"><ele>91.0</ele><time>2026-04-04T17:16:48.988Z</time></trkpt><trkpt lat="36.884192" lon="15.0624435"><ele>89.5</ele><time>2026-04-04T17:16:49.989Z</time></trkpt><trkpt lat="36.8842105" lon="15.0625214"><ele>88.0</ele><time>2026-04-04T17:16:50.989Z</time></trkpt><trkpt lat="36.8842341" lon="15.062618"><ele>87.60000000000001</ele><time>2026-04-04T17:16:52.989Z</time></trkpt><trkpt lat="36.8842525" lon="15.0626999"><ele>87.2</ele><time>2026-04-04T17:16:57.989Z</time></trkpt><trkpt lat="36.8842642" lon="15.0627779"><ele>86.8</ele><time>2026-04-04T17:17:09.987Z</time></trkpt><trkpt lat="36.8841425" lon="15.0628557"><ele>86.4</ele><time>2026-04-04T17:17:13.989Z</time></trkpt><trkpt lat="36.8840439" lon="15.0628888"><ele>86.0</ele><time>2026-04-04T17:17:14.989Z</time></trkpt><trkpt lat="36.8838986" lon="15.0629391"><ele>85.66666666666667</ele><time>2026-04-04T17:17:15.988Z</time></trkpt><trkpt lat="36.8837485" lon="15.0629819"><ele>85.33333333333333</ele><time>2026-04-04T17:17:16.989Z</time></trkpt><trkpt lat="36.8835946" lon="15.0630054"><ele>85.0</ele><time>2026-04-04T17:17:17.988Z</time></trkpt><trkpt lat="36.8834444" lon="15.0630217"><ele>83.25</ele><time>2026-04-04T17:17:18.989Z</time></trkpt><trkpt lat="36.8833054" lon="15.0630333"><ele>81.5</ele><time>2026-04-04T17:17:19.989Z</time></trkpt><trkpt lat="36.8831748" lon="15.0630413"><ele>79.75</ele><time>2026-04-04T17:17:20.989Z</time></trkpt><trkpt lat="36.8830545" lon="15.0630475"><ele>78.0</ele><time>2026-04-04T17:17:21.989Z</time></trkpt><trkpt lat="36.8829446" lon="15.063051"><ele>78.0</ele><time>2026-04-04T17:17:22.989Z</time></trkpt><trkpt lat="36.882843" lon="15.063053"><ele>78.0</ele><time>2026-04-04T17:17:23.987Z</time></trkpt><trkpt lat="36.8827524" lon="15.0630388"><ele>78.0</ele><time>2026-04-04T17:17:24.989Z</time></trkpt><trkpt lat="36.882671" lon="15.063017"><ele>78.0</ele><time>2026-04-04T17:17:25.989Z</time></trkpt><trkpt lat="36.8825899" lon="15.0629995"><ele>78.0</ele><time>2026-04-04T17:17:26.989Z</time></trkpt><trkpt lat="36.8825036" lon="15.0630077"><ele>78.0</ele><time>2026-04-04T17:17:27.989Z</time></trkpt><trkpt lat="36.8824162" lon="15.0630477"><ele>78.0</ele><time>2026-04-04T17:17:28.989Z</time></trkpt><trkpt lat="36.8823382" lon="15.0631052"><ele>78.0</ele><time>2026-04-04T17:17:29.989Z</time></trkpt><trkpt lat="36.8822771" lon="15.0631581"><ele>78.0</ele><time>2026-04-04T17:17:30.989Z</time></trkpt><trkpt lat="36.882208" lon="15.0632262"><ele>78.0</ele><time>2026-04-04T17:17:32.989Z</time></trkpt><trkpt lat="36.8821147" lon="15.0633296"><ele>78.0</ele><time>2026-04-04T17:18:59.988Z</time></trkpt><trkpt lat="36.8820538" lon="15.0633943"><ele>78.0</ele><time>2026-04-04T17:19:00.989Z</time></trkpt><trkpt lat="36.8819986" lon="15.0634563"><ele>78.0</ele><time>2026-04-04T17:19:01.989Z</time></trkpt><trkpt lat="36.8819385" lon="15.0635241"><ele>78.0</ele><time>2026-04-04T17:19:02.988Z</time></trkpt><trkpt lat="36.8818748" lon="15.0635969"><ele>78.0</ele><time>2026-04-04T17:19:03.988Z</time></trkpt><trkpt lat="36.8818033" lon="15.063686"><ele>78.0</ele><time>2026-04-04T17:19:04.987Z</time></trkpt><trkpt lat="36.8817414" lon="15.0637725"><ele>78.0</ele><time>2026-04-04T17:19:05.989Z</time></trkpt><trkpt lat="36.8816708" lon="15.0638738"><ele>78.5</ele><time>2026-04-04T17:19:06.988Z</time></trkpt><trkpt lat="36.8815945" lon="15.0639841"><ele>79.0</ele><time>2026-04-04T17:19:07.989Z</time></trkpt><trkpt lat="36.8815126" lon="15.0641007"><ele>79.5</ele><time>2026-04-04T17:19:08.989Z</time></trkpt><trkpt lat="36.8814295" lon="15.0642204"><ele>80.0</ele><time>2026-04-04T17:19:09.989Z</time></trkpt><trkpt lat="36.8813555" lon="15.0643408"><ele>80.0</ele><time>2026-04-04T17:19:10.988Z</time></trkpt><trkpt lat="36.8812842" lon="15.0644713"><ele>80.0</ele><time>2026-04-04T17:19:11.989Z</time></trkpt><trkpt lat="36.8812199" lon="15.064625"><ele>80.0</ele><time>2026-04-04T17:19:12.989Z</time></trkpt><trkpt lat="36.8811614" lon="15.0647941"><ele>80.0</ele><time>2026-04-04T17:19:13.989Z</time></trkpt><trkpt lat="36.8811051" lon="15.0649731"><ele>79.5</ele><time>2026-04-04T17:19:14.986Z</time></trkpt><trkpt lat="36.8810523" lon="15.0651422"><ele>79.0</ele><time>2026-04-04T17:19:15.987Z</time></trkpt><trkpt lat="36.8810008" lon="15.0653014"><ele>78.5</ele><time>2026-04-04T17:19:16.989Z</time></trkpt><trkpt lat="36.8809512" lon="15.0654532"><ele>78.0</ele><time>2026-04-04T17:19:17.989Z</time></trkpt><trkpt lat="36.8808945" lon="15.065606"><ele>78.0</ele><time>2026-04-04T17:19:18.989Z</time></trkpt><trkpt lat="36.8808205" lon="15.0657651"><ele>78.0</ele><time>2026-04-04T17:19:19.989Z</time></trkpt><trkpt lat="36.8807287" lon="15.0659173"><ele>78.0</ele><time>2026-04-04T17:19:20.989Z</time></trkpt><trkpt lat="36.8806328" lon="15.0660511"><ele>78.0</ele><time>2026-04-04T17:19:21.989Z</time></trkpt><trkpt lat="36.8805332" lon="15.0661838"><ele>77.75</ele><time>2026-04-04T17:19:22.988Z</time></trkpt><trkpt lat="36.8804271" lon="15.0663187"><ele>77.5</ele><time>2026-04-04T17:19:23.989Z</time></trkpt><trkpt lat="36.8803235" lon="15.0664528"><ele>77.25</ele><time>2026-04-04T17:19:24.989Z</time></trkpt><trkpt lat="36.880221" lon="15.0665855"><ele>77.0</ele><time>2026-04-04T17:19:25.989Z</time></trkpt><trkpt lat="36.8801262" lon="15.0667089"><ele>76.75</ele><time>2026-04-04T17:19:26.989Z</time></trkpt><trkpt lat="36.8800402" lon="15.0668349"><ele>76.5</ele><time>2026-04-04T17:19:27.989Z</time></trkpt><trkpt lat="36.8799682" lon="15.0669732"><ele>76.25</ele><time>2026-04-04T17:19:28.989Z</time></trkpt><trkpt lat="36.8799093" lon="15.0671238"><ele>76.0</ele><time>2026-04-04T17:19:29.989Z</time></trkpt><trkpt lat="36.8798664" lon="15.0672884"><ele>76.0</ele><time>2026-04-04T17:19:30.989Z</time></trkpt><trkpt lat="36.8798421" lon="15.0674641"><ele>76.0</ele><time>2026-04-04T17:19:31.989Z</time></trkpt><trkpt lat="36.8798334" lon="15.067646"><ele>76.0</ele><time>2026-04-04T17:19:32.989Z</time></trkpt><trkpt lat="36.8798268" lon="15.0678191"><ele>76.0</ele><time>2026-04-04T17:19:33.989Z</time></trkpt><trkpt lat="36.8798086" lon="15.067986"><ele>76.0</ele><time>2026-04-04T17:19:34.989Z</time></trkpt><trkpt lat="36.8797692" lon="15.0681607"><ele>76.0</ele><time>2026-04-04T17:19:35.989Z</time></trkpt><trkpt lat="36.8797112" lon="15.068339"><ele>76.0</ele><time>2026-04-04T17:19:36.989Z</time></trkpt><trkpt lat="36.8796473" lon="15.0685222"><ele>75.0</ele><time>2026-04-04T17:19:37.989Z</time></trkpt><trkpt lat="36.8795809" lon="15.0687065"><ele>74.0</ele><time>2026-04-04T17:19:38.989Z</time></trkpt><trkpt lat="36.8795144" lon="15.0688775"><ele>73.0</ele><time>2026-04-04T17:19:39.989Z</time></trkpt><trkpt lat="36.8794392" lon="15.069032"><ele>72.25</ele><time>2026-04-04T17:19:40.989Z</time></trkpt><trkpt lat="36.8793515" lon="15.0691618"><ele>71.5</ele><time>2026-04-04T17:19:41.989Z</time></trkpt><trkpt lat="36.8792408" lon="15.0692647"><ele>70.75</ele><time>2026-04-04T17:19:42.989Z</time></trkpt><trkpt lat="36.8791175" lon="15.0693447"><ele>70.0</ele><time>2026-04-04T17:19:43.989Z</time></trkpt><trkpt lat="36.8789816" lon="15.0693985"><ele>72.5</ele><time>2026-04-04T17:19:44.989Z</time></trkpt><trkpt lat="36.8788541" lon="15.069437"><ele>75.0</ele><time>2026-04-04T17:19:45.989Z</time></trkpt><trkpt lat="36.8787287" lon="15.0694829"><ele>77.5</ele><time>2026-04-04T17:19:46.989Z</time></trkpt><trkpt lat="36.8786084" lon="15.0695509"><ele>80.0</ele><time>2026-04-04T17:19:47.989Z</time></trkpt><trkpt lat="36.8784968" lon="15.0696429"><ele>81.0</ele><time>2026-04-04T17:19:48.989Z</time></trkpt><trkpt lat="36.8783955" lon="15.0697641"><ele>82.0</ele><time>2026-04-04T17:19:49.989Z</time></trkpt><trkpt lat="36.8783097" lon="15.0699106"><ele>83.0</ele><time>2026-04-04T17:19:50.989Z</time></trkpt><trkpt lat="36.8782266" lon="15.0700744"><ele>84.0</ele><time>2026-04-04T17:19:51.989Z</time></trkpt><trkpt lat="36.878142" lon="15.0702541"><ele>84.0</ele><time>2026-04-04T17:19:52.988Z</time></trkpt><trkpt lat="36.8780604" lon="15.0704492"><ele>84.0</ele><time>2026-04-04T17:19:53.989Z</time></trkpt><trkpt lat="36.8779879" lon="15.0706588"><ele>84.0</ele><time>2026-04-04T17:19:54.989Z</time></trkpt><trkpt lat="36.8779276" lon="15.0708749"><ele>81.66666666666667</ele><time>2026-04-04T17:19:55.989Z</time></trkpt><trkpt lat="36.8778745" lon="15.0710843"><ele>79.33333333333334</ele><time>2026-04-04T17:19:56.989Z</time></trkpt><trkpt lat="36.8778278" lon="15.0712817"><ele>77.0</ele><time>2026-04-04T17:19:57.989Z</time></trkpt><trkpt lat="36.8777862" lon="15.0714795"><ele>76.0</ele><time>2026-04-04T17:19:58.987Z</time></trkpt><trkpt lat="36.8777519" lon="15.0716885"><ele>75.0</ele><time>2026-04-04T17:19:59.989Z</time></trkpt><trkpt lat="36.8777309" lon="15.0719056"><ele>74.0</ele><time>2026-04-04T17:20:00.989Z</time></trkpt><trkpt lat="36.8777261" lon="15.0721336"><ele>74.0</ele><time>2026-04-04T17:20:01.989Z</time></trkpt><trkpt lat="36.8777282" lon="15.0723675"><ele>74.0</ele><time>2026-04-04T17:20:02.989Z</time></trkpt><trkpt lat="36.8777345" lon="15.0725955"><ele>74.0</ele><time>2026-04-04T17:20:03.989Z</time></trkpt><trkpt lat="36.8777416" lon="15.0728091"><ele>73.33333333333334</ele><time>2026-04-04T17:20:04.989Z</time></trkpt><trkpt lat="36.8777413" lon="15.0730102"><ele>72.66666666666667</ele><time>2026-04-04T17:20:05.989Z</time></trkpt><trkpt lat="36.877738" lon="15.073212"><ele>72.0</ele><time>2026-04-04T17:20:06.989Z</time></trkpt><trkpt lat="36.8777356" lon="15.0734177"><ele>71.33333333333333</ele><time>2026-04-04T17:20:07.989Z</time></trkpt><trkpt lat="36.8777313" lon="15.0736196"><ele>70.66666666666666</ele><time>2026-04-04T17:20:08.988Z</time></trkpt><trkpt lat="36.8777216" lon="15.0738144"><ele>70.0</ele><time>2026-04-04T17:20:09.989Z</time></trkpt><trkpt lat="36.8777026" lon="15.0739976"><ele>69.5</ele><time>2026-04-04T17:20:10.989Z</time></trkpt><trkpt lat="36.8776817" lon="15.0741728"><ele>69.0</ele><time>2026-04-04T17:20:11.989Z</time></trkpt><trkpt lat="36.8776639" lon="15.0743355"><ele>68.5</ele><time>2026-04-04T17:20:12.989Z</time></trkpt><trkpt lat="36.8776565" lon="15.0744831"><ele>68.0</ele><time>2026-04-04T17:20:13.987Z</time></trkpt><trkpt lat="36.8776599" lon="15.0746176"><ele>68.0</ele><time>2026-04-04T17:20:14.989Z</time></trkpt><trkpt lat="36.8776798" lon="15.0747436"><ele>68.0</ele><time>2026-04-04T17:20:15.989Z</time></trkpt><trkpt lat="36.8777075" lon="15.0748544"><ele>68.0</ele><time>2026-04-04T17:20:16.989Z</time></trkpt><trkpt lat="36.8777296" lon="15.0749586"><ele>68.0</ele><time>2026-04-04T17:20:17.989Z</time></trkpt><trkpt lat="36.8777368" lon="15.0750577"><ele>68.0</ele><time>2026-04-04T17:20:18.989Z</time></trkpt><trkpt lat="36.8777028" lon="15.0751659"><ele>68.0</ele><time>2026-04-04T17:20:19.989Z</time></trkpt><trkpt lat="36.87765" lon="15.0753067"><ele>68.0</ele><time>2026-04-04T17:20:20.989Z</time></trkpt><trkpt lat="36.8775867" lon="15.0754758"><ele>68.0</ele><time>2026-04-04T17:20:21.989Z</time></trkpt><trkpt lat="36.877516" lon="15.0756487"><ele>68.0</ele><time>2026-04-04T17:20:22.988Z</time></trkpt><trkpt lat="36.8774324" lon="15.0758104"><ele>68.0</ele><time>2026-04-04T17:20:23.988Z</time></trkpt><trkpt lat="36.8773258" lon="15.0759913"><ele>68.0</ele><time>2026-04-04T17:20:24.989Z</time></trkpt><trkpt lat="36.8772169" lon="15.0761702"><ele>68.0</ele><time>2026-04-04T17:20:25.989Z</time></trkpt><trkpt lat="36.8771171" lon="15.0763479"><ele>68.0</ele><time>2026-04-04T17:20:26.989Z</time></trkpt><trkpt lat="36.8770232" lon="15.0765354"><ele>68.0</ele><time>2026-04-04T17:20:27.989Z</time></trkpt><trkpt lat="36.8769325" lon="15.0767261"><ele>68.0</ele><time>2026-04-04T17:20:28.986Z</time></trkpt><trkpt lat="36.876843" lon="15.076902"><ele>69.0</ele><time>2026-04-04T17:20:29.989Z</time></trkpt><trkpt lat="36.8767528" lon="15.0770708"><ele>70.0</ele><time>2026-04-04T17:20:30.989Z</time></trkpt><trkpt lat="36.8766598" lon="15.0772271"><ele>71.0</ele><time>2026-04-04T17:20:31.989Z</time></trkpt><trkpt lat="36.8765616" lon="15.0773696"><ele>69.75</ele><time>2026-04-04T17:20:32.989Z</time></trkpt><trkpt lat="36.8764618" lon="15.0774985"><ele>68.5</ele><time>2026-04-04T17:20:33.989Z</time></trkpt><trkpt lat="36.876359" lon="15.0776261"><ele>67.25</ele><time>2026-04-04T17:20:34.989Z</time></trkpt><trkpt lat="36.8762597" lon="15.077753"><ele>66.0</ele><time>2026-04-04T17:20:35.989Z</time></trkpt><trkpt lat="36.8761664" lon="15.0778826"><ele>66.0</ele><time>2026-04-04T17:20:36.987Z</time></trkpt><trkpt lat="36.8760853" lon="15.0780231"><ele>66.0</ele><time>2026-04-04T17:20:37.989Z</time></trkpt><trkpt lat="36.8760205" lon="15.0781722"><ele>66.0</ele><time>2026-04-04T17:20:38.989Z</time></trkpt><trkpt lat="36.8759733" lon="15.0783296"><ele>66.0</ele><time>2026-04-04T17:20:39.989Z</time></trkpt><trkpt lat="36.8759325" lon="15.0784999"><ele>65.33333333333333</ele><time>2026-04-04T17:20:40.989Z</time></trkpt><trkpt lat="36.8758947" lon="15.0786906"><ele>64.66666666666666</ele><time>2026-04-04T17:20:41.988Z</time></trkpt><trkpt lat="36.8758503" lon="15.0789019"><ele>64.0</ele><time>2026-04-04T17:20:42.989Z</time></trkpt><trkpt lat="36.875799" lon="15.0791331"><ele>62.33333333333333</ele><time>2026-04-04T17:20:43.989Z</time></trkpt><trkpt lat="36.8757448" lon="15.079367"><ele>60.66666666666667</ele><time>2026-04-04T17:20:44.989Z</time></trkpt><trkpt lat="36.8756944" lon="15.0795956"><ele>59.0</ele><time>2026-04-04T17:20:45.989Z</time></trkpt><trkpt lat="36.8756487" lon="15.0798302"><ele>57.66666666666667</ele><time>2026-04-04T17:20:46.989Z</time></trkpt><trkpt lat="36.8756102" lon="15.0800561"><ele>56.33333333333333</ele><time>2026-04-04T17:20:47.989Z</time></trkpt><trkpt lat="36.8755793" lon="15.0802781"><ele>55.0</ele><time>2026-04-04T17:20:48.988Z</time></trkpt><trkpt lat="36.8755588" lon="15.0804944"><ele>55.0</ele><time>2026-04-04T17:20:49.989Z</time></trkpt><trkpt lat="36.8755476" lon="15.0807044"><ele>55.0</ele><time>2026-04-04T17:20:50.989Z</time></trkpt><trkpt lat="36.8755407" lon="15.0809024"><ele>55.0</ele><time>2026-04-04T17:20:51.989Z</time></trkpt><trkpt lat="36.8755368" lon="15.0811024"><ele>54.75</ele><time>2026-04-04T17:20:52.989Z</time></trkpt><trkpt lat="36.8755351" lon="15.0812984"><ele>54.5</ele><time>2026-04-04T17:20:53.989Z</time></trkpt><trkpt lat="36.8755407" lon="15.0814843"><ele>54.25</ele><time>2026-04-04T17:20:54.986Z</time></trkpt><trkpt lat="36.875546" lon="15.0816623"><ele>54.0</ele><time>2026-04-04T17:20:55.989Z</time></trkpt><trkpt lat="36.8755509" lon="15.0818322"><ele>53.75</ele><time>2026-04-04T17:20:56.989Z</time></trkpt><trkpt lat="36.8755537" lon="15.0819933"><ele>53.5</ele><time>2026-04-04T17:20:57.989Z</time></trkpt><trkpt lat="36.8755601" lon="15.0821453"><ele>53.25</ele><time>2026-04-04T17:20:58.985Z</time></trkpt><trkpt lat="36.8755698" lon="15.0822785"><ele>53.0</ele><time>2026-04-04T17:20:59.989Z</time></trkpt><trkpt lat="36.875586" lon="15.0824004"><ele>53.00000000000001</ele><time>2026-04-04T17:21:00.989Z</time></trkpt><trkpt lat="36.8756013" lon="15.0825108"><ele>53.0</ele><time>2026-04-04T17:21:01.989Z</time></trkpt><trkpt lat="36.8756115" lon="15.0825948"><ele>53.0</ele><time>2026-04-04T17:21:02.989Z</time></trkpt><trkpt lat="36.875616" lon="15.0826816"><ele>53.0</ele><time>2026-04-04T17:21:04.989Z</time></trkpt><trkpt lat="36.8755825" lon="15.0827722"><ele>53.00000000000001</ele><time>2026-04-04T17:21:11.989Z</time></trkpt><trkpt lat="36.8755011" lon="15.0828404"><ele>53.0</ele><time>2026-04-04T17:21:13.989Z</time></trkpt><trkpt lat="36.8753733" lon="15.0828129"><ele>53.00000000000001</ele><time>2026-04-04T17:21:15.989Z</time></trkpt><trkpt lat="36.8753075" lon="15.0827624"><ele>53.0</ele><time>2026-04-04T17:21:16.989Z</time></trkpt><trkpt lat="36.8752369" lon="15.0826959"><ele>53.0</ele><time>2026-04-04T17:21:17.989Z</time></trkpt><trkpt lat="36.8751575" lon="15.0826406"><ele>53.0</ele><time>2026-04-04T17:21:18.989Z</time></trkpt><trkpt lat="36.8750842" lon="15.0825898"><ele>53.00000000000001</ele><time>2026-04-04T17:21:19.989Z</time></trkpt><trkpt lat="36.8749986" lon="15.0825352"><ele>53.0</ele><time>2026-04-04T17:21:20.989Z</time></trkpt><trkpt lat="36.8749088" lon="15.0824806"><ele>54.5</ele><time>2026-04-04T17:21:21.989Z</time></trkpt><trkpt lat="36.8748124" lon="15.0824204"><ele>56.0</ele><time>2026-04-04T17:21:22.989Z</time></trkpt><trkpt lat="36.8746997" lon="15.0823636"><ele>57.5</ele><time>2026-04-04T17:21:23.988Z</time></trkpt><trkpt lat="36.8745639" lon="15.0823167"><ele>59.0</ele><time>2026-04-04T17:21:24.989Z</time></trkpt><trkpt lat="36.8744326" lon="15.082286"><ele>59.0</ele><time>2026-04-04T17:21:25.989Z</time></trkpt><trkpt lat="36.8743062" lon="15.0822605"><ele>59.0</ele><time>2026-04-04T17:21:26.989Z</time></trkpt><trkpt lat="36.8741729" lon="15.0822364"><ele>59.0</ele><time>2026-04-04T17:21:27.989Z</time></trkpt><trkpt lat="36.8740353" lon="15.0822187"><ele>59.0</ele><time>2026-04-04T17:21:28.989Z</time></trkpt><trkpt lat="36.8738973" lon="15.0822055"><ele>60.5</ele><time>2026-04-04T17:21:29.989Z</time></trkpt><trkpt lat="36.8737661" lon="15.0821947"><ele>62.0</ele><time>2026-04-04T17:21:30.989Z</time></trkpt><trkpt lat="36.8736425" lon="15.0821844"><ele>63.5</ele><time>2026-04-04T17:21:31.989Z</time></trkpt><trkpt lat="36.8735235" lon="15.082177"><ele>65.0</ele><time>2026-04-04T17:21:32.989Z</time></trkpt><trkpt lat="36.8734097" lon="15.0821673"><ele>66.0</ele><time>2026-04-04T17:21:33.989Z</time></trkpt><trkpt lat="36.873309" lon="15.0821521"><ele>67.0</ele><time>2026-04-04T17:21:34.989Z</time></trkpt><trkpt lat="36.873208" lon="15.0821194"><ele>68.0</ele><time>2026-04-04T17:21:35.989Z</time></trkpt><trkpt lat="36.8731192" lon="15.0820629"><ele>69.0</ele><time>2026-04-04T17:21:36.989Z</time></trkpt><trkpt lat="36.8730378" lon="15.0819791"><ele>70.0</ele><time>2026-04-04T17:21:37.989Z</time></trkpt><trkpt lat="36.8729651" lon="15.0819077"><ele>70.0</ele><time>2026-04-04T17:21:38.989Z</time></trkpt><trkpt lat="36.872887" lon="15.0818584"><ele>70.0</ele><time>2026-04-04T17:21:39.989Z</time></trkpt><trkpt lat="36.8727966" lon="15.0818347"><ele>70.0</ele><time>2026-04-04T17:21:40.989Z</time></trkpt><trkpt lat="36.8727104" lon="15.0818572"><ele>70.0</ele><time>2026-04-04T17:21:41.989Z</time></trkpt><trkpt lat="36.8726356" lon="15.0819193"><ele>70.0</ele><time>2026-04-04T17:21:42.989Z</time></trkpt><trkpt lat="36.8725814" lon="15.0820307"><ele>71.0</ele><time>2026-04-04T17:21:43.989Z</time></trkpt><trkpt lat="36.8725603" lon="15.0821787"><ele>72.0</ele><time>2026-04-04T17:21:44.989Z</time></trkpt><trkpt lat="36.8725734" lon="15.0823546"><ele>73.0</ele><time>2026-04-04T17:21:45.985Z</time></trkpt><trkpt lat="36.8725812" lon="15.0825312"><ele>74.0</ele><time>2026-04-04T17:21:46.989Z</time></trkpt><trkpt lat="36.8725331" lon="15.0827196"><ele>74.66666666666667</ele><time>2026-04-04T17:21:47.989Z</time></trkpt><trkpt lat="36.8724736" lon="15.0829054"><ele>75.33333333333333</ele><time>2026-04-04T17:21:48.989Z</time></trkpt><trkpt lat="36.8724029" lon="15.083074"><ele>76.0</ele><time>2026-04-04T17:21:49.989Z</time></trkpt><trkpt lat="36.8723116" lon="15.0832595"><ele>78.33333333333333</ele><time>2026-04-04T17:21:50.989Z</time></trkpt><trkpt lat="36.8722093" lon="15.0834593"><ele>80.66666666666667</ele><time>2026-04-04T17:21:51.988Z</time></trkpt><trkpt lat="36.8721031" lon="15.0836695"><ele>83.0</ele><time>2026-04-04T17:21:52.989Z</time></trkpt><trkpt lat="36.8720083" lon="15.0838593"><ele>83.0</ele><time>2026-04-04T17:21:53.989Z</time></trkpt><trkpt lat="36.8719129" lon="15.084053"><ele>83.0</ele><time>2026-04-04T17:21:54.989Z</time></trkpt><trkpt lat="36.8718179" lon="15.0842564"><ele>83.0</ele><time>2026-04-04T17:21:55.989Z</time></trkpt><trkpt lat="36.8717306" lon="15.0844749"><ele>82.66666666666667</ele><time>2026-04-04T17:21:56.989Z</time></trkpt><trkpt lat="36.8716655" lon="15.0847194"><ele>82.33333333333333</ele><time>2026-04-04T17:21:57.988Z</time></trkpt><trkpt lat="36.871623" lon="15.0849864"><ele>82.0</ele><time>2026-04-04T17:21:58.989Z</time></trkpt><trkpt lat="36.8716115" lon="15.0852549"><ele>83.5</ele><time>2026-04-04T17:21:59.989Z</time></trkpt><trkpt lat="36.871644" lon="15.0855231"><ele>85.0</ele><time>2026-04-04T17:22:00.989Z</time></trkpt><trkpt lat="36.8717082" lon="15.0858044"><ele>95.5</ele><time>2026-04-04T17:22:01.989Z</time></trkpt><trkpt lat="36.8717791" lon="15.0860854"><ele>106.0</ele><time>2026-04-04T17:22:02.989Z</time></trkpt><trkpt lat="36.8718497" lon="15.0863391"><ele>106.0</ele><time>2026-04-04T17:22:03.989Z</time></trkpt><trkpt lat="36.8719186" lon="15.0865813"><ele>106.0</ele><time>2026-04-04T17:22:04.989Z</time></trkpt><trkpt lat="36.8719828" lon="15.0868046"><ele>106.0</ele><time>2026-04-04T17:22:05.989Z</time></trkpt><trkpt lat="36.8720403" lon="15.0870088"><ele>105.25</ele><time>2026-04-04T17:22:06.989Z</time></trkpt><trkpt lat="36.8720867" lon="15.087188"><ele>104.5</ele><time>2026-04-04T17:22:07.989Z</time></trkpt><trkpt lat="36.8721227" lon="15.0873512"><ele>103.75</ele><time>2026-04-04T17:22:08.988Z</time></trkpt><trkpt lat="36.8721505" lon="15.0874999"><ele>103.0</ele><time>2026-04-04T17:22:09.988Z</time></trkpt><trkpt lat="36.8721667" lon="15.0876335"><ele>101.4</ele><time>2026-04-04T17:22:10.989Z</time></trkpt><trkpt lat="36.8721573" lon="15.087769"><ele>99.80000000000001</ele><time>2026-04-04T17:22:11.989Z</time></trkpt><trkpt lat="36.8721255" lon="15.0879113"><ele>98.2</ele><time>2026-04-04T17:22:12.989Z</time></trkpt><trkpt lat="36.872115" lon="15.0880475"><ele>96.6</ele><time>2026-04-04T17:22:13.989Z</time></trkpt><trkpt lat="36.8721287" lon="15.0881743"><ele>95.0</ele><time>2026-04-04T17:22:14.989Z</time></trkpt><trkpt lat="36.8721125" lon="15.0883152"><ele>95.0</ele><time>2026-04-04T17:22:15.989Z</time></trkpt><trkpt lat="36.8720707" lon="15.0884642"><ele>95.0</ele><time>2026-04-04T17:22:16.989Z</time></trkpt><trkpt lat="36.8720171" lon="15.088614"><ele>95.0</ele><time>2026-04-04T17:22:17.989Z</time></trkpt><trkpt lat="36.871961" lon="15.0887557"><ele>95.0</ele><time>2026-04-04T17:22:18.989Z</time></trkpt><trkpt lat="36.871894" lon="15.0889136"><ele>95.0</ele><time>2026-04-04T17:22:19.989Z</time></trkpt><trkpt lat="36.8718167" lon="15.0890794"><ele>95.0</ele><time>2026-04-04T17:22:20.989Z</time></trkpt><trkpt lat="36.871731" lon="15.0892719"><ele>95.0</ele><time>2026-04-04T17:22:21.989Z</time></trkpt><trkpt lat="36.8716315" lon="15.0894805"><ele>94.0</ele><time>2026-04-04T17:22:22.989Z</time></trkpt><trkpt lat="36.8715352" lon="15.0896725"><ele>93.0</ele><time>2026-04-04T17:22:23.987Z</time></trkpt><trkpt lat="36.8714388" lon="15.0898623"><ele>92.0</ele><time>2026-04-04T17:22:24.989Z</time></trkpt><trkpt lat="36.8713405" lon="15.0900537"><ele>92.0</ele><time>2026-04-04T17:22:25.989Z</time></trkpt><trkpt lat="36.8712261" lon="15.0902463"><ele>92.0</ele><time>2026-04-04T17:22:26.989Z</time></trkpt><trkpt lat="36.8711007" lon="15.0904364"><ele>92.0</ele><time>2026-04-04T17:22:27.989Z</time></trkpt><trkpt lat="36.8709643" lon="15.0906288"><ele>88.0</ele><time>2026-04-04T17:22:28.989Z</time></trkpt><trkpt lat="36.8708214" lon="15.090824"><ele>84.0</ele><time>2026-04-04T17:22:29.989Z</time></trkpt><trkpt lat="36.870674" lon="15.0910286"><ele>80.0</ele><time>2026-04-04T17:22:30.989Z</time></trkpt><trkpt lat="36.8705216" lon="15.0912487"><ele>80.0</ele><time>2026-04-04T17:22:31.989Z</time></trkpt><trkpt lat="36.8703712" lon="15.0914748"><ele>80.0</ele><time>2026-04-04T17:22:32.989Z</time></trkpt><trkpt lat="36.8702302" lon="15.0917015"><ele>76.5</ele><time>2026-04-04T17:22:33.989Z</time></trkpt><trkpt lat="36.870093" lon="15.0919445"><ele>73.0</ele><time>2026-04-04T17:22:34.989Z</time></trkpt><trkpt lat="36.8699564" lon="15.0921926"><ele>70.0</ele><time>2026-04-04T17:22:35.989Z</time></trkpt><trkpt lat="36.8698222" lon="15.0924338"><ele>67.0</ele><time>2026-04-04T17:22:36.989Z</time></trkpt><trkpt lat="36.869692" lon="15.092665"><ele>67.0</ele><time>2026-04-04T17:22:37.989Z</time></trkpt><trkpt lat="36.8695647" lon="15.0928906"><ele>67.0</ele><time>2026-04-04T17:22:38.987Z</time></trkpt><trkpt lat="36.8694409" lon="15.0931074"><ele>67.0</ele><time>2026-04-04T17:22:39.989Z</time></trkpt><trkpt lat="36.8693189" lon="15.0933203"><ele>63.33333333333333</ele><time>2026-04-04T17:22:40.989Z</time></trkpt><trkpt lat="36.8691895" lon="15.0935341"><ele>59.66666666666667</ele><time>2026-04-04T17:22:41.989Z</time></trkpt><trkpt lat="36.8690569" lon="15.0937355"><ele>56.0</ele><time>2026-04-04T17:22:42.989Z</time></trkpt><trkpt lat="36.8689207" lon="15.0939302"><ele>55.333333333333336</ele><time>2026-04-04T17:22:43.989Z</time></trkpt><trkpt lat="36.8687601" lon="15.094107"><ele>54.66666666666667</ele><time>2026-04-04T17:22:44.989Z</time></trkpt><trkpt lat="36.8685873" lon="15.0942625"><ele>54.0</ele><time>2026-04-04T17:22:45.989Z</time></trkpt><trkpt lat="36.8683862" lon="15.0943913"><ele>50.5</ele><time>2026-04-04T17:22:46.989Z</time></trkpt><trkpt lat="36.8681616" lon="15.0945026"><ele>47.0</ele><time>2026-04-04T17:22:47.989Z</time></trkpt><trkpt lat="36.8679375" lon="15.09459"><ele>47.0</ele><time>2026-04-04T17:22:48.987Z</time></trkpt><trkpt lat="36.8677216" lon="15.0946701"><ele>47.0</ele><time>2026-04-04T17:22:49.989Z</time></trkpt><trkpt lat="36.8675133" lon="15.0947415"><ele>47.0</ele><time>2026-04-04T17:22:50.989Z</time></trkpt><trkpt lat="36.867319" lon="15.0948183"><ele>45.666666666666664</ele><time>2026-04-04T17:22:51.989Z</time></trkpt><trkpt lat="36.867143" lon="15.0949171"><ele>44.333333333333336</ele><time>2026-04-04T17:22:52.989Z</time></trkpt><trkpt lat="36.8669754" lon="15.0950341"><ele>43.0</ele><time>2026-04-04T17:22:53.985Z</time></trkpt><trkpt lat="36.8668249" lon="15.0951714"><ele>42.0</ele><time>2026-04-04T17:22:54.989Z</time></trkpt><trkpt lat="36.8666936" lon="15.0953334"><ele>41.0</ele><time>2026-04-04T17:22:55.988Z</time></trkpt><trkpt lat="36.8665865" lon="15.0955168"><ele>40.0</ele><time>2026-04-04T17:22:56.989Z</time></trkpt><trkpt lat="36.8664995" lon="15.0957129"><ele>40.0</ele><time>2026-04-04T17:22:57.989Z</time></trkpt><trkpt lat="36.8664329" lon="15.0959194"><ele>40.0</ele><time>2026-04-04T17:22:58.989Z</time></trkpt><trkpt lat="36.8663788" lon="15.0961258"><ele>40.0</ele><time>2026-04-04T17:22:59.988Z</time></trkpt><trkpt lat="36.8663364" lon="15.096335"><ele>40.0</ele><time>2026-04-04T17:23:00.987Z</time></trkpt><trkpt lat="36.866298" lon="15.0965538"><ele>40.0</ele><time>2026-04-04T17:23:01.989Z</time></trkpt><trkpt lat="36.8662575" lon="15.0967818"><ele>40.0</ele><time>2026-04-04T17:23:02.986Z</time></trkpt><trkpt lat="36.8662192" lon="15.0970198"><ele>39.66666666666667</ele><time>2026-04-04T17:23:03.989Z</time></trkpt><trkpt lat="36.866186" lon="15.0972546"><ele>39.333333333333336</ele><time>2026-04-04T17:23:04.989Z</time></trkpt><trkpt lat="36.8661603" lon="15.0974725"><ele>39.0</ele><time>2026-04-04T17:23:05.986Z</time></trkpt><trkpt lat="36.8661385" lon="15.0976771"><ele>38.0</ele><time>2026-04-04T17:23:06.989Z</time></trkpt><trkpt lat="36.8661163" lon="15.0978684"><ele>37.0</ele><time>2026-04-04T17:23:07.989Z</time></trkpt><trkpt lat="36.8660935" lon="15.0980458"><ele>36.0</ele><time>2026-04-04T17:23:08.989Z</time></trkpt><trkpt lat="36.8660659" lon="15.0982075"><ele>35.0</ele><time>2026-04-04T17:23:09.989Z</time></trkpt><trkpt lat="36.8660268" lon="15.0983483"><ele>34.8</ele><time>2026-04-04T17:23:10.989Z</time></trkpt><trkpt lat="36.8659681" lon="15.0984596"><ele>34.6</ele><time>2026-04-04T17:23:11.986Z</time></trkpt><trkpt lat="36.865895" lon="15.0985496"><ele>34.4</ele><time>2026-04-04T17:23:12.989Z</time></trkpt><trkpt lat="36.8658065" lon="15.0986261"><ele>34.2</ele><time>2026-04-04T17:23:13.989Z</time></trkpt><trkpt lat="36.8657062" lon="15.0986838"><ele>34.0</ele><time>2026-04-04T17:23:14.989Z</time></trkpt><trkpt lat="36.8655941" lon="15.0987015"><ele>34.0</ele><time>2026-04-04T17:23:15.989Z</time></trkpt><trkpt lat="36.8654715" lon="15.0986949"><ele>34.0</ele><time>2026-04-04T17:23:16.989Z</time></trkpt><trkpt lat="36.8653429" lon="15.0986818"><ele>34.0</ele><time>2026-04-04T17:23:17.988Z</time></trkpt><trkpt lat="36.8652155" lon="15.0986583"><ele>34.0</ele><time>2026-04-04T17:23:18.989Z</time></trkpt><trkpt lat="36.8650927" lon="15.0986285"><ele>34.25</ele><time>2026-04-04T17:23:19.989Z</time></trkpt><trkpt lat="36.8649688" lon="15.098596"><ele>34.5</ele><time>2026-04-04T17:23:20.989Z</time></trkpt><trkpt lat="36.8648419" lon="15.0985641"><ele>34.75</ele><time>2026-04-04T17:23:21.989Z</time></trkpt><trkpt lat="36.8647137" lon="15.0985273"><ele>35.0</ele><time>2026-04-04T17:23:22.989Z</time></trkpt><trkpt lat="36.8645866" lon="15.0984877"><ele>35.0</ele><time>2026-04-04T17:23:23.989Z</time></trkpt><trkpt lat="36.8644614" lon="15.0984576"><ele>35.0</ele><time>2026-04-04T17:23:24.989Z</time></trkpt><trkpt lat="36.8643406" lon="15.0984454"><ele>35.0</ele><time>2026-04-04T17:23:25.989Z</time></trkpt><trkpt lat="36.864216" lon="15.0984585"><ele>35.0</ele><time>2026-04-04T17:23:26.985Z</time></trkpt><trkpt lat="36.8640952" lon="15.0985087"><ele>35.0</ele><time>2026-04-04T17:23:27.989Z</time></trkpt><trkpt lat="36.863989" lon="15.0985951"><ele>35.0</ele><time>2026-04-04T17:23:28.989Z</time></trkpt><trkpt lat="36.8639068" lon="15.0987124"><ele>35.0</ele><time>2026-04-04T17:23:29.989Z</time></trkpt><trkpt lat="36.8638458" lon="15.0988472"><ele>35.0</ele><time>2026-04-04T17:23:30.989Z</time></trkpt><trkpt lat="36.8638043" lon="15.0989944"><ele>35.75</ele><time>2026-04-04T17:23:31.989Z</time></trkpt><trkpt lat="36.8637771" lon="15.0991492"><ele>36.5</ele><time>2026-04-04T17:23:32.989Z</time></trkpt><trkpt lat="36.863758" lon="15.0993095"><ele>37.25</ele><time>2026-04-04T17:23:33.989Z</time></trkpt><trkpt lat="36.8637429" lon="15.0994727"><ele>38.0</ele><time>2026-04-04T17:23:34.989Z</time></trkpt><trkpt lat="36.8637278" lon="15.0996325"><ele>38.0</ele><time>2026-04-04T17:23:35.989Z</time></trkpt><trkpt lat="36.8637178" lon="15.0997838"><ele>38.0</ele><time>2026-04-04T17:23:36.989Z</time></trkpt><trkpt lat="36.863702" lon="15.0999366"><ele>38.0</ele><time>2026-04-04T17:23:37.989Z</time></trkpt><trkpt lat="36.863687" lon="15.100093"><ele>38.0</ele><time>2026-04-04T17:23:38.989Z</time></trkpt><trkpt lat="36.8636732" lon="15.1002526"><ele>38.0</ele><time>2026-04-04T17:23:39.989Z</time></trkpt><trkpt lat="36.8636583" lon="15.100418"><ele>38.0</ele><time>2026-04-04T17:23:40.989Z</time></trkpt><trkpt lat="36.8636466" lon="15.1005894"><ele>38.0</ele><time>2026-04-04T17:23:41.989Z</time></trkpt><trkpt lat="36.8636316" lon="15.1007638"><ele>38.0</ele><time>2026-04-04T17:23:42.989Z</time></trkpt><trkpt lat="36.8636172" lon="15.1009402"><ele>37.75</ele><time>2026-04-04T17:23:43.989Z</time></trkpt><trkpt lat="36.8636023" lon="15.1011156"><ele>37.5</ele><time>2026-04-04T17:23:44.988Z</time></trkpt><trkpt lat="36.8635855" lon="15.1012867"><ele>37.25</ele><time>2026-04-04T17:23:45.988Z</time></trkpt><trkpt lat="36.8635698" lon="15.1014663"><ele>37.0</ele><time>2026-04-04T17:23:46.989Z</time></trkpt><trkpt lat="36.8635561" lon="15.1016531"><ele>37.0</ele><time>2026-04-04T17:23:47.989Z</time></trkpt><trkpt lat="36.863542" lon="15.1018416"><ele>37.0</ele><time>2026-04-04T17:23:48.989Z</time></trkpt><trkpt lat="36.8635315" lon="15.1020383"><ele>37.0</ele><time>2026-04-04T17:23:49.989Z</time></trkpt><trkpt lat="36.863516" lon="15.1022325"><ele>36.75</ele><time>2026-04-04T17:23:50.989Z</time></trkpt><trkpt lat="36.8634975" lon="15.1024237"><ele>36.5</ele><time>2026-04-04T17:23:51.989Z</time></trkpt><trkpt lat="36.8634772" lon="15.102602"><ele>36.25</ele><time>2026-04-04T17:23:52.989Z</time></trkpt><trkpt lat="36.863449" lon="15.1027675"><ele>36.0</ele><time>2026-04-04T17:23:53.989Z</time></trkpt><trkpt lat="36.8634011" lon="15.1029224"><ele>35.75</ele><time>2026-04-04T17:23:54.989Z</time></trkpt><trkpt lat="36.8633249" lon="15.1030555"><ele>35.5</ele><time>2026-04-04T17:23:55.989Z</time></trkpt><trkpt lat="36.8632259" lon="15.1031604"><ele>35.25</ele><time>2026-04-04T17:23:56.989Z</time></trkpt><trkpt lat="36.863106" lon="15.1032301"><ele>35.0</ele><time>2026-04-04T17:23:57.989Z</time></trkpt><trkpt lat="36.8629725" lon="15.1032575"><ele>35.0</ele><time>2026-04-04T17:23:58.989Z</time></trkpt><trkpt lat="36.8628359" lon="15.1032431"><ele>35.0</ele><time>2026-04-04T17:23:59.989Z</time></trkpt><trkpt lat="36.8627062" lon="15.1031796"><ele>35.0</ele><time>2026-04-04T17:24:00.989Z</time></trkpt><trkpt lat="36.8625953" lon="15.1030737"><ele>35.0</ele><time>2026-04-04T17:24:01.989Z</time></trkpt><trkpt lat="36.8625102" lon="15.1029353"><ele>35.0</ele><time>2026-04-04T17:24:02.989Z</time></trkpt><trkpt lat="36.8624649" lon="15.1027795"><ele>35.0</ele><time>2026-04-04T17:24:03.989Z</time></trkpt><trkpt lat="36.8624585" lon="15.1026085"><ele>35.0</ele><time>2026-04-04T17:24:04.989Z</time></trkpt><trkpt lat="36.8624917" lon="15.1024373"><ele>35.0</ele><time>2026-04-04T17:24:05.989Z</time></trkpt><trkpt lat="36.8625598" lon="15.1022802"><ele>35.5</ele><time>2026-04-04T17:24:06.986Z</time></trkpt><trkpt lat="36.8626613" lon="15.1021503"><ele>36.0</ele><time>2026-04-04T17:24:07.989Z</time></trkpt><trkpt lat="36.8627863" lon="15.1020698"><ele>36.5</ele><time>2026-04-04T17:24:08.989Z</time></trkpt><trkpt lat="36.8629281" lon="15.1020354"><ele>37.0</ele><time>2026-04-04T17:24:09.989Z</time></trkpt><trkpt lat="36.8630817" lon="15.1020262"><ele>37.0</ele><time>2026-04-04T17:24:10.989Z</time></trkpt><trkpt lat="36.8632439" lon="15.1020352"><ele>37.0</ele><time>2026-04-04T17:24:11.989Z</time></trkpt><trkpt lat="36.8634116" lon="15.1020493"><ele>37.0</ele><time>2026-04-04T17:24:12.988Z</time></trkpt><trkpt lat="36.8635873" lon="15.1020708"><ele>37.0</ele><time>2026-04-04T17:24:13.989Z</time></trkpt><trkpt lat="36.8637702" lon="15.1020941"><ele>37.0</ele><time>2026-04-04T17:24:14.989Z</time></trkpt><trkpt lat="36.8639536" lon="15.1021148"><ele>37.0</ele><time>2026-04-04T17:24:15.989Z</time></trkpt><trkpt lat="36.8641391" lon="15.1021372"><ele>38.0</ele><time>2026-04-04T17:24:16.989Z</time></trkpt><trkpt lat="36.8643204" lon="15.1021643"><ele>39.0</ele><time>2026-04-04T17:24:17.989Z</time></trkpt><trkpt lat="36.8644913" lon="15.1021889"><ele>40.0</ele><time>2026-04-04T17:24:18.989Z</time></trkpt><trkpt lat="36.8646602" lon="15.1022098"><ele>40.0</ele><time>2026-04-04T17:24:19.989Z</time></trkpt><trkpt lat="36.8648317" lon="15.1022325"><ele>40.0</ele><time>2026-04-04T17:24:20.989Z</time></trkpt><trkpt lat="36.8650071" lon="15.102255"><ele>40.0</ele><time>2026-04-04T17:24:21.989Z</time></trkpt><trkpt lat="36.8651837" lon="15.1022783"><ele>40.0</ele><time>2026-04-04T17:24:22.989Z</time></trkpt><trkpt lat="36.8653616" lon="15.1023057"><ele>40.0</ele><time>2026-04-04T17:24:23.989Z</time></trkpt><trkpt lat="36.865541" lon="15.1023346"><ele>40.0</ele><time>2026-04-04T17:24:24.989Z</time></trkpt><trkpt lat="36.8657213" lon="15.1023692"><ele>40.0</ele><time>2026-04-04T17:24:25.989Z</time></trkpt><trkpt lat="36.8659018" lon="15.1024108"><ele>40.0</ele><time>2026-04-04T17:24:26.989Z</time></trkpt><trkpt lat="36.8660831" lon="15.1024554"><ele>40.0</ele><time>2026-04-04T17:24:27.989Z</time></trkpt><trkpt lat="36.8662644" lon="15.1025022"><ele>40.333333333333336</ele><time>2026-04-04T17:24:28.989Z</time></trkpt><trkpt lat="36.8664396" lon="15.1025535"><ele>40.666666666666664</ele><time>2026-04-04T17:24:29.989Z</time></trkpt><trkpt lat="36.8666126" lon="15.102608"><ele>41.0</ele><time>2026-04-04T17:24:30.989Z</time></trkpt><trkpt lat="36.8667872" lon="15.1026618"><ele>40.0</ele><time>2026-04-04T17:24:31.989Z</time></trkpt><trkpt lat="36.8669619" lon="15.102719"><ele>39.0</ele><time>2026-04-04T17:24:32.989Z</time></trkpt><trkpt lat="36.8671371" lon="15.10278"><ele>38.0</ele><time>2026-04-04T17:24:33.989Z</time></trkpt><trkpt lat="36.8673134" lon="15.1028471"><ele>38.0</ele><time>2026-04-04T17:24:34.988Z</time></trkpt><trkpt lat="36.86749" lon="15.1029197"><ele>38.0</ele><time>2026-04-04T17:24:35.989Z</time></trkpt><trkpt lat="36.8676683" lon="15.1029942"><ele>38.0</ele><time>2026-04-04T17:24:36.989Z</time></trkpt><trkpt lat="36.8678492" lon="15.1030695"><ele>38.33333333333333</ele><time>2026-04-04T17:24:37.989Z</time></trkpt><trkpt lat="36.8680292" lon="15.1031518"><ele>38.666666666666664</ele><time>2026-04-04T17:24:38.989Z</time></trkpt><trkpt lat="36.8682104" lon="15.1032384"><ele>39.0</ele><time>2026-04-04T17:24:39.989Z</time></trkpt><trkpt lat="36.8683942" lon="15.1033265"><ele>39.0</ele><time>2026-04-04T17:24:40.989Z</time></trkpt><trkpt lat="36.8685795" lon="15.1034167"><ele>39.0</ele><time>2026-04-04T17:24:41.989Z</time></trkpt><trkpt lat="36.8687659" lon="15.1035068"><ele>39.0</ele><time>2026-04-04T17:24:42.989Z</time></trkpt><trkpt lat="36.8689574" lon="15.1035926"><ele>39.0</ele><time>2026-04-04T17:24:43.989Z</time></trkpt><trkpt lat="36.8691493" lon="15.1036802"><ele>39.0</ele><time>2026-04-04T17:24:44.989Z</time></trkpt><trkpt lat="36.8693428" lon="15.10377"><ele>39.0</ele><time>2026-04-04T17:24:45.989Z</time></trkpt><trkpt lat="36.8695366" lon="15.1038625"><ele>39.0</ele><time>2026-04-04T17:24:46.987Z</time></trkpt><trkpt lat="36.8697307" lon="15.1039569"><ele>39.0</ele><time>2026-04-04T17:24:47.989Z</time></trkpt><trkpt lat="36.8699283" lon="15.1040491"><ele>39.0</ele><time>2026-04-04T17:24:48.989Z</time></trkpt><trkpt lat="36.8701275" lon="15.1041416"><ele>39.666666666666664</ele><time>2026-04-04T17:24:49.989Z</time></trkpt><trkpt lat="36.8703308" lon="15.1042348"><ele>40.33333333333333</ele><time>2026-04-04T17:24:50.989Z</time></trkpt><trkpt lat="36.8705346" lon="15.1043254"><ele>41.0</ele><time>2026-04-04T17:24:51.989Z</time></trkpt><trkpt lat="36.8707396" lon="15.1044202"><ele>41.33333333333333</ele><time>2026-04-04T17:24:52.989Z</time></trkpt><trkpt lat="36.8709411" lon="15.1045114"><ele>41.666666666666664</ele><time>2026-04-04T17:24:53.989Z</time></trkpt><trkpt lat="36.8711323" lon="15.104595"><ele>42.0</ele><time>2026-04-04T17:24:54.986Z</time></trkpt><trkpt lat="36.8713133" lon="15.1046741"><ele>42.0</ele><time>2026-04-04T17:24:55.989Z</time></trkpt><trkpt lat="36.8714881" lon="15.1047436"><ele>42.0</ele><time>2026-04-04T17:24:56.989Z</time></trkpt><trkpt lat="36.8716534" lon="15.1048051"><ele>42.0</ele><time>2026-04-04T17:24:57.989Z</time></trkpt><trkpt lat="36.8718106" lon="15.1048611"><ele>42.0</ele><time>2026-04-04T17:24:58.989Z</time></trkpt><trkpt lat="36.8719611" lon="15.1049162"><ele>42.0</ele><time>2026-04-04T17:24:59.989Z</time></trkpt><trkpt lat="36.8721034" lon="15.1049643"><ele>42.0</ele><time>2026-04-04T17:25:00.989Z</time></trkpt><trkpt lat="36.8722463" lon="15.105008"><ele>42.0</ele><time>2026-04-04T17:25:01.989Z</time></trkpt><trkpt lat="36.8723982" lon="15.1050516"><ele>42.0</ele><time>2026-04-04T17:25:02.989Z</time></trkpt><trkpt lat="36.8725617" lon="15.1050986"><ele>42.0</ele><time>2026-04-04T17:25:03.989Z</time></trkpt><trkpt lat="36.8727351" lon="15.1051482"><ele>42.0</ele><time>2026-04-04T17:25:04.989Z</time></trkpt><trkpt lat="36.8729183" lon="15.1051958"><ele>42.0</ele><time>2026-04-04T17:25:05.989Z</time></trkpt><trkpt lat="36.8731122" lon="15.1052426"><ele>42.0</ele><time>2026-04-04T17:25:06.989Z</time></trkpt><trkpt lat="36.8733139" lon="15.1052863"><ele>42.333333333333336</ele><time>2026-04-04T17:25:07.989Z</time></trkpt><trkpt lat="36.8735227" lon="15.1053277"><ele>42.66666666666667</ele><time>2026-04-04T17:25:08.989Z</time></trkpt><trkpt lat="36.8737379" lon="15.1053679"><ele>43.0</ele><time>2026-04-04T17:25:09.989Z</time></trkpt><trkpt lat="36.873959" lon="15.1054019"><ele>43.0</ele><time>2026-04-04T17:25:10.989Z</time></trkpt><trkpt lat="36.8741862" lon="15.1054315"><ele>43.0</ele><time>2026-04-04T17:25:11.989Z</time></trkpt><trkpt lat="36.874417" lon="15.1054558"><ele>42.5</ele><time>2026-04-04T17:25:12.989Z</time></trkpt><trkpt lat="36.8746545" lon="15.105477"><ele>42.0</ele><time>2026-04-04T17:25:13.989Z</time></trkpt><trkpt lat="36.8748953" lon="15.1054936"><ele>41.5</ele><time>2026-04-04T17:25:14.989Z</time></trkpt><trkpt lat="36.8751364" lon="15.1055036"><ele>41.0</ele><time>2026-04-04T17:25:15.989Z</time></trkpt><trkpt lat="36.8753814" lon="15.1055094"><ele>41.0</ele><time>2026-04-04T17:25:16.989Z</time></trkpt><trkpt lat="36.8756258" lon="15.1055118"><ele>41.0</ele><time>2026-04-04T17:25:17.989Z</time></trkpt><trkpt lat="36.8758715" lon="15.105508"><ele>39.0</ele><time>2026-04-04T17:25:18.989Z</time></trkpt><trkpt lat="36.8761013" lon="15.1055011"><ele>37.0</ele><time>2026-04-04T17:25:19.989Z</time></trkpt><trkpt lat="36.8763176" lon="15.1054992"><ele>35.0</ele><time>2026-04-04T17:25:20.989Z</time></trkpt><trkpt lat="36.8765234" lon="15.1054953"><ele>35.0</ele><time>2026-04-04T17:25:21.989Z</time></trkpt><trkpt lat="36.8767194" lon="15.1054898"><ele>35.0</ele><time>2026-04-04T17:25:22.989Z</time></trkpt><trkpt lat="36.876903" lon="15.1054851"><ele>35.0</ele><time>2026-04-04T17:25:23.989Z</time></trkpt><trkpt lat="36.8770775" lon="15.1054779"><ele>35.0</ele><time>2026-04-04T17:25:24.989Z</time></trkpt><trkpt lat="36.8772459" lon="15.1054724"><ele>35.0</ele><time>2026-04-04T17:25:25.989Z</time></trkpt><trkpt lat="36.8774198" lon="15.1054688"><ele>35.0</ele><time>2026-04-04T17:25:26.989Z</time></trkpt><trkpt lat="36.8776016" lon="15.1054623"><ele>34.666666666666664</ele><time>2026-04-04T17:25:27.986Z</time></trkpt><trkpt lat="36.8777895" lon="15.105457"><ele>34.333333333333336</ele><time>2026-04-04T17:25:28.989Z</time></trkpt><trkpt lat="36.8779829" lon="15.105453"><ele>34.0</ele><time>2026-04-04T17:25:29.989Z</time></trkpt><trkpt lat="36.8781838" lon="15.1054499"><ele>34.0</ele><time>2026-04-04T17:25:30.989Z</time></trkpt><trkpt lat="36.8783867" lon="15.1054455"><ele>34.0</ele><time>2026-04-04T17:25:31.989Z</time></trkpt><trkpt lat="36.8785938" lon="15.1054428"><ele>34.0</ele><time>2026-04-04T17:25:32.989Z</time></trkpt><trkpt lat="36.8788052" lon="15.1054448"><ele>32.66666666666667</ele><time>2026-04-04T17:25:33.986Z</time></trkpt><trkpt lat="36.8790177" lon="15.1054527"><ele>31.333333333333336</ele><time>2026-04-04T17:25:34.989Z</time></trkpt><trkpt lat="36.8792327" lon="15.1054688"><ele>30.0</ele><time>2026-04-04T17:25:35.989Z</time></trkpt><trkpt lat="36.879449" lon="15.1054909"><ele>28.333333333333336</ele><time>2026-04-04T17:25:36.985Z</time></trkpt><trkpt lat="36.8796686" lon="15.1055224"><ele>26.666666666666668</ele><time>2026-04-04T17:25:37.989Z</time></trkpt><trkpt lat="36.8798884" lon="15.1055596"><ele>25.0</ele><time>2026-04-04T17:25:38.989Z</time></trkpt><trkpt lat="36.8801053" lon="15.105598"><ele>25.0</ele><time>2026-04-04T17:25:39.986Z</time></trkpt><trkpt lat="36.880322" lon="15.1056432"><ele>25.0</ele><time>2026-04-04T17:25:40.985Z</time></trkpt><trkpt lat="36.8805372" lon="15.1056962"><ele>25.0</ele><time>2026-04-04T17:25:41.988Z</time></trkpt><trkpt lat="36.8807482" lon="15.1057532"><ele>24.333333333333336</ele><time>2026-04-04T17:25:42.989Z</time></trkpt><trkpt lat="36.8809571" lon="15.1058164"><ele>23.666666666666668</ele><time>2026-04-04T17:25:43.986Z</time></trkpt><trkpt lat="36.8811657" lon="15.1058904"><ele>23.0</ele><time>2026-04-04T17:25:44.989Z</time></trkpt><trkpt lat="36.8813722" lon="15.1059723"><ele>23.0</ele><time>2026-04-04T17:25:45.987Z</time></trkpt><trkpt lat="36.8815743" lon="15.1060612"><ele>23.0</ele><time>2026-04-04T17:25:46.987Z</time></trkpt><trkpt lat="36.8817747" lon="15.106158"><ele>23.0</ele><time>2026-04-04T17:25:47.989Z</time></trkpt><trkpt lat="36.8819733" lon="15.1062543"><ele>22.666666666666668</ele><time>2026-04-04T17:25:48.986Z</time></trkpt><trkpt lat="36.8821707" lon="15.1063562"><ele>22.333333333333332</ele><time>2026-04-04T17:25:49.989Z</time></trkpt><trkpt lat="36.8823657" lon="15.1064609"><ele>22.0</ele><time>2026-04-04T17:25:50.987Z</time></trkpt><trkpt lat="36.8825597" lon="15.1065696"><ele>24.0</ele><time>2026-04-04T17:25:51.985Z</time></trkpt><trkpt lat="36.8827544" lon="15.106679"><ele>26.0</ele><time>2026-04-04T17:25:52.985Z</time></trkpt><trkpt lat="36.8829469" lon="15.1067896"><ele>28.0</ele><time>2026-04-04T17:25:53.987Z</time></trkpt><trkpt lat="36.8831404" lon="15.1069024"><ele>28.0</ele><time>2026-04-04T17:25:54.989Z</time></trkpt><trkpt lat="36.8833331" lon="15.1070155"><ele>28.0</ele><time>2026-04-04T17:25:55.987Z</time></trkpt><trkpt lat="36.8835227" lon="15.1071325"><ele>28.0</ele><time>2026-04-04T17:25:56.989Z</time></trkpt><trkpt lat="36.8837136" lon="15.1072417"><ele>29.333333333333336</ele><time>2026-04-04T17:25:57.986Z</time></trkpt><trkpt lat="36.8839046" lon="15.1073512"><ele>30.666666666666664</ele><time>2026-04-04T17:25:58.988Z</time></trkpt><trkpt lat="36.8840914" lon="15.1074627"><ele>32.0</ele><time>2026-04-04T17:25:59.989Z</time></trkpt><trkpt lat="36.8842765" lon="15.1075744"><ele>35.666666666666664</ele><time>2026-04-04T17:26:00.987Z</time></trkpt><trkpt lat="36.8844619" lon="15.1076834"><ele>39.333333333333336</ele><time>2026-04-04T17:26:01.985Z</time></trkpt><trkpt lat="36.8846474" lon="15.1077908"><ele>43.0</ele><time>2026-04-04T17:26:02.988Z</time></trkpt><trkpt lat="36.8848323" lon="15.1078981"><ele>43.0</ele><time>2026-04-04T17:26:03.988Z</time></trkpt><trkpt lat="36.8850177" lon="15.1080056"><ele>43.0</ele><time>2026-04-04T17:26:04.986Z</time></trkpt><trkpt lat="36.8852026" lon="15.1081108"><ele>43.0</ele><time>2026-04-04T17:26:05.987Z</time></trkpt><trkpt lat="36.8853869" lon="15.1082217"><ele>46.333333333333336</ele><time>2026-04-04T17:26:06.989Z</time></trkpt><trkpt lat="36.8855728" lon="15.1083297"><ele>49.66666666666667</ele><time>2026-04-04T17:26:07.989Z</time></trkpt><trkpt lat="36.8857624" lon="15.1084324"><ele>53.0</ele><time>2026-04-04T17:26:08.989Z</time></trkpt><trkpt lat="36.8859569" lon="15.1085276"><ele>53.0</ele><time>2026-04-04T17:26:09.989Z</time></trkpt><trkpt lat="36.8861522" lon="15.1086182"><ele>53.0</ele><time>2026-04-04T17:26:10.987Z</time></trkpt><trkpt lat="36.8863497" lon="15.1087027"><ele>53.0</ele><time>2026-04-04T17:26:11.989Z</time></trkpt><trkpt lat="36.8865485" lon="15.1087806"><ele>53.0</ele><time>2026-04-04T17:26:12.989Z</time></trkpt><trkpt lat="36.886747" lon="15.1088567"><ele>53.0</ele><time>2026-04-04T17:26:13.989Z</time></trkpt><trkpt lat="36.8869469" lon="15.1089256"><ele>53.0</ele><time>2026-04-04T17:26:14.988Z</time></trkpt><trkpt lat="36.8871469" lon="15.1089865"><ele>52.66666666666667</ele><time>2026-04-04T17:26:15.989Z</time></trkpt><trkpt lat="36.8873484" lon="15.1090469"><ele>52.33333333333333</ele><time>2026-04-04T17:26:16.989Z</time></trkpt><trkpt lat="36.8875502" lon="15.1090981"><ele>52.0</ele><time>2026-04-04T17:26:17.989Z</time></trkpt><trkpt lat="36.8877515" lon="15.1091431"><ele>52.0</ele><time>2026-04-04T17:26:18.989Z</time></trkpt><trkpt lat="36.8879521" lon="15.1091833"><ele>52.0</ele><time>2026-04-04T17:26:19.989Z</time></trkpt><trkpt lat="36.8881551" lon="15.1092165"><ele>52.0</ele><time>2026-04-04T17:26:20.989Z</time></trkpt><trkpt lat="36.8883577" lon="15.1092425"><ele>52.666666666666664</ele><time>2026-04-04T17:26:21.988Z</time></trkpt><trkpt lat="36.8885612" lon="15.1092668"><ele>53.33333333333333</ele><time>2026-04-04T17:26:22.989Z</time></trkpt><trkpt lat="36.8887657" lon="15.1092911"><ele>54.0</ele><time>2026-04-04T17:26:23.989Z</time></trkpt><trkpt lat="36.888971" lon="15.1093139"><ele>54.0</ele><time>2026-04-04T17:26:24.989Z</time></trkpt><trkpt lat="36.8891753" lon="15.109334"><ele>54.0</ele><time>2026-04-04T17:26:25.989Z</time></trkpt><trkpt lat="36.8893826" lon="15.109356"><ele>54.0</ele><time>2026-04-04T17:26:26.985Z</time></trkpt><trkpt lat="36.889588" lon="15.1093792"><ele>54.66666666666667</ele><time>2026-04-04T17:26:27.986Z</time></trkpt><trkpt lat="36.8897916" lon="15.1094014"><ele>55.333333333333336</ele><time>2026-04-04T17:26:28.989Z</time></trkpt><trkpt lat="36.8899981" lon="15.1094281"><ele>56.0</ele><time>2026-04-04T17:26:29.989Z</time></trkpt><trkpt lat="36.8902022" lon="15.1094546"><ele>56.0</ele><time>2026-04-04T17:26:30.989Z</time></trkpt><trkpt lat="36.8904045" lon="15.1094863"><ele>56.0</ele><time>2026-04-04T17:26:31.989Z</time></trkpt><trkpt lat="36.8906044" lon="15.1095214"><ele>56.0</ele><time>2026-04-04T17:26:32.989Z</time></trkpt><trkpt lat="36.8908021" lon="15.1095598"><ele>57.66666666666667</ele><time>2026-04-04T17:26:33.989Z</time></trkpt><trkpt lat="36.8909975" lon="15.1095992"><ele>59.33333333333333</ele><time>2026-04-04T17:26:34.989Z</time></trkpt><trkpt lat="36.8911928" lon="15.1096442"><ele>61.0</ele><time>2026-04-04T17:26:35.989Z</time></trkpt><trkpt lat="36.8913853" lon="15.1096927"><ele>61.0</ele><time>2026-04-04T17:26:36.989Z</time></trkpt><trkpt lat="36.8915757" lon="15.1097424"><ele>61.0</ele><time>2026-04-04T17:26:37.989Z</time></trkpt><trkpt lat="36.8917685" lon="15.109795"><ele>61.0</ele><time>2026-04-04T17:26:38.989Z</time></trkpt><trkpt lat="36.8919623" lon="15.1098521"><ele>61.33333333333333</ele><time>2026-04-04T17:26:39.989Z</time></trkpt><trkpt lat="36.8921544" lon="15.1099083"><ele>61.66666666666667</ele><time>2026-04-04T17:26:40.989Z</time></trkpt><trkpt lat="36.8923448" lon="15.1099732"><ele>62.0</ele><time>2026-04-04T17:26:41.989Z</time></trkpt><trkpt lat="36.8925366" lon="15.1100477"><ele>62.66666666666667</ele><time>2026-04-04T17:26:42.989Z</time></trkpt><trkpt lat="36.892728" lon="15.1101202"><ele>63.33333333333333</ele><time>2026-04-04T17:26:43.989Z</time></trkpt><trkpt lat="36.8929209" lon="15.1101947"><ele>64.0</ele><time>2026-04-04T17:26:44.989Z</time></trkpt><trkpt lat="36.8931144" lon="15.1102766"><ele>64.0</ele><time>2026-04-04T17:26:45.989Z</time></trkpt><trkpt lat="36.8933045" lon="15.1103665"><ele>64.0</ele><time>2026-04-04T17:26:46.989Z</time></trkpt><trkpt lat="36.8934975" lon="15.1104602"><ele>64.0</ele><time>2026-04-04T17:26:47.989Z</time></trkpt><trkpt lat="36.893691" lon="15.1105527"><ele>63.666666666666664</ele><time>2026-04-04T17:26:48.989Z</time></trkpt><trkpt lat="36.8938815" lon="15.1106531"><ele>63.33333333333333</ele><time>2026-04-04T17:26:49.988Z</time></trkpt><trkpt lat="36.8940738" lon="15.1107591"><ele>63.0</ele><time>2026-04-04T17:26:50.989Z</time></trkpt><trkpt lat="36.8942664" lon="15.110865"><ele>61.66666666666667</ele><time>2026-04-04T17:26:51.989Z</time></trkpt><trkpt lat="36.8944601" lon="15.1109755"><ele>60.333333333333336</ele><time>2026-04-04T17:26:52.989Z</time></trkpt><trkpt lat="36.894655" lon="15.1110912"><ele>59.0</ele><time>2026-04-04T17:26:53.989Z</time></trkpt><trkpt lat="36.8948512" lon="15.1112149"><ele>59.0</ele><time>2026-04-04T17:26:54.989Z</time></trkpt><trkpt lat="36.8950509" lon="15.1113497"><ele>59.0</ele><time>2026-04-04T17:26:55.989Z</time></trkpt><trkpt lat="36.8952507" lon="15.1114904"><ele>60.5</ele><time>2026-04-04T17:26:56.989Z</time></trkpt><trkpt lat="36.8954555" lon="15.1116301"><ele>62.0</ele><time>2026-04-04T17:26:57.989Z</time></trkpt><trkpt lat="36.8956608" lon="15.1117724"><ele>62.0</ele><time>2026-04-04T17:26:58.989Z</time></trkpt><trkpt lat="36.8958713" lon="15.1119173"><ele>62.0</ele><time>2026-04-04T17:26:59.989Z</time></trkpt><trkpt lat="36.8960795" lon="15.1120656"><ele>64.5</ele><time>2026-04-04T17:27:00.989Z</time></trkpt><trkpt lat="36.8962911" lon="15.1122121"><ele>67.0</ele><time>2026-04-04T17:27:01.989Z</time></trkpt><trkpt lat="36.8965011" lon="15.1123613"><ele>66.5</ele><time>2026-04-04T17:27:02.989Z</time></trkpt><trkpt lat="36.8967127" lon="15.1125068"><ele>66.0</ele><time>2026-04-04T17:27:03.989Z</time></trkpt><trkpt lat="36.8969247" lon="15.1126544"><ele>66.0</ele><time>2026-04-04T17:27:04.989Z</time></trkpt><trkpt lat="36.897136" lon="15.1128036"><ele>66.0</ele><time>2026-04-04T17:27:05.989Z</time></trkpt><trkpt lat="36.8973508" lon="15.1129527"><ele>66.0</ele><time>2026-04-04T17:27:06.989Z</time></trkpt><trkpt lat="36.8975631" lon="15.1131014"><ele>66.0</ele><time>2026-04-04T17:27:07.989Z</time></trkpt><trkpt lat="36.8977724" lon="15.113251"><ele>65.0</ele><time>2026-04-04T17:27:08.989Z</time></trkpt><trkpt lat="36.8979833" lon="15.1134031"><ele>64.0</ele><time>2026-04-04T17:27:09.989Z</time></trkpt><trkpt lat="36.898196" lon="15.1135515"><ele>64.0</ele><time>2026-04-04T17:27:10.989Z</time></trkpt><trkpt lat="36.8984025" lon="15.1136951"><ele>64.0</ele><time>2026-04-04T17:27:11.989Z</time></trkpt><trkpt lat="36.8986057" lon="15.1138371"><ele>65.0</ele><time>2026-04-04T17:27:12.989Z</time></trkpt><trkpt lat="36.8988092" lon="15.1139789"><ele>66.0</ele><time>2026-04-04T17:27:13.989Z</time></trkpt><trkpt lat="36.8990081" lon="15.1141237"><ele>66.0</ele><time>2026-04-04T17:27:14.989Z</time></trkpt><trkpt lat="36.8992076" lon="15.1142659"><ele>66.0</ele><time>2026-04-04T17:27:15.989Z</time></trkpt><trkpt lat="36.8994053" lon="15.1144087"><ele>66.0</ele><time>2026-04-04T17:27:16.989Z</time></trkpt><trkpt lat="36.8996048" lon="15.1145488"><ele>66.0</ele><time>2026-04-04T17:27:17.989Z</time></trkpt><trkpt lat="36.8998079" lon="15.1146885"><ele>66.0</ele><time>2026-04-04T17:27:18.989Z</time></trkpt><trkpt lat="36.9000106" lon="15.114826"><ele>66.0</ele><time>2026-04-04T17:27:19.988Z</time></trkpt><trkpt lat="36.9002138" lon="15.1149613"><ele>65.0</ele><time>2026-04-04T17:27:20.989Z</time></trkpt><trkpt lat="36.9004211" lon="15.1150922"><ele>64.0</ele><time>2026-04-04T17:27:21.989Z</time></trkpt><trkpt lat="36.9006262" lon="15.1152197"><ele>64.0</ele><time>2026-04-04T17:27:22.989Z</time></trkpt><trkpt lat="36.9008356" lon="15.1153523"><ele>64.0</ele><time>2026-04-04T17:27:23.989Z</time></trkpt><trkpt lat="36.9010431" lon="15.1154787"><ele>65.0</ele><time>2026-04-04T17:27:24.989Z</time></trkpt><trkpt lat="36.901249" lon="15.1156039"><ele>66.0</ele><time>2026-04-04T17:27:25.989Z</time></trkpt><trkpt lat="36.9014574" lon="15.1157295"><ele>65.5</ele><time>2026-04-04T17:27:26.989Z</time></trkpt><trkpt lat="36.9016672" lon="15.1158495"><ele>65.0</ele><time>2026-04-04T17:27:27.989Z</time></trkpt><trkpt lat="36.9018783" lon="15.1159675"><ele>65.0</ele><time>2026-04-04T17:27:28.989Z</time></trkpt><trkpt lat="36.9020924" lon="15.1160831"><ele>65.0</ele><time>2026-04-04T17:27:29.986Z</time></trkpt><trkpt lat="36.9023035" lon="15.1161962"><ele>65.0</ele><time>2026-04-04T17:27:30.989Z</time></trkpt><trkpt lat="36.9025175" lon="15.1163093"><ele>65.0</ele><time>2026-04-04T17:27:31.989Z</time></trkpt><trkpt lat="36.9027326" lon="15.1164207"><ele>65.0</ele><time>2026-04-04T17:27:32.988Z</time></trkpt><trkpt lat="36.9029466" lon="15.1165311"><ele>65.0</ele><time>2026-04-04T17:27:33.989Z</time></trkpt><trkpt lat="36.9031602" lon="15.1166397"><ele>64.5</ele><time>2026-04-04T17:27:34.988Z</time></trkpt><trkpt lat="36.9033745" lon="15.1167493"><ele>64.0</ele><time>2026-04-04T17:27:35.988Z</time></trkpt><trkpt lat="36.9035889" lon="15.116855"><ele>64.0</ele><time>2026-04-04T17:27:36.988Z</time></trkpt><trkpt lat="36.9038018" lon="15.1169639"><ele>64.0</ele><time>2026-04-04T17:27:37.989Z</time></trkpt><trkpt lat="36.9040151" lon="15.1170707"><ele>64.0</ele><time>2026-04-04T17:27:38.988Z</time></trkpt><trkpt lat="36.9042308" lon="15.1171705"><ele>64.0</ele><time>2026-04-04T17:27:39.989Z</time></trkpt><trkpt lat="36.9044449" lon="15.117265"><ele>64.5</ele><time>2026-04-04T17:27:40.989Z</time></trkpt><trkpt lat="36.9046557" lon="15.1173663"><ele>65.0</ele><time>2026-04-04T17:27:41.989Z</time></trkpt><trkpt lat="36.9048656" lon="15.1174723"><ele>65.0</ele><time>2026-04-04T17:27:42.989Z</time></trkpt><trkpt lat="36.9050779" lon="15.1175808"><ele>65.0</ele><time>2026-04-04T17:27:43.989Z</time></trkpt><trkpt lat="36.9052908" lon="15.1176859"><ele>66.0</ele><time>2026-04-04T17:27:44.988Z</time></trkpt><trkpt lat="36.9055038" lon="15.1177903"><ele>67.0</ele><time>2026-04-04T17:27:45.989Z</time></trkpt><trkpt lat="36.9057153" lon="15.117894"><ele>67.5</ele><time>2026-04-04T17:27:46.987Z</time></trkpt><trkpt lat="36.9059274" lon="15.1179955"><ele>68.0</ele><time>2026-04-04T17:27:47.989Z</time></trkpt><trkpt lat="36.9061372" lon="15.1180982"><ele>68.0</ele><time>2026-04-04T17:27:48.989Z</time></trkpt><trkpt lat="36.9063454" lon="15.1182018"><ele>68.0</ele><time>2026-04-04T17:27:49.989Z</time></trkpt><trkpt lat="36.9065527" lon="15.1183031"><ele>68.0</ele><time>2026-04-04T17:27:50.989Z</time></trkpt><trkpt lat="36.9067617" lon="15.1184053"><ele>69.33333333333334</ele><time>2026-04-04T17:27:51.989Z</time></trkpt><trkpt lat="36.9069684" lon="15.1185065"><ele>70.66666666666667</ele><time>2026-04-04T17:27:52.989Z</time></trkpt><trkpt lat="36.9071783" lon="15.1186089"><ele>72.0</ele><time>2026-04-04T17:27:53.988Z</time></trkpt><trkpt lat="36.9073876" lon="15.1187079"><ele>72.5</ele><time>2026-04-04T17:27:54.988Z</time></trkpt><trkpt lat="36.9075997" lon="15.1188091"><ele>73.0</ele><time>2026-04-04T17:27:55.989Z</time></trkpt><trkpt lat="36.9078134" lon="15.1189139"><ele>73.0</ele><time>2026-04-04T17:27:56.989Z</time></trkpt><trkpt lat="36.9080279" lon="15.1190227"><ele>73.0</ele><time>2026-04-04T17:27:57.989Z</time></trkpt><trkpt lat="36.9082442" lon="15.1191304"><ele>72.5</ele><time>2026-04-04T17:27:58.986Z</time></trkpt><trkpt lat="36.9084625" lon="15.1192337"><ele>72.0</ele><time>2026-04-04T17:27:59.989Z</time></trkpt><trkpt lat="36.9086817" lon="15.1193366"><ele>72.0</ele><time>2026-04-04T17:28:00.989Z</time></trkpt><trkpt lat="36.9089081" lon="15.1194418"><ele>72.0</ele><time>2026-04-04T17:28:01.989Z</time></trkpt><trkpt lat="36.9091413" lon="15.1195531"><ele>73.5</ele><time>2026-04-04T17:28:02.989Z</time></trkpt><trkpt lat="36.9093819" lon="15.1196706"><ele>75.0</ele><time>2026-04-04T17:28:03.989Z</time></trkpt><trkpt lat="36.9096291" lon="15.1197867"><ele>75.0</ele><time>2026-04-04T17:28:04.988Z</time></trkpt><trkpt lat="36.9098753" lon="15.1199019"><ele>75.0</ele><time>2026-04-04T17:28:05.989Z</time></trkpt><trkpt lat="36.9101109" lon="15.1200131"><ele>75.0</ele><time>2026-04-04T17:28:06.989Z</time></trkpt><trkpt lat="36.9103503" lon="15.1201285"><ele>75.0</ele><time>2026-04-04T17:28:07.989Z</time></trkpt><trkpt lat="36.9105906" lon="15.1202461"><ele>75.0</ele><time>2026-04-04T17:28:08.988Z</time></trkpt><trkpt lat="36.9108366" lon="15.1203667"><ele>75.0</ele><time>2026-04-04T17:28:09.989Z</time></trkpt><trkpt lat="36.9110881" lon="15.1204916"><ele>75.0</ele><time>2026-04-04T17:28:10.989Z</time></trkpt><trkpt lat="36.9113389" lon="15.1206189"><ele>75.0</ele><time>2026-04-04T17:28:11.989Z</time></trkpt><trkpt lat="36.911587" lon="15.1207498"><ele>74.5</ele><time>2026-04-04T17:28:12.987Z</time></trkpt><trkpt lat="36.9118337" lon="15.1208852"><ele>74.0</ele><time>2026-04-04T17:28:13.989Z</time></trkpt><trkpt lat="36.9120787" lon="15.1210235"><ele>74.0</ele><time>2026-04-04T17:28:14.989Z</time></trkpt><trkpt lat="36.9123211" lon="15.1211655"><ele>74.0</ele><time>2026-04-04T17:28:15.989Z</time></trkpt><trkpt lat="36.9125641" lon="15.12131"><ele>74.0</ele><time>2026-04-04T17:28:16.989Z</time></trkpt><trkpt lat="36.9128089" lon="15.1214572"><ele>74.0</ele><time>2026-04-04T17:28:17.988Z</time></trkpt><trkpt lat="36.9130535" lon="15.1216091"><ele>74.0</ele><time>2026-04-04T17:28:18.988Z</time></trkpt><trkpt lat="36.9132979" lon="15.1217633"><ele>74.0</ele><time>2026-04-04T17:28:19.989Z</time></trkpt><trkpt lat="36.9135396" lon="15.121922"><ele>74.5</ele><time>2026-04-04T17:28:20.989Z</time></trkpt><trkpt lat="36.9137782" lon="15.1220835"><ele>75.0</ele><time>2026-04-04T17:28:21.989Z</time></trkpt><trkpt lat="36.9140168" lon="15.1222449"><ele>73.5</ele><time>2026-04-04T17:28:22.989Z</time></trkpt><trkpt lat="36.9142516" lon="15.1224075"><ele>72.0</ele><time>2026-04-04T17:28:23.989Z</time></trkpt><trkpt lat="36.9144843" lon="15.1225732"><ele>72.0</ele><time>2026-04-04T17:28:24.986Z</time></trkpt><trkpt lat="36.914714" lon="15.1227419"><ele>72.0</ele><time>2026-04-04T17:28:25.989Z</time></trkpt><trkpt lat="36.9149405" lon="15.1229111"><ele>72.5</ele><time>2026-04-04T17:28:26.985Z</time></trkpt><trkpt lat="36.9151654" lon="15.1230804"><ele>73.0</ele><time>2026-04-04T17:28:27.985Z</time></trkpt><trkpt lat="36.9153883" lon="15.1232528"><ele>70.5</ele><time>2026-04-04T17:28:28.987Z</time></trkpt><trkpt lat="36.9156096" lon="15.1234275"><ele>68.0</ele><time>2026-04-04T17:28:29.988Z</time></trkpt><trkpt lat="36.9158281" lon="15.1236061"><ele>69.5</ele><time>2026-04-04T17:28:30.988Z</time></trkpt><trkpt lat="36.9160431" lon="15.1237886"><ele>71.0</ele><time>2026-04-04T17:28:31.989Z</time></trkpt><trkpt lat="36.9162554" lon="15.1239717"><ele>69.5</ele><time>2026-04-04T17:28:32.989Z</time></trkpt><trkpt lat="36.9164646" lon="15.1241519"><ele>68.0</ele><time>2026-04-04T17:28:33.989Z</time></trkpt><trkpt lat="36.9166726" lon="15.1243363"><ele>69.5</ele><time>2026-04-04T17:28:34.989Z</time></trkpt><trkpt lat="36.9168773" lon="15.1245239"><ele>71.0</ele><time>2026-04-04T17:28:35.989Z</time></trkpt><trkpt lat="36.9170773" lon="15.1247087"><ele>71.0</ele><time>2026-04-04T17:28:36.989Z</time></trkpt><trkpt lat="36.9172745" lon="15.1248947"><ele>71.0</ele><time>2026-04-04T17:28:37.989Z</time></trkpt><trkpt lat="36.9174671" lon="15.125083"><ele>71.5</ele><time>2026-04-04T17:28:38.989Z</time></trkpt><trkpt lat="36.9176579" lon="15.1252718"><ele>72.0</ele><time>2026-04-04T17:28:39.989Z</time></trkpt><trkpt lat="36.9178473" lon="15.1254583"><ele>72.0</ele><time>2026-04-04T17:28:40.988Z</time></trkpt><trkpt lat="36.9180342" lon="15.1256462"><ele>72.0</ele><time>2026-04-04T17:28:41.987Z</time></trkpt><trkpt lat="36.9182177" lon="15.1258361"><ele>73.0</ele><time>2026-04-04T17:28:42.989Z</time></trkpt><trkpt lat="36.9183981" lon="15.126028"><ele>74.0</ele><time>2026-04-04T17:28:43.989Z</time></trkpt><trkpt lat="36.9185774" lon="15.1262227"><ele>74.0</ele><time>2026-04-04T17:28:44.989Z</time></trkpt><trkpt lat="36.9187567" lon="15.1264174"><ele>74.0</ele><time>2026-04-04T17:28:45.989Z</time></trkpt><trkpt lat="36.9189364" lon="15.1266133"><ele>73.5</ele><time>2026-04-04T17:28:46.987Z</time></trkpt><trkpt lat="36.9191128" lon="15.1268128"><ele>73.0</ele><time>2026-04-04T17:28:47.989Z</time></trkpt><trkpt lat="36.9192854" lon="15.1270162"><ele>73.0</ele><time>2026-04-04T17:28:48.987Z</time></trkpt><trkpt lat="36.9194555" lon="15.1272211"><ele>73.0</ele><time>2026-04-04T17:28:49.989Z</time></trkpt><trkpt lat="36.9196233" lon="15.1274241"><ele>72.5</ele><time>2026-04-04T17:28:50.989Z</time></trkpt><trkpt lat="36.91979" lon="15.1276271"><ele>72.0</ele><time>2026-04-04T17:28:51.989Z</time></trkpt><trkpt lat="36.9199543" lon="15.1278287"><ele>72.0</ele><time>2026-04-04T17:28:52.986Z</time></trkpt><trkpt lat="36.9201144" lon="15.1280274"><ele>72.0</ele><time>2026-04-04T17:28:53.989Z</time></trkpt><trkpt lat="36.9202741" lon="15.1282272"><ele>72.0</ele><time>2026-04-04T17:28:54.989Z</time></trkpt><trkpt lat="36.9204306" lon="15.12843"><ele>72.0</ele><time>2026-04-04T17:28:55.989Z</time></trkpt><trkpt lat="36.9205854" lon="15.1286376"><ele>72.0</ele><time>2026-04-04T17:28:56.989Z</time></trkpt><trkpt lat="36.9207415" lon="15.1288477"><ele>72.0</ele><time>2026-04-04T17:28:57.986Z</time></trkpt><trkpt lat="36.9222856" lon="15.1582591"><ele>57.0</ele><time>2026-04-04T17:30:39.316Z</time></trkpt><trkpt lat="36.9762824" lon="15.1944314"><ele>55.0</ele><time>2026-04-04T17:34:57.799Z</time></trkpt><trkpt lat="36.9824599" lon="15.1939429"><ele>49.0</ele><time>2026-04-04T17:35:21.714Z</time></trkpt><trkpt lat="36.999261" lon="15.1917456"><ele>24.0</ele><time>2026-04-04T17:36:16.482Z</time></trkpt><trkpt lat="37.0230077" lon="15.2170926"><ele>24.0</ele><time>2026-04-04T17:38:16.019Z</time></trkpt><trkpt lat="37.0594342" lon="15.2267941"><ele>15.0</ele><time>2026-04-04T17:40:53.337Z</time></trkpt><trkpt lat="37.0648936" lon="15.2267852"><ele>14.0</ele><time>2026-04-04T17:41:11.481Z</time></trkpt><trkpt lat="37.0721146" lon="15.2329243"><ele>20.0</ele><time>2026-04-04T17:42:24.693Z</time></trkpt><trkpt lat="37.0723129" lon="15.235382"><ele>17.0</ele><time>2026-04-04T17:42:38.263Z</time></trkpt><trkpt lat="37.0739778" lon="15.2430892"><ele>17.0</ele><time>2026-04-04T17:43:12.609Z</time></trkpt><trkpt lat="37.0742414" lon="15.2441807"><ele>15.0</ele><time>2026-04-04T17:43:25.609Z</time></trkpt><trkpt lat="37.0741373" lon="15.245764"><ele>10.0</ele><time>2026-04-04T17:43:31.709Z</time></trkpt><trkpt lat="37.0760056" lon="15.2503001"><ele>17.0</ele><time>2026-04-04T17:44:20.265Z</time></trkpt><trkpt lat="37.0760787" lon="15.2528312"><ele>23.0</ele><time>2026-04-04T17:44:26.584Z</time></trkpt><trkpt lat="37.0742606" lon="15.2576901"><ele>15.0</ele><time>2026-04-04T17:45:03.169Z</time></trkpt><trkpt lat="37.0732301" lon="15.2638519"><ele>15.5</ele><time>2026-04-04T17:45:39.208Z</time></trkpt><trkpt lat="37.0731856" lon="15.2640219"><ele>16.0</ele><time>2026-04-04T17:45:40.226Z</time></trkpt><trkpt lat="37.0730149" lon="15.2644099"><ele>16.0</ele><time>2026-04-04T17:45:41.978Z</time></trkpt><trkpt lat="37.0729425" lon="15.2646244"><ele>16.0</ele><time>2026-04-04T17:45:42.978Z</time></trkpt><trkpt lat="37.0728586" lon="15.2648321"><ele>16.0</ele><time>2026-04-04T17:45:43.978Z</time></trkpt><trkpt lat="37.0727754" lon="15.2650488"><ele>16.333333333333332</ele><time>2026-04-04T17:45:44.978Z</time></trkpt><trkpt lat="37.0726929" lon="15.265267"><ele>16.666666666666668</ele><time>2026-04-04T17:45:45.978Z</time></trkpt><trkpt lat="37.0726106" lon="15.2654853"><ele>17.0</ele><time>2026-04-04T17:45:46.978Z</time></trkpt><trkpt lat="37.0725362" lon="15.2656925"><ele>17.333333333333336</ele><time>2026-04-04T17:45:47.978Z</time></trkpt><trkpt lat="37.0724642" lon="15.2658864"><ele>17.666666666666668</ele><time>2026-04-04T17:45:48.978Z</time></trkpt><trkpt lat="37.0723932" lon="15.2660664"><ele>18.0</ele><time>2026-04-04T17:45:49.978Z</time></trkpt><trkpt lat="37.0723339" lon="15.2662348"><ele>17.25</ele><time>2026-04-04T17:45:50.978Z</time></trkpt><trkpt lat="37.0722759" lon="15.266394"><ele>16.5</ele><time>2026-04-04T17:45:51.978Z</time></trkpt><trkpt lat="37.0722181" lon="15.2665521"><ele>15.75</ele><time>2026-04-04T17:45:52.978Z</time></trkpt><trkpt lat="37.0721599" lon="15.2667197"><ele>15.0</ele><time>2026-04-04T17:45:53.978Z</time></trkpt><trkpt lat="37.0720987" lon="15.2668887"><ele>15.0</ele><time>2026-04-04T17:45:54.978Z</time></trkpt><trkpt lat="37.0720356" lon="15.2670594"><ele>15.0</ele><time>2026-04-04T17:45:55.978Z</time></trkpt><trkpt lat="37.0719723" lon="15.2672297"><ele>15.0</ele><time>2026-04-04T17:45:56.977Z</time></trkpt><trkpt lat="37.0719092" lon="15.26739"><ele>15.0</ele><time>2026-04-04T17:45:57.978Z</time></trkpt><trkpt lat="37.0718518" lon="15.267542"><ele>14.8</ele><time>2026-04-04T17:45:58.978Z</time></trkpt><trkpt lat="37.0718018" lon="15.2676719"><ele>14.6</ele><time>2026-04-04T17:45:59.978Z</time></trkpt><trkpt lat="37.0717556" lon="15.2677938"><ele>14.399999999999999</ele><time>2026-04-04T17:46:00.978Z</time></trkpt><trkpt lat="37.071708" lon="15.2679118"><ele>14.2</ele><time>2026-04-04T17:46:01.978Z</time></trkpt><trkpt lat="37.0716632" lon="15.2680249"><ele>14.0</ele><time>2026-04-04T17:46:02.978Z</time></trkpt><trkpt lat="37.0716185" lon="15.2681316"><ele>13.6</ele><time>2026-04-04T17:46:03.978Z</time></trkpt><trkpt lat="37.0715734" lon="15.2682391"><ele>13.2</ele><time>2026-04-04T17:46:04.978Z</time></trkpt><trkpt lat="37.071527" lon="15.2683641"><ele>12.799999999999999</ele><time>2026-04-04T17:46:05.978Z</time></trkpt><trkpt lat="37.0714779" lon="15.268497"><ele>12.399999999999999</ele><time>2026-04-04T17:46:06.978Z</time></trkpt><trkpt lat="37.0714289" lon="15.2686304"><ele>12.0</ele><time>2026-04-04T17:46:07.978Z</time></trkpt><trkpt lat="37.0713825" lon="15.2687613"><ele>12.0</ele><time>2026-04-04T17:46:08.978Z</time></trkpt><trkpt lat="37.0713388" lon="15.268884"><ele>12.0</ele><time>2026-04-04T17:46:09.978Z</time></trkpt><trkpt lat="37.0712972" lon="15.2689987"><ele>12.0</ele><time>2026-04-04T17:46:10.978Z</time></trkpt><trkpt lat="37.0712554" lon="15.2691083"><ele>12.0</ele><time>2026-04-04T17:46:11.978Z</time></trkpt><trkpt lat="37.0712172" lon="15.2692143"><ele>12.0</ele><time>2026-04-04T17:46:12.978Z</time></trkpt><trkpt lat="37.0711792" lon="15.2693188"><ele>12.0</ele><time>2026-04-04T17:46:13.978Z</time></trkpt><trkpt lat="37.0711421" lon="15.2694221"><ele>12.0</ele><time>2026-04-04T17:46:14.978Z</time></trkpt><trkpt lat="37.0711071" lon="15.2695197"><ele>12.0</ele><time>2026-04-04T17:46:15.978Z</time></trkpt><trkpt lat="37.0710719" lon="15.2696107"><ele>12.0</ele><time>2026-04-04T17:46:16.978Z</time></trkpt><trkpt lat="37.0710335" lon="15.2696935"><ele>12.0</ele><time>2026-04-04T17:46:17.978Z</time></trkpt><trkpt lat="37.070991" lon="15.2697579"><ele>12.0</ele><time>2026-04-04T17:46:18.978Z</time></trkpt><trkpt lat="37.0709027" lon="15.2698345"><ele>12.2</ele><time>2026-04-04T17:46:20.978Z</time></trkpt><trkpt lat="37.0708316" lon="15.2698994"><ele>12.399999999999999</ele><time>2026-04-04T17:46:22.978Z</time></trkpt><trkpt lat="37.0707896" lon="15.2699875"><ele>12.600000000000001</ele><time>2026-04-04T17:46:25.978Z</time></trkpt><trkpt lat="37.0707653" lon="15.2700965"><ele>12.8</ele><time>2026-04-04T17:46:27.978Z</time></trkpt><trkpt lat="37.0707274" lon="15.2702895"><ele>13.0</ele><time>2026-04-04T17:46:29.978Z</time></trkpt><trkpt lat="37.0707098" lon="15.2704118"><ele>12.600000000000001</ele><time>2026-04-04T17:46:30.978Z</time></trkpt><trkpt lat="37.0706906" lon="15.2705381"><ele>12.200000000000001</ele><time>2026-04-04T17:46:31.978Z</time></trkpt><trkpt lat="37.0706673" lon="15.2706513"><ele>11.8</ele><time>2026-04-04T17:46:32.978Z</time></trkpt><trkpt lat="37.0706453" lon="15.2707521"><ele>11.4</ele><time>2026-04-04T17:46:33.978Z</time></trkpt><trkpt lat="37.0706329" lon="15.2708385"><ele>11.0</ele><time>2026-04-04T17:46:34.978Z</time></trkpt><trkpt lat="37.0706689" lon="15.2709633"><ele>11.0</ele><time>2026-04-04T17:46:36.978Z</time></trkpt><trkpt lat="37.0707179" lon="15.2710182"><ele>11.0</ele><time>2026-04-04T17:46:37.977Z</time></trkpt><trkpt lat="37.0707706" lon="15.271074"><ele>11.0</ele><time>2026-04-04T17:46:38.977Z</time></trkpt><trkpt lat="37.0708068" lon="15.2711417"><ele>11.0</ele><time>2026-04-04T17:46:39.978Z</time></trkpt><trkpt lat="37.0708349" lon="15.2712185"><ele>11.0</ele><time>2026-04-04T17:46:40.978Z</time></trkpt><trkpt lat="37.070866" lon="15.2713115"><ele>11.0</ele><time>2026-04-04T17:46:41.978Z</time></trkpt><trkpt lat="37.0709037" lon="15.2714266"><ele>11.0</ele><time>2026-04-04T17:46:42.978Z</time></trkpt><trkpt lat="37.0709386" lon="15.2715493"><ele>11.75</ele><time>2026-04-04T17:46:43.978Z</time></trkpt><trkpt lat="37.0709744" lon="15.2716811"><ele>12.5</ele><time>2026-04-04T17:46:44.978Z</time></trkpt><trkpt lat="37.0710195" lon="15.271827"><ele>13.25</ele><time>2026-04-04T17:46:45.978Z</time></trkpt><trkpt lat="37.0710654" lon="15.2719626"><ele>14.0</ele><time>2026-04-04T17:46:46.978Z</time></trkpt><trkpt lat="37.0711045" lon="15.2720893"><ele>14.0</ele><time>2026-04-04T17:46:47.978Z</time></trkpt><trkpt lat="37.0711363" lon="15.2722179"><ele>14.0</ele><time>2026-04-04T17:46:48.978Z</time></trkpt><trkpt lat="37.071169" lon="15.2723557"><ele>14.0</ele><time>2026-04-04T17:46:49.978Z</time></trkpt><trkpt lat="37.0712101" lon="15.2725076"><ele>14.0</ele><time>2026-04-04T17:46:50.978Z</time></trkpt><trkpt lat="37.0712581" lon="15.2726736"><ele>13.333333333333334</ele><time>2026-04-04T17:46:51.977Z</time></trkpt><trkpt lat="37.0713026" lon="15.2728585"><ele>12.666666666666668</ele><time>2026-04-04T17:46:52.978Z</time></trkpt><trkpt lat="37.0713508" lon="15.2730618"><ele>12.0</ele><time>2026-04-04T17:46:53.978Z</time></trkpt><trkpt lat="37.0731267" lon="15.2763373"><ele>11.0</ele><time>2026-04-04T17:47:13.526Z</time></trkpt><trkpt lat="37.0709707" lon="15.2799856"><ele>20.0</ele><time>2026-04-04T17:47:31.051Z</time></trkpt><trkpt lat="37.073269" lon="15.2802509"><ele>20.0</ele><time>2026-04-04T17:47:40.471Z</time></trkpt><trkpt lat="37.0734252" lon="15.2804491"><ele>20.0</ele><time>2026-04-04T17:47:49.215Z</time></trkpt><trkpt lat="37.0737698" lon="15.2804858"><ele>21.0</ele><time>2026-04-04T17:47:55.771Z</time></trkpt><trkpt lat="37.0746463" lon="15.2817869"><ele>19.0</ele><time>2026-04-04T17:48:02.245Z</time></trkpt><trkpt lat="37.0734324" lon="15.2815643"><ele>21.0</ele><time>2026-04-04T17:48:08.563Z</time></trkpt><trkpt lat="37.0746565" lon="15.2816534"><ele>21.0</ele><time>2026-04-04T17:48:21.312Z</time></trkpt><trkpt lat="37.0747302" lon="15.2821323"><ele>21.0</ele><time>2026-04-04T17:48:28.232Z</time></trkpt><trkpt lat="37.0746339" lon="15.2828687"><ele>22.0</ele><time>2026-04-04T17:48:35.31Z</time></trkpt><trkpt lat="37.0747714" lon="15.2833466"><ele>23.0</ele><time>2026-04-04T17:48:42.396Z</time></trkpt><trkpt lat="37.0746358" lon="15.2843958"><ele>20.0</ele><time>2026-04-04T17:48:49.345Z</time></trkpt><trkpt lat="37.0751542" lon="15.2846202"><ele>18.0</ele><time>2026-04-04T17:48:56.26Z</time></trkpt><trkpt lat="37.0756429" lon="15.2856358"><ele>19.0</ele><time>2026-04-04T17:49:16.854Z</time></trkpt><trkpt lat="37.0751799" lon="15.2867283"><ele>22.0</ele><time>2026-04-04T17:49:23.721Z</time></trkpt><trkpt lat="37.0756202" lon="15.2873382"><ele>24.0</ele><time>2026-04-04T17:49:30.465Z</time></trkpt><trkpt lat="37.0752745" lon="15.2881063"><ele>24.0</ele><time>2026-04-04T17:49:37.301Z</time></trkpt><trkpt lat="37.0754062" lon="15.2886349"><ele>24.0</ele><time>2026-04-04T17:49:44.192Z</time></trkpt><trkpt lat="37.0753739" lon="15.2893685"><ele>22.0</ele><time>2026-04-04T17:49:50.954Z</time></trkpt><trkpt lat="37.0754299" lon="15.2903966"><ele>23.0</ele><time>2026-04-04T17:49:57.743Z</time></trkpt><trkpt lat="37.0755117" lon="15.290978"><ele>20.0</ele><time>2026-04-04T17:50:04.492Z</time></trkpt><trkpt lat="37.075618" lon="15.2914501"><ele>17.0</ele><time>2026-04-04T17:50:10.851Z</time></trkpt><trkpt lat="37.0757484" lon="15.2920039"><ele>17.0</ele><time>2026-04-04T17:50:17.32Z</time></trkpt><trkpt lat="37.0756734" lon="15.2921205"><ele>17.0</ele><time>2026-04-04T17:50:23.773Z</time></trkpt><trkpt lat="37.0755182" lon="15.2921804"><ele>17.0</ele><time>2026-04-04T17:50:30.128Z</time></trkpt><trkpt lat="37.0752394" lon="15.2923238"><ele>17.5</ele><time>2026-04-04T17:50:36.174Z</time></trkpt><trkpt lat="37.0750098" lon="15.2926773"><ele>18.0</ele><time>2026-04-04T17:50:42.203Z</time></trkpt><trkpt lat="37.0751564" lon="15.2930273"><ele>17.5</ele><time>2026-04-04T17:50:49.205Z</time></trkpt><trkpt lat="37.0751916" lon="15.2933674"><ele>17.0</ele><time>2026-04-04T17:50:56.044Z</time></trkpt><trkpt lat="37.07544" lon="15.2935084"><ele>21.0</ele><time>2026-04-04T17:51:02.719Z</time></trkpt><trkpt lat="37.075928" lon="15.2937521"><ele>21.0</ele><time>2026-04-04T17:51:08.864Z</time></trkpt><trkpt lat="37.0760571" lon="15.2938558"><ele>21.0</ele><time>2026-04-04T17:51:15.041Z</time></trkpt><trkpt lat="37.0761918" lon="15.2939842"><ele>21.0</ele><time>2026-04-04T17:52:16.226Z</time></trkpt><trkpt lat="37.0760412" lon="15.2939979"><ele>21.0</ele><time>2026-04-04T17:52:44.226Z</time></trkpt><trkpt lat="37.0761631" lon="15.2940135"><ele>21.0</ele><time>2026-04-04T17:53:06.977Z</time></trkpt><trkpt lat="37.076097" lon="15.2940313"><ele>21.0</ele><time>2026-04-04T17:53:10.977Z</time></trkpt><trkpt lat="37.0760023" lon="15.293878"><ele>21.0</ele><time>2026-04-04T17:53:34.168Z</time></trkpt><trkpt lat="37.0761166" lon="15.2938959"><ele>21.0</ele><time>2026-04-04T17:54:18.33Z</time></trkpt><trkpt lat="37.0761972" lon="15.2938716"><ele>21.0</ele><time>2026-04-04T17:58:29.471Z</time></trkpt><trkpt lat="37.0763078" lon="15.293847"><ele>21.0</ele><time>2026-04-04T17:58:38.582Z</time></trkpt><trkpt lat="37.0762517" lon="15.2938095"><ele>21.0</ele><time>2026-04-04T18:05:52.977Z</time></trkpt><trkpt lat="37.076309" lon="15.2938465"><ele>21.0</ele><time>2026-04-04T19:12:39.965Z</time></trkpt><trkpt lat="37.0762513" lon="15.2938116"><ele>21.0</ele><time>2026-04-04T19:18:18.965Z</time></trkpt><trkpt lat="37.0761837" lon="15.2937754"><ele>21.0</ele><time>2026-04-04T19:21:34.964Z</time></trkpt><trkpt lat="37.0762409" lon="15.2937399"><ele>21.0</ele><time>2026-04-04T19:24:34.964Z</time></trkpt><trkpt lat="37.0762295" lon="15.2938192"><ele>21.0</ele><time>2026-04-04T19:27:32.963Z</time></trkpt><trkpt lat="37.0759333" lon="15.2940119"><ele>22.0</ele><time>2026-04-04T19:37:41.069Z</time></trkpt><trkpt lat="37.0760053" lon="15.2940438"><ele>23.0</ele><time>2026-04-04T19:37:47.431Z</time></trkpt><trkpt lat="37.0763538" lon="15.2940709"><ele>24.0</ele><time>2026-04-04T19:37:53.788Z</time></trkpt><trkpt lat="37.0762158" lon="15.2940417"><ele>24.0</ele><time>2026-04-04T19:38:32.807Z</time></trkpt><trkpt lat="37.0761083" lon="15.2940319"><ele>24.0</ele><time>2026-04-04T19:38:46.205Z</time></trkpt><trkpt lat="37.0760533" lon="15.2939639"><ele>24.0</ele><time>2026-04-04T19:38:50.262Z</time></trkpt><trkpt lat="37.0760492" lon="15.2938792"><ele>24.0</ele><time>2026-04-04T19:39:14.205Z</time></trkpt><trkpt lat="37.0760533" lon="15.2938"><ele>24.0</ele><time>2026-04-04T19:39:20.224Z</time></trkpt><trkpt lat="37.0760239" lon="15.2937222"><ele>24.0</ele><time>2026-04-04T19:39:25.254Z</time></trkpt><trkpt lat="37.07591" lon="15.2936944"><ele>23.4</ele><time>2026-04-04T19:39:28.242Z</time></trkpt><trkpt lat="37.0758139" lon="15.293675"><ele>22.799999999999997</ele><time>2026-04-04T19:39:30.239Z</time></trkpt><trkpt lat="37.0757033" lon="15.2936525"><ele>22.200000000000003</ele><time>2026-04-04T19:39:32.258Z</time></trkpt><trkpt lat="37.0755922" lon="15.2936311"><ele>21.6</ele><time>2026-04-04T19:39:34.266Z</time></trkpt><trkpt lat="37.0755042" lon="15.2936133"><ele>21.0</ele><time>2026-04-04T19:39:36.176Z</time></trkpt><trkpt lat="37.0754247" lon="15.2935947"><ele>20.0</ele><time>2026-04-04T19:39:38.243Z</time></trkpt><trkpt lat="37.0753589" lon="15.2935278"><ele>19.0</ele><time>2026-04-04T19:39:41.174Z</time></trkpt><trkpt lat="37.07535" lon="15.2934117"><ele>18.0</ele><time>2026-04-04T19:39:44.168Z</time></trkpt><trkpt lat="37.0751574" lon="15.2929857"><ele>18.0</ele><time>2026-04-04T19:39:56.961Z</time></trkpt><trkpt lat="37.075113" lon="15.2928897"><ele>18.0</ele><time>2026-04-04T19:39:58.961Z</time></trkpt><trkpt lat="37.0750716" lon="15.2928111"><ele>18.0</ele><time>2026-04-04T19:40:00.961Z</time></trkpt><trkpt lat="37.0750592" lon="15.2927091"><ele>18.0</ele><time>2026-04-04T19:40:02.961Z</time></trkpt><trkpt lat="37.0750547" lon="15.2925752"><ele>18.0</ele><time>2026-04-04T19:40:04.961Z</time></trkpt><trkpt lat="37.0750529" lon="15.2924746"><ele>18.0</ele><time>2026-04-04T19:40:06.961Z</time></trkpt><trkpt lat="37.0750435" lon="15.2923808"><ele>18.0</ele><time>2026-04-04T19:40:09.961Z</time></trkpt><trkpt lat="37.0749559" lon="15.2923567"><ele>18.0</ele><time>2026-04-04T19:40:14.961Z</time></trkpt><trkpt lat="37.0748575" lon="15.2924015"><ele>18.0</ele><time>2026-04-04T19:40:16.961Z</time></trkpt><trkpt lat="37.074742" lon="15.2924575"><ele>18.0</ele><time>2026-04-04T19:40:18.961Z</time></trkpt><trkpt lat="37.074679" lon="15.2924817"><ele>18.0</ele><time>2026-04-04T19:40:19.961Z</time></trkpt><trkpt lat="37.0746121" lon="15.2925035"><ele>17.571428571428573</ele><time>2026-04-04T19:40:20.961Z</time></trkpt><trkpt lat="37.0745423" lon="15.2925275"><ele>17.142857142857142</ele><time>2026-04-04T19:40:21.961Z</time></trkpt><trkpt lat="37.0744706" lon="15.2925523"><ele>16.714285714285715</ele><time>2026-04-04T19:40:22.961Z</time></trkpt><trkpt lat="37.0743986" lon="15.2925793"><ele>16.285714285714285</ele><time>2026-04-04T19:40:23.961Z</time></trkpt><trkpt lat="37.074326" lon="15.2926084"><ele>15.857142857142858</ele><time>2026-04-04T19:40:24.961Z</time></trkpt><trkpt lat="37.0742535" lon="15.2926372"><ele>15.428571428571429</ele><time>2026-04-04T19:40:25.961Z</time></trkpt><trkpt lat="37.074182" lon="15.2926618"><ele>15.0</ele><time>2026-04-04T19:40:26.961Z</time></trkpt><trkpt lat="37.0741083" lon="15.2926894"><ele>14.666666666666666</ele><time>2026-04-04T19:40:27.961Z</time></trkpt><trkpt lat="37.0740377" lon="15.2927182"><ele>14.333333333333332</ele><time>2026-04-04T19:40:28.961Z</time></trkpt><trkpt lat="37.0739655" lon="15.2927481"><ele>14.0</ele><time>2026-04-04T19:40:29.961Z</time></trkpt><trkpt lat="37.0738916" lon="15.2927771"><ele>13.666666666666666</ele><time>2026-04-04T19:40:30.961Z</time></trkpt><trkpt lat="37.0738207" lon="15.2928047"><ele>13.333333333333332</ele><time>2026-04-04T19:40:31.961Z</time></trkpt><trkpt lat="37.0737497" lon="15.29283"><ele>13.0</ele><time>2026-04-04T19:40:32.961Z</time></trkpt><trkpt lat="37.0736761" lon="15.2928551"><ele>12.999999999999998</ele><time>2026-04-04T19:40:33.961Z</time></trkpt><trkpt lat="37.0736027" lon="15.2928806"><ele>13.0</ele><time>2026-04-04T19:40:34.961Z</time></trkpt><trkpt lat="37.0735281" lon="15.292908"><ele>13.0</ele><time>2026-04-04T19:40:35.961Z</time></trkpt><trkpt lat="37.0734549" lon="15.2929396"><ele>13.0</ele><time>2026-04-04T19:40:36.961Z</time></trkpt><trkpt lat="37.0733806" lon="15.2929729"><ele>12.999999999999998</ele><time>2026-04-04T19:40:37.961Z</time></trkpt><trkpt lat="37.0733071" lon="15.2930046"><ele>13.0</ele><time>2026-04-04T19:40:38.961Z</time></trkpt><trkpt lat="37.0732346" lon="15.2930355"><ele>12.833333333333332</ele><time>2026-04-04T19:40:39.961Z</time></trkpt><trkpt lat="37.0731596" lon="15.2930658"><ele>12.666666666666666</ele><time>2026-04-04T19:40:40.961Z</time></trkpt><trkpt lat="37.0730846" lon="15.2930946"><ele>12.5</ele><time>2026-04-04T19:40:41.961Z</time></trkpt><trkpt lat="37.0730112" lon="15.2931223"><ele>12.333333333333332</ele><time>2026-04-04T19:40:42.961Z</time></trkpt><trkpt lat="37.0729354" lon="15.2931526"><ele>12.166666666666666</ele><time>2026-04-04T19:40:43.961Z</time></trkpt><trkpt lat="37.0728593" lon="15.2931757"><ele>12.0</ele><time>2026-04-04T19:40:44.961Z</time></trkpt><trkpt lat="37.0727857" lon="15.2931992"><ele>12.0</ele><time>2026-04-04T19:40:45.961Z</time></trkpt><trkpt lat="37.0727143" lon="15.2932232"><ele>12.0</ele><time>2026-04-04T19:40:46.961Z</time></trkpt><trkpt lat="37.0726441" lon="15.2932475"><ele>12.0</ele><time>2026-04-04T19:40:47.961Z</time></trkpt><trkpt lat="37.0725778" lon="15.2932747"><ele>12.0</ele><time>2026-04-04T19:40:48.961Z</time></trkpt><trkpt lat="37.0725158" lon="15.2933015"><ele>12.0</ele><time>2026-04-04T19:40:49.961Z</time></trkpt><trkpt lat="37.0724142" lon="15.2933445"><ele>12.0</ele><time>2026-04-04T19:40:51.961Z</time></trkpt><trkpt lat="37.0723343" lon="15.2933779"><ele>11.666666666666666</ele><time>2026-04-04T19:40:53.961Z</time></trkpt><trkpt lat="37.0722556" lon="15.293379"><ele>11.333333333333334</ele><time>2026-04-04T19:40:55.961Z</time></trkpt><trkpt lat="37.0721801" lon="15.2933337"><ele>11.0</ele><time>2026-04-04T19:40:57.961Z</time></trkpt><trkpt lat="37.0721166" lon="15.2932867"><ele>10.666666666666668</ele><time>2026-04-04T19:40:59.961Z</time></trkpt><trkpt lat="37.072058" lon="15.2932248"><ele>10.333333333333334</ele><time>2026-04-04T19:41:01.961Z</time></trkpt><trkpt lat="37.0720298" lon="15.2931011"><ele>10.0</ele><time>2026-04-04T19:41:03.961Z</time></trkpt><trkpt lat="37.0720298" lon="15.2929768"><ele>10.0</ele><time>2026-04-04T19:41:05.961Z</time></trkpt><trkpt lat="37.072033" lon="15.2928786"><ele>10.0</ele><time>2026-04-04T19:41:08.961Z</time></trkpt><trkpt lat="37.0720225" lon="15.2927767"><ele>10.0</ele><time>2026-04-04T19:41:11.961Z</time></trkpt><trkpt lat="37.0720148" lon="15.2926299"><ele>10.0</ele><time>2026-04-04T19:41:13.961Z</time></trkpt><trkpt lat="37.0720078" lon="15.2925497"><ele>10.0</ele><time>2026-04-04T19:41:14.961Z</time></trkpt><trkpt lat="37.0719978" lon="15.2924659"><ele>10.0</ele><time>2026-04-04T19:41:15.961Z</time></trkpt><trkpt lat="37.0719868" lon="15.2923804"><ele>10.0</ele><time>2026-04-04T19:41:16.961Z</time></trkpt><trkpt lat="37.0719782" lon="15.2923006"><ele>10.0</ele><time>2026-04-04T19:41:17.961Z</time></trkpt><trkpt lat="37.0719608" lon="15.292161"><ele>10.0</ele><time>2026-04-04T19:41:19.961Z</time></trkpt><trkpt lat="37.0719478" lon="15.2920694"><ele>10.0</ele><time>2026-04-04T19:41:21.961Z</time></trkpt><trkpt lat="37.0718863" lon="15.2919985"><ele>10.0</ele><time>2026-04-04T19:41:25.961Z</time></trkpt><trkpt lat="37.0718016" lon="15.2920022"><ele>10.0</ele><time>2026-04-04T19:41:27.961Z</time></trkpt><trkpt lat="37.0717156" lon="15.292002"><ele>9.833333333333334</ele><time>2026-04-04T19:41:29.961Z</time></trkpt><trkpt lat="37.0716212" lon="15.2920328"><ele>9.666666666666668</ele><time>2026-04-04T19:41:31.961Z</time></trkpt><trkpt lat="37.0715014" lon="15.2920669"><ele>9.5</ele><time>2026-04-04T19:41:33.961Z</time></trkpt><trkpt lat="37.0714338" lon="15.2920741"><ele>9.333333333333334</ele><time>2026-04-04T19:41:34.961Z</time></trkpt><trkpt lat="37.0713628" lon="15.2920833"><ele>9.166666666666666</ele><time>2026-04-04T19:41:35.961Z</time></trkpt><trkpt lat="37.0712977" lon="15.2920926"><ele>9.0</ele><time>2026-04-04T19:41:36.961Z</time></trkpt><trkpt lat="37.0712328" lon="15.2921068"><ele>9.0</ele><time>2026-04-04T19:41:37.961Z</time></trkpt><trkpt lat="37.0711665" lon="15.2921191"><ele>9.0</ele><time>2026-04-04T19:41:38.961Z</time></trkpt><trkpt lat="37.0710517" lon="15.2921413"><ele>9.0</ele><time>2026-04-04T19:41:40.961Z</time></trkpt><trkpt lat="37.0709688" lon="15.2921581"><ele>9.0</ele><time>2026-04-04T19:41:42.961Z</time></trkpt><trkpt lat="37.0709089" lon="15.2921189"><ele>9.0</ele><time>2026-04-04T19:41:44.961Z</time></trkpt><trkpt lat="37.0708462" lon="15.2920083"><ele>9.0</ele><time>2026-04-04T19:41:46.961Z</time></trkpt><trkpt lat="37.0708112" lon="15.2919402"><ele>8.666666666666666</ele><time>2026-04-04T19:41:47.961Z</time></trkpt><trkpt lat="37.0707326" lon="15.2918055"><ele>8.333333333333334</ele><time>2026-04-04T19:41:49.961Z</time></trkpt><trkpt lat="37.070687" lon="15.2917267"><ele>8.0</ele><time>2026-04-04T19:41:50.961Z</time></trkpt><trkpt lat="37.0706403" lon="15.2916463"><ele>7.666666666666667</ele><time>2026-04-04T19:41:51.961Z</time></trkpt><trkpt lat="37.0705934" lon="15.2915692"><ele>7.333333333333334</ele><time>2026-04-04T19:41:52.961Z</time></trkpt><trkpt lat="37.0705406" lon="15.2914917"><ele>7.0</ele><time>2026-04-04T19:41:53.961Z</time></trkpt><trkpt lat="37.0704881" lon="15.2914138"><ele>7.833333333333334</ele><time>2026-04-04T19:41:54.961Z</time></trkpt><trkpt lat="37.0704423" lon="15.2913299"><ele>8.666666666666668</ele><time>2026-04-04T19:41:55.961Z</time></trkpt><trkpt lat="37.0703944" lon="15.2912448"><ele>9.5</ele><time>2026-04-04T19:41:56.961Z</time></trkpt><trkpt lat="37.0703444" lon="15.2911623"><ele>10.333333333333334</ele><time>2026-04-04T19:41:57.961Z</time></trkpt><trkpt lat="37.0703004" lon="15.2910824"><ele>11.166666666666666</ele><time>2026-04-04T19:41:58.961Z</time></trkpt><trkpt lat="37.0702533" lon="15.2910123"><ele>12.0</ele><time>2026-04-04T19:41:59.961Z</time></trkpt><trkpt lat="37.0702099" lon="15.2909438"><ele>12.0</ele><time>2026-04-04T19:42:00.961Z</time></trkpt><trkpt lat="37.0701276" lon="15.290829"><ele>12.0</ele><time>2026-04-04T19:42:02.961Z</time></trkpt><trkpt lat="37.0700765" lon="15.2907823"><ele>12.0</ele><time>2026-04-04T19:42:03.961Z</time></trkpt><trkpt lat="37.0700245" lon="15.2907313"><ele>12.0</ele><time>2026-04-04T19:42:04.961Z</time></trkpt><trkpt lat="37.0699484" lon="15.2906151"><ele>12.0</ele><time>2026-04-04T19:42:06.961Z</time></trkpt><trkpt lat="37.0698938" lon="15.2904928"><ele>11.2</ele><time>2026-04-04T19:42:08.961Z</time></trkpt><trkpt lat="37.0698429" lon="15.2903951"><ele>10.399999999999999</ele><time>2026-04-04T19:42:10.961Z</time></trkpt><trkpt lat="37.0697643" lon="15.29036"><ele>9.600000000000001</ele><time>2026-04-04T19:42:12.961Z</time></trkpt><trkpt lat="37.0696698" lon="15.290374"><ele>8.8</ele><time>2026-04-04T19:42:14.961Z</time></trkpt><trkpt lat="37.0695675" lon="15.2904039"><ele>8.0</ele><time>2026-04-04T19:42:16.961Z</time></trkpt><trkpt lat="37.0694622" lon="15.2903814"><ele>8.0</ele><time>2026-04-04T19:42:18.961Z</time></trkpt><trkpt lat="37.0693821" lon="15.2903091"><ele>8.0</ele><time>2026-04-04T19:42:20.961Z</time></trkpt><trkpt lat="37.0693317" lon="15.2902439"><ele>8.0</ele><time>2026-04-04T19:42:24.961Z</time></trkpt><trkpt lat="37.069264" lon="15.2901423"><ele>8.0</ele><time>2026-04-04T19:42:27.961Z</time></trkpt><trkpt lat="37.0691924" lon="15.2900245"><ele>8.0</ele><time>2026-04-04T19:42:29.961Z</time></trkpt><trkpt lat="37.0691521" lon="15.2899571"><ele>8.0</ele><time>2026-04-04T19:42:30.961Z</time></trkpt><trkpt lat="37.0691106" lon="15.2898822"><ele>7.999999999999999</ele><time>2026-04-04T19:42:31.961Z</time></trkpt><trkpt lat="37.0690755" lon="15.2898166"><ele>8.0</ele><time>2026-04-04T19:42:32.961Z</time></trkpt><trkpt lat="37.0690416" lon="15.2897484"><ele>8.0</ele><time>2026-04-04T19:42:33.961Z</time></trkpt><trkpt lat="37.0690101" lon="15.2896792"><ele>7.999999999999999</ele><time>2026-04-04T19:42:34.961Z</time></trkpt><trkpt lat="37.0689797" lon="15.2896082"><ele>8.0</ele><time>2026-04-04T19:42:35.961Z</time></trkpt><trkpt lat="37.0689493" lon="15.2895352"><ele>8.0</ele><time>2026-04-04T19:42:36.961Z</time></trkpt><trkpt lat="37.0689155" lon="15.2894567"><ele>8.0</ele><time>2026-04-04T19:42:37.961Z</time></trkpt><trkpt lat="37.0688837" lon="15.289374"><ele>7.999999999999999</ele><time>2026-04-04T19:42:38.961Z</time></trkpt><trkpt lat="37.0688487" lon="15.2892926"><ele>8.0</ele><time>2026-04-04T19:42:39.961Z</time></trkpt><trkpt lat="37.0688153" lon="15.2892078"><ele>8.0</ele><time>2026-04-04T19:42:40.961Z</time></trkpt><trkpt lat="37.0687802" lon="15.289124"><ele>7.999999999999999</ele><time>2026-04-04T19:42:41.961Z</time></trkpt><trkpt lat="37.0687447" lon="15.2890445"><ele>8.0</ele><time>2026-04-04T19:42:42.961Z</time></trkpt><trkpt lat="37.0687101" lon="15.2889605"><ele>8.0</ele><time>2026-04-04T19:42:43.961Z</time></trkpt><trkpt lat="37.0686785" lon="15.2888762"><ele>7.7142857142857135</ele><time>2026-04-04T19:42:44.961Z</time></trkpt><trkpt lat="37.0686504" lon="15.2887947"><ele>7.428571428571428</ele><time>2026-04-04T19:42:45.961Z</time></trkpt><trkpt lat="37.0686183" lon="15.2887117"><ele>7.142857142857142</ele><time>2026-04-04T19:42:46.961Z</time></trkpt><trkpt lat="37.0685908" lon="15.2886267"><ele>6.857142857142857</ele><time>2026-04-04T19:42:47.961Z</time></trkpt><trkpt lat="37.0685591" lon="15.2885491"><ele>6.571428571428571</ele><time>2026-04-04T19:42:48.961Z</time></trkpt><trkpt lat="37.0685232" lon="15.2884684"><ele>6.285714285714285</ele><time>2026-04-04T19:42:49.961Z</time></trkpt><trkpt lat="37.068487" lon="15.2883929"><ele>6.0</ele><time>2026-04-04T19:42:50.961Z</time></trkpt><trkpt lat="37.0684552" lon="15.2883143"><ele>6.0</ele><time>2026-04-04T19:42:51.961Z</time></trkpt><trkpt lat="37.0684239" lon="15.2882347"><ele>6.0</ele><time>2026-04-04T19:42:52.961Z</time></trkpt><trkpt lat="37.0683946" lon="15.2881566"><ele>6.0</ele><time>2026-04-04T19:42:53.961Z</time></trkpt><trkpt lat="37.0683687" lon="15.2880796"><ele>6.0</ele><time>2026-04-04T19:42:54.961Z</time></trkpt><trkpt lat="37.0683322" lon="15.2879593"><ele>6.0</ele><time>2026-04-04T19:42:56.961Z</time></trkpt><trkpt lat="37.07535" lon="15.2934117"><ele>8.0</ele><time>2026-04-04T19:43:02.262Z</time></trkpt><trkpt lat="37.0680995" lon="15.2873969"><ele>7.0</ele><time>2026-04-04T19:43:17.495Z</time></trkpt><trkpt lat="37.0677726" lon="15.2864751"><ele>7.428571428571429</ele><time>2026-04-04T19:43:23.868Z</time></trkpt><trkpt lat="37.0676975" lon="15.2863975"><ele>7.857142857142858</ele><time>2026-04-04T19:43:24.953Z</time></trkpt><trkpt lat="37.0676724" lon="15.2863129"><ele>8.285714285714285</ele><time>2026-04-04T19:43:25.953Z</time></trkpt><trkpt lat="37.067635" lon="15.2862453"><ele>8.714285714285715</ele><time>2026-04-04T19:43:26.953Z</time></trkpt><trkpt lat="37.0676088" lon="15.286163"><ele>9.142857142857142</ele><time>2026-04-04T19:43:27.953Z</time></trkpt><trkpt lat="37.0675792" lon="15.2860791"><ele>9.571428571428571</ele><time>2026-04-04T19:43:28.953Z</time></trkpt><trkpt lat="37.0675478" lon="15.2860004"><ele>10.0</ele><time>2026-04-04T19:43:29.953Z</time></trkpt><trkpt lat="37.0675158" lon="15.2859247"><ele>10.0</ele><time>2026-04-04T19:43:30.953Z</time></trkpt><trkpt lat="37.0674894" lon="15.2858502"><ele>10.0</ele><time>2026-04-04T19:43:31.953Z</time></trkpt><trkpt lat="37.0674577" lon="15.2857793"><ele>10.0</ele><time>2026-04-04T19:43:32.953Z</time></trkpt><trkpt lat="37.067416" lon="15.2856381"><ele>10.0</ele><time>2026-04-04T19:43:34.953Z</time></trkpt><trkpt lat="37.0674171" lon="15.2855036"><ele>10.0</ele><time>2026-04-04T19:43:36.953Z</time></trkpt><trkpt lat="37.0674644" lon="15.2853874"><ele>10.0</ele><time>2026-04-04T19:43:38.953Z</time></trkpt><trkpt lat="37.0675425" lon="15.2853071"><ele>10.0</ele><time>2026-04-04T19:43:40.953Z</time></trkpt><trkpt lat="37.067639" lon="15.2852319"><ele>10.0</ele><time>2026-04-04T19:43:42.953Z</time></trkpt><trkpt lat="37.0676948" lon="15.2851936"><ele>10.0</ele><time>2026-04-04T19:43:43.953Z</time></trkpt><trkpt lat="37.0678049" lon="15.2851185"><ele>10.0</ele><time>2026-04-04T19:43:45.953Z</time></trkpt><trkpt lat="37.0678699" lon="15.2850762"><ele>10.0</ele><time>2026-04-04T19:43:46.953Z</time></trkpt><trkpt lat="37.0679259" lon="15.2850348"><ele>10.0</ele><time>2026-04-04T19:43:47.953Z</time></trkpt><trkpt lat="37.0679844" lon="15.2850033"><ele>10.0</ele><time>2026-04-04T19:43:48.953Z</time></trkpt><trkpt lat="37.068068" lon="15.2849301"><ele>10.0</ele><time>2026-04-04T19:43:50.953Z</time></trkpt><trkpt lat="37.0680831" lon="15.2848246"><ele>10.0</ele><time>2026-04-04T19:43:53.953Z</time></trkpt><trkpt lat="37.0680185" lon="15.2847658"><ele>10.0</ele><time>2026-04-04T19:43:55.953Z</time></trkpt><trkpt lat="37.0679053" lon="15.2847053"><ele>10.142857142857142</ele><time>2026-04-04T19:43:57.953Z</time></trkpt><trkpt lat="37.0678408" lon="15.2846721"><ele>10.285714285714286</ele><time>2026-04-04T19:43:58.953Z</time></trkpt><trkpt lat="37.067776" lon="15.2846368"><ele>10.428571428571429</ele><time>2026-04-04T19:43:59.953Z</time></trkpt><trkpt lat="37.0677121" lon="15.2846014"><ele>10.571428571428571</ele><time>2026-04-04T19:44:00.953Z</time></trkpt><trkpt lat="37.0676433" lon="15.2845618"><ele>10.714285714285714</ele><time>2026-04-04T19:44:01.953Z</time></trkpt><trkpt lat="37.0675763" lon="15.2845181"><ele>10.857142857142858</ele><time>2026-04-04T19:44:02.953Z</time></trkpt><trkpt lat="37.0675109" lon="15.2844747"><ele>11.0</ele><time>2026-04-04T19:44:03.953Z</time></trkpt><trkpt lat="37.0674425" lon="15.2844284"><ele>11.0</ele><time>2026-04-04T19:44:04.953Z</time></trkpt><trkpt lat="37.06737" lon="15.2843828"><ele>11.0</ele><time>2026-04-04T19:44:05.953Z</time></trkpt><trkpt lat="37.0673004" lon="15.2843352"><ele>11.0</ele><time>2026-04-04T19:44:06.953Z</time></trkpt><trkpt lat="37.0672326" lon="15.2842902"><ele>11.0</ele><time>2026-04-04T19:44:07.953Z</time></trkpt><trkpt lat="37.067169" lon="15.2842489"><ele>11.0</ele><time>2026-04-04T19:44:08.953Z</time></trkpt><trkpt lat="37.0671056" lon="15.2842124"><ele>11.0</ele><time>2026-04-04T19:44:09.953Z</time></trkpt><trkpt lat="37.0670482" lon="15.2841799"><ele>11.0</ele><time>2026-04-04T19:44:10.953Z</time></trkpt><trkpt lat="37.0669454" lon="15.284117"><ele>11.0</ele><time>2026-04-04T19:44:12.953Z</time></trkpt><trkpt lat="37.0668537" lon="15.2840549"><ele>11.0</ele><time>2026-04-04T19:44:14.953Z</time></trkpt><trkpt lat="37.0667634" lon="15.2839928"><ele>11.0</ele><time>2026-04-04T19:44:16.953Z</time></trkpt><trkpt lat="37.066743" lon="15.283881"><ele>11.0</ele><time>2026-04-04T19:44:18.953Z</time></trkpt><trkpt lat="37.0666753" lon="15.2837726"><ele>11.0</ele><time>2026-04-04T19:44:20.953Z</time></trkpt><trkpt lat="37.0665973" lon="15.2836853"><ele>10.600000000000001</ele><time>2026-04-04T19:44:22.953Z</time></trkpt><trkpt lat="37.0665256" lon="15.2835878"><ele>10.200000000000001</ele><time>2026-04-04T19:44:24.953Z</time></trkpt><trkpt lat="37.0664918" lon="15.2834718"><ele>9.8</ele><time>2026-04-04T19:44:26.953Z</time></trkpt><trkpt lat="37.0664946" lon="15.2833583"><ele>9.4</ele><time>2026-04-04T19:44:28.953Z</time></trkpt><trkpt lat="37.0665171" lon="15.2832033"><ele>9.0</ele><time>2026-04-04T19:44:30.953Z</time></trkpt><trkpt lat="37.0665331" lon="15.2831179"><ele>9.142857142857144</ele><time>2026-04-04T19:44:31.953Z</time></trkpt><trkpt lat="37.066545" lon="15.2830317"><ele>9.285714285714286</ele><time>2026-04-04T19:44:32.953Z</time></trkpt><trkpt lat="37.0665633" lon="15.2829412"><ele>9.428571428571429</ele><time>2026-04-04T19:44:33.953Z</time></trkpt><trkpt lat="37.0665727" lon="15.2828548"><ele>9.571428571428573</ele><time>2026-04-04T19:44:34.953Z</time></trkpt><trkpt lat="37.0665836" lon="15.2827677"><ele>9.714285714285715</ele><time>2026-04-04T19:44:35.953Z</time></trkpt><trkpt lat="37.0665939" lon="15.2826814"><ele>9.857142857142858</ele><time>2026-04-04T19:44:36.953Z</time></trkpt><trkpt lat="37.0666059" lon="15.2825981"><ele>10.0</ele><time>2026-04-04T19:44:37.953Z</time></trkpt><trkpt lat="37.0666158" lon="15.2825143"><ele>10.0</ele><time>2026-04-04T19:44:38.953Z</time></trkpt><trkpt lat="37.0666332" lon="15.2823764"><ele>10.0</ele><time>2026-04-04T19:44:40.953Z</time></trkpt><trkpt lat="37.0666445" lon="15.2822503"><ele>10.0</ele><time>2026-04-04T19:44:42.953Z</time></trkpt><trkpt lat="37.0666072" lon="15.2821681"><ele>10.0</ele><time>2026-04-04T19:44:44.953Z</time></trkpt><trkpt lat="37.0665338" lon="15.2821541"><ele>10.0</ele><time>2026-04-04T19:44:46.953Z</time></trkpt><trkpt lat="37.0664689" lon="15.2822068"><ele>10.0</ele><time>2026-04-04T19:44:48.953Z</time></trkpt><trkpt lat="37.066404" lon="15.2823162"><ele>9.4</ele><time>2026-04-04T19:44:50.953Z</time></trkpt><trkpt lat="37.0663616" lon="15.2823813"><ele>8.8</ele><time>2026-04-04T19:44:51.953Z</time></trkpt><trkpt lat="37.0662943" lon="15.2824886"><ele>8.2</ele><time>2026-04-04T19:44:53.953Z</time></trkpt><trkpt lat="37.066225" lon="15.2826102"><ele>7.6</ele><time>2026-04-04T19:44:55.953Z</time></trkpt><trkpt lat="37.0661597" lon="15.2827224"><ele>7.0</ele><time>2026-04-04T19:44:57.953Z</time></trkpt><trkpt lat="37.066096" lon="15.2828348"><ele>7.0</ele><time>2026-04-04T19:44:59.953Z</time></trkpt><trkpt lat="37.0660299" lon="15.2829586"><ele>6.999999999999999</ele><time>2026-04-04T19:45:01.953Z</time></trkpt><trkpt lat="37.06597" lon="15.2830623"><ele>6.999999999999999</ele><time>2026-04-04T19:45:03.953Z</time></trkpt><trkpt lat="37.0659051" lon="15.2831663"><ele>7.0</ele><time>2026-04-04T19:45:05.953Z</time></trkpt><trkpt lat="37.0658386" lon="15.2832521"><ele>7.0</ele><time>2026-04-04T19:45:07.953Z</time></trkpt><trkpt lat="37.065752" lon="15.2833576"><ele>6.6</ele><time>2026-04-04T19:45:09.953Z</time></trkpt><trkpt lat="37.065683" lon="15.2834629"><ele>6.199999999999999</ele><time>2026-04-04T19:45:11.953Z</time></trkpt><trkpt lat="37.0656075" lon="15.2835438"><ele>5.8</ele><time>2026-04-04T19:45:13.953Z</time></trkpt><trkpt lat="37.065529" lon="15.2835849"><ele>5.4</ele><time>2026-04-04T19:45:15.953Z</time></trkpt><trkpt lat="37.0654522" lon="15.2835389"><ele>5.0</ele><time>2026-04-04T19:45:48.953Z</time></trkpt><trkpt lat="37.0653743" lon="15.2835165"><ele>5.0</ele><time>2026-04-04T19:45:50.953Z</time></trkpt><trkpt lat="37.0653025" lon="15.2834763"><ele>5.0</ele><time>2026-04-04T19:45:52.953Z</time></trkpt><trkpt lat="37.0652498" lon="15.2834221"><ele>5.0</ele><time>2026-04-04T19:45:54.953Z</time></trkpt><trkpt lat="37.0652319" lon="15.2833455"><ele>5.0</ele><time>2026-04-04T19:45:56.953Z</time></trkpt><trkpt lat="37.0652545" lon="15.2832373"><ele>5.0</ele><time>2026-04-04T19:45:58.953Z</time></trkpt><trkpt lat="37.0652977" lon="15.283127"><ele>5.0</ele><time>2026-04-04T19:46:00.953Z</time></trkpt><trkpt lat="37.0653249" lon="15.2830305"><ele>4.833333333333334</ele><time>2026-04-04T19:46:02.953Z</time></trkpt><trkpt lat="37.0653496" lon="15.2829444"><ele>4.666666666666667</ele><time>2026-04-04T19:46:04.953Z</time></trkpt><trkpt lat="37.0653629" lon="15.282854"><ele>4.5</ele><time>2026-04-04T19:46:06.953Z</time></trkpt><trkpt lat="37.0653792" lon="15.2827563"><ele>4.333333333333333</ele><time>2026-04-04T19:46:08.953Z</time></trkpt><trkpt lat="37.065402" lon="15.2826652"><ele>4.166666666666666</ele><time>2026-04-04T19:46:10.953Z</time></trkpt><trkpt lat="37.0654233" lon="15.2825786"><ele>4.0</ele><time>2026-04-04T19:46:12.953Z</time></trkpt><trkpt lat="37.0654521" lon="15.2824803"><ele>3.9999999999999996</ele><time>2026-04-04T19:46:14.953Z</time></trkpt><trkpt lat="37.0654726" lon="15.2823776"><ele>4.0</ele><time>2026-04-04T19:46:16.953Z</time></trkpt><trkpt lat="37.0654918" lon="15.2822665"><ele>4.0</ele><time>2026-04-04T19:46:18.953Z</time></trkpt><trkpt lat="37.0655178" lon="15.2821571"><ele>4.0</ele><time>2026-04-04T19:46:20.953Z</time></trkpt><trkpt lat="37.0655436" lon="15.2820774"><ele>3.9999999999999996</ele><time>2026-04-04T19:46:22.953Z</time></trkpt><trkpt lat="37.0655578" lon="15.2819943"><ele>4.0</ele><time>2026-04-04T19:46:25.953Z</time></trkpt><trkpt lat="37.0655003" lon="15.2819559"><ele>4.0</ele><time>2026-04-04T19:46:30.953Z</time></trkpt><trkpt lat="37.065537" lon="15.2820341"><ele>4.0</ele><time>2026-04-04T19:46:41.953Z</time></trkpt><trkpt lat="37.065528" lon="15.2821415"><ele>4.0</ele><time>2026-04-04T19:46:43.953Z</time></trkpt><trkpt lat="37.0654902" lon="15.2822765"><ele>4.0</ele><time>2026-04-04T19:46:45.953Z</time></trkpt><trkpt lat="37.0654572" lon="15.2824117"><ele>4.0</ele><time>2026-04-04T19:46:47.953Z</time></trkpt><trkpt lat="37.065427" lon="15.2825301"><ele>3.9999999999999996</ele><time>2026-04-04T19:46:49.953Z</time></trkpt><trkpt lat="37.0653948" lon="15.2826464"><ele>4.0</ele><time>2026-04-04T19:46:51.953Z</time></trkpt><trkpt lat="37.0653715" lon="15.2827729"><ele>4.0</ele><time>2026-04-04T19:46:53.953Z</time></trkpt><trkpt lat="37.0653617" lon="15.282865"><ele>4.0</ele><time>2026-04-04T19:46:55.953Z</time></trkpt><trkpt lat="37.0653454" lon="15.282951"><ele>3.9999999999999996</ele><time>2026-04-04T19:46:59.953Z</time></trkpt><trkpt lat="37.0653198" lon="15.2830294"><ele>4.0</ele><time>2026-04-04T19:47:03.953Z</time></trkpt><trkpt lat="37.0653012" lon="15.2831083"><ele>4.25</ele><time>2026-04-04T19:47:08.953Z</time></trkpt><trkpt lat="37.0652738" lon="15.2831811"><ele>4.5</ele><time>2026-04-04T19:48:31.953Z</time></trkpt><trkpt lat="37.0652782" lon="15.2833572"><ele>4.75</ele><time>2026-04-04T19:49:58.352Z</time></trkpt><trkpt lat="37.0651918" lon="15.2834844"><ele>5.0</ele><time>2026-04-04T19:50:03.963Z</time></trkpt><trkpt lat="37.0653302" lon="15.2832877"><ele>5.0</ele><time>2026-04-04T19:50:27.447Z</time></trkpt><trkpt lat="37.065361" lon="15.2831638"><ele>5.0</ele><time>2026-04-04T19:50:44.953Z</time></trkpt><trkpt lat="37.0653704" lon="15.2827707"><ele>5.0</ele><time>2026-04-04T19:50:54.152Z</time></trkpt><trkpt lat="37.0653519" lon="15.2829004"><ele>5.0</ele><time>2026-04-04T19:51:26.96Z</time></trkpt><trkpt lat="37.0653288" lon="15.2829743"><ele>5.0</ele><time>2026-04-04T19:52:18.96Z</time></trkpt><trkpt lat="37.0652967" lon="15.2830591"><ele>5.0</ele><time>2026-04-04T19:52:28.007Z</time></trkpt><trkpt lat="37.0652832" lon="15.2831432"><ele>5.0</ele><time>2026-04-04T19:52:37.96Z</time></trkpt><trkpt lat="37.0652612" lon="15.2832264"><ele>5.0</ele><time>2026-04-04T19:52:43.894Z</time></trkpt><trkpt lat="37.0652798" lon="15.2833174"><ele>5.0</ele><time>2026-04-04T19:53:25.752Z</time></trkpt><trkpt lat="37.0652702" lon="15.283417"><ele>5.0</ele><time>2026-04-04T19:53:34.493Z</time></trkpt><trkpt lat="37.0654072" lon="15.283494"><ele>5.0</ele><time>2026-04-04T19:53:47.844Z</time></trkpt><trkpt lat="37.0653178" lon="15.283562"><ele>5.0</ele><time>2026-04-04T19:53:53.425Z</time></trkpt></trkseg></trk></gpx>